<?xml version="1.0" encoding="UTF-8" standalone="no" ?>
<gpx xmlns="http://www.topografix.com/GPX/1/1" xmlns:xsi="http://www.w3.org/2001/XMLSchema-instance" xsi:schemaLocation="http://www.topografix.com/GPX/1/1 http://www.topografix.com/GPX/1/1/gpx.xsd" version="1.1" creator="VisuGPX - https://www.visugpx.com">
  <metadata>
    <name>Rallye de l\'Ain à Cheval -Etape 2</name>
    <desc><![CDATA[Ile de St Benoit - Innimont ]]></desc>
  </metadata>
  <trk>
    <name><![CDATA[Rallye de l\'Ain à Cheval -Etape 2_1]]></name>
    <trkseg>
      <trkpt lat="45.68465" lon="5.55187">
        <ele>188.4</ele>
        <time>2015-05-15T10:21:21Z</time>
      </trkpt>
      <trkpt lat="45.68468" lon="5.55176">
        <ele>188.4</ele>
        <time>2015-05-15T10:21:26Z</time>
      </trkpt>
      <trkpt lat="45.68469" lon="5.55165">
        <ele>194.60304317462</ele>
        <time>2015-05-15T10:21:31Z</time>
      </trkpt>
      <trkpt lat="45.68471" lon="5.55167">
        <ele>194.60304317462</ele>
        <time>2015-05-15T10:21:36Z</time>
      </trkpt>
      <trkpt lat="45.68472" lon="5.55168">
        <ele>194.60304317462</ele>
        <time>2015-05-15T10:21:41Z</time>
      </trkpt>
      <trkpt lat="45.68472" lon="5.55167">
        <ele>194.60304317462</ele>
        <time>2015-05-15T10:21:46Z</time>
      </trkpt>
      <trkpt lat="45.68473" lon="5.55166">
        <ele>194.60304317462</ele>
        <time>2015-05-15T10:21:51Z</time>
      </trkpt>
      <trkpt lat="45.68473" lon="5.55166">
        <ele>194.60304317462</ele>
        <time>2015-05-15T10:21:56Z</time>
      </trkpt>
      <trkpt lat="45.68473" lon="5.55166">
        <ele>194.60304317462</ele>
        <time>2015-05-15T10:22:01Z</time>
      </trkpt>
      <trkpt lat="45.68473" lon="5.55166">
        <ele>194.60304317462</ele>
        <time>2015-05-15T10:22:06Z</time>
      </trkpt>
      <trkpt lat="45.68473" lon="5.55166">
        <ele>194.60304317462</ele>
        <time>2015-05-15T10:22:11Z</time>
      </trkpt>
      <trkpt lat="45.68473" lon="5.55166">
        <ele>194.60304317462</ele>
        <time>2015-05-15T10:22:16Z</time>
      </trkpt>
      <trkpt lat="45.68473" lon="5.55166">
        <ele>194.60304317462</ele>
        <time>2015-05-15T10:22:21Z</time>
      </trkpt>
      <trkpt lat="45.68473" lon="5.55167">
        <ele>194.60304317462</ele>
        <time>2015-05-15T10:22:26Z</time>
      </trkpt>
      <trkpt lat="45.68473" lon="5.55165">
        <ele>194.60304317462</ele>
        <time>2015-05-15T10:22:31Z</time>
      </trkpt>
      <trkpt lat="45.68473" lon="5.55168">
        <ele>198.14348724305</ele>
        <time>2015-05-15T10:22:36Z</time>
      </trkpt>
      <trkpt lat="45.68473" lon="5.55168">
        <ele>198.14348724305</ele>
        <time>2015-05-15T10:22:41Z</time>
      </trkpt>
      <trkpt lat="45.68473" lon="5.55168">
        <ele>198.14348724305</ele>
        <time>2015-05-15T10:22:46Z</time>
      </trkpt>
      <trkpt lat="45.68473" lon="5.55168">
        <ele>198.14348724305</ele>
        <time>2015-05-15T10:22:51Z</time>
      </trkpt>
      <trkpt lat="45.68473" lon="5.55168">
        <ele>198.14348724305</ele>
        <time>2015-05-15T10:22:56Z</time>
      </trkpt>
      <trkpt lat="45.68473" lon="5.55167">
        <ele>198.14348724305</ele>
        <time>2015-05-15T10:23:01Z</time>
      </trkpt>
      <trkpt lat="45.68473" lon="5.55167">
        <ele>198.14348724305</ele>
        <time>2015-05-15T10:23:06Z</time>
      </trkpt>
      <trkpt lat="45.68474" lon="5.55169">
        <ele>198.14348724305</ele>
        <time>2015-05-15T10:23:11Z</time>
      </trkpt>
      <trkpt lat="45.68474" lon="5.55167">
        <ele>198.14348724305</ele>
        <time>2015-05-15T10:23:16Z</time>
      </trkpt>
      <trkpt lat="45.68473" lon="5.55166">
        <ele>198.14348724305</ele>
        <time>2015-05-15T10:23:21Z</time>
      </trkpt>
      <trkpt lat="45.68473" lon="5.55166">
        <ele>198.14348724305</ele>
        <time>2015-05-15T10:23:26Z</time>
      </trkpt>
      <trkpt lat="45.68474" lon="5.55166">
        <ele>198.14348724305</ele>
        <time>2015-05-15T10:23:31Z</time>
      </trkpt>
      <trkpt lat="45.68474" lon="5.55166">
        <ele>198.14348724305</ele>
        <time>2015-05-15T10:23:36Z</time>
      </trkpt>
      <trkpt lat="45.68474" lon="5.55166">
        <ele>198.14348724305</ele>
        <time>2015-05-15T10:23:41Z</time>
      </trkpt>
      <trkpt lat="45.68474" lon="5.55166">
        <ele>198.14348724305</ele>
        <time>2015-05-15T10:23:46Z</time>
      </trkpt>
      <trkpt lat="45.68474" lon="5.55166">
        <ele>198.14348724305</ele>
        <time>2015-05-15T10:23:51Z</time>
      </trkpt>
      <trkpt lat="45.68477" lon="5.55166">
        <ele>198.14348724305</ele>
        <time>2015-05-15T10:23:56Z</time>
      </trkpt>
      <trkpt lat="45.68483" lon="5.55164">
        <ele>200.35671300056</ele>
        <time>2015-05-15T10:24:01Z</time>
      </trkpt>
      <trkpt lat="45.68484" lon="5.55161">
        <ele>200.35671300056</ele>
        <time>2015-05-15T10:24:06Z</time>
      </trkpt>
      <trkpt lat="45.68489" lon="5.55158">
        <ele>200.35671300056</ele>
        <time>2015-05-15T10:24:11Z</time>
      </trkpt>
      <trkpt lat="45.68495" lon="5.55158">
        <ele>201.61539439303</ele>
        <time>2015-05-15T10:24:16Z</time>
      </trkpt>
      <trkpt lat="45.68499" lon="5.55161">
        <ele>201.61539439303</ele>
        <time>2015-05-15T10:24:21Z</time>
      </trkpt>
      <trkpt lat="45.68504" lon="5.55165">
        <ele>202.21947646883</ele>
        <time>2015-05-15T10:24:26Z</time>
      </trkpt>
      <trkpt lat="45.68503" lon="5.55174">
        <ele>202.21947646883</ele>
        <time>2015-05-15T10:24:31Z</time>
      </trkpt>
      <trkpt lat="45.68498" lon="5.55183">
        <ele>203.13869418373</ele>
        <time>2015-05-15T10:24:36Z</time>
      </trkpt>
      <trkpt lat="45.68493" lon="5.55189">
        <ele>203.13869418373</ele>
        <time>2015-05-15T10:24:41Z</time>
      </trkpt>
      <trkpt lat="45.68486" lon="5.55195">
        <ele>204.97131941918</ele>
        <time>2015-05-15T10:24:46Z</time>
      </trkpt>
      <trkpt lat="45.68481" lon="5.55201">
        <ele>204.97131941918</ele>
        <time>2015-05-15T10:24:51Z</time>
      </trkpt>
      <trkpt lat="45.68477" lon="5.55207">
        <ele>206.50511420675</ele>
        <time>2015-05-15T10:24:56Z</time>
      </trkpt>
      <trkpt lat="45.68473" lon="5.55213">
        <ele>206.50511420675</ele>
        <time>2015-05-15T10:25:01Z</time>
      </trkpt>
      <trkpt lat="45.68469" lon="5.5522">
        <ele>207.74716983315</ele>
        <time>2015-05-15T10:25:06Z</time>
      </trkpt>
      <trkpt lat="45.68465" lon="5.55227">
        <ele>207.74716983315</ele>
        <time>2015-05-15T10:25:11Z</time>
      </trkpt>
      <trkpt lat="45.6846" lon="5.55234">
        <ele>208.68958834173</ele>
        <time>2015-05-15T10:25:16Z</time>
      </trkpt>
      <trkpt lat="45.68456" lon="5.55241">
        <ele>208.68958834173</ele>
        <time>2015-05-15T10:25:21Z</time>
      </trkpt>
      <trkpt lat="45.68452" lon="5.55248">
        <ele>209.20612523541</ele>
        <time>2015-05-15T10:25:26Z</time>
      </trkpt>
      <trkpt lat="45.68447" lon="5.55255">
        <ele>209.20612523541</ele>
        <time>2015-05-15T10:25:31Z</time>
      </trkpt>
      <trkpt lat="45.68441" lon="5.55262">
        <ele>209.65184079065</ele>
        <time>2015-05-15T10:25:36Z</time>
      </trkpt>
      <trkpt lat="45.68436" lon="5.55269">
        <ele>209.65184079065</ele>
        <time>2015-05-15T10:25:41Z</time>
      </trkpt>
      <trkpt lat="45.68431" lon="5.55276">
        <ele>209.95750589146</ele>
        <time>2015-05-15T10:25:46Z</time>
      </trkpt>
      <trkpt lat="45.68424" lon="5.55284">
        <ele>209.95750589146</ele>
        <time>2015-05-15T10:25:51Z</time>
      </trkpt>
      <trkpt lat="45.68417" lon="5.55291">
        <ele>210.68007636413</ele>
        <time>2015-05-15T10:25:56Z</time>
      </trkpt>
      <trkpt lat="45.68414" lon="5.55299">
        <ele>210.68007636413</ele>
        <time>2015-05-15T10:26:01Z</time>
      </trkpt>
      <trkpt lat="45.68409" lon="5.55306">
        <ele>210.51146927391</ele>
        <time>2015-05-15T10:26:06Z</time>
      </trkpt>
      <trkpt lat="45.68407" lon="5.55309">
        <ele>210.51146927391</ele>
        <time>2015-05-15T10:26:11Z</time>
      </trkpt>
      <trkpt lat="45.68407" lon="5.55309">
        <ele>210.51146927391</ele>
        <time>2015-05-15T10:26:16Z</time>
      </trkpt>
      <trkpt lat="45.68407" lon="5.5531">
        <ele>210.51146927391</ele>
        <time>2015-05-15T10:26:21Z</time>
      </trkpt>
      <trkpt lat="45.68406" lon="5.5531">
        <ele>210.51146927391</ele>
        <time>2015-05-15T10:26:26Z</time>
      </trkpt>
      <trkpt lat="45.68406" lon="5.55311">
        <ele>210.51146927391</ele>
        <time>2015-05-15T10:26:31Z</time>
      </trkpt>
      <trkpt lat="45.68406" lon="5.55311">
        <ele>210.51146927391</ele>
        <time>2015-05-15T10:26:36Z</time>
      </trkpt>
      <trkpt lat="45.68406" lon="5.5531">
        <ele>210.51146927391</ele>
        <time>2015-05-15T10:26:41Z</time>
      </trkpt>
      <trkpt lat="45.68406" lon="5.5531">
        <ele>210.51146927391</ele>
        <time>2015-05-15T10:26:46Z</time>
      </trkpt>
      <trkpt lat="45.68405" lon="5.55313">
        <ele>210.51146927391</ele>
        <time>2015-05-15T10:26:51Z</time>
      </trkpt>
      <trkpt lat="45.68401" lon="5.55317">
        <ele>210.17860688816</ele>
        <time>2015-05-15T10:26:56Z</time>
      </trkpt>
      <trkpt lat="45.68397" lon="5.55318">
        <ele>210.17860688816</ele>
        <time>2015-05-15T10:27:01Z</time>
      </trkpt>
      <trkpt lat="45.68388" lon="5.55316">
        <ele>209.25572707485</ele>
        <time>2015-05-15T10:27:06Z</time>
      </trkpt>
      <trkpt lat="45.6838" lon="5.55315">
        <ele>209.25572707485</ele>
        <time>2015-05-15T10:27:11Z</time>
      </trkpt>
      <trkpt lat="45.68373" lon="5.55313">
        <ele>208.40354543921</ele>
        <time>2015-05-15T10:27:16Z</time>
      </trkpt>
      <trkpt lat="45.68367" lon="5.55309">
        <ele>208.40354543921</ele>
        <time>2015-05-15T10:27:21Z</time>
      </trkpt>
      <trkpt lat="45.68361" lon="5.55307">
        <ele>207.69070165792</ele>
        <time>2015-05-15T10:27:26Z</time>
      </trkpt>
      <trkpt lat="45.68358" lon="5.55305">
        <ele>207.69070165792</ele>
        <time>2015-05-15T10:27:31Z</time>
      </trkpt>
      <trkpt lat="45.68352" lon="5.55305">
        <ele>207.69070165792</ele>
        <time>2015-05-15T10:27:36Z</time>
      </trkpt>
      <trkpt lat="45.68346" lon="5.55301">
        <ele>207.69086411884</ele>
        <time>2015-05-15T10:27:41Z</time>
      </trkpt>
      <trkpt lat="45.68339" lon="5.55298">
        <ele>207.69086411884</ele>
        <time>2015-05-15T10:27:46Z</time>
      </trkpt>
      <trkpt lat="45.68334" lon="5.55297">
        <ele>207.36779816397</ele>
        <time>2015-05-15T10:27:51Z</time>
      </trkpt>
      <trkpt lat="45.68328" lon="5.55299">
        <ele>207.36779816397</ele>
        <time>2015-05-15T10:27:56Z</time>
      </trkpt>
      <trkpt lat="45.68322" lon="5.55295">
        <ele>206.45788611657</ele>
        <time>2015-05-15T10:28:01Z</time>
      </trkpt>
      <trkpt lat="45.68315" lon="5.55294">
        <ele>206.45788611657</ele>
        <time>2015-05-15T10:28:06Z</time>
      </trkpt>
      <trkpt lat="45.68308" lon="5.55293">
        <ele>205.33167384546</ele>
        <time>2015-05-15T10:28:11Z</time>
      </trkpt>
      <trkpt lat="45.683" lon="5.5529">
        <ele>205.33167384546</ele>
        <time>2015-05-15T10:28:16Z</time>
      </trkpt>
      <trkpt lat="45.68292" lon="5.5529">
        <ele>204.10519802858</ele>
        <time>2015-05-15T10:28:21Z</time>
      </trkpt>
      <trkpt lat="45.68286" lon="5.55297">
        <ele>204.10519802858</ele>
        <time>2015-05-15T10:28:26Z</time>
      </trkpt>
      <trkpt lat="45.6828" lon="5.55297">
        <ele>203.22872826219</ele>
        <time>2015-05-15T10:28:31Z</time>
      </trkpt>
      <trkpt lat="45.68272" lon="5.55296">
        <ele>203.22872826219</ele>
        <time>2015-05-15T10:28:36Z</time>
      </trkpt>
      <trkpt lat="45.68266" lon="5.55295">
        <ele>203.38616050702</ele>
        <time>2015-05-15T10:28:41Z</time>
      </trkpt>
      <trkpt lat="45.68264" lon="5.55295">
        <ele>203.38616050702</ele>
        <time>2015-05-15T10:28:46Z</time>
      </trkpt>
      <trkpt lat="45.68261" lon="5.55295">
        <ele>203.38616050702</ele>
        <time>2015-05-15T10:28:51Z</time>
      </trkpt>
      <trkpt lat="45.68257" lon="5.55295">
        <ele>203.38616050702</ele>
        <time>2015-05-15T10:28:56Z</time>
      </trkpt>
      <trkpt lat="45.68251" lon="5.55293">
        <ele>204.34466367564</ele>
        <time>2015-05-15T10:29:01Z</time>
      </trkpt>
      <trkpt lat="45.68251" lon="5.55292">
        <ele>204.34466367564</ele>
        <time>2015-05-15T10:29:06Z</time>
      </trkpt>
      <trkpt lat="45.6825" lon="5.55291">
        <ele>204.34466367564</ele>
        <time>2015-05-15T10:29:11Z</time>
      </trkpt>
      <trkpt lat="45.6825" lon="5.55291">
        <ele>204.34466367564</ele>
        <time>2015-05-15T10:29:16Z</time>
      </trkpt>
      <trkpt lat="45.6825" lon="5.55291">
        <ele>204.34466367564</ele>
        <time>2015-05-15T10:29:21Z</time>
      </trkpt>
      <trkpt lat="45.6825" lon="5.55291">
        <ele>204.34466367564</ele>
        <time>2015-05-15T10:29:26Z</time>
      </trkpt>
      <trkpt lat="45.6825" lon="5.5529">
        <ele>204.34466367564</ele>
        <time>2015-05-15T10:29:31Z</time>
      </trkpt>
      <trkpt lat="45.6825" lon="5.55288">
        <ele>204.34466367564</ele>
        <time>2015-05-15T10:29:36Z</time>
      </trkpt>
      <trkpt lat="45.68249" lon="5.55286">
        <ele>204.34466367564</ele>
        <time>2015-05-15T10:29:41Z</time>
      </trkpt>
      <trkpt lat="45.68249" lon="5.55285">
        <ele>204.34466367564</ele>
        <time>2015-05-15T10:29:46Z</time>
      </trkpt>
      <trkpt lat="45.68249" lon="5.55285">
        <ele>204.34466367564</ele>
        <time>2015-05-15T10:29:51Z</time>
      </trkpt>
      <trkpt lat="45.68249" lon="5.55286">
        <ele>204.34466367564</ele>
        <time>2015-05-15T10:29:56Z</time>
      </trkpt>
      <trkpt lat="45.68248" lon="5.55287">
        <ele>204.34466367564</ele>
        <time>2015-05-15T10:30:01Z</time>
      </trkpt>
      <trkpt lat="45.68248" lon="5.55288">
        <ele>205.98426013622</ele>
        <time>2015-05-15T10:30:06Z</time>
      </trkpt>
      <trkpt lat="45.68248" lon="5.55289">
        <ele>205.98426013622</ele>
        <time>2015-05-15T10:30:11Z</time>
      </trkpt>
      <trkpt lat="45.68247" lon="5.55289">
        <ele>205.98426013622</ele>
        <time>2015-05-15T10:30:16Z</time>
      </trkpt>
      <trkpt lat="45.68245" lon="5.55292">
        <ele>205.98426013622</ele>
        <time>2015-05-15T10:30:21Z</time>
      </trkpt>
      <trkpt lat="45.68239" lon="5.55293">
        <ele>206.86871521148</ele>
        <time>2015-05-15T10:30:26Z</time>
      </trkpt>
      <trkpt lat="45.68232" lon="5.55297">
        <ele>206.86871521148</ele>
        <time>2015-05-15T10:30:31Z</time>
      </trkpt>
      <trkpt lat="45.68225" lon="5.55299">
        <ele>208.37430999202</ele>
        <time>2015-05-15T10:30:36Z</time>
      </trkpt>
      <trkpt lat="45.68218" lon="5.55301">
        <ele>208.37430999202</ele>
        <time>2015-05-15T10:30:41Z</time>
      </trkpt>
      <trkpt lat="45.68212" lon="5.55304">
        <ele>209.51872278141</ele>
        <time>2015-05-15T10:30:46Z</time>
      </trkpt>
      <trkpt lat="45.68208" lon="5.55304">
        <ele>209.51872278141</ele>
        <time>2015-05-15T10:30:51Z</time>
      </trkpt>
      <trkpt lat="45.68204" lon="5.55306">
        <ele>209.51872278141</ele>
        <time>2015-05-15T10:30:56Z</time>
      </trkpt>
      <trkpt lat="45.68197" lon="5.55309">
        <ele>211.23140079515</ele>
        <time>2015-05-15T10:31:01Z</time>
      </trkpt>
      <trkpt lat="45.68191" lon="5.5531">
        <ele>211.23140079515</ele>
        <time>2015-05-15T10:31:06Z</time>
      </trkpt>
      <trkpt lat="45.68186" lon="5.5531">
        <ele>212.83150998437</ele>
        <time>2015-05-15T10:31:11Z</time>
      </trkpt>
      <trkpt lat="45.68181" lon="5.55311">
        <ele>212.83150998437</ele>
        <time>2015-05-15T10:31:16Z</time>
      </trkpt>
      <trkpt lat="45.68174" lon="5.55315">
        <ele>213.69961732061</ele>
        <time>2015-05-15T10:31:21Z</time>
      </trkpt>
      <trkpt lat="45.68165" lon="5.55315">
        <ele>213.69961732061</ele>
        <time>2015-05-15T10:31:26Z</time>
      </trkpt>
      <trkpt lat="45.68157" lon="5.55319">
        <ele>212.96131483728</ele>
        <time>2015-05-15T10:31:31Z</time>
      </trkpt>
      <trkpt lat="45.68149" lon="5.55318">
        <ele>212.96131483728</ele>
        <time>2015-05-15T10:31:36Z</time>
      </trkpt>
      <trkpt lat="45.68142" lon="5.55318">
        <ele>212.21682908861</ele>
        <time>2015-05-15T10:31:41Z</time>
      </trkpt>
      <trkpt lat="45.68135" lon="5.55317">
        <ele>212.21682908861</ele>
        <time>2015-05-15T10:31:46Z</time>
      </trkpt>
      <trkpt lat="45.68133" lon="5.55315">
        <ele>211.91918191779</ele>
        <time>2015-05-15T10:31:51Z</time>
      </trkpt>
      <trkpt lat="45.68132" lon="5.55314">
        <ele>211.91918191779</ele>
        <time>2015-05-15T10:31:56Z</time>
      </trkpt>
      <trkpt lat="45.68132" lon="5.55314">
        <ele>211.91918191779</ele>
        <time>2015-05-15T10:32:01Z</time>
      </trkpt>
      <trkpt lat="45.68132" lon="5.55314">
        <ele>211.91918191779</ele>
        <time>2015-05-15T10:32:06Z</time>
      </trkpt>
      <trkpt lat="45.68132" lon="5.55314">
        <ele>211.91918191779</ele>
        <time>2015-05-15T10:32:11Z</time>
      </trkpt>
      <trkpt lat="45.68132" lon="5.55314">
        <ele>211.91918191779</ele>
        <time>2015-05-15T10:32:16Z</time>
      </trkpt>
      <trkpt lat="45.68132" lon="5.55314">
        <ele>211.91918191779</ele>
        <time>2015-05-15T10:32:21Z</time>
      </trkpt>
      <trkpt lat="45.68132" lon="5.55314">
        <ele>211.91918191779</ele>
        <time>2015-05-15T10:32:26Z</time>
      </trkpt>
      <trkpt lat="45.68132" lon="5.55314">
        <ele>211.91918191779</ele>
        <time>2015-05-15T10:32:31Z</time>
      </trkpt>
      <trkpt lat="45.68132" lon="5.55314">
        <ele>211.91918191779</ele>
        <time>2015-05-15T10:32:36Z</time>
      </trkpt>
      <trkpt lat="45.68132" lon="5.55314">
        <ele>211.91918191779</ele>
        <time>2015-05-15T10:32:41Z</time>
      </trkpt>
      <trkpt lat="45.68132" lon="5.55314">
        <ele>211.91918191779</ele>
        <time>2015-05-15T10:32:46Z</time>
      </trkpt>
      <trkpt lat="45.68132" lon="5.55313">
        <ele>211.91918191779</ele>
        <time>2015-05-15T10:32:51Z</time>
      </trkpt>
      <trkpt lat="45.68132" lon="5.55313">
        <ele>211.91918191779</ele>
        <time>2015-05-15T10:32:56Z</time>
      </trkpt>
      <trkpt lat="45.6813" lon="5.55312">
        <ele>211.91918191779</ele>
        <time>2015-05-15T10:33:01Z</time>
      </trkpt>
      <trkpt lat="45.68127" lon="5.5531">
        <ele>211.91918191779</ele>
        <time>2015-05-15T10:33:06Z</time>
      </trkpt>
      <trkpt lat="45.68125" lon="5.55309">
        <ele>211.91918191779</ele>
        <time>2015-05-15T10:33:11Z</time>
      </trkpt>
      <trkpt lat="45.68125" lon="5.55309">
        <ele>211.91918191779</ele>
        <time>2015-05-15T10:33:16Z</time>
      </trkpt>
      <trkpt lat="45.68125" lon="5.55309">
        <ele>211.91918191779</ele>
        <time>2015-05-15T10:33:21Z</time>
      </trkpt>
      <trkpt lat="45.68125" lon="5.55309">
        <ele>211.91918191779</ele>
        <time>2015-05-15T10:33:26Z</time>
      </trkpt>
      <trkpt lat="45.68125" lon="5.55309">
        <ele>211.91918191779</ele>
        <time>2015-05-15T10:33:31Z</time>
      </trkpt>
      <trkpt lat="45.68125" lon="5.55309">
        <ele>211.91918191779</ele>
        <time>2015-05-15T10:33:36Z</time>
      </trkpt>
      <trkpt lat="45.68125" lon="5.55309">
        <ele>211.91918191779</ele>
        <time>2015-05-15T10:33:41Z</time>
      </trkpt>
      <trkpt lat="45.68125" lon="5.55309">
        <ele>211.91918191779</ele>
        <time>2015-05-15T10:33:47Z</time>
      </trkpt>
      <trkpt lat="45.68125" lon="5.55309">
        <ele>211.91918191779</ele>
        <time>2015-05-15T10:33:51Z</time>
      </trkpt>
      <trkpt lat="45.68125" lon="5.55309">
        <ele>211.91918191779</ele>
        <time>2015-05-15T10:33:56Z</time>
      </trkpt>
      <trkpt lat="45.68125" lon="5.55309">
        <ele>211.91918191779</ele>
        <time>2015-05-15T10:34:01Z</time>
      </trkpt>
      <trkpt lat="45.68125" lon="5.55309">
        <ele>211.91918191779</ele>
        <time>2015-05-15T10:34:06Z</time>
      </trkpt>
      <trkpt lat="45.68125" lon="5.55309">
        <ele>211.91918191779</ele>
        <time>2015-05-15T10:34:11Z</time>
      </trkpt>
      <trkpt lat="45.68125" lon="5.55309">
        <ele>211.91918191779</ele>
        <time>2015-05-15T10:34:16Z</time>
      </trkpt>
      <trkpt lat="45.68125" lon="5.55308">
        <ele>211.91918191779</ele>
        <time>2015-05-15T10:34:21Z</time>
      </trkpt>
      <trkpt lat="45.68125" lon="5.55308">
        <ele>211.91918191779</ele>
        <time>2015-05-15T10:34:27Z</time>
      </trkpt>
      <trkpt lat="45.68125" lon="5.55308">
        <ele>211.91918191779</ele>
        <time>2015-05-15T10:34:31Z</time>
      </trkpt>
      <trkpt lat="45.68125" lon="5.55308">
        <ele>211.91918191779</ele>
        <time>2015-05-15T10:34:36Z</time>
      </trkpt>
      <trkpt lat="45.68125" lon="5.55308">
        <ele>211.91918191779</ele>
        <time>2015-05-15T10:34:41Z</time>
      </trkpt>
      <trkpt lat="45.68125" lon="5.55308">
        <ele>211.91918191779</ele>
        <time>2015-05-15T10:34:46Z</time>
      </trkpt>
      <trkpt lat="45.68126" lon="5.55309">
        <ele>211.97307926456</ele>
        <time>2015-05-15T10:34:51Z</time>
      </trkpt>
      <trkpt lat="45.68127" lon="5.55309">
        <ele>211.97307926456</ele>
        <time>2015-05-15T10:34:56Z</time>
      </trkpt>
      <trkpt lat="45.68127" lon="5.5531">
        <ele>211.97307926456</ele>
        <time>2015-05-15T10:35:01Z</time>
      </trkpt>
      <trkpt lat="45.68127" lon="5.5531">
        <ele>211.97307926456</ele>
        <time>2015-05-15T10:35:06Z</time>
      </trkpt>
      <trkpt lat="45.68127" lon="5.5531">
        <ele>211.97307926456</ele>
        <time>2015-05-15T10:35:11Z</time>
      </trkpt>
      <trkpt lat="45.68127" lon="5.5531">
        <ele>211.97307926456</ele>
        <time>2015-05-15T10:35:16Z</time>
      </trkpt>
      <trkpt lat="45.68127" lon="5.5531">
        <ele>211.97307926456</ele>
        <time>2015-05-15T10:35:21Z</time>
      </trkpt>
      <trkpt lat="45.68127" lon="5.5531">
        <ele>211.97307926456</ele>
        <time>2015-05-15T10:35:26Z</time>
      </trkpt>
      <trkpt lat="45.68127" lon="5.5531">
        <ele>211.97307926456</ele>
        <time>2015-05-15T10:35:31Z</time>
      </trkpt>
      <trkpt lat="45.68127" lon="5.5531">
        <ele>211.97307926456</ele>
        <time>2015-05-15T10:35:36Z</time>
      </trkpt>
      <trkpt lat="45.68127" lon="5.5531">
        <ele>211.97307926456</ele>
        <time>2015-05-15T10:35:41Z</time>
      </trkpt>
      <trkpt lat="45.68127" lon="5.5531">
        <ele>211.97307926456</ele>
        <time>2015-05-15T10:35:46Z</time>
      </trkpt>
      <trkpt lat="45.68127" lon="5.5531">
        <ele>211.97307926456</ele>
        <time>2015-05-15T10:35:51Z</time>
      </trkpt>
      <trkpt lat="45.68127" lon="5.5531">
        <ele>211.97307926456</ele>
        <time>2015-05-15T10:35:56Z</time>
      </trkpt>
      <trkpt lat="45.68127" lon="5.5531">
        <ele>211.97307926456</ele>
        <time>2015-05-15T10:36:01Z</time>
      </trkpt>
      <trkpt lat="45.68127" lon="5.5531">
        <ele>211.97307926456</ele>
        <time>2015-05-15T10:36:06Z</time>
      </trkpt>
      <trkpt lat="45.68128" lon="5.5531">
        <ele>211.97307926456</ele>
        <time>2015-05-15T10:36:11Z</time>
      </trkpt>
      <trkpt lat="45.68127" lon="5.5531">
        <ele>211.97307926456</ele>
        <time>2015-05-15T10:36:16Z</time>
      </trkpt>
      <trkpt lat="45.68128" lon="5.5531">
        <ele>211.97307926456</ele>
        <time>2015-05-15T10:36:21Z</time>
      </trkpt>
      <trkpt lat="45.68128" lon="5.5531">
        <ele>211.97307926456</ele>
        <time>2015-05-15T10:36:26Z</time>
      </trkpt>
      <trkpt lat="45.68128" lon="5.5531">
        <ele>211.97307926456</ele>
        <time>2015-05-15T10:36:31Z</time>
      </trkpt>
      <trkpt lat="45.68128" lon="5.5531">
        <ele>211.97307926456</ele>
        <time>2015-05-15T10:36:36Z</time>
      </trkpt>
      <trkpt lat="45.68128" lon="5.5531">
        <ele>211.97307926456</ele>
        <time>2015-05-15T10:36:41Z</time>
      </trkpt>
      <trkpt lat="45.68128" lon="5.5531">
        <ele>211.97307926456</ele>
        <time>2015-05-15T10:36:46Z</time>
      </trkpt>
      <trkpt lat="45.68128" lon="5.5531">
        <ele>211.97307926456</ele>
        <time>2015-05-15T10:36:51Z</time>
      </trkpt>
      <trkpt lat="45.68128" lon="5.5531">
        <ele>211.97307926456</ele>
        <time>2015-05-15T10:36:56Z</time>
      </trkpt>
      <trkpt lat="45.68128" lon="5.5531">
        <ele>211.97307926456</ele>
        <time>2015-05-15T10:37:01Z</time>
      </trkpt>
      <trkpt lat="45.68128" lon="5.5531">
        <ele>211.97307926456</ele>
        <time>2015-05-15T10:37:06Z</time>
      </trkpt>
      <trkpt lat="45.68128" lon="5.5531">
        <ele>211.97307926456</ele>
        <time>2015-05-15T10:37:11Z</time>
      </trkpt>
      <trkpt lat="45.68128" lon="5.5531">
        <ele>211.97307926456</ele>
        <time>2015-05-15T10:37:16Z</time>
      </trkpt>
      <trkpt lat="45.68128" lon="5.5531">
        <ele>211.97307926456</ele>
        <time>2015-05-15T10:37:21Z</time>
      </trkpt>
      <trkpt lat="45.68128" lon="5.5531">
        <ele>211.97307926456</ele>
        <time>2015-05-15T10:37:26Z</time>
      </trkpt>
      <trkpt lat="45.68128" lon="5.5531">
        <ele>211.97307926456</ele>
        <time>2015-05-15T10:37:31Z</time>
      </trkpt>
      <trkpt lat="45.68128" lon="5.5531">
        <ele>211.97307926456</ele>
        <time>2015-05-15T10:37:36Z</time>
      </trkpt>
      <trkpt lat="45.68128" lon="5.5531">
        <ele>211.97307926456</ele>
        <time>2015-05-15T10:37:41Z</time>
      </trkpt>
      <trkpt lat="45.68128" lon="5.5531">
        <ele>211.97307926456</ele>
        <time>2015-05-15T10:37:46Z</time>
      </trkpt>
      <trkpt lat="45.68128" lon="5.5531">
        <ele>211.97307926456</ele>
        <time>2015-05-15T10:37:51Z</time>
      </trkpt>
      <trkpt lat="45.68128" lon="5.5531">
        <ele>211.97307926456</ele>
        <time>2015-05-15T10:37:56Z</time>
      </trkpt>
      <trkpt lat="45.68128" lon="5.5531">
        <ele>211.97307926456</ele>
        <time>2015-05-15T10:38:01Z</time>
      </trkpt>
      <trkpt lat="45.68128" lon="5.5531">
        <ele>211.97307926456</ele>
        <time>2015-05-15T10:38:06Z</time>
      </trkpt>
      <trkpt lat="45.68128" lon="5.5531">
        <ele>211.97307926456</ele>
        <time>2015-05-15T10:38:11Z</time>
      </trkpt>
      <trkpt lat="45.68128" lon="5.5531">
        <ele>211.97307926456</ele>
        <time>2015-05-15T10:38:16Z</time>
      </trkpt>
      <trkpt lat="45.68128" lon="5.5531">
        <ele>211.97307926456</ele>
        <time>2015-05-15T10:38:21Z</time>
      </trkpt>
      <trkpt lat="45.68128" lon="5.5531">
        <ele>211.97307926456</ele>
        <time>2015-05-15T10:38:26Z</time>
      </trkpt>
      <trkpt lat="45.68128" lon="5.5531">
        <ele>211.97307926456</ele>
        <time>2015-05-15T10:38:31Z</time>
      </trkpt>
      <trkpt lat="45.68128" lon="5.5531">
        <ele>211.97307926456</ele>
        <time>2015-05-15T10:38:36Z</time>
      </trkpt>
      <trkpt lat="45.68128" lon="5.5531">
        <ele>211.97307926456</ele>
        <time>2015-05-15T10:38:41Z</time>
      </trkpt>
      <trkpt lat="45.68128" lon="5.5531">
        <ele>211.97307926456</ele>
        <time>2015-05-15T10:38:46Z</time>
      </trkpt>
      <trkpt lat="45.68128" lon="5.5531">
        <ele>211.97307926456</ele>
        <time>2015-05-15T10:38:51Z</time>
      </trkpt>
      <trkpt lat="45.68128" lon="5.5531">
        <ele>211.97307926456</ele>
        <time>2015-05-15T10:38:56Z</time>
      </trkpt>
      <trkpt lat="45.68128" lon="5.5531">
        <ele>211.97307926456</ele>
        <time>2015-05-15T10:39:01Z</time>
      </trkpt>
      <trkpt lat="45.68128" lon="5.5531">
        <ele>211.97307926456</ele>
        <time>2015-05-15T10:39:06Z</time>
      </trkpt>
      <trkpt lat="45.68128" lon="5.5531">
        <ele>211.97307926456</ele>
        <time>2015-05-15T10:39:11Z</time>
      </trkpt>
      <trkpt lat="45.68128" lon="5.5531">
        <ele>211.97307926456</ele>
        <time>2015-05-15T10:39:16Z</time>
      </trkpt>
      <trkpt lat="45.68128" lon="5.5531">
        <ele>211.97307926456</ele>
        <time>2015-05-15T10:39:21Z</time>
      </trkpt>
      <trkpt lat="45.68128" lon="5.5531">
        <ele>211.97307926456</ele>
        <time>2015-05-15T10:39:27Z</time>
      </trkpt>
      <trkpt lat="45.68128" lon="5.5531">
        <ele>211.97307926456</ele>
        <time>2015-05-15T10:39:31Z</time>
      </trkpt>
      <trkpt lat="45.68128" lon="5.5531">
        <ele>211.97307926456</ele>
        <time>2015-05-15T10:39:36Z</time>
      </trkpt>
      <trkpt lat="45.68128" lon="5.5531">
        <ele>211.97307926456</ele>
        <time>2015-05-15T10:39:41Z</time>
      </trkpt>
      <trkpt lat="45.68128" lon="5.5531">
        <ele>211.97307926456</ele>
        <time>2015-05-15T10:39:46Z</time>
      </trkpt>
      <trkpt lat="45.68128" lon="5.5531">
        <ele>211.97307926456</ele>
        <time>2015-05-15T10:39:51Z</time>
      </trkpt>
      <trkpt lat="45.68128" lon="5.55309">
        <ele>211.97307926456</ele>
        <time>2015-05-15T10:39:56Z</time>
      </trkpt>
      <trkpt lat="45.68128" lon="5.55309">
        <ele>211.97307926456</ele>
        <time>2015-05-15T10:40:01Z</time>
      </trkpt>
      <trkpt lat="45.68128" lon="5.55308">
        <ele>211.97307926456</ele>
        <time>2015-05-15T10:40:06Z</time>
      </trkpt>
      <trkpt lat="45.68128" lon="5.55308">
        <ele>211.97307926456</ele>
        <time>2015-05-15T10:40:11Z</time>
      </trkpt>
      <trkpt lat="45.68128" lon="5.55307">
        <ele>211.97307926456</ele>
        <time>2015-05-15T10:40:16Z</time>
      </trkpt>
      <trkpt lat="45.68127" lon="5.55307">
        <ele>211.97307926456</ele>
        <time>2015-05-15T10:40:21Z</time>
      </trkpt>
      <trkpt lat="45.68128" lon="5.55307">
        <ele>211.97307926456</ele>
        <time>2015-05-15T10:40:26Z</time>
      </trkpt>
      <trkpt lat="45.68128" lon="5.55307">
        <ele>211.97307926456</ele>
        <time>2015-05-15T10:40:31Z</time>
      </trkpt>
      <trkpt lat="45.68129" lon="5.55307">
        <ele>211.97307926456</ele>
        <time>2015-05-15T10:40:36Z</time>
      </trkpt>
      <trkpt lat="45.68128" lon="5.55307">
        <ele>211.97307926456</ele>
        <time>2015-05-15T10:40:41Z</time>
      </trkpt>
      <trkpt lat="45.6813" lon="5.55308">
        <ele>212.74490204568</ele>
        <time>2015-05-15T10:40:46Z</time>
      </trkpt>
      <trkpt lat="45.68131" lon="5.55312">
        <ele>212.74490204568</ele>
        <time>2015-05-15T10:40:51Z</time>
      </trkpt>
      <trkpt lat="45.6813" lon="5.55314">
        <ele>212.74490204568</ele>
        <time>2015-05-15T10:40:56Z</time>
      </trkpt>
      <trkpt lat="45.6813" lon="5.55314">
        <ele>212.74490204568</ele>
        <time>2015-05-15T10:41:01Z</time>
      </trkpt>
      <trkpt lat="45.6813" lon="5.55314">
        <ele>212.74490204568</ele>
        <time>2015-05-15T10:41:06Z</time>
      </trkpt>
      <trkpt lat="45.6813" lon="5.55314">
        <ele>212.74490204568</ele>
        <time>2015-05-15T10:41:11Z</time>
      </trkpt>
      <trkpt lat="45.6813" lon="5.55314">
        <ele>212.74490204568</ele>
        <time>2015-05-15T10:41:16Z</time>
      </trkpt>
      <trkpt lat="45.6813" lon="5.55314">
        <ele>212.74490204568</ele>
        <time>2015-05-15T10:41:21Z</time>
      </trkpt>
      <trkpt lat="45.6813" lon="5.55314">
        <ele>212.74490204568</ele>
        <time>2015-05-15T10:41:26Z</time>
      </trkpt>
      <trkpt lat="45.6813" lon="5.55314">
        <ele>212.74490204568</ele>
        <time>2015-05-15T10:41:31Z</time>
      </trkpt>
      <trkpt lat="45.6813" lon="5.55314">
        <ele>212.74490204568</ele>
        <time>2015-05-15T10:41:36Z</time>
      </trkpt>
      <trkpt lat="45.6813" lon="5.55314">
        <ele>212.74490204568</ele>
        <time>2015-05-15T10:41:41Z</time>
      </trkpt>
      <trkpt lat="45.6813" lon="5.55313">
        <ele>212.74490204568</ele>
        <time>2015-05-15T10:41:46Z</time>
      </trkpt>
      <trkpt lat="45.68129" lon="5.55314">
        <ele>212.74490204568</ele>
        <time>2015-05-15T10:41:51Z</time>
      </trkpt>
      <trkpt lat="45.68129" lon="5.55314">
        <ele>212.74490204568</ele>
        <time>2015-05-15T10:41:56Z</time>
      </trkpt>
      <trkpt lat="45.68129" lon="5.55313">
        <ele>212.74490204568</ele>
        <time>2015-05-15T10:42:01Z</time>
      </trkpt>
      <trkpt lat="45.68125" lon="5.55311">
        <ele>212.8276292803</ele>
        <time>2015-05-15T10:42:06Z</time>
      </trkpt>
      <trkpt lat="45.68119" lon="5.55313">
        <ele>212.8276292803</ele>
        <time>2015-05-15T10:42:11Z</time>
      </trkpt>
      <trkpt lat="45.68113" lon="5.55316">
        <ele>212.44934850182</ele>
        <time>2015-05-15T10:42:16Z</time>
      </trkpt>
      <trkpt lat="45.68106" lon="5.5532">
        <ele>212.44934850182</ele>
        <time>2015-05-15T10:42:21Z</time>
      </trkpt>
      <trkpt lat="45.68101" lon="5.55322">
        <ele>211.8725857829</ele>
        <time>2015-05-15T10:42:26Z</time>
      </trkpt>
      <trkpt lat="45.68099" lon="5.55324">
        <ele>211.8725857829</ele>
        <time>2015-05-15T10:42:31Z</time>
      </trkpt>
      <trkpt lat="45.68099" lon="5.55325">
        <ele>211.8725857829</ele>
        <time>2015-05-15T10:42:36Z</time>
      </trkpt>
      <trkpt lat="45.68097" lon="5.55325">
        <ele>211.8725857829</ele>
        <time>2015-05-15T10:42:41Z</time>
      </trkpt>
      <trkpt lat="45.68095" lon="5.55324">
        <ele>211.8725857829</ele>
        <time>2015-05-15T10:42:46Z</time>
      </trkpt>
      <trkpt lat="45.6809" lon="5.55325">
        <ele>211.24504130517</ele>
        <time>2015-05-15T10:42:51Z</time>
      </trkpt>
      <trkpt lat="45.68083" lon="5.55327">
        <ele>211.24504130517</ele>
        <time>2015-05-15T10:42:56Z</time>
      </trkpt>
      <trkpt lat="45.68073" lon="5.55331">
        <ele>210.48580075861</ele>
        <time>2015-05-15T10:43:01Z</time>
      </trkpt>
      <trkpt lat="45.68065" lon="5.55337">
        <ele>209.78604883626</ele>
        <time>2015-05-15T10:43:06Z</time>
      </trkpt>
      <trkpt lat="45.68058" lon="5.55341">
        <ele>209.78604883626</ele>
        <time>2015-05-15T10:43:11Z</time>
      </trkpt>
      <trkpt lat="45.6805" lon="5.55347">
        <ele>208.65523558689</ele>
        <time>2015-05-15T10:43:16Z</time>
      </trkpt>
      <trkpt lat="45.68048" lon="5.5535">
        <ele>208.65523558689</ele>
        <time>2015-05-15T10:43:21Z</time>
      </trkpt>
      <trkpt lat="45.68047" lon="5.5535">
        <ele>208.65523558689</ele>
        <time>2015-05-15T10:43:26Z</time>
      </trkpt>
      <trkpt lat="45.68046" lon="5.55351">
        <ele>208.65523558689</ele>
        <time>2015-05-15T10:43:31Z</time>
      </trkpt>
      <trkpt lat="45.68046" lon="5.55351">
        <ele>208.65523558689</ele>
        <time>2015-05-15T10:43:36Z</time>
      </trkpt>
      <trkpt lat="45.68046" lon="5.55351">
        <ele>208.65523558689</ele>
        <time>2015-05-15T10:43:41Z</time>
      </trkpt>
      <trkpt lat="45.68041" lon="5.55353">
        <ele>207.24774170107</ele>
        <time>2015-05-15T10:43:46Z</time>
      </trkpt>
      <trkpt lat="45.68034" lon="5.55356">
        <ele>207.24774170107</ele>
        <time>2015-05-15T10:43:51Z</time>
      </trkpt>
      <trkpt lat="45.68028" lon="5.55359">
        <ele>205.52983821445</ele>
        <time>2015-05-15T10:43:56Z</time>
      </trkpt>
      <trkpt lat="45.68022" lon="5.55363">
        <ele>205.52983821445</ele>
        <time>2015-05-15T10:44:01Z</time>
      </trkpt>
      <trkpt lat="45.68016" lon="5.55367">
        <ele>203.24593957525</ele>
        <time>2015-05-15T10:44:06Z</time>
      </trkpt>
      <trkpt lat="45.68008" lon="5.55373">
        <ele>203.24593957525</ele>
        <time>2015-05-15T10:44:11Z</time>
      </trkpt>
      <trkpt lat="45.68001" lon="5.55378">
        <ele>200.29640645695</ele>
        <time>2015-05-15T10:44:16Z</time>
      </trkpt>
      <trkpt lat="45.67997" lon="5.55383">
        <ele>200.29640645695</ele>
        <time>2015-05-15T10:44:21Z</time>
      </trkpt>
      <trkpt lat="45.67988" lon="5.55389">
        <ele>196.59201091516</ele>
        <time>2015-05-15T10:44:26Z</time>
      </trkpt>
      <trkpt lat="45.67982" lon="5.55391">
        <ele>196.59201091516</ele>
        <time>2015-05-15T10:44:31Z</time>
      </trkpt>
      <trkpt lat="45.67975" lon="5.55398">
        <ele>192.11401211794</ele>
        <time>2015-05-15T10:44:36Z</time>
      </trkpt>
      <trkpt lat="45.67968" lon="5.55404">
        <ele>192.11401211794</ele>
        <time>2015-05-15T10:44:41Z</time>
      </trkpt>
      <trkpt lat="45.67962" lon="5.55411">
        <ele>189.00723911635</ele>
        <time>2015-05-15T10:44:46Z</time>
      </trkpt>
      <trkpt lat="45.67956" lon="5.55416">
        <ele>189.00723911635</ele>
        <time>2015-05-15T10:44:51Z</time>
      </trkpt>
      <trkpt lat="45.67949" lon="5.55423">
        <ele>187.44848357227</ele>
        <time>2015-05-15T10:44:56Z</time>
      </trkpt>
      <trkpt lat="45.67942" lon="5.55432">
        <ele>186.71796428776</ele>
        <time>2015-05-15T10:45:01Z</time>
      </trkpt>
      <trkpt lat="45.67934" lon="5.55441">
        <ele>186.25449865318</ele>
        <time>2015-05-15T10:45:06Z</time>
      </trkpt>
      <trkpt lat="45.67929" lon="5.55449">
        <ele>186.25449865318</ele>
        <time>2015-05-15T10:45:11Z</time>
      </trkpt>
      <trkpt lat="45.67922" lon="5.55455">
        <ele>185.93182434601</ele>
        <time>2015-05-15T10:45:16Z</time>
      </trkpt>
      <trkpt lat="45.67915" lon="5.55459">
        <ele>185.93182434601</ele>
        <time>2015-05-15T10:45:21Z</time>
      </trkpt>
      <trkpt lat="45.67908" lon="5.55463">
        <ele>186.32331342581</ele>
        <time>2015-05-15T10:45:26Z</time>
      </trkpt>
      <trkpt lat="45.67903" lon="5.55466">
        <ele>186.32331342581</ele>
        <time>2015-05-15T10:45:31Z</time>
      </trkpt>
      <trkpt lat="45.67896" lon="5.5547">
        <ele>186.84464023487</ele>
        <time>2015-05-15T10:45:36Z</time>
      </trkpt>
      <trkpt lat="45.67891" lon="5.55473">
        <ele>186.84464023487</ele>
        <time>2015-05-15T10:45:41Z</time>
      </trkpt>
      <trkpt lat="45.67884" lon="5.55477">
        <ele>186.42243696508</ele>
        <time>2015-05-15T10:45:46Z</time>
      </trkpt>
      <trkpt lat="45.67879" lon="5.55481">
        <ele>186.42243696508</ele>
        <time>2015-05-15T10:45:51Z</time>
      </trkpt>
      <trkpt lat="45.67873" lon="5.55486">
        <ele>186.47457008574</ele>
        <time>2015-05-15T10:45:56Z</time>
      </trkpt>
      <trkpt lat="45.67868" lon="5.55488">
        <ele>186.47457008574</ele>
        <time>2015-05-15T10:46:01Z</time>
      </trkpt>
      <trkpt lat="45.67862" lon="5.5549">
        <ele>187.34727292948</ele>
        <time>2015-05-15T10:46:06Z</time>
      </trkpt>
      <trkpt lat="45.67854" lon="5.55497">
        <ele>188.92548458622</ele>
        <time>2015-05-15T10:46:11Z</time>
      </trkpt>
      <trkpt lat="45.67846" lon="5.55499">
        <ele>188.92548458622</ele>
        <time>2015-05-15T10:46:16Z</time>
      </trkpt>
      <trkpt lat="45.67838" lon="5.55504">
        <ele>190.85065784512</ele>
        <time>2015-05-15T10:46:21Z</time>
      </trkpt>
      <trkpt lat="45.67832" lon="5.555">
        <ele>190.85065784512</ele>
        <time>2015-05-15T10:46:26Z</time>
      </trkpt>
      <trkpt lat="45.67826" lon="5.55504">
        <ele>192.46910692426</ele>
        <time>2015-05-15T10:46:31Z</time>
      </trkpt>
      <trkpt lat="45.67819" lon="5.55508">
        <ele>192.46910692426</ele>
        <time>2015-05-15T10:46:36Z</time>
      </trkpt>
      <trkpt lat="45.6781" lon="5.55513">
        <ele>194.35957607142</ele>
        <time>2015-05-15T10:46:41Z</time>
      </trkpt>
      <trkpt lat="45.67804" lon="5.55519">
        <ele>194.35957607142</ele>
        <time>2015-05-15T10:46:46Z</time>
      </trkpt>
      <trkpt lat="45.678" lon="5.55527">
        <ele>196.11268729187</ele>
        <time>2015-05-15T10:46:51Z</time>
      </trkpt>
      <trkpt lat="45.67798" lon="5.55535">
        <ele>196.11268729187</ele>
        <time>2015-05-15T10:46:56Z</time>
      </trkpt>
      <trkpt lat="45.67795" lon="5.55544">
        <ele>197.63156783497</ele>
        <time>2015-05-15T10:47:01Z</time>
      </trkpt>
      <trkpt lat="45.67793" lon="5.55552">
        <ele>197.63156783497</ele>
        <time>2015-05-15T10:47:06Z</time>
      </trkpt>
      <trkpt lat="45.6779" lon="5.55562">
        <ele>198.88632781592</ele>
        <time>2015-05-15T10:47:11Z</time>
      </trkpt>
      <trkpt lat="45.67787" lon="5.55572">
        <ele>198.88632781592</ele>
        <time>2015-05-15T10:47:16Z</time>
      </trkpt>
      <trkpt lat="45.67785" lon="5.55582">
        <ele>200.01060638957</ele>
        <time>2015-05-15T10:47:21Z</time>
      </trkpt>
      <trkpt lat="45.67783" lon="5.55593">
        <ele>200.01060638957</ele>
        <time>2015-05-15T10:47:26Z</time>
      </trkpt>
      <trkpt lat="45.6778" lon="5.55604">
        <ele>201.12753188782</ele>
        <time>2015-05-15T10:47:31Z</time>
      </trkpt>
      <trkpt lat="45.67776" lon="5.55615">
        <ele>201.92865847272</ele>
        <time>2015-05-15T10:47:36Z</time>
      </trkpt>
      <trkpt lat="45.67772" lon="5.55626">
        <ele>201.92865847272</ele>
        <time>2015-05-15T10:47:41Z</time>
      </trkpt>
      <trkpt lat="45.67771" lon="5.55637">
        <ele>202.50836385272</ele>
        <time>2015-05-15T10:47:46Z</time>
      </trkpt>
      <trkpt lat="45.67771" lon="5.55646">
        <ele>202.50836385272</ele>
        <time>2015-05-15T10:47:51Z</time>
      </trkpt>
      <trkpt lat="45.67771" lon="5.55651">
        <ele>202.83803924389</ele>
        <time>2015-05-15T10:47:56Z</time>
      </trkpt>
      <trkpt lat="45.67769" lon="5.55658">
        <ele>202.83803924389</ele>
        <time>2015-05-15T10:48:01Z</time>
      </trkpt>
      <trkpt lat="45.67767" lon="5.55668">
        <ele>203.67421707949</ele>
        <time>2015-05-15T10:48:06Z</time>
      </trkpt>
      <trkpt lat="45.67764" lon="5.55679">
        <ele>203.67421707949</ele>
        <time>2015-05-15T10:48:11Z</time>
      </trkpt>
      <trkpt lat="45.67764" lon="5.55688">
        <ele>204.16487343951</ele>
        <time>2015-05-15T10:48:16Z</time>
      </trkpt>
      <trkpt lat="45.67762" lon="5.55699">
        <ele>204.16487343951</ele>
        <time>2015-05-15T10:48:21Z</time>
      </trkpt>
      <trkpt lat="45.67762" lon="5.5571">
        <ele>204.66704045515</ele>
        <time>2015-05-15T10:48:26Z</time>
      </trkpt>
      <trkpt lat="45.6776" lon="5.55719">
        <ele>204.66704045515</ele>
        <time>2015-05-15T10:48:31Z</time>
      </trkpt>
      <trkpt lat="45.67757" lon="5.55727">
        <ele>205.59709958666</ele>
        <time>2015-05-15T10:48:36Z</time>
      </trkpt>
      <trkpt lat="45.67753" lon="5.55741">
        <ele>206.76108199517</ele>
        <time>2015-05-15T10:48:41Z</time>
      </trkpt>
      <trkpt lat="45.67749" lon="5.55753">
        <ele>207.40179399846</ele>
        <time>2015-05-15T10:48:46Z</time>
      </trkpt>
      <trkpt lat="45.67747" lon="5.55764">
        <ele>207.40179399846</ele>
        <time>2015-05-15T10:48:51Z</time>
      </trkpt>
      <trkpt lat="45.67746" lon="5.55776">
        <ele>208.04693798437</ele>
        <time>2015-05-15T10:48:56Z</time>
      </trkpt>
      <trkpt lat="45.67749" lon="5.55783">
        <ele>208.04693798437</ele>
        <time>2015-05-15T10:49:01Z</time>
      </trkpt>
      <trkpt lat="45.67754" lon="5.55786">
        <ele>208.39128711866</ele>
        <time>2015-05-15T10:49:06Z</time>
      </trkpt>
      <trkpt lat="45.6776" lon="5.55786">
        <ele>208.39128711866</ele>
        <time>2015-05-15T10:49:11Z</time>
      </trkpt>
      <trkpt lat="45.67766" lon="5.55784">
        <ele>208.2830130122</ele>
        <time>2015-05-15T10:49:16Z</time>
      </trkpt>
      <trkpt lat="45.67773" lon="5.55784">
        <ele>208.2830130122</ele>
        <time>2015-05-15T10:49:21Z</time>
      </trkpt>
      <trkpt lat="45.67778" lon="5.55783">
        <ele>208.20286184912</ele>
        <time>2015-05-15T10:49:26Z</time>
      </trkpt>
      <trkpt lat="45.67781" lon="5.55782">
        <ele>208.20286184912</ele>
        <time>2015-05-15T10:49:31Z</time>
      </trkpt>
      <trkpt lat="45.67787" lon="5.55783">
        <ele>208.20286184912</ele>
        <time>2015-05-15T10:49:36Z</time>
      </trkpt>
      <trkpt lat="45.67789" lon="5.55786">
        <ele>208.39409707869</ele>
        <time>2015-05-15T10:49:41Z</time>
      </trkpt>
      <trkpt lat="45.67791" lon="5.55786">
        <ele>208.39409707869</ele>
        <time>2015-05-15T10:49:46Z</time>
      </trkpt>
      <trkpt lat="45.67792" lon="5.55787">
        <ele>208.39409707869</ele>
        <time>2015-05-15T10:49:51Z</time>
      </trkpt>
      <trkpt lat="45.67794" lon="5.55785">
        <ele>208.39409707869</ele>
        <time>2015-05-15T10:49:56Z</time>
      </trkpt>
      <trkpt lat="45.67798" lon="5.55781">
        <ele>208.62000287599</ele>
        <time>2015-05-15T10:50:01Z</time>
      </trkpt>
      <trkpt lat="45.67801" lon="5.55775">
        <ele>208.62000287599</ele>
        <time>2015-05-15T10:50:06Z</time>
      </trkpt>
      <trkpt lat="45.67801" lon="5.55769">
        <ele>208.66129641406</ele>
        <time>2015-05-15T10:50:11Z</time>
      </trkpt>
      <trkpt lat="45.67803" lon="5.55764">
        <ele>208.66129641406</ele>
        <time>2015-05-15T10:50:16Z</time>
      </trkpt>
      <trkpt lat="45.67805" lon="5.55762">
        <ele>208.66129641406</ele>
        <time>2015-05-15T10:50:21Z</time>
      </trkpt>
      <trkpt lat="45.67806" lon="5.55761">
        <ele>208.66129641406</ele>
        <time>2015-05-15T10:50:26Z</time>
      </trkpt>
      <trkpt lat="45.67806" lon="5.55759">
        <ele>208.66129641406</ele>
        <time>2015-05-15T10:50:31Z</time>
      </trkpt>
      <trkpt lat="45.67806" lon="5.55759">
        <ele>209.2237044513</ele>
        <time>2015-05-15T10:50:36Z</time>
      </trkpt>
      <trkpt lat="45.67806" lon="5.55755">
        <ele>209.2237044513</ele>
        <time>2015-05-15T10:50:41Z</time>
      </trkpt>
      <trkpt lat="45.67806" lon="5.55755">
        <ele>209.2237044513</ele>
        <time>2015-05-15T10:50:46Z</time>
      </trkpt>
      <trkpt lat="45.67806" lon="5.55751">
        <ele>209.2237044513</ele>
        <time>2015-05-15T10:50:51Z</time>
      </trkpt>
      <trkpt lat="45.67807" lon="5.55752">
        <ele>209.2237044513</ele>
        <time>2015-05-15T10:50:56Z</time>
      </trkpt>
      <trkpt lat="45.67809" lon="5.55747">
        <ele>210.10906648642</ele>
        <time>2015-05-15T10:51:01Z</time>
      </trkpt>
      <trkpt lat="45.67813" lon="5.55741">
        <ele>210.10906648642</ele>
        <time>2015-05-15T10:51:06Z</time>
      </trkpt>
      <trkpt lat="45.67818" lon="5.55734">
        <ele>210.7724743045</ele>
        <time>2015-05-15T10:51:11Z</time>
      </trkpt>
      <trkpt lat="45.67825" lon="5.55727">
        <ele>210.7724743045</ele>
        <time>2015-05-15T10:51:16Z</time>
      </trkpt>
      <trkpt lat="45.67832" lon="5.55721">
        <ele>211.12782597795</ele>
        <time>2015-05-15T10:51:21Z</time>
      </trkpt>
      <trkpt lat="45.67839" lon="5.55714">
        <ele>211.12782597795</ele>
        <time>2015-05-15T10:51:26Z</time>
      </trkpt>
      <trkpt lat="45.67845" lon="5.55707">
        <ele>211.38465027031</ele>
        <time>2015-05-15T10:51:31Z</time>
      </trkpt>
      <trkpt lat="45.6785" lon="5.55699">
        <ele>211.38465027031</ele>
        <time>2015-05-15T10:51:36Z</time>
      </trkpt>
      <trkpt lat="45.67856" lon="5.55691">
        <ele>211.72302349278</ele>
        <time>2015-05-15T10:51:41Z</time>
      </trkpt>
      <trkpt lat="45.67864" lon="5.55682">
        <ele>212.10773538292</ele>
        <time>2015-05-15T10:51:46Z</time>
      </trkpt>
      <trkpt lat="45.6787" lon="5.55675">
        <ele>212.10773538292</ele>
        <time>2015-05-15T10:51:51Z</time>
      </trkpt>
      <trkpt lat="45.67876" lon="5.55668">
        <ele>212.520497324</ele>
        <time>2015-05-15T10:51:56Z</time>
      </trkpt>
      <trkpt lat="45.67881" lon="5.55662">
        <ele>212.520497324</ele>
        <time>2015-05-15T10:52:01Z</time>
      </trkpt>
      <trkpt lat="45.67883" lon="5.5566">
        <ele>212.520497324</ele>
        <time>2015-05-15T10:52:06Z</time>
      </trkpt>
      <trkpt lat="45.67884" lon="5.55659">
        <ele>211.55969653123</ele>
        <time>2015-05-15T10:52:11Z</time>
      </trkpt>
      <trkpt lat="45.67888" lon="5.55652">
        <ele>211.55969653123</ele>
        <time>2015-05-15T10:52:16Z</time>
      </trkpt>
      <trkpt lat="45.67893" lon="5.55643">
        <ele>209.7334667951</ele>
        <time>2015-05-15T10:52:21Z</time>
      </trkpt>
      <trkpt lat="45.679" lon="5.55636">
        <ele>209.7334667951</ele>
        <time>2015-05-15T10:52:26Z</time>
      </trkpt>
      <trkpt lat="45.67905" lon="5.55629">
        <ele>208.20749431005</ele>
        <time>2015-05-15T10:52:31Z</time>
      </trkpt>
      <trkpt lat="45.67912" lon="5.55624">
        <ele>208.20749431005</ele>
        <time>2015-05-15T10:52:36Z</time>
      </trkpt>
      <trkpt lat="45.67918" lon="5.55618">
        <ele>206.87822486196</ele>
        <time>2015-05-15T10:52:41Z</time>
      </trkpt>
      <trkpt lat="45.67922" lon="5.5561">
        <ele>206.87822486196</ele>
        <time>2015-05-15T10:52:46Z</time>
      </trkpt>
      <trkpt lat="45.67926" lon="5.55601">
        <ele>205.75011257443</ele>
        <time>2015-05-15T10:52:51Z</time>
      </trkpt>
      <trkpt lat="45.6793" lon="5.55595">
        <ele>205.75011257443</ele>
        <time>2015-05-15T10:52:56Z</time>
      </trkpt>
      <trkpt lat="45.67935" lon="5.55588">
        <ele>204.4805036773</ele>
        <time>2015-05-15T10:53:01Z</time>
      </trkpt>
      <trkpt lat="45.67934" lon="5.5558">
        <ele>204.4805036773</ele>
        <time>2015-05-15T10:53:06Z</time>
      </trkpt>
      <trkpt lat="45.67938" lon="5.55576">
        <ele>202.86770196282</ele>
        <time>2015-05-15T10:53:11Z</time>
      </trkpt>
      <trkpt lat="45.67943" lon="5.55571">
        <ele>202.86770196282</ele>
        <time>2015-05-15T10:53:16Z</time>
      </trkpt>
      <trkpt lat="45.67948" lon="5.55564">
        <ele>201.28830859988</ele>
        <time>2015-05-15T10:53:21Z</time>
      </trkpt>
      <trkpt lat="45.6795" lon="5.55556">
        <ele>201.28830859988</ele>
        <time>2015-05-15T10:53:26Z</time>
      </trkpt>
      <trkpt lat="45.67954" lon="5.55552">
        <ele>199.4996964805</ele>
        <time>2015-05-15T10:53:31Z</time>
      </trkpt>
      <trkpt lat="45.67958" lon="5.55543">
        <ele>199.4996964805</ele>
        <time>2015-05-15T10:53:36Z</time>
      </trkpt>
      <trkpt lat="45.67963" lon="5.55534">
        <ele>197.89780917955</ele>
        <time>2015-05-15T10:53:41Z</time>
      </trkpt>
      <trkpt lat="45.67969" lon="5.55526">
        <ele>197.89780917955</ele>
        <time>2015-05-15T10:53:46Z</time>
      </trkpt>
      <trkpt lat="45.67975" lon="5.55518">
        <ele>196.61806973556</ele>
        <time>2015-05-15T10:53:51Z</time>
      </trkpt>
      <trkpt lat="45.67982" lon="5.55511">
        <ele>196.61806973556</ele>
        <time>2015-05-15T10:53:56Z</time>
      </trkpt>
      <trkpt lat="45.67989" lon="5.55506">
        <ele>195.79935245049</ele>
        <time>2015-05-15T10:54:01Z</time>
      </trkpt>
      <trkpt lat="45.67995" lon="5.55498">
        <ele>195.79935245049</ele>
        <time>2015-05-15T10:54:06Z</time>
      </trkpt>
      <trkpt lat="45.68002" lon="5.5549">
        <ele>195.29491243885</ele>
        <time>2015-05-15T10:54:11Z</time>
      </trkpt>
      <trkpt lat="45.68006" lon="5.55481">
        <ele>195.29491243885</ele>
        <time>2015-05-15T10:54:16Z</time>
      </trkpt>
      <trkpt lat="45.68006" lon="5.55475">
        <ele>194.57849246735</ele>
        <time>2015-05-15T10:54:21Z</time>
      </trkpt>
      <trkpt lat="45.68009" lon="5.55469">
        <ele>194.57849246735</ele>
        <time>2015-05-15T10:54:26Z</time>
      </trkpt>
      <trkpt lat="45.68014" lon="5.55464">
        <ele>193.45150463625</ele>
        <time>2015-05-15T10:54:31Z</time>
      </trkpt>
      <trkpt lat="45.68021" lon="5.55461">
        <ele>193.45150463625</ele>
        <time>2015-05-15T10:54:36Z</time>
      </trkpt>
      <trkpt lat="45.68029" lon="5.55457">
        <ele>192.49525127142</ele>
        <time>2015-05-15T10:54:41Z</time>
      </trkpt>
      <trkpt lat="45.68036" lon="5.55454">
        <ele>192.49525127142</ele>
        <time>2015-05-15T10:54:46Z</time>
      </trkpt>
      <trkpt lat="45.68043" lon="5.55453">
        <ele>191.71416839853</ele>
        <time>2015-05-15T10:54:51Z</time>
      </trkpt>
      <trkpt lat="45.68052" lon="5.55451">
        <ele>191.27037492066</ele>
        <time>2015-05-15T10:54:56Z</time>
      </trkpt>
      <trkpt lat="45.68062" lon="5.55448">
        <ele>191.12559876231</ele>
        <time>2015-05-15T10:55:01Z</time>
      </trkpt>
      <trkpt lat="45.68069" lon="5.55446">
        <ele>191.12559876231</ele>
        <time>2015-05-15T10:55:06Z</time>
      </trkpt>
      <trkpt lat="45.68081" lon="5.55445">
        <ele>191.4885387551</ele>
        <time>2015-05-15T10:55:11Z</time>
      </trkpt>
      <trkpt lat="45.68086" lon="5.55444">
        <ele>191.4885387551</ele>
        <time>2015-05-15T10:55:16Z</time>
      </trkpt>
      <trkpt lat="45.68092" lon="5.55447">
        <ele>190.82118322291</ele>
        <time>2015-05-15T10:55:21Z</time>
      </trkpt>
      <trkpt lat="45.68099" lon="5.55448">
        <ele>190.82118322291</ele>
        <time>2015-05-15T10:55:26Z</time>
      </trkpt>
      <trkpt lat="45.68107" lon="5.55449">
        <ele>190.74308958244</ele>
        <time>2015-05-15T10:55:31Z</time>
      </trkpt>
      <trkpt lat="45.6812" lon="5.55449">
        <ele>191.45559188105</ele>
        <time>2015-05-15T10:55:36Z</time>
      </trkpt>
      <trkpt lat="45.6813" lon="5.55451">
        <ele>192.26370173696</ele>
        <time>2015-05-15T10:55:41Z</time>
      </trkpt>
      <trkpt lat="45.68138" lon="5.55452">
        <ele>192.26370173696</ele>
        <time>2015-05-15T10:55:46Z</time>
      </trkpt>
      <trkpt lat="45.68143" lon="5.55453">
        <ele>193.0709666565</ele>
        <time>2015-05-15T10:55:51Z</time>
      </trkpt>
      <trkpt lat="45.68149" lon="5.55455">
        <ele>193.0709666565</ele>
        <time>2015-05-15T10:55:56Z</time>
      </trkpt>
      <trkpt lat="45.68154" lon="5.55457">
        <ele>193.44208375186</ele>
        <time>2015-05-15T10:56:01Z</time>
      </trkpt>
      <trkpt lat="45.68159" lon="5.55456">
        <ele>193.44208375186</ele>
        <time>2015-05-15T10:56:06Z</time>
      </trkpt>
      <trkpt lat="45.68166" lon="5.55455">
        <ele>194.27209550872</ele>
        <time>2015-05-15T10:56:11Z</time>
      </trkpt>
      <trkpt lat="45.68172" lon="5.55454">
        <ele>194.27209550872</ele>
        <time>2015-05-15T10:56:16Z</time>
      </trkpt>
      <trkpt lat="45.68178" lon="5.55455">
        <ele>195.95654750584</ele>
        <time>2015-05-15T10:56:21Z</time>
      </trkpt>
      <trkpt lat="45.68186" lon="5.55457">
        <ele>195.95654750584</ele>
        <time>2015-05-15T10:56:26Z</time>
      </trkpt>
      <trkpt lat="45.68193" lon="5.55459">
        <ele>197.4183026665</ele>
        <time>2015-05-15T10:56:31Z</time>
      </trkpt>
      <trkpt lat="45.68199" lon="5.55459">
        <ele>197.4183026665</ele>
        <time>2015-05-15T10:56:36Z</time>
      </trkpt>
      <trkpt lat="45.68205" lon="5.5546">
        <ele>198.91388217078</ele>
        <time>2015-05-15T10:56:41Z</time>
      </trkpt>
      <trkpt lat="45.68211" lon="5.5546">
        <ele>198.91388217078</ele>
        <time>2015-05-15T10:56:46Z</time>
      </trkpt>
      <trkpt lat="45.68218" lon="5.55461">
        <ele>200.00352641514</ele>
        <time>2015-05-15T10:56:51Z</time>
      </trkpt>
      <trkpt lat="45.68223" lon="5.55463">
        <ele>200.00352641514</ele>
        <time>2015-05-15T10:56:56Z</time>
      </trkpt>
      <trkpt lat="45.6823" lon="5.55464">
        <ele>200.64125554373</ele>
        <time>2015-05-15T10:57:01Z</time>
      </trkpt>
      <trkpt lat="45.68241" lon="5.55464">
        <ele>201.05959063208</ele>
        <time>2015-05-15T10:57:06Z</time>
      </trkpt>
      <trkpt lat="45.6825" lon="5.55466">
        <ele>200.88375908663</ele>
        <time>2015-05-15T10:57:11Z</time>
      </trkpt>
      <trkpt lat="45.68259" lon="5.55466">
        <ele>200.88375908663</ele>
        <time>2015-05-15T10:57:16Z</time>
      </trkpt>
      <trkpt lat="45.68268" lon="5.55468">
        <ele>200.44556785485</ele>
        <time>2015-05-15T10:57:21Z</time>
      </trkpt>
      <trkpt lat="45.68275" lon="5.5547">
        <ele>200.44556785485</ele>
        <time>2015-05-15T10:57:26Z</time>
      </trkpt>
      <trkpt lat="45.68281" lon="5.55472">
        <ele>199.31824841935</ele>
        <time>2015-05-15T10:57:31Z</time>
      </trkpt>
      <trkpt lat="45.68288" lon="5.55471">
        <ele>199.31824841935</ele>
        <time>2015-05-15T10:57:36Z</time>
      </trkpt>
      <trkpt lat="45.68295" lon="5.55472">
        <ele>198.27566685775</ele>
        <time>2015-05-15T10:57:41Z</time>
      </trkpt>
      <trkpt lat="45.68303" lon="5.55472">
        <ele>198.27566685775</ele>
        <time>2015-05-15T10:57:46Z</time>
      </trkpt>
      <trkpt lat="45.68311" lon="5.55471">
        <ele>198.20756732781</ele>
        <time>2015-05-15T10:57:51Z</time>
      </trkpt>
      <trkpt lat="45.68318" lon="5.55469">
        <ele>198.20756732781</ele>
        <time>2015-05-15T10:57:56Z</time>
      </trkpt>
      <trkpt lat="45.68327" lon="5.55468">
        <ele>198.48009100093</ele>
        <time>2015-05-15T10:58:01Z</time>
      </trkpt>
      <trkpt lat="45.68336" lon="5.55467">
        <ele>198.59147723687</ele>
        <time>2015-05-15T10:58:06Z</time>
      </trkpt>
      <trkpt lat="45.6834" lon="5.55464">
        <ele>198.59147723687</ele>
        <time>2015-05-15T10:58:11Z</time>
      </trkpt>
      <trkpt lat="45.68344" lon="5.55459">
        <ele>198.85550654597</ele>
        <time>2015-05-15T10:58:16Z</time>
      </trkpt>
      <trkpt lat="45.68348" lon="5.55457">
        <ele>198.85550654597</ele>
        <time>2015-05-15T10:58:21Z</time>
      </trkpt>
      <trkpt lat="45.68352" lon="5.55456">
        <ele>198.85550654597</ele>
        <time>2015-05-15T10:58:26Z</time>
      </trkpt>
      <trkpt lat="45.68358" lon="5.55452">
        <ele>198.76988177868</ele>
        <time>2015-05-15T10:58:31Z</time>
      </trkpt>
      <trkpt lat="45.68364" lon="5.55449">
        <ele>198.76988177868</ele>
        <time>2015-05-15T10:58:36Z</time>
      </trkpt>
      <trkpt lat="45.68371" lon="5.55447">
        <ele>197.76932395377</ele>
        <time>2015-05-15T10:58:41Z</time>
      </trkpt>
      <trkpt lat="45.68379" lon="5.55445">
        <ele>197.76932395377</ele>
        <time>2015-05-15T10:58:46Z</time>
      </trkpt>
      <trkpt lat="45.68386" lon="5.55443">
        <ele>197.07643733673</ele>
        <time>2015-05-15T10:58:51Z</time>
      </trkpt>
      <trkpt lat="45.68397" lon="5.5544">
        <ele>196.25232837165</ele>
        <time>2015-05-15T10:58:56Z</time>
      </trkpt>
      <trkpt lat="45.68409" lon="5.55436">
        <ele>195.72658083153</ele>
        <time>2015-05-15T10:59:01Z</time>
      </trkpt>
      <trkpt lat="45.68419" lon="5.55432">
        <ele>195.60815991292</ele>
        <time>2015-05-15T10:59:06Z</time>
      </trkpt>
      <trkpt lat="45.68428" lon="5.55429">
        <ele>195.67983115785</ele>
        <time>2015-05-15T10:59:11Z</time>
      </trkpt>
      <trkpt lat="45.68437" lon="5.55425">
        <ele>196.27300774455</ele>
        <time>2015-05-15T10:59:16Z</time>
      </trkpt>
      <trkpt lat="45.68446" lon="5.55422">
        <ele>196.27300774455</ele>
        <time>2015-05-15T10:59:21Z</time>
      </trkpt>
      <trkpt lat="45.68454" lon="5.5542">
        <ele>197.01595632841</ele>
        <time>2015-05-15T10:59:26Z</time>
      </trkpt>
      <trkpt lat="45.68462" lon="5.55417">
        <ele>197.01595632841</ele>
        <time>2015-05-15T10:59:31Z</time>
      </trkpt>
      <trkpt lat="45.68469" lon="5.55413">
        <ele>198.16911926815</ele>
        <time>2015-05-15T10:59:36Z</time>
      </trkpt>
      <trkpt lat="45.68475" lon="5.5541">
        <ele>198.16911926815</ele>
        <time>2015-05-15T10:59:41Z</time>
      </trkpt>
      <trkpt lat="45.68481" lon="5.55406">
        <ele>199.26650609138</ele>
        <time>2015-05-15T10:59:46Z</time>
      </trkpt>
      <trkpt lat="45.68487" lon="5.55404">
        <ele>199.26650609138</ele>
        <time>2015-05-15T10:59:51Z</time>
      </trkpt>
      <trkpt lat="45.68494" lon="5.55402">
        <ele>199.96300432357</ele>
        <time>2015-05-15T10:59:56Z</time>
      </trkpt>
      <trkpt lat="45.685" lon="5.55398">
        <ele>199.96300432357</ele>
        <time>2015-05-15T11:00:01Z</time>
      </trkpt>
      <trkpt lat="45.68507" lon="5.55395">
        <ele>200.51646529353</ele>
        <time>2015-05-15T11:00:06Z</time>
      </trkpt>
      <trkpt lat="45.68514" lon="5.55392">
        <ele>200.51646529353</ele>
        <time>2015-05-15T11:00:11Z</time>
      </trkpt>
      <trkpt lat="45.68518" lon="5.55389">
        <ele>199.99890150759</ele>
        <time>2015-05-15T11:00:16Z</time>
      </trkpt>
      <trkpt lat="45.68523" lon="5.55385">
        <ele>199.99890150759</ele>
        <time>2015-05-15T11:00:21Z</time>
      </trkpt>
      <trkpt lat="45.68528" lon="5.55384">
        <ele>200.00348318169</ele>
        <time>2015-05-15T11:00:26Z</time>
      </trkpt>
      <trkpt lat="45.68531" lon="5.55383">
        <ele>200.00348318169</ele>
        <time>2015-05-15T11:00:31Z</time>
      </trkpt>
      <trkpt lat="45.68535" lon="5.55382">
        <ele>200.00348318169</ele>
        <time>2015-05-15T11:00:36Z</time>
      </trkpt>
      <trkpt lat="45.68539" lon="5.55382">
        <ele>199.56937251376</ele>
        <time>2015-05-15T11:00:41Z</time>
      </trkpt>
      <trkpt lat="45.68542" lon="5.55379">
        <ele>199.56937251376</ele>
        <time>2015-05-15T11:00:46Z</time>
      </trkpt>
      <trkpt lat="45.68546" lon="5.55375">
        <ele>199.56937251376</ele>
        <time>2015-05-15T11:00:51Z</time>
      </trkpt>
      <trkpt lat="45.68554" lon="5.55371">
        <ele>198.29756392122</ele>
        <time>2015-05-15T11:00:56Z</time>
      </trkpt>
      <trkpt lat="45.68566" lon="5.55365">
        <ele>197.03129125729</ele>
        <time>2015-05-15T11:01:01Z</time>
      </trkpt>
      <trkpt lat="45.68575" lon="5.55361">
        <ele>197.03129125729</ele>
        <time>2015-05-15T11:01:06Z</time>
      </trkpt>
      <trkpt lat="45.6858" lon="5.55361">
        <ele>196.82565249576</ele>
        <time>2015-05-15T11:01:11Z</time>
      </trkpt>
      <trkpt lat="45.68583" lon="5.55358">
        <ele>196.82565249576</ele>
        <time>2015-05-15T11:01:16Z</time>
      </trkpt>
      <trkpt lat="45.68589" lon="5.55354">
        <ele>196.65208232842</ele>
        <time>2015-05-15T11:01:21Z</time>
      </trkpt>
      <trkpt lat="45.68598" lon="5.55348">
        <ele>196.7680420871</ele>
        <time>2015-05-15T11:01:26Z</time>
      </trkpt>
      <trkpt lat="45.68607" lon="5.55342">
        <ele>197.54096748293</ele>
        <time>2015-05-15T11:01:31Z</time>
      </trkpt>
      <trkpt lat="45.68614" lon="5.55336">
        <ele>197.54096748293</ele>
        <time>2015-05-15T11:01:36Z</time>
      </trkpt>
      <trkpt lat="45.68619" lon="5.5533">
        <ele>198.47360388652</ele>
        <time>2015-05-15T11:01:41Z</time>
      </trkpt>
      <trkpt lat="45.68625" lon="5.55325">
        <ele>198.47360388652</ele>
        <time>2015-05-15T11:01:46Z</time>
      </trkpt>
      <trkpt lat="45.6863" lon="5.55319">
        <ele>199.22007583182</ele>
        <time>2015-05-15T11:01:51Z</time>
      </trkpt>
      <trkpt lat="45.68635" lon="5.55313">
        <ele>199.22007583182</ele>
        <time>2015-05-15T11:01:56Z</time>
      </trkpt>
      <trkpt lat="45.6864" lon="5.55307">
        <ele>199.74867632048</ele>
        <time>2015-05-15T11:02:01Z</time>
      </trkpt>
      <trkpt lat="45.68647" lon="5.55301">
        <ele>199.74867632048</ele>
        <time>2015-05-15T11:02:06Z</time>
      </trkpt>
      <trkpt lat="45.68648" lon="5.55292">
        <ele>200.49181568183</ele>
        <time>2015-05-15T11:02:11Z</time>
      </trkpt>
      <trkpt lat="45.68654" lon="5.55288">
        <ele>200.49181568183</ele>
        <time>2015-05-15T11:02:16Z</time>
      </trkpt>
      <trkpt lat="45.68658" lon="5.55282">
        <ele>201.53251122431</ele>
        <time>2015-05-15T11:02:21Z</time>
      </trkpt>
      <trkpt lat="45.68662" lon="5.55276">
        <ele>201.53251122431</ele>
        <time>2015-05-15T11:02:26Z</time>
      </trkpt>
      <trkpt lat="45.68664" lon="5.55268">
        <ele>202.44248184368</ele>
        <time>2015-05-15T11:02:31Z</time>
      </trkpt>
      <trkpt lat="45.68668" lon="5.5526">
        <ele>202.44248184368</ele>
        <time>2015-05-15T11:02:36Z</time>
      </trkpt>
      <trkpt lat="45.68671" lon="5.55252">
        <ele>203.24323317015</ele>
        <time>2015-05-15T11:02:41Z</time>
      </trkpt>
      <trkpt lat="45.68675" lon="5.55244">
        <ele>203.24323317015</ele>
        <time>2015-05-15T11:02:46Z</time>
      </trkpt>
      <trkpt lat="45.68678" lon="5.55235">
        <ele>204.07032389079</ele>
        <time>2015-05-15T11:02:51Z</time>
      </trkpt>
      <trkpt lat="45.68681" lon="5.55227">
        <ele>204.07032389079</ele>
        <time>2015-05-15T11:02:56Z</time>
      </trkpt>
      <trkpt lat="45.68685" lon="5.55215">
        <ele>205.02049959901</ele>
        <time>2015-05-15T11:03:01Z</time>
      </trkpt>
      <trkpt lat="45.68687" lon="5.55204">
        <ele>205.02049959901</ele>
        <time>2015-05-15T11:03:06Z</time>
      </trkpt>
      <trkpt lat="45.68692" lon="5.55195">
        <ele>206.29838892962</ele>
        <time>2015-05-15T11:03:11Z</time>
      </trkpt>
      <trkpt lat="45.68698" lon="5.55187">
        <ele>206.29838892962</ele>
        <time>2015-05-15T11:03:16Z</time>
      </trkpt>
      <trkpt lat="45.68701" lon="5.55179">
        <ele>207.14158264497</ele>
        <time>2015-05-15T11:03:21Z</time>
      </trkpt>
      <trkpt lat="45.68705" lon="5.55172">
        <ele>207.14158264497</ele>
        <time>2015-05-15T11:03:26Z</time>
      </trkpt>
      <trkpt lat="45.68708" lon="5.55164">
        <ele>207.55109793316</ele>
        <time>2015-05-15T11:03:31Z</time>
      </trkpt>
      <trkpt lat="45.6871" lon="5.55155">
        <ele>207.55109793316</ele>
        <time>2015-05-15T11:03:36Z</time>
      </trkpt>
      <trkpt lat="45.68713" lon="5.55147">
        <ele>207.99030521329</ele>
        <time>2015-05-15T11:03:41Z</time>
      </trkpt>
      <trkpt lat="45.68716" lon="5.55138">
        <ele>207.99030521329</ele>
        <time>2015-05-15T11:03:46Z</time>
      </trkpt>
      <trkpt lat="45.68718" lon="5.55129">
        <ele>207.87972694036</ele>
        <time>2015-05-15T11:03:51Z</time>
      </trkpt>
      <trkpt lat="45.6872" lon="5.55119">
        <ele>207.87972694036</ele>
        <time>2015-05-15T11:03:56Z</time>
      </trkpt>
      <trkpt lat="45.68722" lon="5.55112">
        <ele>206.38141217937</ele>
        <time>2015-05-15T11:04:01Z</time>
      </trkpt>
      <trkpt lat="45.68727" lon="5.55107">
        <ele>206.38141217937</ele>
        <time>2015-05-15T11:04:06Z</time>
      </trkpt>
      <trkpt lat="45.6873" lon="5.55102">
        <ele>204.19283362095</ele>
        <time>2015-05-15T11:04:11Z</time>
      </trkpt>
      <trkpt lat="45.68731" lon="5.55095">
        <ele>204.19283362095</ele>
        <time>2015-05-15T11:04:16Z</time>
      </trkpt>
      <trkpt lat="45.68735" lon="5.55085">
        <ele>202.69715794268</ele>
        <time>2015-05-15T11:04:21Z</time>
      </trkpt>
      <trkpt lat="45.68739" lon="5.55075">
        <ele>202.69715794268</ele>
        <time>2015-05-15T11:04:26Z</time>
      </trkpt>
      <trkpt lat="45.68742" lon="5.55068">
        <ele>201.28615480909</ele>
        <time>2015-05-15T11:04:31Z</time>
      </trkpt>
      <trkpt lat="45.6875" lon="5.55061">
        <ele>200.17423313076</ele>
        <time>2015-05-15T11:04:36Z</time>
      </trkpt>
      <trkpt lat="45.68755" lon="5.55052">
        <ele>200.17423313076</ele>
        <time>2015-05-15T11:04:41Z</time>
      </trkpt>
      <trkpt lat="45.6876" lon="5.55044">
        <ele>198.43512605262</ele>
        <time>2015-05-15T11:04:46Z</time>
      </trkpt>
      <trkpt lat="45.68764" lon="5.55036">
        <ele>198.43512605262</ele>
        <time>2015-05-15T11:04:51Z</time>
      </trkpt>
      <trkpt lat="45.68768" lon="5.55025">
        <ele>197.08578419907</ele>
        <time>2015-05-15T11:04:56Z</time>
      </trkpt>
      <trkpt lat="45.68775" lon="5.55014">
        <ele>195.8711956598</ele>
        <time>2015-05-15T11:05:01Z</time>
      </trkpt>
      <trkpt lat="45.68782" lon="5.55008">
        <ele>195.8711956598</ele>
        <time>2015-05-15T11:05:06Z</time>
      </trkpt>
      <trkpt lat="45.68785" lon="5.55">
        <ele>194.32407401253</ele>
        <time>2015-05-15T11:05:11Z</time>
      </trkpt>
      <trkpt lat="45.6879" lon="5.54998">
        <ele>194.32407401253</ele>
        <time>2015-05-15T11:05:16Z</time>
      </trkpt>
      <trkpt lat="45.68791" lon="5.54997">
        <ele>194.32407401253</ele>
        <time>2015-05-15T11:05:21Z</time>
      </trkpt>
      <trkpt lat="45.68793" lon="5.54994">
        <ele>192.67524255735</ele>
        <time>2015-05-15T11:05:26Z</time>
      </trkpt>
      <trkpt lat="45.68796" lon="5.54994">
        <ele>192.67524255735</ele>
        <time>2015-05-15T11:05:31Z</time>
      </trkpt>
      <trkpt lat="45.68797" lon="5.54994">
        <ele>192.67524255735</ele>
        <time>2015-05-15T11:05:36Z</time>
      </trkpt>
      <trkpt lat="45.688" lon="5.54988">
        <ele>192.67524255735</ele>
        <time>2015-05-15T11:05:41Z</time>
      </trkpt>
      <trkpt lat="45.68809" lon="5.54976">
        <ele>191.48465149336</ele>
        <time>2015-05-15T11:05:46Z</time>
      </trkpt>
      <trkpt lat="45.68813" lon="5.54968">
        <ele>191.48465149336</ele>
        <time>2015-05-15T11:05:51Z</time>
      </trkpt>
      <trkpt lat="45.6882" lon="5.54951">
        <ele>190.27538806861</ele>
        <time>2015-05-15T11:05:56Z</time>
      </trkpt>
      <trkpt lat="45.68834" lon="5.54929">
        <ele>189.59991133844</ele>
        <time>2015-05-15T11:06:01Z</time>
      </trkpt>
      <trkpt lat="45.68856" lon="5.54909">
        <ele>189.89646084351</ele>
        <time>2015-05-15T11:06:07Z</time>
      </trkpt>
      <trkpt lat="45.68869" lon="5.54895">
        <ele>190.37215216946</ele>
        <time>2015-05-15T11:06:11Z</time>
      </trkpt>
      <trkpt lat="45.68886" lon="5.54876">
        <ele>190.8970349255</ele>
        <time>2015-05-15T11:06:16Z</time>
      </trkpt>
      <trkpt lat="45.68906" lon="5.5484">
        <ele>191.105510227</ele>
        <time>2015-05-15T11:06:21Z</time>
      </trkpt>
      <trkpt lat="45.68924" lon="5.54816">
        <ele>190.68848612712</ele>
        <time>2015-05-15T11:06:26Z</time>
      </trkpt>
      <trkpt lat="45.68933" lon="5.54791">
        <ele>190.35564563717</ele>
        <time>2015-05-15T11:06:31Z</time>
      </trkpt>
      <trkpt lat="45.68939" lon="5.54782">
        <ele>190.35564563717</ele>
        <time>2015-05-15T11:06:36Z</time>
      </trkpt>
      <trkpt lat="45.68944" lon="5.54773">
        <ele>190.66337713627</ele>
        <time>2015-05-15T11:06:41Z</time>
      </trkpt>
      <trkpt lat="45.68952" lon="5.54763">
        <ele>191.86595814625</ele>
        <time>2015-05-15T11:06:46Z</time>
      </trkpt>
      <trkpt lat="45.68955" lon="5.54753">
        <ele>191.86595814625</ele>
        <time>2015-05-15T11:06:51Z</time>
      </trkpt>
      <trkpt lat="45.68959" lon="5.54745">
        <ele>192.61121806156</ele>
        <time>2015-05-15T11:06:56Z</time>
      </trkpt>
      <trkpt lat="45.68961" lon="5.54739">
        <ele>192.61121806156</ele>
        <time>2015-05-15T11:07:01Z</time>
      </trkpt>
      <trkpt lat="45.68966" lon="5.54733">
        <ele>193.2327968262</ele>
        <time>2015-05-15T11:07:06Z</time>
      </trkpt>
      <trkpt lat="45.6897" lon="5.54727">
        <ele>193.2327968262</ele>
        <time>2015-05-15T11:07:11Z</time>
      </trkpt>
      <trkpt lat="45.68975" lon="5.5472">
        <ele>193.37724345886</ele>
        <time>2015-05-15T11:07:16Z</time>
      </trkpt>
      <trkpt lat="45.6898" lon="5.54716">
        <ele>193.37724345886</ele>
        <time>2015-05-15T11:07:21Z</time>
      </trkpt>
      <trkpt lat="45.68983" lon="5.54709">
        <ele>193.1363224246</ele>
        <time>2015-05-15T11:07:26Z</time>
      </trkpt>
      <trkpt lat="45.68987" lon="5.54703">
        <ele>193.1363224246</ele>
        <time>2015-05-15T11:07:31Z</time>
      </trkpt>
      <trkpt lat="45.68992" lon="5.54696">
        <ele>192.85553259699</ele>
        <time>2015-05-15T11:07:36Z</time>
      </trkpt>
      <trkpt lat="45.68999" lon="5.54688">
        <ele>192.85553259699</ele>
        <time>2015-05-15T11:07:41Z</time>
      </trkpt>
      <trkpt lat="45.69007" lon="5.54681">
        <ele>192.91274547097</ele>
        <time>2015-05-15T11:07:46Z</time>
      </trkpt>
      <trkpt lat="45.69015" lon="5.54676">
        <ele>192.91274547097</ele>
        <time>2015-05-15T11:07:51Z</time>
      </trkpt>
      <trkpt lat="45.69021" lon="5.54669">
        <ele>193.19596814272</ele>
        <time>2015-05-15T11:07:56Z</time>
      </trkpt>
      <trkpt lat="45.69027" lon="5.54662">
        <ele>193.19596814272</ele>
        <time>2015-05-15T11:08:01Z</time>
      </trkpt>
      <trkpt lat="45.69033" lon="5.54656">
        <ele>193.9754906504</ele>
        <time>2015-05-15T11:08:06Z</time>
      </trkpt>
      <trkpt lat="45.69037" lon="5.5465">
        <ele>193.9754906504</ele>
        <time>2015-05-15T11:08:11Z</time>
      </trkpt>
      <trkpt lat="45.69044" lon="5.54643">
        <ele>195.01038268885</ele>
        <time>2015-05-15T11:08:16Z</time>
      </trkpt>
      <trkpt lat="45.69049" lon="5.54637">
        <ele>195.01038268885</ele>
        <time>2015-05-15T11:08:21Z</time>
      </trkpt>
      <trkpt lat="45.69054" lon="5.54631">
        <ele>195.99024150109</ele>
        <time>2015-05-15T11:08:26Z</time>
      </trkpt>
      <trkpt lat="45.69059" lon="5.54624">
        <ele>195.99024150109</ele>
        <time>2015-05-15T11:08:31Z</time>
      </trkpt>
      <trkpt lat="45.69066" lon="5.54616">
        <ele>196.71410682999</ele>
        <time>2015-05-15T11:08:36Z</time>
      </trkpt>
      <trkpt lat="45.69073" lon="5.54609">
        <ele>196.71410682999</ele>
        <time>2015-05-15T11:08:41Z</time>
      </trkpt>
      <trkpt lat="45.69078" lon="5.54602">
        <ele>197.67384887587</ele>
        <time>2015-05-15T11:08:46Z</time>
      </trkpt>
      <trkpt lat="45.69082" lon="5.54597">
        <ele>197.67384887587</ele>
        <time>2015-05-15T11:08:51Z</time>
      </trkpt>
      <trkpt lat="45.69089" lon="5.54589">
        <ele>198.63284403906</ele>
        <time>2015-05-15T11:08:56Z</time>
      </trkpt>
      <trkpt lat="45.69094" lon="5.54584">
        <ele>198.63284403906</ele>
        <time>2015-05-15T11:09:01Z</time>
      </trkpt>
      <trkpt lat="45.69101" lon="5.54577">
        <ele>199.703349762</ele>
        <time>2015-05-15T11:09:06Z</time>
      </trkpt>
      <trkpt lat="45.69105" lon="5.54571">
        <ele>199.703349762</ele>
        <time>2015-05-15T11:09:11Z</time>
      </trkpt>
      <trkpt lat="45.69108" lon="5.54562">
        <ele>200.55677744756</ele>
        <time>2015-05-15T11:09:16Z</time>
      </trkpt>
      <trkpt lat="45.69112" lon="5.54558">
        <ele>200.55677744756</ele>
        <time>2015-05-15T11:09:21Z</time>
      </trkpt>
      <trkpt lat="45.69116" lon="5.54553">
        <ele>201.24961546013</ele>
        <time>2015-05-15T11:09:26Z</time>
      </trkpt>
      <trkpt lat="45.6912" lon="5.54546">
        <ele>201.24961546013</ele>
        <time>2015-05-15T11:09:31Z</time>
      </trkpt>
      <trkpt lat="45.69125" lon="5.54539">
        <ele>202.3535103563</ele>
        <time>2015-05-15T11:09:36Z</time>
      </trkpt>
      <trkpt lat="45.69137" lon="5.54523">
        <ele>203.24413414402</ele>
        <time>2015-05-15T11:09:41Z</time>
      </trkpt>
      <trkpt lat="45.6915" lon="5.54519">
        <ele>204.10747363393</ele>
        <time>2015-05-15T11:09:46Z</time>
      </trkpt>
      <trkpt lat="45.69155" lon="5.54513">
        <ele>204.10747363393</ele>
        <time>2015-05-15T11:09:51Z</time>
      </trkpt>
      <trkpt lat="45.69161" lon="5.54507">
        <ele>205.13040853538</ele>
        <time>2015-05-15T11:09:56Z</time>
      </trkpt>
      <trkpt lat="45.69166" lon="5.54499">
        <ele>205.13040853538</ele>
        <time>2015-05-15T11:10:01Z</time>
      </trkpt>
      <trkpt lat="45.6917" lon="5.54493">
        <ele>206.2407248219</ele>
        <time>2015-05-15T11:10:06Z</time>
      </trkpt>
      <trkpt lat="45.69176" lon="5.54489">
        <ele>206.2407248219</ele>
        <time>2015-05-15T11:10:11Z</time>
      </trkpt>
      <trkpt lat="45.69181" lon="5.54483">
        <ele>207.3569310706</ele>
        <time>2015-05-15T11:10:16Z</time>
      </trkpt>
      <trkpt lat="45.69189" lon="5.54478">
        <ele>207.3569310706</ele>
        <time>2015-05-15T11:10:21Z</time>
      </trkpt>
      <trkpt lat="45.69196" lon="5.54471">
        <ele>208.64857199404</ele>
        <time>2015-05-15T11:10:26Z</time>
      </trkpt>
      <trkpt lat="45.69203" lon="5.54463">
        <ele>208.64857199404</ele>
        <time>2015-05-15T11:10:31Z</time>
      </trkpt>
      <trkpt lat="45.69208" lon="5.54457">
        <ele>209.72470345206</ele>
        <time>2015-05-15T11:10:36Z</time>
      </trkpt>
      <trkpt lat="45.69213" lon="5.54449">
        <ele>209.72470345206</ele>
        <time>2015-05-15T11:10:41Z</time>
      </trkpt>
      <trkpt lat="45.69219" lon="5.54442">
        <ele>211.13168859369</ele>
        <time>2015-05-15T11:10:46Z</time>
      </trkpt>
      <trkpt lat="45.69223" lon="5.54434">
        <ele>211.13168859369</ele>
        <time>2015-05-15T11:10:51Z</time>
      </trkpt>
      <trkpt lat="45.6923" lon="5.54428">
        <ele>212.48142454418</ele>
        <time>2015-05-15T11:10:56Z</time>
      </trkpt>
      <trkpt lat="45.69234" lon="5.54424">
        <ele>212.48142454418</ele>
        <time>2015-05-15T11:11:01Z</time>
      </trkpt>
      <trkpt lat="45.69238" lon="5.54418">
        <ele>213.83249119514</ele>
        <time>2015-05-15T11:11:06Z</time>
      </trkpt>
      <trkpt lat="45.69244" lon="5.54415">
        <ele>213.83249119514</ele>
        <time>2015-05-15T11:11:11Z</time>
      </trkpt>
      <trkpt lat="45.6925" lon="5.54413">
        <ele>214.25929663639</ele>
        <time>2015-05-15T11:11:16Z</time>
      </trkpt>
      <trkpt lat="45.69256" lon="5.54409">
        <ele>214.25929663639</ele>
        <time>2015-05-15T11:11:21Z</time>
      </trkpt>
      <trkpt lat="45.69263" lon="5.54405">
        <ele>214.44891536143</ele>
        <time>2015-05-15T11:11:26Z</time>
      </trkpt>
      <trkpt lat="45.6927" lon="5.54402">
        <ele>214.44891536143</ele>
        <time>2015-05-15T11:11:31Z</time>
      </trkpt>
      <trkpt lat="45.69277" lon="5.54396">
        <ele>214.34696861748</ele>
        <time>2015-05-15T11:11:36Z</time>
      </trkpt>
      <trkpt lat="45.69285" lon="5.54391">
        <ele>213.64456989221</ele>
        <time>2015-05-15T11:11:41Z</time>
      </trkpt>
      <trkpt lat="45.69294" lon="5.54386">
        <ele>212.84988866921</ele>
        <time>2015-05-15T11:11:46Z</time>
      </trkpt>
      <trkpt lat="45.69302" lon="5.54381">
        <ele>212.84988866921</ele>
        <time>2015-05-15T11:11:51Z</time>
      </trkpt>
      <trkpt lat="45.6931" lon="5.54378">
        <ele>211.98733628098</ele>
        <time>2015-05-15T11:11:56Z</time>
      </trkpt>
      <trkpt lat="45.69317" lon="5.54378">
        <ele>211.98733628098</ele>
        <time>2015-05-15T11:12:01Z</time>
      </trkpt>
      <trkpt lat="45.69322" lon="5.54375">
        <ele>210.9356539323</ele>
        <time>2015-05-15T11:12:06Z</time>
      </trkpt>
      <trkpt lat="45.69329" lon="5.54373">
        <ele>210.9356539323</ele>
        <time>2015-05-15T11:12:11Z</time>
      </trkpt>
      <trkpt lat="45.69338" lon="5.54371">
        <ele>210.05861800013</ele>
        <time>2015-05-15T11:12:16Z</time>
      </trkpt>
      <trkpt lat="45.69346" lon="5.54369">
        <ele>210.05861800013</ele>
        <time>2015-05-15T11:12:21Z</time>
      </trkpt>
      <trkpt lat="45.69352" lon="5.54369">
        <ele>208.84255261444</ele>
        <time>2015-05-15T11:12:26Z</time>
      </trkpt>
      <trkpt lat="45.69359" lon="5.5437">
        <ele>208.84255261444</ele>
        <time>2015-05-15T11:12:31Z</time>
      </trkpt>
      <trkpt lat="45.69365" lon="5.54372">
        <ele>207.41773688459</ele>
        <time>2015-05-15T11:12:36Z</time>
      </trkpt>
      <trkpt lat="45.69371" lon="5.54373">
        <ele>207.41773688459</ele>
        <time>2015-05-15T11:12:41Z</time>
      </trkpt>
      <trkpt lat="45.6938" lon="5.54375">
        <ele>206.87100076876</ele>
        <time>2015-05-15T11:12:46Z</time>
      </trkpt>
      <trkpt lat="45.69388" lon="5.54377">
        <ele>206.87100076876</ele>
        <time>2015-05-15T11:12:51Z</time>
      </trkpt>
      <trkpt lat="45.69393" lon="5.54378">
        <ele>206.63604174483</ele>
        <time>2015-05-15T11:12:56Z</time>
      </trkpt>
      <trkpt lat="45.69399" lon="5.5438">
        <ele>206.63604174483</ele>
        <time>2015-05-15T11:13:01Z</time>
      </trkpt>
      <trkpt lat="45.69409" lon="5.54382">
        <ele>207.12397913387</ele>
        <time>2015-05-15T11:13:06Z</time>
      </trkpt>
      <trkpt lat="45.69417" lon="5.54383">
        <ele>207.12397913387</ele>
        <time>2015-05-15T11:13:11Z</time>
      </trkpt>
      <trkpt lat="45.69424" lon="5.54385">
        <ele>207.48872910506</ele>
        <time>2015-05-15T11:13:16Z</time>
      </trkpt>
      <trkpt lat="45.69429" lon="5.54388">
        <ele>207.48872910506</ele>
        <time>2015-05-15T11:13:21Z</time>
      </trkpt>
      <trkpt lat="45.69435" lon="5.54389">
        <ele>207.78252133522</ele>
        <time>2015-05-15T11:13:26Z</time>
      </trkpt>
      <trkpt lat="45.69443" lon="5.5439">
        <ele>207.78252133522</ele>
        <time>2015-05-15T11:13:31Z</time>
      </trkpt>
      <trkpt lat="45.69451" lon="5.54391">
        <ele>208.0683308685</ele>
        <time>2015-05-15T11:13:36Z</time>
      </trkpt>
      <trkpt lat="45.69458" lon="5.54393">
        <ele>208.0683308685</ele>
        <time>2015-05-15T11:13:41Z</time>
      </trkpt>
      <trkpt lat="45.69464" lon="5.54395">
        <ele>207.78482413277</ele>
        <time>2015-05-15T11:13:46Z</time>
      </trkpt>
      <trkpt lat="45.69471" lon="5.54396">
        <ele>207.78482413277</ele>
        <time>2015-05-15T11:13:52Z</time>
      </trkpt>
      <trkpt lat="45.69477" lon="5.54398">
        <ele>207.59518484084</ele>
        <time>2015-05-15T11:13:56Z</time>
      </trkpt>
      <trkpt lat="45.69485" lon="5.544">
        <ele>207.59518484084</ele>
        <time>2015-05-15T11:14:01Z</time>
      </trkpt>
      <trkpt lat="45.69492" lon="5.54403">
        <ele>207.17686580485</ele>
        <time>2015-05-15T11:14:07Z</time>
      </trkpt>
      <trkpt lat="45.69497" lon="5.54404">
        <ele>207.17686580485</ele>
        <time>2015-05-15T11:14:11Z</time>
      </trkpt>
      <trkpt lat="45.69503" lon="5.54406">
        <ele>206.4622026094</ele>
        <time>2015-05-15T11:14:16Z</time>
      </trkpt>
      <trkpt lat="45.69508" lon="5.54409">
        <ele>206.4622026094</ele>
        <time>2015-05-15T11:14:21Z</time>
      </trkpt>
      <trkpt lat="45.69517" lon="5.54413">
        <ele>205.54781996665</ele>
        <time>2015-05-15T11:14:26Z</time>
      </trkpt>
      <trkpt lat="45.69523" lon="5.54418">
        <ele>205.54781996665</ele>
        <time>2015-05-15T11:14:31Z</time>
      </trkpt>
      <trkpt lat="45.6953" lon="5.54422">
        <ele>204.58140905435</ele>
        <time>2015-05-15T11:14:36Z</time>
      </trkpt>
      <trkpt lat="45.69534" lon="5.54428">
        <ele>204.58140905435</ele>
        <time>2015-05-15T11:14:41Z</time>
      </trkpt>
      <trkpt lat="45.69539" lon="5.54433">
        <ele>203.44051094717</ele>
        <time>2015-05-15T11:14:46Z</time>
      </trkpt>
      <trkpt lat="45.69545" lon="5.54437">
        <ele>203.44051094717</ele>
        <time>2015-05-15T11:14:51Z</time>
      </trkpt>
      <trkpt lat="45.69551" lon="5.54443">
        <ele>202.50207676724</ele>
        <time>2015-05-15T11:14:56Z</time>
      </trkpt>
      <trkpt lat="45.69557" lon="5.5445">
        <ele>202.50207676724</ele>
        <time>2015-05-15T11:15:01Z</time>
      </trkpt>
      <trkpt lat="45.69562" lon="5.54456">
        <ele>201.81210652463</ele>
        <time>2015-05-15T11:15:06Z</time>
      </trkpt>
      <trkpt lat="45.69567" lon="5.54463">
        <ele>201.81210652463</ele>
        <time>2015-05-15T11:15:11Z</time>
      </trkpt>
      <trkpt lat="45.69571" lon="5.54469">
        <ele>200.73513689661</ele>
        <time>2015-05-15T11:15:16Z</time>
      </trkpt>
      <trkpt lat="45.69578" lon="5.54474">
        <ele>200.73513689661</ele>
        <time>2015-05-15T11:15:21Z</time>
      </trkpt>
      <trkpt lat="45.69584" lon="5.54481">
        <ele>200.21098079736</ele>
        <time>2015-05-15T11:15:26Z</time>
      </trkpt>
      <trkpt lat="45.69591" lon="5.54486">
        <ele>200.21098079736</ele>
        <time>2015-05-15T11:15:31Z</time>
      </trkpt>
      <trkpt lat="45.69597" lon="5.54491">
        <ele>199.82620185731</ele>
        <time>2015-05-15T11:15:36Z</time>
      </trkpt>
      <trkpt lat="45.69601" lon="5.54495">
        <ele>199.82620185731</ele>
        <time>2015-05-15T11:15:41Z</time>
      </trkpt>
      <trkpt lat="45.69605" lon="5.545">
        <ele>198.01555735568</ele>
        <time>2015-05-15T11:15:46Z</time>
      </trkpt>
      <trkpt lat="45.69609" lon="5.54504">
        <ele>198.01555735568</ele>
        <time>2015-05-15T11:15:51Z</time>
      </trkpt>
      <trkpt lat="45.69614" lon="5.54509">
        <ele>196.05640846023</ele>
        <time>2015-05-15T11:15:56Z</time>
      </trkpt>
      <trkpt lat="45.69618" lon="5.54513">
        <ele>196.05640846023</ele>
        <time>2015-05-15T11:16:01Z</time>
      </trkpt>
      <trkpt lat="45.69625" lon="5.54516">
        <ele>193.92207969941</ele>
        <time>2015-05-15T11:16:06Z</time>
      </trkpt>
      <trkpt lat="45.69631" lon="5.54521">
        <ele>193.92207969941</ele>
        <time>2015-05-15T11:16:11Z</time>
      </trkpt>
      <trkpt lat="45.69638" lon="5.54524">
        <ele>192.09264229309</ele>
        <time>2015-05-15T11:16:16Z</time>
      </trkpt>
      <trkpt lat="45.69646" lon="5.54529">
        <ele>192.09264229309</ele>
        <time>2015-05-15T11:16:21Z</time>
      </trkpt>
      <trkpt lat="45.69654" lon="5.54534">
        <ele>191.35781226388</ele>
        <time>2015-05-15T11:16:26Z</time>
      </trkpt>
      <trkpt lat="45.69662" lon="5.54539">
        <ele>191.35781226388</ele>
        <time>2015-05-15T11:16:31Z</time>
      </trkpt>
      <trkpt lat="45.6967" lon="5.54543">
        <ele>190.93295008095</ele>
        <time>2015-05-15T11:16:36Z</time>
      </trkpt>
      <trkpt lat="45.6968" lon="5.54547">
        <ele>191.50237059873</ele>
        <time>2015-05-15T11:16:41Z</time>
      </trkpt>
      <trkpt lat="45.69687" lon="5.54551">
        <ele>191.50237059873</ele>
        <time>2015-05-15T11:16:46Z</time>
      </trkpt>
      <trkpt lat="45.69694" lon="5.54554">
        <ele>192.14083056583</ele>
        <time>2015-05-15T11:16:51Z</time>
      </trkpt>
      <trkpt lat="45.69703" lon="5.54559">
        <ele>193.10042844914</ele>
        <time>2015-05-15T11:16:56Z</time>
      </trkpt>
      <trkpt lat="45.69708" lon="5.54564">
        <ele>193.10042844914</ele>
        <time>2015-05-15T11:17:01Z</time>
      </trkpt>
      <trkpt lat="45.69712" lon="5.54567">
        <ele>193.93644459927</ele>
        <time>2015-05-15T11:17:06Z</time>
      </trkpt>
      <trkpt lat="45.69718" lon="5.54571">
        <ele>193.93644459927</ele>
        <time>2015-05-15T11:17:11Z</time>
      </trkpt>
      <trkpt lat="45.69727" lon="5.54576">
        <ele>195.01531380945</ele>
        <time>2015-05-15T11:17:16Z</time>
      </trkpt>
      <trkpt lat="45.69736" lon="5.5458">
        <ele>196.50289168334</ele>
        <time>2015-05-15T11:17:21Z</time>
      </trkpt>
      <trkpt lat="45.69745" lon="5.54583">
        <ele>196.50289168334</ele>
        <time>2015-05-15T11:17:26Z</time>
      </trkpt>
      <trkpt lat="45.69751" lon="5.54587">
        <ele>197.94640540999</ele>
        <time>2015-05-15T11:17:31Z</time>
      </trkpt>
      <trkpt lat="45.69758" lon="5.54591">
        <ele>197.94640540999</ele>
        <time>2015-05-15T11:17:36Z</time>
      </trkpt>
      <trkpt lat="45.69762" lon="5.54596">
        <ele>198.8976269766</ele>
        <time>2015-05-15T11:17:41Z</time>
      </trkpt>
      <trkpt lat="45.69767" lon="5.54602">
        <ele>198.8976269766</ele>
        <time>2015-05-15T11:17:46Z</time>
      </trkpt>
      <trkpt lat="45.69768" lon="5.54608">
        <ele>198.22207395059</ele>
        <time>2015-05-15T11:17:51Z</time>
      </trkpt>
      <trkpt lat="45.69772" lon="5.54617">
        <ele>198.22207395059</ele>
        <time>2015-05-15T11:17:56Z</time>
      </trkpt>
      <trkpt lat="45.69777" lon="5.54624">
        <ele>198.4471255119</ele>
        <time>2015-05-15T11:18:01Z</time>
      </trkpt>
      <trkpt lat="45.69778" lon="5.54624">
        <ele>198.4471255119</ele>
        <time>2015-05-15T11:18:06Z</time>
      </trkpt>
      <trkpt lat="45.69781" lon="5.54622">
        <ele>198.4471255119</ele>
        <time>2015-05-15T11:18:11Z</time>
      </trkpt>
      <trkpt lat="45.69782" lon="5.54626">
        <ele>198.4471255119</ele>
        <time>2015-05-15T11:18:16Z</time>
      </trkpt>
      <trkpt lat="45.69782" lon="5.54628">
        <ele>198.4471255119</ele>
        <time>2015-05-15T11:18:21Z</time>
      </trkpt>
      <trkpt lat="45.69782" lon="5.54627">
        <ele>198.4471255119</ele>
        <time>2015-05-15T11:18:26Z</time>
      </trkpt>
      <trkpt lat="45.69783" lon="5.54633">
        <ele>198.30920246853</ele>
        <time>2015-05-15T11:18:31Z</time>
      </trkpt>
      <trkpt lat="45.69782" lon="5.54635">
        <ele>198.30920246853</ele>
        <time>2015-05-15T11:18:36Z</time>
      </trkpt>
      <trkpt lat="45.69782" lon="5.54636">
        <ele>198.30920246853</ele>
        <time>2015-05-15T11:18:41Z</time>
      </trkpt>
      <trkpt lat="45.69787" lon="5.54641">
        <ele>198.30920246853</ele>
        <time>2015-05-15T11:18:46Z</time>
      </trkpt>
      <trkpt lat="45.69793" lon="5.54648">
        <ele>197.8058739927</ele>
        <time>2015-05-15T11:18:51Z</time>
      </trkpt>
      <trkpt lat="45.69798" lon="5.54653">
        <ele>197.8058739927</ele>
        <time>2015-05-15T11:18:56Z</time>
      </trkpt>
      <trkpt lat="45.69804" lon="5.54658">
        <ele>197.06561950123</ele>
        <time>2015-05-15T11:19:01Z</time>
      </trkpt>
      <trkpt lat="45.6981" lon="5.54663">
        <ele>197.06561950123</ele>
        <time>2015-05-15T11:19:06Z</time>
      </trkpt>
      <trkpt lat="45.69817" lon="5.54667">
        <ele>196.35226099732</ele>
        <time>2015-05-15T11:19:11Z</time>
      </trkpt>
      <trkpt lat="45.69824" lon="5.54669">
        <ele>196.35226099732</ele>
        <time>2015-05-15T11:19:16Z</time>
      </trkpt>
      <trkpt lat="45.6983" lon="5.54671">
        <ele>195.73723307429</ele>
        <time>2015-05-15T11:19:21Z</time>
      </trkpt>
      <trkpt lat="45.69838" lon="5.54674">
        <ele>195.73723307429</ele>
        <time>2015-05-15T11:19:26Z</time>
      </trkpt>
      <trkpt lat="45.69852" lon="5.54671">
        <ele>196.41051423443</ele>
        <time>2015-05-15T11:19:36Z</time>
      </trkpt>
      <trkpt lat="45.6986" lon="5.54671">
        <ele>196.41051423443</ele>
        <time>2015-05-15T11:19:41Z</time>
      </trkpt>
      <trkpt lat="45.69869" lon="5.54667">
        <ele>197.03557549404</ele>
        <time>2015-05-15T11:19:46Z</time>
      </trkpt>
      <trkpt lat="45.69876" lon="5.54661">
        <ele>197.03557549404</ele>
        <time>2015-05-15T11:19:51Z</time>
      </trkpt>
      <trkpt lat="45.69882" lon="5.54653">
        <ele>197.39739607227</ele>
        <time>2015-05-15T11:19:56Z</time>
      </trkpt>
      <trkpt lat="45.69887" lon="5.54646">
        <ele>197.39739607227</ele>
        <time>2015-05-15T11:20:01Z</time>
      </trkpt>
      <trkpt lat="45.69893" lon="5.5464">
        <ele>198.13334201057</ele>
        <time>2015-05-15T11:20:06Z</time>
      </trkpt>
      <trkpt lat="45.69901" lon="5.54637">
        <ele>198.13334201057</ele>
        <time>2015-05-15T11:20:11Z</time>
      </trkpt>
      <trkpt lat="45.69907" lon="5.54637">
        <ele>198.49268952826</ele>
        <time>2015-05-15T11:20:16Z</time>
      </trkpt>
      <trkpt lat="45.6991" lon="5.5464">
        <ele>198.49268952826</ele>
        <time>2015-05-15T11:20:21Z</time>
      </trkpt>
      <trkpt lat="45.69914" lon="5.54648">
        <ele>198.28532622694</ele>
        <time>2015-05-15T11:20:26Z</time>
      </trkpt>
      <trkpt lat="45.69918" lon="5.54656">
        <ele>198.28532622694</ele>
        <time>2015-05-15T11:20:31Z</time>
      </trkpt>
      <trkpt lat="45.69922" lon="5.54664">
        <ele>198.23020514489</ele>
        <time>2015-05-15T11:20:36Z</time>
      </trkpt>
      <trkpt lat="45.69925" lon="5.54671">
        <ele>198.23020514489</ele>
        <time>2015-05-15T11:20:41Z</time>
      </trkpt>
      <trkpt lat="45.69929" lon="5.54679">
        <ele>198.24368257762</ele>
        <time>2015-05-15T11:20:46Z</time>
      </trkpt>
      <trkpt lat="45.69933" lon="5.54688">
        <ele>198.24368257762</ele>
        <time>2015-05-15T11:20:51Z</time>
      </trkpt>
      <trkpt lat="45.69937" lon="5.54696">
        <ele>198.23367791296</ele>
        <time>2015-05-15T11:20:56Z</time>
      </trkpt>
      <trkpt lat="45.69941" lon="5.54703">
        <ele>198.23367791296</ele>
        <time>2015-05-15T11:21:01Z</time>
      </trkpt>
      <trkpt lat="45.69945" lon="5.54711">
        <ele>198.25907359431</ele>
        <time>2015-05-15T11:21:06Z</time>
      </trkpt>
      <trkpt lat="45.69948" lon="5.5472">
        <ele>198.25907359431</ele>
        <time>2015-05-15T11:21:11Z</time>
      </trkpt>
      <trkpt lat="45.69952" lon="5.54728">
        <ele>198.25906004063</ele>
        <time>2015-05-15T11:21:16Z</time>
      </trkpt>
      <trkpt lat="45.69956" lon="5.54736">
        <ele>198.25906004063</ele>
        <time>2015-05-15T11:21:21Z</time>
      </trkpt>
      <trkpt lat="45.6996" lon="5.54744">
        <ele>198.52325482333</ele>
        <time>2015-05-15T11:21:26Z</time>
      </trkpt>
      <trkpt lat="45.69963" lon="5.54753">
        <ele>198.52325482333</ele>
        <time>2015-05-15T11:21:31Z</time>
      </trkpt>
      <trkpt lat="45.69964" lon="5.54761">
        <ele>198.94459306819</ele>
        <time>2015-05-15T11:21:36Z</time>
      </trkpt>
      <trkpt lat="45.69963" lon="5.54761">
        <ele>198.94459306819</ele>
        <time>2015-05-15T11:21:41Z</time>
      </trkpt>
      <trkpt lat="45.69963" lon="5.54765">
        <ele>198.94459306819</ele>
        <time>2015-05-15T11:21:46Z</time>
      </trkpt>
      <trkpt lat="45.69963" lon="5.54767">
        <ele>198.94459306819</ele>
        <time>2015-05-15T11:21:51Z</time>
      </trkpt>
      <trkpt lat="45.69963" lon="5.54767">
        <ele>198.94459306819</ele>
        <time>2015-05-15T11:21:56Z</time>
      </trkpt>
      <trkpt lat="45.69965" lon="5.54765">
        <ele>198.94459306819</ele>
        <time>2015-05-15T11:22:01Z</time>
      </trkpt>
      <trkpt lat="45.69969" lon="5.54764">
        <ele>199.75491474186</ele>
        <time>2015-05-15T11:22:06Z</time>
      </trkpt>
      <trkpt lat="45.69975" lon="5.54771">
        <ele>199.75491474186</ele>
        <time>2015-05-15T11:22:11Z</time>
      </trkpt>
      <trkpt lat="45.69981" lon="5.54779">
        <ele>200.80768860308</ele>
        <time>2015-05-15T11:22:16Z</time>
      </trkpt>
      <trkpt lat="45.69987" lon="5.54787">
        <ele>200.80768860308</ele>
        <time>2015-05-15T11:22:21Z</time>
      </trkpt>
      <trkpt lat="45.69992" lon="5.54793">
        <ele>201.34682231021</ele>
        <time>2015-05-15T11:22:26Z</time>
      </trkpt>
      <trkpt lat="45.69999" lon="5.54801">
        <ele>201.34682231021</ele>
        <time>2015-05-15T11:22:31Z</time>
      </trkpt>
      <trkpt lat="45.70004" lon="5.54807">
        <ele>201.6243773391</ele>
        <time>2015-05-15T11:22:36Z</time>
      </trkpt>
      <trkpt lat="45.7001" lon="5.54815">
        <ele>201.6243773391</ele>
        <time>2015-05-15T11:22:41Z</time>
      </trkpt>
      <trkpt lat="45.70016" lon="5.54821">
        <ele>202.04760675923</ele>
        <time>2015-05-15T11:22:46Z</time>
      </trkpt>
      <trkpt lat="45.70022" lon="5.54825">
        <ele>202.04760675923</ele>
        <time>2015-05-15T11:22:51Z</time>
      </trkpt>
      <trkpt lat="45.70029" lon="5.54828">
        <ele>202.35939189567</ele>
        <time>2015-05-15T11:22:56Z</time>
      </trkpt>
      <trkpt lat="45.70035" lon="5.5483">
        <ele>202.35939189567</ele>
        <time>2015-05-15T11:23:01Z</time>
      </trkpt>
      <trkpt lat="45.70042" lon="5.54829">
        <ele>202.984769622</ele>
        <time>2015-05-15T11:23:06Z</time>
      </trkpt>
      <trkpt lat="45.70049" lon="5.54827">
        <ele>202.984769622</ele>
        <time>2015-05-15T11:23:11Z</time>
      </trkpt>
      <trkpt lat="45.70056" lon="5.54825">
        <ele>203.85556363739</ele>
        <time>2015-05-15T11:23:16Z</time>
      </trkpt>
      <trkpt lat="45.7006" lon="5.54825">
        <ele>203.85556363739</ele>
        <time>2015-05-15T11:23:21Z</time>
      </trkpt>
      <trkpt lat="45.70066" lon="5.54832">
        <ele>204.2594637193</ele>
        <time>2015-05-15T11:23:26Z</time>
      </trkpt>
      <trkpt lat="45.70073" lon="5.5484">
        <ele>204.2594637193</ele>
        <time>2015-05-15T11:23:31Z</time>
      </trkpt>
      <trkpt lat="45.70082" lon="5.54847">
        <ele>204.46015449736</ele>
        <time>2015-05-15T11:23:36Z</time>
      </trkpt>
      <trkpt lat="45.70088" lon="5.54852">
        <ele>204.46015449736</ele>
        <time>2015-05-15T11:23:41Z</time>
      </trkpt>
      <trkpt lat="45.70094" lon="5.54859">
        <ele>204.78903575961</ele>
        <time>2015-05-15T11:23:46Z</time>
      </trkpt>
      <trkpt lat="45.701" lon="5.54865">
        <ele>204.78903575961</ele>
        <time>2015-05-15T11:23:51Z</time>
      </trkpt>
      <trkpt lat="45.70105" lon="5.54873">
        <ele>205.26462942768</ele>
        <time>2015-05-15T11:23:56Z</time>
      </trkpt>
      <trkpt lat="45.70111" lon="5.5488">
        <ele>205.26462942768</ele>
        <time>2015-05-15T11:24:01Z</time>
      </trkpt>
      <trkpt lat="45.70117" lon="5.54887">
        <ele>205.73079961107</ele>
        <time>2015-05-15T11:24:06Z</time>
      </trkpt>
      <trkpt lat="45.70121" lon="5.54895">
        <ele>205.73079961107</ele>
        <time>2015-05-15T11:24:11Z</time>
      </trkpt>
      <trkpt lat="45.70126" lon="5.54905">
        <ele>205.91325316844</ele>
        <time>2015-05-15T11:24:16Z</time>
      </trkpt>
      <trkpt lat="45.7013" lon="5.54914">
        <ele>205.91325316844</ele>
        <time>2015-05-15T11:24:21Z</time>
      </trkpt>
      <trkpt lat="45.70133" lon="5.54922">
        <ele>205.70279842591</ele>
        <time>2015-05-15T11:24:26Z</time>
      </trkpt>
      <trkpt lat="45.70136" lon="5.5493">
        <ele>205.70279842591</ele>
        <time>2015-05-15T11:24:31Z</time>
      </trkpt>
      <trkpt lat="45.7014" lon="5.54936">
        <ele>205.73437677105</ele>
        <time>2015-05-15T11:24:36Z</time>
      </trkpt>
      <trkpt lat="45.70146" lon="5.5494">
        <ele>205.73437677105</ele>
        <time>2015-05-15T11:24:41Z</time>
      </trkpt>
      <trkpt lat="45.70152" lon="5.54945">
        <ele>205.97597001033</ele>
        <time>2015-05-15T11:24:46Z</time>
      </trkpt>
      <trkpt lat="45.70157" lon="5.54946">
        <ele>205.97597001033</ele>
        <time>2015-05-15T11:24:51Z</time>
      </trkpt>
      <trkpt lat="45.70163" lon="5.54942">
        <ele>206.29648179533</ele>
        <time>2015-05-15T11:24:56Z</time>
      </trkpt>
      <trkpt lat="45.70169" lon="5.5494">
        <ele>206.29648179533</ele>
        <time>2015-05-15T11:25:01Z</time>
      </trkpt>
      <trkpt lat="45.70177" lon="5.54935">
        <ele>206.34368063996</ele>
        <time>2015-05-15T11:25:06Z</time>
      </trkpt>
      <trkpt lat="45.70184" lon="5.5493">
        <ele>206.34368063996</ele>
        <time>2015-05-15T11:25:11Z</time>
      </trkpt>
      <trkpt lat="45.70191" lon="5.54926">
        <ele>206.59903099548</ele>
        <time>2015-05-15T11:25:16Z</time>
      </trkpt>
      <trkpt lat="45.70198" lon="5.54923">
        <ele>206.59903099548</ele>
        <time>2015-05-15T11:25:21Z</time>
      </trkpt>
      <trkpt lat="45.70204" lon="5.5492">
        <ele>206.87398646858</ele>
        <time>2015-05-15T11:25:26Z</time>
      </trkpt>
      <trkpt lat="45.70214" lon="5.54917">
        <ele>207.10911374727</ele>
        <time>2015-05-15T11:25:31Z</time>
      </trkpt>
      <trkpt lat="45.70234" lon="5.54907">
        <ele>207.27830634337</ele>
        <time>2015-05-15T11:25:36Z</time>
      </trkpt>
      <trkpt lat="45.7024" lon="5.54904">
        <ele>207.27830634337</ele>
        <time>2015-05-15T11:25:41Z</time>
      </trkpt>
      <trkpt lat="45.70246" lon="5.54901">
        <ele>207.35758575661</ele>
        <time>2015-05-15T11:25:46Z</time>
      </trkpt>
      <trkpt lat="45.70247" lon="5.54899">
        <ele>207.35758575661</ele>
        <time>2015-05-15T11:25:51Z</time>
      </trkpt>
      <trkpt lat="45.70255" lon="5.54896">
        <ele>207.35383258134</ele>
        <time>2015-05-15T11:25:56Z</time>
      </trkpt>
      <trkpt lat="45.70262" lon="5.54891">
        <ele>207.35383258134</ele>
        <time>2015-05-15T11:26:01Z</time>
      </trkpt>
      <trkpt lat="45.70269" lon="5.54888">
        <ele>207.24485319728</ele>
        <time>2015-05-15T11:26:06Z</time>
      </trkpt>
      <trkpt lat="45.70277" lon="5.54885">
        <ele>207.24485319728</ele>
        <time>2015-05-15T11:26:11Z</time>
      </trkpt>
      <trkpt lat="45.7028" lon="5.54883">
        <ele>207.11127472058</ele>
        <time>2015-05-15T11:26:16Z</time>
      </trkpt>
      <trkpt lat="45.70278" lon="5.54884">
        <ele>207.11127472058</ele>
        <time>2015-05-15T11:26:21Z</time>
      </trkpt>
      <trkpt lat="45.70277" lon="5.54883">
        <ele>207.11127472058</ele>
        <time>2015-05-15T11:26:26Z</time>
      </trkpt>
      <trkpt lat="45.70277" lon="5.54884">
        <ele>207.11127472058</ele>
        <time>2015-05-15T11:26:31Z</time>
      </trkpt>
      <trkpt lat="45.70276" lon="5.54885">
        <ele>207.11127472058</ele>
        <time>2015-05-15T11:26:36Z</time>
      </trkpt>
      <trkpt lat="45.70277" lon="5.54884">
        <ele>207.11127472058</ele>
        <time>2015-05-15T11:26:41Z</time>
      </trkpt>
      <trkpt lat="45.70277" lon="5.54884">
        <ele>207.11127472058</ele>
        <time>2015-05-15T11:26:46Z</time>
      </trkpt>
      <trkpt lat="45.70277" lon="5.54884">
        <ele>207.11127472058</ele>
        <time>2015-05-15T11:26:51Z</time>
      </trkpt>
      <trkpt lat="45.70277" lon="5.54884">
        <ele>207.11127472058</ele>
        <time>2015-05-15T11:26:56Z</time>
      </trkpt>
      <trkpt lat="45.70277" lon="5.54884">
        <ele>207.11127472058</ele>
        <time>2015-05-15T11:27:01Z</time>
      </trkpt>
      <trkpt lat="45.70277" lon="5.54884">
        <ele>207.11127472058</ele>
        <time>2015-05-15T11:27:06Z</time>
      </trkpt>
      <trkpt lat="45.70277" lon="5.54884">
        <ele>207.11127472058</ele>
        <time>2015-05-15T11:27:11Z</time>
      </trkpt>
      <trkpt lat="45.70277" lon="5.54884">
        <ele>207.11127472058</ele>
        <time>2015-05-15T11:27:16Z</time>
      </trkpt>
      <trkpt lat="45.70277" lon="5.54884">
        <ele>207.11127472058</ele>
        <time>2015-05-15T11:27:21Z</time>
      </trkpt>
      <trkpt lat="45.70277" lon="5.54884">
        <ele>207.11127472058</ele>
        <time>2015-05-15T11:27:26Z</time>
      </trkpt>
      <trkpt lat="45.70277" lon="5.54884">
        <ele>207.11127472058</ele>
        <time>2015-05-15T11:27:31Z</time>
      </trkpt>
      <trkpt lat="45.70277" lon="5.54884">
        <ele>207.11127472058</ele>
        <time>2015-05-15T11:27:36Z</time>
      </trkpt>
      <trkpt lat="45.70277" lon="5.54885">
        <ele>207.11127472058</ele>
        <time>2015-05-15T11:27:41Z</time>
      </trkpt>
      <trkpt lat="45.70277" lon="5.54885">
        <ele>207.11127472058</ele>
        <time>2015-05-15T11:27:46Z</time>
      </trkpt>
      <trkpt lat="45.70278" lon="5.54886">
        <ele>207.11127472058</ele>
        <time>2015-05-15T11:27:51Z</time>
      </trkpt>
      <trkpt lat="45.70278" lon="5.54886">
        <ele>207.11127472058</ele>
        <time>2015-05-15T11:27:56Z</time>
      </trkpt>
      <trkpt lat="45.70278" lon="5.54886">
        <ele>207.11127472058</ele>
        <time>2015-05-15T11:28:01Z</time>
      </trkpt>
      <trkpt lat="45.70278" lon="5.54885">
        <ele>207.11127472058</ele>
        <time>2015-05-15T11:28:06Z</time>
      </trkpt>
      <trkpt lat="45.70277" lon="5.54886">
        <ele>207.11127472058</ele>
        <time>2015-05-15T11:28:11Z</time>
      </trkpt>
      <trkpt lat="45.70277" lon="5.54885">
        <ele>207.11127472058</ele>
        <time>2015-05-15T11:28:16Z</time>
      </trkpt>
      <trkpt lat="45.70276" lon="5.54885">
        <ele>207.11127472058</ele>
        <time>2015-05-15T11:28:21Z</time>
      </trkpt>
      <trkpt lat="45.70276" lon="5.54885">
        <ele>207.38816299937</ele>
        <time>2015-05-15T11:28:26Z</time>
      </trkpt>
      <trkpt lat="45.70276" lon="5.54885">
        <ele>207.38816299937</ele>
        <time>2015-05-15T11:28:31Z</time>
      </trkpt>
      <trkpt lat="45.70276" lon="5.54885">
        <ele>207.38816299937</ele>
        <time>2015-05-15T11:28:36Z</time>
      </trkpt>
      <trkpt lat="45.70276" lon="5.54885">
        <ele>207.38816299937</ele>
        <time>2015-05-15T11:28:41Z</time>
      </trkpt>
      <trkpt lat="45.70276" lon="5.54885">
        <ele>207.38816299937</ele>
        <time>2015-05-15T11:28:46Z</time>
      </trkpt>
      <trkpt lat="45.70276" lon="5.54885">
        <ele>207.38816299937</ele>
        <time>2015-05-15T11:28:51Z</time>
      </trkpt>
      <trkpt lat="45.70276" lon="5.54885">
        <ele>207.38816299937</ele>
        <time>2015-05-15T11:28:56Z</time>
      </trkpt>
      <trkpt lat="45.70276" lon="5.54886">
        <ele>207.38816299937</ele>
        <time>2015-05-15T11:29:01Z</time>
      </trkpt>
      <trkpt lat="45.70276" lon="5.54886">
        <ele>207.38816299937</ele>
        <time>2015-05-15T11:29:06Z</time>
      </trkpt>
      <trkpt lat="45.70276" lon="5.54886">
        <ele>207.38816299937</ele>
        <time>2015-05-15T11:29:11Z</time>
      </trkpt>
      <trkpt lat="45.70276" lon="5.54888">
        <ele>207.38816299937</ele>
        <time>2015-05-15T11:29:16Z</time>
      </trkpt>
      <trkpt lat="45.70276" lon="5.54888">
        <ele>207.38816299937</ele>
        <time>2015-05-15T11:29:21Z</time>
      </trkpt>
      <trkpt lat="45.70276" lon="5.54888">
        <ele>207.38816299937</ele>
        <time>2015-05-15T11:29:26Z</time>
      </trkpt>
      <trkpt lat="45.70275" lon="5.54889">
        <ele>207.38816299937</ele>
        <time>2015-05-15T11:29:31Z</time>
      </trkpt>
      <trkpt lat="45.70275" lon="5.54888">
        <ele>207.38816299937</ele>
        <time>2015-05-15T11:29:36Z</time>
      </trkpt>
      <trkpt lat="45.70276" lon="5.54887">
        <ele>207.38816299937</ele>
        <time>2015-05-15T11:29:41Z</time>
      </trkpt>
      <trkpt lat="45.70276" lon="5.54887">
        <ele>207.38816299937</ele>
        <time>2015-05-15T11:29:46Z</time>
      </trkpt>
      <trkpt lat="45.70276" lon="5.54887">
        <ele>207.38816299937</ele>
        <time>2015-05-15T11:29:51Z</time>
      </trkpt>
      <trkpt lat="45.70276" lon="5.54885">
        <ele>207.38816299937</ele>
        <time>2015-05-15T11:29:56Z</time>
      </trkpt>
      <trkpt lat="45.70277" lon="5.54885">
        <ele>207.38816299937</ele>
        <time>2015-05-15T11:30:01Z</time>
      </trkpt>
      <trkpt lat="45.70277" lon="5.54885">
        <ele>207.38816299937</ele>
        <time>2015-05-15T11:30:06Z</time>
      </trkpt>
      <trkpt lat="45.7028" lon="5.54883">
        <ele>207.95868523373</ele>
        <time>2015-05-15T11:30:11Z</time>
      </trkpt>
      <trkpt lat="45.70287" lon="5.54882">
        <ele>207.95868523373</ele>
        <time>2015-05-15T11:30:16Z</time>
      </trkpt>
      <trkpt lat="45.70293" lon="5.5488">
        <ele>208.25262310078</ele>
        <time>2015-05-15T11:30:21Z</time>
      </trkpt>
      <trkpt lat="45.703" lon="5.54877">
        <ele>208.25262310078</ele>
        <time>2015-05-15T11:30:26Z</time>
      </trkpt>
      <trkpt lat="45.70307" lon="5.54873">
        <ele>208.44857793319</ele>
        <time>2015-05-15T11:30:31Z</time>
      </trkpt>
      <trkpt lat="45.70314" lon="5.5487">
        <ele>208.44857793319</ele>
        <time>2015-05-15T11:30:36Z</time>
      </trkpt>
      <trkpt lat="45.70321" lon="5.54866">
        <ele>208.22233852145</ele>
        <time>2015-05-15T11:30:41Z</time>
      </trkpt>
      <trkpt lat="45.70337" lon="5.54857">
        <ele>207.98084805275</ele>
        <time>2015-05-15T11:30:46Z</time>
      </trkpt>
      <trkpt lat="45.7036" lon="5.54846">
        <ele>207.48152623025</ele>
        <time>2015-05-15T11:30:51Z</time>
      </trkpt>
      <trkpt lat="45.70384" lon="5.54837">
        <ele>206.97590375818</ele>
        <time>2015-05-15T11:30:56Z</time>
      </trkpt>
      <trkpt lat="45.70408" lon="5.5483">
        <ele>206.36559160029</ele>
        <time>2015-05-15T11:31:01Z</time>
      </trkpt>
      <trkpt lat="45.70414" lon="5.54821">
        <ele>206.36559160029</ele>
        <time>2015-05-15T11:31:06Z</time>
      </trkpt>
      <trkpt lat="45.70421" lon="5.5482">
        <ele>205.96322345556</ele>
        <time>2015-05-15T11:31:11Z</time>
      </trkpt>
      <trkpt lat="45.70428" lon="5.54817">
        <ele>205.96322345556</ele>
        <time>2015-05-15T11:31:16Z</time>
      </trkpt>
      <trkpt lat="45.70434" lon="5.54813">
        <ele>205.19320109405</ele>
        <time>2015-05-15T11:31:21Z</time>
      </trkpt>
      <trkpt lat="45.70439" lon="5.54809">
        <ele>205.19320109405</ele>
        <time>2015-05-15T11:31:26Z</time>
      </trkpt>
      <trkpt lat="45.70446" lon="5.54805">
        <ele>204.22936378576</ele>
        <time>2015-05-15T11:31:31Z</time>
      </trkpt>
      <trkpt lat="45.70452" lon="5.54802">
        <ele>204.22936378576</ele>
        <time>2015-05-15T11:31:36Z</time>
      </trkpt>
      <trkpt lat="45.70459" lon="5.548">
        <ele>203.36299667053</ele>
        <time>2015-05-15T11:31:41Z</time>
      </trkpt>
      <trkpt lat="45.70466" lon="5.54799">
        <ele>203.36299667053</ele>
        <time>2015-05-15T11:31:46Z</time>
      </trkpt>
      <trkpt lat="45.70473" lon="5.54797">
        <ele>203.15190330724</ele>
        <time>2015-05-15T11:31:51Z</time>
      </trkpt>
      <trkpt lat="45.7048" lon="5.54795">
        <ele>203.15190330724</ele>
        <time>2015-05-15T11:31:56Z</time>
      </trkpt>
      <trkpt lat="45.70487" lon="5.54795">
        <ele>202.92932425808</ele>
        <time>2015-05-15T11:32:01Z</time>
      </trkpt>
      <trkpt lat="45.70494" lon="5.54792">
        <ele>202.92932425808</ele>
        <time>2015-05-15T11:32:06Z</time>
      </trkpt>
      <trkpt lat="45.70501" lon="5.54789">
        <ele>203.11507318429</ele>
        <time>2015-05-15T11:32:11Z</time>
      </trkpt>
      <trkpt lat="45.70508" lon="5.54785">
        <ele>203.11507318429</ele>
        <time>2015-05-15T11:32:16Z</time>
      </trkpt>
      <trkpt lat="45.70515" lon="5.54782">
        <ele>203.00169457048</ele>
        <time>2015-05-15T11:32:21Z</time>
      </trkpt>
      <trkpt lat="45.70523" lon="5.54778">
        <ele>203.00169457048</ele>
        <time>2015-05-15T11:32:26Z</time>
      </trkpt>
      <trkpt lat="45.7053" lon="5.54775">
        <ele>202.51094691127</ele>
        <time>2015-05-15T11:32:31Z</time>
      </trkpt>
      <trkpt lat="45.70537" lon="5.54772">
        <ele>202.51094691127</ele>
        <time>2015-05-15T11:32:36Z</time>
      </trkpt>
      <trkpt lat="45.70543" lon="5.54769">
        <ele>201.87398929905</ele>
        <time>2015-05-15T11:32:41Z</time>
      </trkpt>
      <trkpt lat="45.70549" lon="5.54766">
        <ele>201.87398929905</ele>
        <time>2015-05-15T11:32:46Z</time>
      </trkpt>
      <trkpt lat="45.70554" lon="5.54762">
        <ele>201.44948176342</ele>
        <time>2015-05-15T11:32:51Z</time>
      </trkpt>
      <trkpt lat="45.7056" lon="5.54758">
        <ele>201.44948176342</ele>
        <time>2015-05-15T11:32:56Z</time>
      </trkpt>
      <trkpt lat="45.70566" lon="5.54755">
        <ele>200.7620772873</ele>
        <time>2015-05-15T11:33:01Z</time>
      </trkpt>
      <trkpt lat="45.70572" lon="5.54753">
        <ele>200.7620772873</ele>
        <time>2015-05-15T11:33:06Z</time>
      </trkpt>
      <trkpt lat="45.70579" lon="5.5475">
        <ele>200.32317519079</ele>
        <time>2015-05-15T11:33:11Z</time>
      </trkpt>
      <trkpt lat="45.70586" lon="5.54749">
        <ele>200.32317519079</ele>
        <time>2015-05-15T11:33:16Z</time>
      </trkpt>
      <trkpt lat="45.70593" lon="5.54747">
        <ele>200.21676572731</ele>
        <time>2015-05-15T11:33:21Z</time>
      </trkpt>
      <trkpt lat="45.706" lon="5.54744">
        <ele>200.21676572731</ele>
        <time>2015-05-15T11:33:26Z</time>
      </trkpt>
      <trkpt lat="45.70607" lon="5.54741">
        <ele>200.26029181493</ele>
        <time>2015-05-15T11:33:31Z</time>
      </trkpt>
      <trkpt lat="45.70613" lon="5.54738">
        <ele>200.26029181493</ele>
        <time>2015-05-15T11:33:36Z</time>
      </trkpt>
      <trkpt lat="45.70619" lon="5.54736">
        <ele>200.71647712252</ele>
        <time>2015-05-15T11:33:41Z</time>
      </trkpt>
      <trkpt lat="45.70621" lon="5.54734">
        <ele>200.71647712252</ele>
        <time>2015-05-15T11:33:46Z</time>
      </trkpt>
      <trkpt lat="45.70626" lon="5.54732">
        <ele>200.71647712252</ele>
        <time>2015-05-15T11:33:51Z</time>
      </trkpt>
      <trkpt lat="45.70634" lon="5.54728">
        <ele>200.87641506937</ele>
        <time>2015-05-15T11:33:56Z</time>
      </trkpt>
      <trkpt lat="45.70652" lon="5.54719">
        <ele>200.99197122401</ele>
        <time>2015-05-15T11:34:01Z</time>
      </trkpt>
      <trkpt lat="45.7067" lon="5.54711">
        <ele>201.00838054499</ele>
        <time>2015-05-15T11:34:06Z</time>
      </trkpt>
      <trkpt lat="45.70676" lon="5.54708">
        <ele>201.00838054499</ele>
        <time>2015-05-15T11:34:11Z</time>
      </trkpt>
      <trkpt lat="45.70683" lon="5.54706">
        <ele>200.97602973538</ele>
        <time>2015-05-15T11:34:16Z</time>
      </trkpt>
      <trkpt lat="45.7069" lon="5.54702">
        <ele>200.97602973538</ele>
        <time>2015-05-15T11:34:21Z</time>
      </trkpt>
      <trkpt lat="45.70697" lon="5.54699">
        <ele>201.22993923294</ele>
        <time>2015-05-15T11:34:26Z</time>
      </trkpt>
      <trkpt lat="45.70702" lon="5.54696">
        <ele>201.22993923294</ele>
        <time>2015-05-15T11:34:31Z</time>
      </trkpt>
      <trkpt lat="45.70709" lon="5.54694">
        <ele>201.50325044916</ele>
        <time>2015-05-15T11:34:36Z</time>
      </trkpt>
      <trkpt lat="45.70716" lon="5.54691">
        <ele>201.50325044916</ele>
        <time>2015-05-15T11:34:41Z</time>
      </trkpt>
      <trkpt lat="45.70722" lon="5.54689">
        <ele>201.80803619267</ele>
        <time>2015-05-15T11:34:46Z</time>
      </trkpt>
      <trkpt lat="45.70727" lon="5.54684">
        <ele>201.80803619267</ele>
        <time>2015-05-15T11:34:51Z</time>
      </trkpt>
      <trkpt lat="45.7073" lon="5.5468">
        <ele>201.46364558172</ele>
        <time>2015-05-15T11:34:56Z</time>
      </trkpt>
      <trkpt lat="45.70737" lon="5.54677">
        <ele>201.46364558172</ele>
        <time>2015-05-15T11:35:01Z</time>
      </trkpt>
      <trkpt lat="45.70745" lon="5.54672">
        <ele>201.02294762575</ele>
        <time>2015-05-15T11:35:06Z</time>
      </trkpt>
      <trkpt lat="45.70753" lon="5.54667">
        <ele>201.02294762575</ele>
        <time>2015-05-15T11:35:11Z</time>
      </trkpt>
      <trkpt lat="45.7076" lon="5.54665">
        <ele>200.71023337585</ele>
        <time>2015-05-15T11:35:16Z</time>
      </trkpt>
      <trkpt lat="45.70766" lon="5.54661">
        <ele>200.71023337585</ele>
        <time>2015-05-15T11:35:21Z</time>
      </trkpt>
      <trkpt lat="45.70773" lon="5.54658">
        <ele>199.76739965292</ele>
        <time>2015-05-15T11:35:26Z</time>
      </trkpt>
      <trkpt lat="45.70781" lon="5.54657">
        <ele>199.76739965292</ele>
        <time>2015-05-15T11:35:31Z</time>
      </trkpt>
      <trkpt lat="45.7079" lon="5.54658">
        <ele>199.48251869926</ele>
        <time>2015-05-15T11:35:36Z</time>
      </trkpt>
      <trkpt lat="45.70799" lon="5.5466">
        <ele>199.48251869926</ele>
        <time>2015-05-15T11:35:41Z</time>
      </trkpt>
      <trkpt lat="45.70806" lon="5.54661">
        <ele>199.31784387496</ele>
        <time>2015-05-15T11:35:46Z</time>
      </trkpt>
      <trkpt lat="45.70812" lon="5.54661">
        <ele>199.31784387496</ele>
        <time>2015-05-15T11:35:51Z</time>
      </trkpt>
      <trkpt lat="45.70817" lon="5.5466">
        <ele>198.5009621195</ele>
        <time>2015-05-15T11:35:56Z</time>
      </trkpt>
      <trkpt lat="45.70822" lon="5.5466">
        <ele>198.5009621195</ele>
        <time>2015-05-15T11:36:01Z</time>
      </trkpt>
      <trkpt lat="45.70829" lon="5.5466">
        <ele>198.0617538796</ele>
        <time>2015-05-15T11:36:06Z</time>
      </trkpt>
      <trkpt lat="45.70838" lon="5.54664">
        <ele>198.0617538796</ele>
        <time>2015-05-15T11:36:11Z</time>
      </trkpt>
      <trkpt lat="45.70845" lon="5.54668">
        <ele>197.78606207864</ele>
        <time>2015-05-15T11:36:16Z</time>
      </trkpt>
      <trkpt lat="45.70853" lon="5.54673">
        <ele>197.78606207864</ele>
        <time>2015-05-15T11:36:21Z</time>
      </trkpt>
      <trkpt lat="45.70872" lon="5.54684">
        <ele>197.54703432469</ele>
        <time>2015-05-15T11:36:26Z</time>
      </trkpt>
      <trkpt lat="45.709" lon="5.54697">
        <ele>197.37112063916</ele>
        <time>2015-05-15T11:36:31Z</time>
      </trkpt>
      <trkpt lat="45.7092" lon="5.54711">
        <ele>197.29703861716</ele>
        <time>2015-05-15T11:36:36Z</time>
      </trkpt>
      <trkpt lat="45.70947" lon="5.54724">
        <ele>197.50446566212</ele>
        <time>2015-05-15T11:36:41Z</time>
      </trkpt>
      <trkpt lat="45.70972" lon="5.54738">
        <ele>198.15907236977</ele>
        <time>2015-05-15T11:36:46Z</time>
      </trkpt>
      <trkpt lat="45.70988" lon="5.54749">
        <ele>199.26898101491</ele>
        <time>2015-05-15T11:36:51Z</time>
      </trkpt>
      <trkpt lat="45.70995" lon="5.54753">
        <ele>199.26898101491</ele>
        <time>2015-05-15T11:36:56Z</time>
      </trkpt>
      <trkpt lat="45.71002" lon="5.54757">
        <ele>199.90371125829</ele>
        <time>2015-05-15T11:37:01Z</time>
      </trkpt>
      <trkpt lat="45.71007" lon="5.54762">
        <ele>199.90371125829</ele>
        <time>2015-05-15T11:37:06Z</time>
      </trkpt>
      <trkpt lat="45.71009" lon="5.54763">
        <ele>199.90371125829</ele>
        <time>2015-05-15T11:37:11Z</time>
      </trkpt>
      <trkpt lat="45.71011" lon="5.54763">
        <ele>200.85974876745</ele>
        <time>2015-05-15T11:37:16Z</time>
      </trkpt>
      <trkpt lat="45.71011" lon="5.54763">
        <ele>200.85974876745</ele>
        <time>2015-05-15T11:37:21Z</time>
      </trkpt>
      <trkpt lat="45.71011" lon="5.54763">
        <ele>200.85974876745</ele>
        <time>2015-05-15T11:37:26Z</time>
      </trkpt>
      <trkpt lat="45.71011" lon="5.54763">
        <ele>200.85974876745</ele>
        <time>2015-05-15T11:37:31Z</time>
      </trkpt>
      <trkpt lat="45.71012" lon="5.54763">
        <ele>200.85974876745</ele>
        <time>2015-05-15T11:37:36Z</time>
      </trkpt>
      <trkpt lat="45.71012" lon="5.54763">
        <ele>200.85974876745</ele>
        <time>2015-05-15T11:37:41Z</time>
      </trkpt>
      <trkpt lat="45.71012" lon="5.54763">
        <ele>200.85974876745</ele>
        <time>2015-05-15T11:37:46Z</time>
      </trkpt>
      <trkpt lat="45.71012" lon="5.54763">
        <ele>200.85974876745</ele>
        <time>2015-05-15T11:37:51Z</time>
      </trkpt>
      <trkpt lat="45.71011" lon="5.54763">
        <ele>200.85974876745</ele>
        <time>2015-05-15T11:37:56Z</time>
      </trkpt>
      <trkpt lat="45.71012" lon="5.54763">
        <ele>200.85974876745</ele>
        <time>2015-05-15T11:38:01Z</time>
      </trkpt>
      <trkpt lat="45.71012" lon="5.54763">
        <ele>200.85974876745</ele>
        <time>2015-05-15T11:38:06Z</time>
      </trkpt>
      <trkpt lat="45.71012" lon="5.54763">
        <ele>200.85974876745</ele>
        <time>2015-05-15T11:38:11Z</time>
      </trkpt>
      <trkpt lat="45.71012" lon="5.54761">
        <ele>200.85974876745</ele>
        <time>2015-05-15T11:38:16Z</time>
      </trkpt>
      <trkpt lat="45.71013" lon="5.54761">
        <ele>200.85974876745</ele>
        <time>2015-05-15T11:38:21Z</time>
      </trkpt>
      <trkpt lat="45.71013" lon="5.54758">
        <ele>200.85974876745</ele>
        <time>2015-05-15T11:38:26Z</time>
      </trkpt>
      <trkpt lat="45.71013" lon="5.54757">
        <ele>200.85974876745</ele>
        <time>2015-05-15T11:38:31Z</time>
      </trkpt>
      <trkpt lat="45.71013" lon="5.54756">
        <ele>200.85974876745</ele>
        <time>2015-05-15T11:38:36Z</time>
      </trkpt>
      <trkpt lat="45.71013" lon="5.54756">
        <ele>200.85974876745</ele>
        <time>2015-05-15T11:38:41Z</time>
      </trkpt>
      <trkpt lat="45.71013" lon="5.54756">
        <ele>200.85974876745</ele>
        <time>2015-05-15T11:38:46Z</time>
      </trkpt>
      <trkpt lat="45.71013" lon="5.54756">
        <ele>200.85974876745</ele>
        <time>2015-05-15T11:38:51Z</time>
      </trkpt>
      <trkpt lat="45.71013" lon="5.54756">
        <ele>200.85974876745</ele>
        <time>2015-05-15T11:38:56Z</time>
      </trkpt>
      <trkpt lat="45.71014" lon="5.54756">
        <ele>200.85974876745</ele>
        <time>2015-05-15T11:39:01Z</time>
      </trkpt>
      <trkpt lat="45.71014" lon="5.54757">
        <ele>200.85974876745</ele>
        <time>2015-05-15T11:39:06Z</time>
      </trkpt>
      <trkpt lat="45.71014" lon="5.54757">
        <ele>200.85974876745</ele>
        <time>2015-05-15T11:39:11Z</time>
      </trkpt>
      <trkpt lat="45.71014" lon="5.54757">
        <ele>200.85974876745</ele>
        <time>2015-05-15T11:39:16Z</time>
      </trkpt>
      <trkpt lat="45.71015" lon="5.54761">
        <ele>201.79334522496</ele>
        <time>2015-05-15T11:39:21Z</time>
      </trkpt>
      <trkpt lat="45.71017" lon="5.54766">
        <ele>201.79334522496</ele>
        <time>2015-05-15T11:39:26Z</time>
      </trkpt>
      <trkpt lat="45.71023" lon="5.54771">
        <ele>202.60225192643</ele>
        <time>2015-05-15T11:39:31Z</time>
      </trkpt>
      <trkpt lat="45.7103" lon="5.54775">
        <ele>202.60225192643</ele>
        <time>2015-05-15T11:39:36Z</time>
      </trkpt>
      <trkpt lat="45.71036" lon="5.54778">
        <ele>203.16328377649</ele>
        <time>2015-05-15T11:39:41Z</time>
      </trkpt>
      <trkpt lat="45.71042" lon="5.54779">
        <ele>203.16328377649</ele>
        <time>2015-05-15T11:39:46Z</time>
      </trkpt>
      <trkpt lat="45.7105" lon="5.54775">
        <ele>204.05476502928</ele>
        <time>2015-05-15T11:39:51Z</time>
      </trkpt>
      <trkpt lat="45.71054" lon="5.54765">
        <ele>204.05476502928</ele>
        <time>2015-05-15T11:39:56Z</time>
      </trkpt>
      <trkpt lat="45.71056" lon="5.54755">
        <ele>204.91815701035</ele>
        <time>2015-05-15T11:40:01Z</time>
      </trkpt>
      <trkpt lat="45.71055" lon="5.54744">
        <ele>204.91815701035</ele>
        <time>2015-05-15T11:40:06Z</time>
      </trkpt>
      <trkpt lat="45.71053" lon="5.54735">
        <ele>205.49343448301</ele>
        <time>2015-05-15T11:40:11Z</time>
      </trkpt>
      <trkpt lat="45.71052" lon="5.54734">
        <ele>205.49343448301</ele>
        <time>2015-05-15T11:40:16Z</time>
      </trkpt>
      <trkpt lat="45.71051" lon="5.54733">
        <ele>205.49343448301</ele>
        <time>2015-05-15T11:40:21Z</time>
      </trkpt>
      <trkpt lat="45.71054" lon="5.54727">
        <ele>205.49343448301</ele>
        <time>2015-05-15T11:40:26Z</time>
      </trkpt>
      <trkpt lat="45.71059" lon="5.54728">
        <ele>206.37637184028</ele>
        <time>2015-05-15T11:40:31Z</time>
      </trkpt>
      <trkpt lat="45.71066" lon="5.54732">
        <ele>206.37637184028</ele>
        <time>2015-05-15T11:40:36Z</time>
      </trkpt>
      <trkpt lat="45.71077" lon="5.5474">
        <ele>207.31114208516</ele>
        <time>2015-05-15T11:40:41Z</time>
      </trkpt>
      <trkpt lat="45.71087" lon="5.5475">
        <ele>208.04620747078</ele>
        <time>2015-05-15T11:40:46Z</time>
      </trkpt>
      <trkpt lat="45.71103" lon="5.54759">
        <ele>209.09850284289</ele>
        <time>2015-05-15T11:40:51Z</time>
      </trkpt>
      <trkpt lat="45.71117" lon="5.54769">
        <ele>209.93738103599</ele>
        <time>2015-05-15T11:40:56Z</time>
      </trkpt>
      <trkpt lat="45.71129" lon="5.54777">
        <ele>210.89327120305</ele>
        <time>2015-05-15T11:41:01Z</time>
      </trkpt>
      <trkpt lat="45.71143" lon="5.54784">
        <ele>212.44500127481</ele>
        <time>2015-05-15T11:41:06Z</time>
      </trkpt>
      <trkpt lat="45.71162" lon="5.54795">
        <ele>214.14113541038</ele>
        <time>2015-05-15T11:41:11Z</time>
      </trkpt>
      <trkpt lat="45.71158" lon="5.54797">
        <ele>214.14113541038</ele>
        <time>2015-05-15T11:41:16Z</time>
      </trkpt>
      <trkpt lat="45.71158" lon="5.54798">
        <ele>214.14113541038</ele>
        <time>2015-05-15T11:41:21Z</time>
      </trkpt>
      <trkpt lat="45.71158" lon="5.54799">
        <ele>214.14113541038</ele>
        <time>2015-05-15T11:41:26Z</time>
      </trkpt>
      <trkpt lat="45.71162" lon="5.54802">
        <ele>214.8857475508</ele>
        <time>2015-05-15T11:41:31Z</time>
      </trkpt>
      <trkpt lat="45.71168" lon="5.54808">
        <ele>214.8857475508</ele>
        <time>2015-05-15T11:41:36Z</time>
      </trkpt>
      <trkpt lat="45.71174" lon="5.54813">
        <ele>215.42432165936</ele>
        <time>2015-05-15T11:41:41Z</time>
      </trkpt>
      <trkpt lat="45.71181" lon="5.54818">
        <ele>215.42432165936</ele>
        <time>2015-05-15T11:41:46Z</time>
      </trkpt>
      <trkpt lat="45.71187" lon="5.54823">
        <ele>215.9726700929</ele>
        <time>2015-05-15T11:41:51Z</time>
      </trkpt>
      <trkpt lat="45.71194" lon="5.54828">
        <ele>215.9726700929</ele>
        <time>2015-05-15T11:41:56Z</time>
      </trkpt>
      <trkpt lat="45.71201" lon="5.54833">
        <ele>216.42816996056</ele>
        <time>2015-05-15T11:42:01Z</time>
      </trkpt>
      <trkpt lat="45.71208" lon="5.54838">
        <ele>216.42816996056</ele>
        <time>2015-05-15T11:42:06Z</time>
      </trkpt>
      <trkpt lat="45.71215" lon="5.54844">
        <ele>216.65283981543</ele>
        <time>2015-05-15T11:42:11Z</time>
      </trkpt>
      <trkpt lat="45.71222" lon="5.54849">
        <ele>216.65283981543</ele>
        <time>2015-05-15T11:42:16Z</time>
      </trkpt>
      <trkpt lat="45.71229" lon="5.54853">
        <ele>216.96629817706</ele>
        <time>2015-05-15T11:42:21Z</time>
      </trkpt>
      <trkpt lat="45.71236" lon="5.54859">
        <ele>216.96629817706</ele>
        <time>2015-05-15T11:42:26Z</time>
      </trkpt>
      <trkpt lat="45.71243" lon="5.54864">
        <ele>217.21775815719</ele>
        <time>2015-05-15T11:42:31Z</time>
      </trkpt>
      <trkpt lat="45.7125" lon="5.54869">
        <ele>217.21775815719</ele>
        <time>2015-05-15T11:42:36Z</time>
      </trkpt>
      <trkpt lat="45.71258" lon="5.54875">
        <ele>217.48391271687</ele>
        <time>2015-05-15T11:42:41Z</time>
      </trkpt>
      <trkpt lat="45.71266" lon="5.5488">
        <ele>217.48391271687</ele>
        <time>2015-05-15T11:42:46Z</time>
      </trkpt>
      <trkpt lat="45.71272" lon="5.54885">
        <ele>217.70613722649</ele>
        <time>2015-05-15T11:42:51Z</time>
      </trkpt>
      <trkpt lat="45.71279" lon="5.54891">
        <ele>217.70613722649</ele>
        <time>2015-05-15T11:42:56Z</time>
      </trkpt>
      <trkpt lat="45.71287" lon="5.54896">
        <ele>217.59971110235</ele>
        <time>2015-05-15T11:43:01Z</time>
      </trkpt>
      <trkpt lat="45.71289" lon="5.54901">
        <ele>217.59971110235</ele>
        <time>2015-05-15T11:43:06Z</time>
      </trkpt>
      <trkpt lat="45.71291" lon="5.54903">
        <ele>217.59971110235</ele>
        <time>2015-05-15T11:43:11Z</time>
      </trkpt>
      <trkpt lat="45.71292" lon="5.54903">
        <ele>217.59971110235</ele>
        <time>2015-05-15T11:43:16Z</time>
      </trkpt>
      <trkpt lat="45.71294" lon="5.54905">
        <ele>217.4350087964</ele>
        <time>2015-05-15T11:43:21Z</time>
      </trkpt>
      <trkpt lat="45.713" lon="5.54912">
        <ele>217.4350087964</ele>
        <time>2015-05-15T11:43:26Z</time>
      </trkpt>
      <trkpt lat="45.71301" lon="5.54915">
        <ele>217.24657993986</ele>
        <time>2015-05-15T11:43:31Z</time>
      </trkpt>
      <trkpt lat="45.71302" lon="5.54916">
        <ele>217.24657993986</ele>
        <time>2015-05-15T11:43:36Z</time>
      </trkpt>
      <trkpt lat="45.71304" lon="5.54918">
        <ele>217.24657993986</ele>
        <time>2015-05-15T11:43:41Z</time>
      </trkpt>
      <trkpt lat="45.71311" lon="5.5492">
        <ele>216.9512467463</ele>
        <time>2015-05-15T11:43:46Z</time>
      </trkpt>
      <trkpt lat="45.71317" lon="5.54923">
        <ele>216.9512467463</ele>
        <time>2015-05-15T11:43:51Z</time>
      </trkpt>
      <trkpt lat="45.71322" lon="5.54921">
        <ele>216.54432249753</ele>
        <time>2015-05-15T11:43:56Z</time>
      </trkpt>
      <trkpt lat="45.71326" lon="5.54915">
        <ele>216.54432249753</ele>
        <time>2015-05-15T11:44:01Z</time>
      </trkpt>
      <trkpt lat="45.7133" lon="5.54909">
        <ele>216.22355143067</ele>
        <time>2015-05-15T11:44:06Z</time>
      </trkpt>
      <trkpt lat="45.71332" lon="5.54906">
        <ele>216.22355143067</ele>
        <time>2015-05-15T11:44:11Z</time>
      </trkpt>
      <trkpt lat="45.71334" lon="5.54902">
        <ele>216.22355143067</ele>
        <time>2015-05-15T11:44:16Z</time>
      </trkpt>
      <trkpt lat="45.71339" lon="5.54896">
        <ele>215.98457628892</ele>
        <time>2015-05-15T11:44:21Z</time>
      </trkpt>
      <trkpt lat="45.71344" lon="5.54891">
        <ele>215.98457628892</ele>
        <time>2015-05-15T11:44:26Z</time>
      </trkpt>
      <trkpt lat="45.7135" lon="5.54884">
        <ele>215.75107906335</ele>
        <time>2015-05-15T11:44:31Z</time>
      </trkpt>
      <trkpt lat="45.71355" lon="5.54877">
        <ele>215.75107906335</ele>
        <time>2015-05-15T11:44:36Z</time>
      </trkpt>
      <trkpt lat="45.7136" lon="5.5487">
        <ele>215.48115305531</ele>
        <time>2015-05-15T11:44:41Z</time>
      </trkpt>
      <trkpt lat="45.71366" lon="5.5486">
        <ele>215.07842033717</ele>
        <time>2015-05-15T11:44:46Z</time>
      </trkpt>
      <trkpt lat="45.71374" lon="5.54848">
        <ele>214.56923151034</ele>
        <time>2015-05-15T11:44:51Z</time>
      </trkpt>
      <trkpt lat="45.71384" lon="5.54835">
        <ele>214.22327108945</ele>
        <time>2015-05-15T11:44:56Z</time>
      </trkpt>
      <trkpt lat="45.71396" lon="5.54821">
        <ele>213.87200937256</ele>
        <time>2015-05-15T11:45:01Z</time>
      </trkpt>
      <trkpt lat="45.71406" lon="5.54811">
        <ele>213.60427302485</ele>
        <time>2015-05-15T11:45:06Z</time>
      </trkpt>
      <trkpt lat="45.71414" lon="5.54799">
        <ele>213.48768700248</ele>
        <time>2015-05-15T11:45:11Z</time>
      </trkpt>
      <trkpt lat="45.71414" lon="5.54792">
        <ele>213.48768700248</ele>
        <time>2015-05-15T11:45:16Z</time>
      </trkpt>
      <trkpt lat="45.71411" lon="5.54784">
        <ele>213.09447238553</ele>
        <time>2015-05-15T11:45:21Z</time>
      </trkpt>
      <trkpt lat="45.7141" lon="5.54782">
        <ele>213.09447238553</ele>
        <time>2015-05-15T11:45:26Z</time>
      </trkpt>
      <trkpt lat="45.71409" lon="5.54781">
        <ele>213.09447238553</ele>
        <time>2015-05-15T11:45:31Z</time>
      </trkpt>
      <trkpt lat="45.71409" lon="5.5478">
        <ele>213.09447238553</ele>
        <time>2015-05-15T11:45:36Z</time>
      </trkpt>
      <trkpt lat="45.71409" lon="5.5478">
        <ele>213.09447238553</ele>
        <time>2015-05-15T11:45:41Z</time>
      </trkpt>
      <trkpt lat="45.71409" lon="5.5478">
        <ele>213.09447238553</ele>
        <time>2015-05-15T11:45:46Z</time>
      </trkpt>
      <trkpt lat="45.71408" lon="5.54779">
        <ele>213.09447238553</ele>
        <time>2015-05-15T11:45:51Z</time>
      </trkpt>
      <trkpt lat="45.71409" lon="5.54779">
        <ele>213.09447238553</ele>
        <time>2015-05-15T11:45:56Z</time>
      </trkpt>
      <trkpt lat="45.71408" lon="5.54778">
        <ele>213.09447238553</ele>
        <time>2015-05-15T11:46:01Z</time>
      </trkpt>
      <trkpt lat="45.71409" lon="5.54777">
        <ele>213.09447238553</ele>
        <time>2015-05-15T11:46:06Z</time>
      </trkpt>
      <trkpt lat="45.71409" lon="5.54777">
        <ele>213.09447238553</ele>
        <time>2015-05-15T11:46:11Z</time>
      </trkpt>
      <trkpt lat="45.71409" lon="5.54777">
        <ele>213.09447238553</ele>
        <time>2015-05-15T11:46:16Z</time>
      </trkpt>
      <trkpt lat="45.71409" lon="5.54777">
        <ele>213.09447238553</ele>
        <time>2015-05-15T11:46:21Z</time>
      </trkpt>
      <trkpt lat="45.71409" lon="5.54777">
        <ele>213.09447238553</ele>
        <time>2015-05-15T11:46:26Z</time>
      </trkpt>
      <trkpt lat="45.71409" lon="5.54777">
        <ele>213.09447238553</ele>
        <time>2015-05-15T11:46:31Z</time>
      </trkpt>
      <trkpt lat="45.71409" lon="5.54778">
        <ele>213.09447238553</ele>
        <time>2015-05-15T11:46:36Z</time>
      </trkpt>
      <trkpt lat="45.71409" lon="5.54777">
        <ele>213.09447238553</ele>
        <time>2015-05-15T11:46:41Z</time>
      </trkpt>
      <trkpt lat="45.71409" lon="5.54777">
        <ele>213.09447238553</ele>
        <time>2015-05-15T11:46:46Z</time>
      </trkpt>
      <trkpt lat="45.71409" lon="5.54777">
        <ele>213.09447238553</ele>
        <time>2015-05-15T11:46:51Z</time>
      </trkpt>
      <trkpt lat="45.71409" lon="5.54777">
        <ele>213.09447238553</ele>
        <time>2015-05-15T11:46:56Z</time>
      </trkpt>
      <trkpt lat="45.71409" lon="5.54777">
        <ele>213.09447238553</ele>
        <time>2015-05-15T11:47:01Z</time>
      </trkpt>
      <trkpt lat="45.71409" lon="5.54777">
        <ele>213.09447238553</ele>
        <time>2015-05-15T11:47:06Z</time>
      </trkpt>
      <trkpt lat="45.71409" lon="5.54776">
        <ele>212.92250344709</ele>
        <time>2015-05-15T11:47:11Z</time>
      </trkpt>
      <trkpt lat="45.71405" lon="5.54772">
        <ele>212.92250344709</ele>
        <time>2015-05-15T11:47:16Z</time>
      </trkpt>
      <trkpt lat="45.714" lon="5.54769">
        <ele>212.56775465204</ele>
        <time>2015-05-15T11:47:21Z</time>
      </trkpt>
      <trkpt lat="45.71397" lon="5.54764">
        <ele>212.56775465204</ele>
        <time>2015-05-15T11:47:26Z</time>
      </trkpt>
      <trkpt lat="45.71393" lon="5.54758">
        <ele>212.44896392086</ele>
        <time>2015-05-15T11:47:31Z</time>
      </trkpt>
      <trkpt lat="45.71389" lon="5.54754">
        <ele>212.44896392086</ele>
        <time>2015-05-15T11:47:36Z</time>
      </trkpt>
      <trkpt lat="45.71388" lon="5.54749">
        <ele>212.44896392086</ele>
        <time>2015-05-15T11:47:41Z</time>
      </trkpt>
      <trkpt lat="45.71389" lon="5.54737">
        <ele>212.24726060774</ele>
        <time>2015-05-15T11:47:46Z</time>
      </trkpt>
      <trkpt lat="45.71392" lon="5.54727">
        <ele>212.24726060774</ele>
        <time>2015-05-15T11:47:51Z</time>
      </trkpt>
      <trkpt lat="45.71395" lon="5.54716">
        <ele>211.88355456535</ele>
        <time>2015-05-15T11:47:56Z</time>
      </trkpt>
      <trkpt lat="45.71397" lon="5.54708">
        <ele>211.88355456535</ele>
        <time>2015-05-15T11:48:01Z</time>
      </trkpt>
      <trkpt lat="45.71401" lon="5.54701">
        <ele>211.73172095453</ele>
        <time>2015-05-15T11:48:06Z</time>
      </trkpt>
      <trkpt lat="45.71403" lon="5.54693">
        <ele>211.73172095453</ele>
        <time>2015-05-15T11:48:11Z</time>
      </trkpt>
      <trkpt lat="45.71406" lon="5.54688">
        <ele>212.26723298308</ele>
        <time>2015-05-15T11:48:16Z</time>
      </trkpt>
      <trkpt lat="45.7141" lon="5.54684">
        <ele>212.26723298308</ele>
        <time>2015-05-15T11:48:21Z</time>
      </trkpt>
      <trkpt lat="45.71413" lon="5.54678">
        <ele>212.51637645045</ele>
        <time>2015-05-15T11:48:26Z</time>
      </trkpt>
      <trkpt lat="45.71416" lon="5.5467">
        <ele>212.51637645045</ele>
        <time>2015-05-15T11:48:31Z</time>
      </trkpt>
      <trkpt lat="45.71422" lon="5.54662">
        <ele>212.42798495442</ele>
        <time>2015-05-15T11:48:36Z</time>
      </trkpt>
      <trkpt lat="45.71427" lon="5.54658">
        <ele>212.42798495442</ele>
        <time>2015-05-15T11:48:41Z</time>
      </trkpt>
      <trkpt lat="45.71432" lon="5.54652">
        <ele>211.78262583353</ele>
        <time>2015-05-15T11:48:46Z</time>
      </trkpt>
      <trkpt lat="45.71436" lon="5.54644">
        <ele>211.78262583353</ele>
        <time>2015-05-15T11:48:51Z</time>
      </trkpt>
      <trkpt lat="45.7144" lon="5.54632">
        <ele>211.37287776847</ele>
        <time>2015-05-15T11:48:57Z</time>
      </trkpt>
      <trkpt lat="45.71443" lon="5.54626">
        <ele>211.37287776847</ele>
        <time>2015-05-15T11:49:01Z</time>
      </trkpt>
      <trkpt lat="45.71447" lon="5.54617">
        <ele>210.98126388743</ele>
        <time>2015-05-15T11:49:06Z</time>
      </trkpt>
      <trkpt lat="45.71451" lon="5.54608">
        <ele>210.98126388743</ele>
        <time>2015-05-15T11:49:11Z</time>
      </trkpt>
      <trkpt lat="45.71454" lon="5.546">
        <ele>210.42060262115</ele>
        <time>2015-05-15T11:49:16Z</time>
      </trkpt>
      <trkpt lat="45.71456" lon="5.54589">
        <ele>210.42060262115</ele>
        <time>2015-05-15T11:49:21Z</time>
      </trkpt>
      <trkpt lat="45.71458" lon="5.54577">
        <ele>210.15198352611</ele>
        <time>2015-05-15T11:49:26Z</time>
      </trkpt>
      <trkpt lat="45.7146" lon="5.54569">
        <ele>210.15198352611</ele>
        <time>2015-05-15T11:49:31Z</time>
      </trkpt>
      <trkpt lat="45.71462" lon="5.54557">
        <ele>209.76591692397</ele>
        <time>2015-05-15T11:49:36Z</time>
      </trkpt>
      <trkpt lat="45.71464" lon="5.54548">
        <ele>209.76591692397</ele>
        <time>2015-05-15T11:49:41Z</time>
      </trkpt>
      <trkpt lat="45.71466" lon="5.54539">
        <ele>209.33002318776</ele>
        <time>2015-05-15T11:49:46Z</time>
      </trkpt>
      <trkpt lat="45.71467" lon="5.54529">
        <ele>209.33002318776</ele>
        <time>2015-05-15T11:49:51Z</time>
      </trkpt>
      <trkpt lat="45.71469" lon="5.54519">
        <ele>208.48912630755</ele>
        <time>2015-05-15T11:49:56Z</time>
      </trkpt>
      <trkpt lat="45.71469" lon="5.54509">
        <ele>208.48912630755</ele>
        <time>2015-05-15T11:50:01Z</time>
      </trkpt>
      <trkpt lat="45.71467" lon="5.54497">
        <ele>207.85195221374</ele>
        <time>2015-05-15T11:50:06Z</time>
      </trkpt>
      <trkpt lat="45.71466" lon="5.54483">
        <ele>207.46308914399</ele>
        <time>2015-05-15T11:50:11Z</time>
      </trkpt>
      <trkpt lat="45.71464" lon="5.54471">
        <ele>207.46308914399</ele>
        <time>2015-05-15T11:50:16Z</time>
      </trkpt>
      <trkpt lat="45.71463" lon="5.54461">
        <ele>207.03164684309</ele>
        <time>2015-05-15T11:50:21Z</time>
      </trkpt>
      <trkpt lat="45.71461" lon="5.54452">
        <ele>207.03164684309</ele>
        <time>2015-05-15T11:50:26Z</time>
      </trkpt>
      <trkpt lat="45.71461" lon="5.54441">
        <ele>206.51874917433</ele>
        <time>2015-05-15T11:50:31Z</time>
      </trkpt>
      <trkpt lat="45.71459" lon="5.54429">
        <ele>206.51874917433</ele>
        <time>2015-05-15T11:50:36Z</time>
      </trkpt>
      <trkpt lat="45.71458" lon="5.54416">
        <ele>206.33529747794</ele>
        <time>2015-05-15T11:50:41Z</time>
      </trkpt>
      <trkpt lat="45.71457" lon="5.54405">
        <ele>206.33529747794</ele>
        <time>2015-05-15T11:50:46Z</time>
      </trkpt>
      <trkpt lat="45.71456" lon="5.54394">
        <ele>206.25576716165</ele>
        <time>2015-05-15T11:50:51Z</time>
      </trkpt>
      <trkpt lat="45.71458" lon="5.54381">
        <ele>206.18614954092</ele>
        <time>2015-05-15T11:50:56Z</time>
      </trkpt>
      <trkpt lat="45.71457" lon="5.5437">
        <ele>206.18614954092</ele>
        <time>2015-05-15T11:51:01Z</time>
      </trkpt>
      <trkpt lat="45.71457" lon="5.54361">
        <ele>206.16896833445</ele>
        <time>2015-05-15T11:51:06Z</time>
      </trkpt>
      <trkpt lat="45.71457" lon="5.54352">
        <ele>206.16896833445</ele>
        <time>2015-05-15T11:51:11Z</time>
      </trkpt>
      <trkpt lat="45.71456" lon="5.54343">
        <ele>206.04167832093</ele>
        <time>2015-05-15T11:51:16Z</time>
      </trkpt>
      <trkpt lat="45.71454" lon="5.54334">
        <ele>206.04167832093</ele>
        <time>2015-05-15T11:51:21Z</time>
      </trkpt>
      <trkpt lat="45.71454" lon="5.54325">
        <ele>205.45218799174</ele>
        <time>2015-05-15T11:51:26Z</time>
      </trkpt>
      <trkpt lat="45.71454" lon="5.54315">
        <ele>205.45218799174</ele>
        <time>2015-05-15T11:51:31Z</time>
      </trkpt>
      <trkpt lat="45.71453" lon="5.54302">
        <ele>205.026662477</ele>
        <time>2015-05-15T11:51:36Z</time>
      </trkpt>
      <trkpt lat="45.71453" lon="5.54288">
        <ele>204.88361687409</ele>
        <time>2015-05-15T11:51:41Z</time>
      </trkpt>
      <trkpt lat="45.71453" lon="5.54279">
        <ele>204.88361687409</ele>
        <time>2015-05-15T11:51:46Z</time>
      </trkpt>
      <trkpt lat="45.71454" lon="5.54268">
        <ele>204.78616560122</ele>
        <time>2015-05-15T11:51:51Z</time>
      </trkpt>
      <trkpt lat="45.71454" lon="5.54258">
        <ele>204.78616560122</ele>
        <time>2015-05-15T11:51:56Z</time>
      </trkpt>
      <trkpt lat="45.71453" lon="5.54248">
        <ele>204.48584024278</ele>
        <time>2015-05-15T11:52:01Z</time>
      </trkpt>
      <trkpt lat="45.71453" lon="5.54235">
        <ele>204.48584024278</ele>
        <time>2015-05-15T11:52:06Z</time>
      </trkpt>
      <trkpt lat="45.71453" lon="5.54227">
        <ele>204.38705099891</ele>
        <time>2015-05-15T11:52:11Z</time>
      </trkpt>
      <trkpt lat="45.71453" lon="5.54214">
        <ele>204.38705099891</ele>
        <time>2015-05-15T11:52:16Z</time>
      </trkpt>
      <trkpt lat="45.71453" lon="5.54203">
        <ele>204.08570477814</ele>
        <time>2015-05-15T11:52:21Z</time>
      </trkpt>
      <trkpt lat="45.71453" lon="5.54195">
        <ele>204.08570477814</ele>
        <time>2015-05-15T11:52:26Z</time>
      </trkpt>
      <trkpt lat="45.71453" lon="5.54184">
        <ele>203.75555548091</ele>
        <time>2015-05-15T11:52:31Z</time>
      </trkpt>
      <trkpt lat="45.71455" lon="5.54177">
        <ele>203.75555548091</ele>
        <time>2015-05-15T11:52:36Z</time>
      </trkpt>
      <trkpt lat="45.71455" lon="5.5417">
        <ele>203.44235832708</ele>
        <time>2015-05-15T11:52:41Z</time>
      </trkpt>
      <trkpt lat="45.71455" lon="5.54151">
        <ele>203.39019045746</ele>
        <time>2015-05-15T11:52:46Z</time>
      </trkpt>
      <trkpt lat="45.71454" lon="5.54141">
        <ele>203.39019045746</ele>
        <time>2015-05-15T11:52:51Z</time>
      </trkpt>
      <trkpt lat="45.71454" lon="5.54128">
        <ele>203.4209325425</ele>
        <time>2015-05-15T11:52:56Z</time>
      </trkpt>
      <trkpt lat="45.71453" lon="5.54118">
        <ele>203.4209325425</ele>
        <time>2015-05-15T11:53:01Z</time>
      </trkpt>
      <trkpt lat="45.71453" lon="5.5411">
        <ele>203.29724058026</ele>
        <time>2015-05-15T11:53:06Z</time>
      </trkpt>
      <trkpt lat="45.71454" lon="5.541">
        <ele>203.29724058026</ele>
        <time>2015-05-15T11:53:11Z</time>
      </trkpt>
      <trkpt lat="45.71454" lon="5.54087">
        <ele>203.102253776</ele>
        <time>2015-05-15T11:53:16Z</time>
      </trkpt>
      <trkpt lat="45.71453" lon="5.54079">
        <ele>203.102253776</ele>
        <time>2015-05-15T11:53:21Z</time>
      </trkpt>
      <trkpt lat="45.71452" lon="5.54067">
        <ele>203.14376602769</ele>
        <time>2015-05-15T11:53:26Z</time>
      </trkpt>
      <trkpt lat="45.71452" lon="5.54059">
        <ele>203.14376602769</ele>
        <time>2015-05-15T11:53:31Z</time>
      </trkpt>
      <trkpt lat="45.71453" lon="5.54059">
        <ele>203.14376602769</ele>
        <time>2015-05-15T11:53:36Z</time>
      </trkpt>
      <trkpt lat="45.71453" lon="5.54048">
        <ele>203.34600658449</ele>
        <time>2015-05-15T11:53:41Z</time>
      </trkpt>
      <trkpt lat="45.71453" lon="5.5404">
        <ele>203.34600658449</ele>
        <time>2015-05-15T11:53:46Z</time>
      </trkpt>
      <trkpt lat="45.71455" lon="5.5403">
        <ele>203.53743218466</ele>
        <time>2015-05-15T11:53:51Z</time>
      </trkpt>
      <trkpt lat="45.71456" lon="5.54019">
        <ele>203.53743218466</ele>
        <time>2015-05-15T11:53:56Z</time>
      </trkpt>
      <trkpt lat="45.71456" lon="5.5401">
        <ele>203.61676929935</ele>
        <time>2015-05-15T11:54:01Z</time>
      </trkpt>
      <trkpt lat="45.71457" lon="5.53995">
        <ele>203.69225099431</ele>
        <time>2015-05-15T11:54:06Z</time>
      </trkpt>
      <trkpt lat="45.71458" lon="5.53984">
        <ele>203.69225099431</ele>
        <time>2015-05-15T11:54:11Z</time>
      </trkpt>
      <trkpt lat="45.71459" lon="5.53972">
        <ele>203.89299315528</ele>
        <time>2015-05-15T11:54:16Z</time>
      </trkpt>
      <trkpt lat="45.71461" lon="5.53963">
        <ele>203.89299315528</ele>
        <time>2015-05-15T11:54:21Z</time>
      </trkpt>
      <trkpt lat="45.71462" lon="5.53952">
        <ele>204.36710185256</ele>
        <time>2015-05-15T11:54:26Z</time>
      </trkpt>
      <trkpt lat="45.71463" lon="5.53942">
        <ele>204.36710185256</ele>
        <time>2015-05-15T11:54:31Z</time>
      </trkpt>
      <trkpt lat="45.71464" lon="5.53932">
        <ele>204.81871086905</ele>
        <time>2015-05-15T11:54:36Z</time>
      </trkpt>
      <trkpt lat="45.71465" lon="5.53922">
        <ele>204.81871086905</ele>
        <time>2015-05-15T11:54:41Z</time>
      </trkpt>
      <trkpt lat="45.71466" lon="5.5391">
        <ele>205.16110767831</ele>
        <time>2015-05-15T11:54:46Z</time>
      </trkpt>
      <trkpt lat="45.71466" lon="5.53902">
        <ele>205.16110767831</ele>
        <time>2015-05-15T11:54:51Z</time>
      </trkpt>
      <trkpt lat="45.71467" lon="5.53893">
        <ele>205.28544946886</ele>
        <time>2015-05-15T11:54:56Z</time>
      </trkpt>
      <trkpt lat="45.71469" lon="5.53882">
        <ele>205.28544946886</ele>
        <time>2015-05-15T11:55:01Z</time>
      </trkpt>
      <trkpt lat="45.71469" lon="5.53875">
        <ele>205.35091968549</ele>
        <time>2015-05-15T11:55:06Z</time>
      </trkpt>
      <trkpt lat="45.7147" lon="5.53867">
        <ele>205.35091968549</ele>
        <time>2015-05-15T11:55:11Z</time>
      </trkpt>
      <trkpt lat="45.71472" lon="5.53858">
        <ele>205.51960573572</ele>
        <time>2015-05-15T11:55:16Z</time>
      </trkpt>
      <trkpt lat="45.71474" lon="5.53849">
        <ele>205.51960573572</ele>
        <time>2015-05-15T11:55:21Z</time>
      </trkpt>
      <trkpt lat="45.71476" lon="5.53841">
        <ele>205.65319894487</ele>
        <time>2015-05-15T11:55:26Z</time>
      </trkpt>
      <trkpt lat="45.7148" lon="5.53832">
        <ele>205.65319894487</ele>
        <time>2015-05-15T11:55:31Z</time>
      </trkpt>
      <trkpt lat="45.71482" lon="5.53824">
        <ele>205.94071764448</ele>
        <time>2015-05-15T11:55:36Z</time>
      </trkpt>
      <trkpt lat="45.71484" lon="5.53815">
        <ele>205.94071764448</ele>
        <time>2015-05-15T11:55:41Z</time>
      </trkpt>
      <trkpt lat="45.71487" lon="5.53805">
        <ele>205.93720994585</ele>
        <time>2015-05-15T11:55:46Z</time>
      </trkpt>
      <trkpt lat="45.7149" lon="5.53795">
        <ele>205.93720994585</ele>
        <time>2015-05-15T11:55:51Z</time>
      </trkpt>
      <trkpt lat="45.71493" lon="5.53785">
        <ele>205.89416306778</ele>
        <time>2015-05-15T11:55:56Z</time>
      </trkpt>
      <trkpt lat="45.71494" lon="5.53777">
        <ele>205.89416306778</ele>
        <time>2015-05-15T11:56:01Z</time>
      </trkpt>
      <trkpt lat="45.71496" lon="5.53769">
        <ele>205.78532637941</ele>
        <time>2015-05-15T11:56:06Z</time>
      </trkpt>
      <trkpt lat="45.71499" lon="5.5376">
        <ele>205.78532637941</ele>
        <time>2015-05-15T11:56:11Z</time>
      </trkpt>
      <trkpt lat="45.715" lon="5.5375">
        <ele>205.87480967094</ele>
        <time>2015-05-15T11:56:16Z</time>
      </trkpt>
      <trkpt lat="45.71501" lon="5.53744">
        <ele>205.87480967094</ele>
        <time>2015-05-15T11:56:21Z</time>
      </trkpt>
      <trkpt lat="45.71503" lon="5.53734">
        <ele>205.945633782</ele>
        <time>2015-05-15T11:56:26Z</time>
      </trkpt>
      <trkpt lat="45.71503" lon="5.53722">
        <ele>205.945633782</ele>
        <time>2015-05-15T11:56:31Z</time>
      </trkpt>
      <trkpt lat="45.71503" lon="5.53711">
        <ele>205.47978952009</ele>
        <time>2015-05-15T11:56:36Z</time>
      </trkpt>
      <trkpt lat="45.71503" lon="5.537">
        <ele>205.47978952009</ele>
        <time>2015-05-15T11:56:41Z</time>
      </trkpt>
      <trkpt lat="45.71503" lon="5.53691">
        <ele>205.18055887808</ele>
        <time>2015-05-15T11:56:46Z</time>
      </trkpt>
      <trkpt lat="45.71503" lon="5.53681">
        <ele>205.18055887808</ele>
        <time>2015-05-15T11:56:51Z</time>
      </trkpt>
      <trkpt lat="45.71504" lon="5.5367">
        <ele>205.25236908633</ele>
        <time>2015-05-15T11:56:56Z</time>
      </trkpt>
      <trkpt lat="45.71503" lon="5.53661">
        <ele>205.25236908633</ele>
        <time>2015-05-15T11:57:01Z</time>
      </trkpt>
      <trkpt lat="45.71503" lon="5.53651">
        <ele>205.48009661344</ele>
        <time>2015-05-15T11:57:06Z</time>
      </trkpt>
      <trkpt lat="45.71503" lon="5.5364">
        <ele>205.48009661344</ele>
        <time>2015-05-15T11:57:11Z</time>
      </trkpt>
      <trkpt lat="45.71505" lon="5.53631">
        <ele>205.51988955843</ele>
        <time>2015-05-15T11:57:16Z</time>
      </trkpt>
      <trkpt lat="45.71505" lon="5.53625">
        <ele>205.51988955843</ele>
        <time>2015-05-15T11:57:21Z</time>
      </trkpt>
      <trkpt lat="45.71506" lon="5.53615">
        <ele>205.64455558845</ele>
        <time>2015-05-15T11:57:26Z</time>
      </trkpt>
      <trkpt lat="45.71506" lon="5.53604">
        <ele>205.64455558845</ele>
        <time>2015-05-15T11:57:31Z</time>
      </trkpt>
      <trkpt lat="45.71508" lon="5.53592">
        <ele>206.10664254344</ele>
        <time>2015-05-15T11:57:36Z</time>
      </trkpt>
      <trkpt lat="45.71509" lon="5.5358">
        <ele>206.10664254344</ele>
        <time>2015-05-15T11:57:41Z</time>
      </trkpt>
      <trkpt lat="45.71511" lon="5.5357">
        <ele>206.13044077614</ele>
        <time>2015-05-15T11:57:46Z</time>
      </trkpt>
      <trkpt lat="45.71513" lon="5.53559">
        <ele>206.13044077614</ele>
        <time>2015-05-15T11:57:51Z</time>
      </trkpt>
      <trkpt lat="45.71515" lon="5.53549">
        <ele>206.29547395681</ele>
        <time>2015-05-15T11:57:56Z</time>
      </trkpt>
      <trkpt lat="45.71516" lon="5.5354">
        <ele>206.29547395681</ele>
        <time>2015-05-15T11:58:01Z</time>
      </trkpt>
      <trkpt lat="45.71516" lon="5.5353">
        <ele>206.2304182531</ele>
        <time>2015-05-15T11:58:06Z</time>
      </trkpt>
      <trkpt lat="45.71517" lon="5.5352">
        <ele>206.2304182531</ele>
        <time>2015-05-15T11:58:11Z</time>
      </trkpt>
      <trkpt lat="45.71518" lon="5.5351">
        <ele>206.57184956828</ele>
        <time>2015-05-15T11:58:16Z</time>
      </trkpt>
      <trkpt lat="45.71519" lon="5.53499">
        <ele>206.57184956828</ele>
        <time>2015-05-15T11:58:21Z</time>
      </trkpt>
      <trkpt lat="45.7152" lon="5.53489">
        <ele>206.8564507244</ele>
        <time>2015-05-15T11:58:26Z</time>
      </trkpt>
      <trkpt lat="45.71522" lon="5.5348">
        <ele>206.8564507244</ele>
        <time>2015-05-15T11:58:31Z</time>
      </trkpt>
      <trkpt lat="45.71523" lon="5.53471">
        <ele>206.94334276252</ele>
        <time>2015-05-15T11:58:36Z</time>
      </trkpt>
      <trkpt lat="45.71524" lon="5.53461">
        <ele>206.94334276252</ele>
        <time>2015-05-15T11:58:41Z</time>
      </trkpt>
      <trkpt lat="45.71525" lon="5.53452">
        <ele>207.04843877152</ele>
        <time>2015-05-15T11:58:46Z</time>
      </trkpt>
      <trkpt lat="45.71527" lon="5.53441">
        <ele>207.04843877152</ele>
        <time>2015-05-15T11:58:51Z</time>
      </trkpt>
      <trkpt lat="45.71528" lon="5.53431">
        <ele>207.22765086383</ele>
        <time>2015-05-15T11:58:56Z</time>
      </trkpt>
      <trkpt lat="45.7153" lon="5.53421">
        <ele>207.22765086383</ele>
        <time>2015-05-15T11:59:01Z</time>
      </trkpt>
      <trkpt lat="45.71531" lon="5.53411">
        <ele>207.35966453356</ele>
        <time>2015-05-15T11:59:06Z</time>
      </trkpt>
      <trkpt lat="45.71534" lon="5.53401">
        <ele>207.35966453356</ele>
        <time>2015-05-15T11:59:11Z</time>
      </trkpt>
      <trkpt lat="45.71535" lon="5.53392">
        <ele>207.37546415494</ele>
        <time>2015-05-15T11:59:16Z</time>
      </trkpt>
      <trkpt lat="45.71536" lon="5.53383">
        <ele>207.37546415494</ele>
        <time>2015-05-15T11:59:21Z</time>
      </trkpt>
      <trkpt lat="45.71537" lon="5.53373">
        <ele>207.39879528417</ele>
        <time>2015-05-15T11:59:26Z</time>
      </trkpt>
      <trkpt lat="45.71538" lon="5.53364">
        <ele>207.39879528417</ele>
        <time>2015-05-15T11:59:31Z</time>
      </trkpt>
      <trkpt lat="45.71538" lon="5.53353">
        <ele>207.40020080623</ele>
        <time>2015-05-15T11:59:36Z</time>
      </trkpt>
      <trkpt lat="45.71539" lon="5.53344">
        <ele>207.40020080623</ele>
        <time>2015-05-15T11:59:41Z</time>
      </trkpt>
      <trkpt lat="45.7154" lon="5.53334">
        <ele>207.45334561664</ele>
        <time>2015-05-15T11:59:46Z</time>
      </trkpt>
      <trkpt lat="45.71542" lon="5.53323">
        <ele>207.45334561664</ele>
        <time>2015-05-15T11:59:51Z</time>
      </trkpt>
      <trkpt lat="45.71542" lon="5.53313">
        <ele>207.42459988969</ele>
        <time>2015-05-15T11:59:56Z</time>
      </trkpt>
      <trkpt lat="45.71542" lon="5.53304">
        <ele>207.42459988969</ele>
        <time>2015-05-15T12:00:01Z</time>
      </trkpt>
      <trkpt lat="45.71542" lon="5.53295">
        <ele>207.27686248911</ele>
        <time>2015-05-15T12:00:06Z</time>
      </trkpt>
      <trkpt lat="45.71544" lon="5.53285">
        <ele>207.27686248911</ele>
        <time>2015-05-15T12:00:11Z</time>
      </trkpt>
      <trkpt lat="45.71547" lon="5.53275">
        <ele>207.23550596457</ele>
        <time>2015-05-15T12:00:16Z</time>
      </trkpt>
      <trkpt lat="45.71549" lon="5.53266">
        <ele>207.23550596457</ele>
        <time>2015-05-15T12:00:21Z</time>
      </trkpt>
      <trkpt lat="45.7155" lon="5.53257">
        <ele>207.14878339461</ele>
        <time>2015-05-15T12:00:26Z</time>
      </trkpt>
      <trkpt lat="45.7155" lon="5.53247">
        <ele>207.14878339461</ele>
        <time>2015-05-15T12:00:31Z</time>
      </trkpt>
      <trkpt lat="45.7155" lon="5.53238">
        <ele>207.3518004881</ele>
        <time>2015-05-15T12:00:36Z</time>
      </trkpt>
      <trkpt lat="45.71551" lon="5.53229">
        <ele>207.3518004881</ele>
        <time>2015-05-15T12:00:41Z</time>
      </trkpt>
      <trkpt lat="45.71551" lon="5.5322">
        <ele>207.62103263483</ele>
        <time>2015-05-15T12:00:46Z</time>
      </trkpt>
      <trkpt lat="45.71553" lon="5.53211">
        <ele>207.62103263483</ele>
        <time>2015-05-15T12:00:51Z</time>
      </trkpt>
      <trkpt lat="45.71553" lon="5.532">
        <ele>207.85007763896</ele>
        <time>2015-05-15T12:00:56Z</time>
      </trkpt>
      <trkpt lat="45.71554" lon="5.53189">
        <ele>207.85007763896</ele>
        <time>2015-05-15T12:01:01Z</time>
      </trkpt>
      <trkpt lat="45.71554" lon="5.53179">
        <ele>207.98370630082</ele>
        <time>2015-05-15T12:01:06Z</time>
      </trkpt>
      <trkpt lat="45.71555" lon="5.53167">
        <ele>207.98370630082</ele>
        <time>2015-05-15T12:01:11Z</time>
      </trkpt>
      <trkpt lat="45.71557" lon="5.53156">
        <ele>207.98543631232</ele>
        <time>2015-05-15T12:01:16Z</time>
      </trkpt>
      <trkpt lat="45.71559" lon="5.53142">
        <ele>207.90831282186</ele>
        <time>2015-05-15T12:01:21Z</time>
      </trkpt>
      <trkpt lat="45.71561" lon="5.53131">
        <ele>207.90831282186</ele>
        <time>2015-05-15T12:01:26Z</time>
      </trkpt>
      <trkpt lat="45.71562" lon="5.53122">
        <ele>207.744070811</ele>
        <time>2015-05-15T12:01:31Z</time>
      </trkpt>
      <trkpt lat="45.71562" lon="5.53111">
        <ele>207.744070811</ele>
        <time>2015-05-15T12:01:36Z</time>
      </trkpt>
      <trkpt lat="45.71562" lon="5.53101">
        <ele>207.54294931927</ele>
        <time>2015-05-15T12:01:41Z</time>
      </trkpt>
      <trkpt lat="45.71562" lon="5.53092">
        <ele>207.54294931927</ele>
        <time>2015-05-15T12:01:46Z</time>
      </trkpt>
      <trkpt lat="45.71563" lon="5.53082">
        <ele>207.30837279782</ele>
        <time>2015-05-15T12:01:51Z</time>
      </trkpt>
      <trkpt lat="45.71566" lon="5.53074">
        <ele>207.30837279782</ele>
        <time>2015-05-15T12:01:56Z</time>
      </trkpt>
      <trkpt lat="45.71568" lon="5.53063">
        <ele>207.28860071088</ele>
        <time>2015-05-15T12:02:01Z</time>
      </trkpt>
      <trkpt lat="45.7157" lon="5.53052">
        <ele>207.28860071088</ele>
        <time>2015-05-15T12:02:06Z</time>
      </trkpt>
      <trkpt lat="45.71572" lon="5.53042">
        <ele>207.02132072482</ele>
        <time>2015-05-15T12:02:11Z</time>
      </trkpt>
      <trkpt lat="45.71575" lon="5.53032">
        <ele>207.02132072482</ele>
        <time>2015-05-15T12:02:16Z</time>
      </trkpt>
      <trkpt lat="45.71577" lon="5.53022">
        <ele>206.71296429456</ele>
        <time>2015-05-15T12:02:21Z</time>
      </trkpt>
      <trkpt lat="45.7158" lon="5.53013">
        <ele>206.71296429456</ele>
        <time>2015-05-15T12:02:26Z</time>
      </trkpt>
      <trkpt lat="45.71582" lon="5.53003">
        <ele>206.39638834508</ele>
        <time>2015-05-15T12:02:31Z</time>
      </trkpt>
      <trkpt lat="45.71584" lon="5.52992">
        <ele>206.39638834508</ele>
        <time>2015-05-15T12:02:36Z</time>
      </trkpt>
      <trkpt lat="45.71585" lon="5.52982">
        <ele>206.26057627165</ele>
        <time>2015-05-15T12:02:41Z</time>
      </trkpt>
      <trkpt lat="45.71588" lon="5.52972">
        <ele>206.26057627165</ele>
        <time>2015-05-15T12:02:46Z</time>
      </trkpt>
      <trkpt lat="45.7159" lon="5.52964">
        <ele>205.87484711584</ele>
        <time>2015-05-15T12:02:51Z</time>
      </trkpt>
      <trkpt lat="45.71592" lon="5.52954">
        <ele>205.87484711584</ele>
        <time>2015-05-15T12:02:56Z</time>
      </trkpt>
      <trkpt lat="45.71596" lon="5.52944">
        <ele>205.5902267248</ele>
        <time>2015-05-15T12:03:01Z</time>
      </trkpt>
      <trkpt lat="45.71598" lon="5.52934">
        <ele>205.5902267248</ele>
        <time>2015-05-15T12:03:06Z</time>
      </trkpt>
      <trkpt lat="45.71599" lon="5.52923">
        <ele>205.34255914084</ele>
        <time>2015-05-15T12:03:11Z</time>
      </trkpt>
      <trkpt lat="45.71601" lon="5.52912">
        <ele>205.34255914084</ele>
        <time>2015-05-15T12:03:16Z</time>
      </trkpt>
      <trkpt lat="45.71604" lon="5.52902">
        <ele>204.88493910453</ele>
        <time>2015-05-15T12:03:21Z</time>
      </trkpt>
      <trkpt lat="45.71608" lon="5.52893">
        <ele>204.88493910453</ele>
        <time>2015-05-15T12:03:26Z</time>
      </trkpt>
      <trkpt lat="45.71611" lon="5.52883">
        <ele>204.62326108534</ele>
        <time>2015-05-15T12:03:31Z</time>
      </trkpt>
      <trkpt lat="45.71615" lon="5.52873">
        <ele>204.62326108534</ele>
        <time>2015-05-15T12:03:36Z</time>
      </trkpt>
      <trkpt lat="45.71619" lon="5.52864">
        <ele>204.71686939832</ele>
        <time>2015-05-15T12:03:41Z</time>
      </trkpt>
      <trkpt lat="45.71623" lon="5.52855">
        <ele>204.71686939832</ele>
        <time>2015-05-15T12:03:46Z</time>
      </trkpt>
      <trkpt lat="45.71626" lon="5.52846">
        <ele>205.06740042006</ele>
        <time>2015-05-15T12:03:51Z</time>
      </trkpt>
      <trkpt lat="45.71629" lon="5.52836">
        <ele>205.06740042006</ele>
        <time>2015-05-15T12:03:56Z</time>
      </trkpt>
      <trkpt lat="45.71633" lon="5.52828">
        <ele>205.10741245278</ele>
        <time>2015-05-15T12:04:01Z</time>
      </trkpt>
      <trkpt lat="45.71636" lon="5.52821">
        <ele>205.10741245278</ele>
        <time>2015-05-15T12:04:06Z</time>
      </trkpt>
      <trkpt lat="45.71639" lon="5.52812">
        <ele>205.03256004622</ele>
        <time>2015-05-15T12:04:11Z</time>
      </trkpt>
      <trkpt lat="45.71641" lon="5.52802">
        <ele>205.03256004622</ele>
        <time>2015-05-15T12:04:16Z</time>
      </trkpt>
      <trkpt lat="45.71645" lon="5.52792">
        <ele>205.06766795871</ele>
        <time>2015-05-15T12:04:21Z</time>
      </trkpt>
      <trkpt lat="45.71649" lon="5.52784">
        <ele>205.06766795871</ele>
        <time>2015-05-15T12:04:26Z</time>
      </trkpt>
      <trkpt lat="45.71652" lon="5.52777">
        <ele>205.39190399843</ele>
        <time>2015-05-15T12:04:31Z</time>
      </trkpt>
      <trkpt lat="45.71656" lon="5.52766">
        <ele>205.39190399843</ele>
        <time>2015-05-15T12:04:36Z</time>
      </trkpt>
      <trkpt lat="45.7166" lon="5.52759">
        <ele>205.47872035651</ele>
        <time>2015-05-15T12:04:41Z</time>
      </trkpt>
      <trkpt lat="45.71665" lon="5.52752">
        <ele>205.47872035651</ele>
        <time>2015-05-15T12:04:46Z</time>
      </trkpt>
      <trkpt lat="45.71668" lon="5.52742">
        <ele>204.95619530352</ele>
        <time>2015-05-15T12:04:51Z</time>
      </trkpt>
      <trkpt lat="45.71672" lon="5.52734">
        <ele>204.95619530352</ele>
        <time>2015-05-15T12:04:56Z</time>
      </trkpt>
      <trkpt lat="45.71676" lon="5.52726">
        <ele>204.59108511055</ele>
        <time>2015-05-15T12:05:01Z</time>
      </trkpt>
      <trkpt lat="45.71681" lon="5.52719">
        <ele>204.59108511055</ele>
        <time>2015-05-15T12:05:06Z</time>
      </trkpt>
      <trkpt lat="45.71688" lon="5.52712">
        <ele>204.51692545854</ele>
        <time>2015-05-15T12:05:11Z</time>
      </trkpt>
      <trkpt lat="45.71692" lon="5.52705">
        <ele>204.51692545854</ele>
        <time>2015-05-15T12:05:16Z</time>
      </trkpt>
      <trkpt lat="45.71699" lon="5.52697">
        <ele>204.64044998563</ele>
        <time>2015-05-15T12:05:21Z</time>
      </trkpt>
      <trkpt lat="45.71704" lon="5.52689">
        <ele>204.64044998563</ele>
        <time>2015-05-15T12:05:26Z</time>
      </trkpt>
      <trkpt lat="45.71708" lon="5.52683">
        <ele>204.39911160124</ele>
        <time>2015-05-15T12:05:32Z</time>
      </trkpt>
      <trkpt lat="45.71711" lon="5.52679">
        <ele>204.39911160124</ele>
        <time>2015-05-15T12:05:36Z</time>
      </trkpt>
      <trkpt lat="45.71717" lon="5.52671">
        <ele>204.61293501893</ele>
        <time>2015-05-15T12:05:41Z</time>
      </trkpt>
      <trkpt lat="45.71722" lon="5.52661">
        <ele>204.61293501893</ele>
        <time>2015-05-15T12:05:46Z</time>
      </trkpt>
      <trkpt lat="45.71727" lon="5.52654">
        <ele>204.90194276874</ele>
        <time>2015-05-15T12:05:51Z</time>
      </trkpt>
      <trkpt lat="45.71731" lon="5.52649">
        <ele>204.90194276874</ele>
        <time>2015-05-15T12:05:56Z</time>
      </trkpt>
      <trkpt lat="45.71736" lon="5.52642">
        <ele>205.20207506596</ele>
        <time>2015-05-15T12:06:01Z</time>
      </trkpt>
      <trkpt lat="45.71742" lon="5.52636">
        <ele>205.20207506596</ele>
        <time>2015-05-15T12:06:06Z</time>
      </trkpt>
      <trkpt lat="45.71747" lon="5.52629">
        <ele>205.48276462854</ele>
        <time>2015-05-15T12:06:11Z</time>
      </trkpt>
      <trkpt lat="45.71752" lon="5.52624">
        <ele>205.48276462854</ele>
        <time>2015-05-15T12:06:16Z</time>
      </trkpt>
      <trkpt lat="45.71756" lon="5.52618">
        <ele>205.68692042585</ele>
        <time>2015-05-15T12:06:21Z</time>
      </trkpt>
      <trkpt lat="45.7176" lon="5.52612">
        <ele>205.68692042585</ele>
        <time>2015-05-15T12:06:26Z</time>
      </trkpt>
      <trkpt lat="45.71765" lon="5.52608">
        <ele>205.53128257313</ele>
        <time>2015-05-15T12:06:31Z</time>
      </trkpt>
      <trkpt lat="45.71767" lon="5.52603">
        <ele>205.53128257313</ele>
        <time>2015-05-15T12:06:36Z</time>
      </trkpt>
      <trkpt lat="45.71772" lon="5.526">
        <ele>205.82083360027</ele>
        <time>2015-05-15T12:06:41Z</time>
      </trkpt>
      <trkpt lat="45.71779" lon="5.52596">
        <ele>205.82083360027</ele>
        <time>2015-05-15T12:06:46Z</time>
      </trkpt>
      <trkpt lat="45.71789" lon="5.52593">
        <ele>206.42109981935</ele>
        <time>2015-05-15T12:06:51Z</time>
      </trkpt>
      <trkpt lat="45.71796" lon="5.52589">
        <ele>206.42109981935</ele>
        <time>2015-05-15T12:06:56Z</time>
      </trkpt>
      <trkpt lat="45.71799" lon="5.52584">
        <ele>207.0048652432</ele>
        <time>2015-05-15T12:07:01Z</time>
      </trkpt>
      <trkpt lat="45.71805" lon="5.52581">
        <ele>207.0048652432</ele>
        <time>2015-05-15T12:07:06Z</time>
      </trkpt>
      <trkpt lat="45.71815" lon="5.52577">
        <ele>207.55722928694</ele>
        <time>2015-05-15T12:07:11Z</time>
      </trkpt>
      <trkpt lat="45.71824" lon="5.52573">
        <ele>207.97802074831</ele>
        <time>2015-05-15T12:07:16Z</time>
      </trkpt>
      <trkpt lat="45.71829" lon="5.52572">
        <ele>207.97802074831</ele>
        <time>2015-05-15T12:07:21Z</time>
      </trkpt>
      <trkpt lat="45.71833" lon="5.52569">
        <ele>208.21804602492</ele>
        <time>2015-05-15T12:07:26Z</time>
      </trkpt>
      <trkpt lat="45.71836" lon="5.52567">
        <ele>208.21804602492</ele>
        <time>2015-05-15T12:07:31Z</time>
      </trkpt>
      <trkpt lat="45.71843" lon="5.52566">
        <ele>208.72222974129</ele>
        <time>2015-05-15T12:07:36Z</time>
      </trkpt>
      <trkpt lat="45.7185" lon="5.52563">
        <ele>208.72222974129</ele>
        <time>2015-05-15T12:07:41Z</time>
      </trkpt>
      <trkpt lat="45.71858" lon="5.52561">
        <ele>208.77802532363</ele>
        <time>2015-05-15T12:07:46Z</time>
      </trkpt>
      <trkpt lat="45.71867" lon="5.52562">
        <ele>209.35496589402</ele>
        <time>2015-05-15T12:07:51Z</time>
      </trkpt>
      <trkpt lat="45.71876" lon="5.52559">
        <ele>209.69264627382</ele>
        <time>2015-05-15T12:07:56Z</time>
      </trkpt>
      <trkpt lat="45.71883" lon="5.52554">
        <ele>209.69264627382</ele>
        <time>2015-05-15T12:08:02Z</time>
      </trkpt>
      <trkpt lat="45.71885" lon="5.52551">
        <ele>209.9086493276</ele>
        <time>2015-05-15T12:08:06Z</time>
      </trkpt>
      <trkpt lat="45.71892" lon="5.52547">
        <ele>209.9086493276</ele>
        <time>2015-05-15T12:08:11Z</time>
      </trkpt>
      <trkpt lat="45.719" lon="5.52542">
        <ele>210.01140846353</ele>
        <time>2015-05-15T12:08:16Z</time>
      </trkpt>
      <trkpt lat="45.71906" lon="5.52542">
        <ele>210.01140846353</ele>
        <time>2015-05-15T12:08:21Z</time>
      </trkpt>
      <trkpt lat="45.71913" lon="5.52539">
        <ele>210.23965796842</ele>
        <time>2015-05-15T12:08:26Z</time>
      </trkpt>
      <trkpt lat="45.7192" lon="5.52538">
        <ele>210.23965796842</ele>
        <time>2015-05-15T12:08:31Z</time>
      </trkpt>
      <trkpt lat="45.71928" lon="5.52543">
        <ele>210.41075581696</ele>
        <time>2015-05-15T12:08:36Z</time>
      </trkpt>
      <trkpt lat="45.71933" lon="5.52546">
        <ele>210.41075581696</ele>
        <time>2015-05-15T12:08:41Z</time>
      </trkpt>
      <trkpt lat="45.71935" lon="5.52553">
        <ele>210.35566015531</ele>
        <time>2015-05-15T12:08:46Z</time>
      </trkpt>
      <trkpt lat="45.71938" lon="5.5256">
        <ele>210.35566015531</ele>
        <time>2015-05-15T12:08:51Z</time>
      </trkpt>
      <trkpt lat="45.71941" lon="5.52568">
        <ele>209.86075771518</ele>
        <time>2015-05-15T12:08:56Z</time>
      </trkpt>
      <trkpt lat="45.71943" lon="5.52577">
        <ele>209.86075771518</ele>
        <time>2015-05-15T12:09:01Z</time>
      </trkpt>
      <trkpt lat="45.71946" lon="5.52587">
        <ele>209.43552339595</ele>
        <time>2015-05-15T12:09:06Z</time>
      </trkpt>
      <trkpt lat="45.71949" lon="5.52598">
        <ele>209.43552339595</ele>
        <time>2015-05-15T12:09:11Z</time>
      </trkpt>
      <trkpt lat="45.71952" lon="5.5261">
        <ele>209.23478031326</ele>
        <time>2015-05-15T12:09:16Z</time>
      </trkpt>
      <trkpt lat="45.71955" lon="5.52621">
        <ele>209.23478031326</ele>
        <time>2015-05-15T12:09:21Z</time>
      </trkpt>
      <trkpt lat="45.71958" lon="5.52631">
        <ele>208.89696893008</ele>
        <time>2015-05-15T12:09:26Z</time>
      </trkpt>
      <trkpt lat="45.71961" lon="5.5264">
        <ele>208.89696893008</ele>
        <time>2015-05-15T12:09:31Z</time>
      </trkpt>
      <trkpt lat="45.71964" lon="5.52651">
        <ele>208.3468789149</ele>
        <time>2015-05-15T12:09:36Z</time>
      </trkpt>
      <trkpt lat="45.71968" lon="5.52662">
        <ele>208.3468789149</ele>
        <time>2015-05-15T12:09:41Z</time>
      </trkpt>
      <trkpt lat="45.71971" lon="5.52671">
        <ele>207.60188689953</ele>
        <time>2015-05-15T12:09:46Z</time>
      </trkpt>
      <trkpt lat="45.71973" lon="5.52678">
        <ele>207.60188689953</ele>
        <time>2015-05-15T12:09:51Z</time>
      </trkpt>
      <trkpt lat="45.71976" lon="5.52685">
        <ele>207.50006932978</ele>
        <time>2015-05-15T12:09:56Z</time>
      </trkpt>
      <trkpt lat="45.71981" lon="5.52693">
        <ele>207.50006932978</ele>
        <time>2015-05-15T12:10:01Z</time>
      </trkpt>
      <trkpt lat="45.71986" lon="5.52694">
        <ele>207.89381523419</ele>
        <time>2015-05-15T12:10:06Z</time>
      </trkpt>
      <trkpt lat="45.71993" lon="5.52695">
        <ele>207.89381523419</ele>
        <time>2015-05-15T12:10:11Z</time>
      </trkpt>
      <trkpt lat="45.72" lon="5.52698">
        <ele>208.73142588969</ele>
        <time>2015-05-15T12:10:16Z</time>
      </trkpt>
      <trkpt lat="45.72002" lon="5.527">
        <ele>208.73142588969</ele>
        <time>2015-05-15T12:10:21Z</time>
      </trkpt>
      <trkpt lat="45.72004" lon="5.527">
        <ele>208.73142588969</ele>
        <time>2015-05-15T12:10:26Z</time>
      </trkpt>
      <trkpt lat="45.7201" lon="5.52702">
        <ele>209.14231519497</ele>
        <time>2015-05-15T12:10:31Z</time>
      </trkpt>
      <trkpt lat="45.72015" lon="5.52701">
        <ele>209.14231519497</ele>
        <time>2015-05-15T12:10:36Z</time>
      </trkpt>
      <trkpt lat="45.72026" lon="5.527">
        <ele>209.81980061917</ele>
        <time>2015-05-15T12:10:41Z</time>
      </trkpt>
      <trkpt lat="45.72034" lon="5.52699">
        <ele>209.81980061917</ele>
        <time>2015-05-15T12:10:46Z</time>
      </trkpt>
      <trkpt lat="45.72043" lon="5.52696">
        <ele>210.12293331699</ele>
        <time>2015-05-15T12:10:51Z</time>
      </trkpt>
      <trkpt lat="45.72047" lon="5.52694">
        <ele>210.12293331699</ele>
        <time>2015-05-15T12:10:56Z</time>
      </trkpt>
      <trkpt lat="45.72054" lon="5.52693">
        <ele>210.49650401421</ele>
        <time>2015-05-15T12:11:01Z</time>
      </trkpt>
      <trkpt lat="45.72063" lon="5.52693">
        <ele>210.49650401421</ele>
        <time>2015-05-15T12:11:06Z</time>
      </trkpt>
      <trkpt lat="45.72071" lon="5.52692">
        <ele>210.99216196281</ele>
        <time>2015-05-15T12:11:11Z</time>
      </trkpt>
      <trkpt lat="45.72077" lon="5.52691">
        <ele>210.99216196281</ele>
        <time>2015-05-15T12:11:16Z</time>
      </trkpt>
      <trkpt lat="45.72086" lon="5.52689">
        <ele>211.62860843333</ele>
        <time>2015-05-15T12:11:21Z</time>
      </trkpt>
      <trkpt lat="45.72092" lon="5.52689">
        <ele>211.62860843333</ele>
        <time>2015-05-15T12:11:26Z</time>
      </trkpt>
      <trkpt lat="45.72099" lon="5.52686">
        <ele>212.45161197049</ele>
        <time>2015-05-15T12:11:31Z</time>
      </trkpt>
      <trkpt lat="45.72103" lon="5.52684">
        <ele>212.45161197049</ele>
        <time>2015-05-15T12:11:36Z</time>
      </trkpt>
      <trkpt lat="45.72107" lon="5.52682">
        <ele>212.76810511717</ele>
        <time>2015-05-15T12:11:41Z</time>
      </trkpt>
      <trkpt lat="45.72114" lon="5.52678">
        <ele>212.76810511717</ele>
        <time>2015-05-15T12:11:46Z</time>
      </trkpt>
      <trkpt lat="45.72122" lon="5.52673">
        <ele>212.88850598462</ele>
        <time>2015-05-15T12:11:51Z</time>
      </trkpt>
      <trkpt lat="45.72131" lon="5.5267">
        <ele>212.36603145081</ele>
        <time>2015-05-15T12:11:56Z</time>
      </trkpt>
      <trkpt lat="45.72137" lon="5.52666">
        <ele>212.36603145081</ele>
        <time>2015-05-15T12:12:01Z</time>
      </trkpt>
      <trkpt lat="45.72146" lon="5.52664">
        <ele>211.09117119973</ele>
        <time>2015-05-15T12:12:06Z</time>
      </trkpt>
      <trkpt lat="45.72155" lon="5.52663">
        <ele>211.09117119973</ele>
        <time>2015-05-15T12:12:11Z</time>
      </trkpt>
      <trkpt lat="45.72162" lon="5.5266">
        <ele>209.36808962185</ele>
        <time>2015-05-15T12:12:16Z</time>
      </trkpt>
      <trkpt lat="45.72169" lon="5.52656">
        <ele>209.36808962185</ele>
        <time>2015-05-15T12:12:21Z</time>
      </trkpt>
      <trkpt lat="45.72177" lon="5.52647">
        <ele>207.89778536783</ele>
        <time>2015-05-15T12:12:26Z</time>
      </trkpt>
      <trkpt lat="45.72185" lon="5.52639">
        <ele>207.34345177526</ele>
        <time>2015-05-15T12:12:31Z</time>
      </trkpt>
      <trkpt lat="45.72192" lon="5.52631">
        <ele>207.01997244846</ele>
        <time>2015-05-15T12:12:36Z</time>
      </trkpt>
      <trkpt lat="45.72198" lon="5.52625">
        <ele>207.01997244846</ele>
        <time>2015-05-15T12:12:41Z</time>
      </trkpt>
      <trkpt lat="45.72204" lon="5.52622">
        <ele>206.43599383698</ele>
        <time>2015-05-15T12:12:46Z</time>
      </trkpt>
      <trkpt lat="45.72209" lon="5.5262">
        <ele>206.43599383698</ele>
        <time>2015-05-15T12:12:51Z</time>
      </trkpt>
      <trkpt lat="45.72215" lon="5.52616">
        <ele>205.84309929809</ele>
        <time>2015-05-15T12:12:56Z</time>
      </trkpt>
      <trkpt lat="45.72221" lon="5.52611">
        <ele>205.84309929809</ele>
        <time>2015-05-15T12:13:01Z</time>
      </trkpt>
      <trkpt lat="45.72228" lon="5.52605">
        <ele>204.78264589581</ele>
        <time>2015-05-15T12:13:06Z</time>
      </trkpt>
      <trkpt lat="45.72234" lon="5.52599">
        <ele>204.78264589581</ele>
        <time>2015-05-15T12:13:11Z</time>
      </trkpt>
      <trkpt lat="45.72241" lon="5.52594">
        <ele>203.99825447136</ele>
        <time>2015-05-15T12:13:16Z</time>
      </trkpt>
      <trkpt lat="45.72246" lon="5.52588">
        <ele>203.99825447136</ele>
        <time>2015-05-15T12:13:21Z</time>
      </trkpt>
      <trkpt lat="45.72251" lon="5.52582">
        <ele>203.22696785766</ele>
        <time>2015-05-15T12:13:26Z</time>
      </trkpt>
      <trkpt lat="45.72258" lon="5.52575">
        <ele>203.22696785766</ele>
        <time>2015-05-15T12:13:31Z</time>
      </trkpt>
      <trkpt lat="45.72265" lon="5.5257">
        <ele>203.14737365343</ele>
        <time>2015-05-15T12:13:36Z</time>
      </trkpt>
      <trkpt lat="45.72272" lon="5.52564">
        <ele>203.14737365343</ele>
        <time>2015-05-15T12:13:41Z</time>
      </trkpt>
      <trkpt lat="45.72277" lon="5.52559">
        <ele>202.80099902322</ele>
        <time>2015-05-15T12:13:46Z</time>
      </trkpt>
      <trkpt lat="45.72283" lon="5.52554">
        <ele>202.80099902322</ele>
        <time>2015-05-15T12:13:51Z</time>
      </trkpt>
      <trkpt lat="45.7229" lon="5.5255">
        <ele>202.3380798433</ele>
        <time>2015-05-15T12:13:56Z</time>
      </trkpt>
      <trkpt lat="45.72296" lon="5.52545">
        <ele>202.3380798433</ele>
        <time>2015-05-15T12:14:01Z</time>
      </trkpt>
      <trkpt lat="45.72303" lon="5.5254">
        <ele>202.17190597665</ele>
        <time>2015-05-15T12:14:06Z</time>
      </trkpt>
      <trkpt lat="45.72309" lon="5.52534">
        <ele>202.17190597665</ele>
        <time>2015-05-15T12:14:11Z</time>
      </trkpt>
      <trkpt lat="45.72316" lon="5.5253">
        <ele>202.09367287391</ele>
        <time>2015-05-15T12:14:16Z</time>
      </trkpt>
      <trkpt lat="45.72324" lon="5.52525">
        <ele>202.09367287391</ele>
        <time>2015-05-15T12:14:21Z</time>
      </trkpt>
      <trkpt lat="45.72331" lon="5.52521">
        <ele>201.88080126486</ele>
        <time>2015-05-15T12:14:26Z</time>
      </trkpt>
      <trkpt lat="45.72337" lon="5.52517">
        <ele>201.88080126486</ele>
        <time>2015-05-15T12:14:32Z</time>
      </trkpt>
      <trkpt lat="45.72342" lon="5.52514">
        <ele>202.01913201785</ele>
        <time>2015-05-15T12:14:36Z</time>
      </trkpt>
      <trkpt lat="45.72348" lon="5.5251">
        <ele>202.01913201785</ele>
        <time>2015-05-15T12:14:41Z</time>
      </trkpt>
      <trkpt lat="45.72353" lon="5.52507">
        <ele>201.84813639963</ele>
        <time>2015-05-15T12:14:46Z</time>
      </trkpt>
      <trkpt lat="45.72358" lon="5.52501">
        <ele>201.84813639963</ele>
        <time>2015-05-15T12:14:51Z</time>
      </trkpt>
      <trkpt lat="45.72363" lon="5.52494">
        <ele>201.83747365053</ele>
        <time>2015-05-15T12:14:56Z</time>
      </trkpt>
      <trkpt lat="45.7237" lon="5.52489">
        <ele>201.83747365053</ele>
        <time>2015-05-15T12:15:01Z</time>
      </trkpt>
      <trkpt lat="45.72376" lon="5.52484">
        <ele>202.33535412964</ele>
        <time>2015-05-15T12:15:06Z</time>
      </trkpt>
      <trkpt lat="45.72382" lon="5.5248">
        <ele>202.33535412964</ele>
        <time>2015-05-15T12:15:11Z</time>
      </trkpt>
      <trkpt lat="45.72389" lon="5.52477">
        <ele>202.69741042183</ele>
        <time>2015-05-15T12:15:16Z</time>
      </trkpt>
      <trkpt lat="45.72397" lon="5.52472">
        <ele>202.69741042183</ele>
        <time>2015-05-15T12:15:21Z</time>
      </trkpt>
      <trkpt lat="45.72404" lon="5.52471">
        <ele>202.94664678847</ele>
        <time>2015-05-15T12:15:26Z</time>
      </trkpt>
      <trkpt lat="45.72411" lon="5.52472">
        <ele>202.94664678847</ele>
        <time>2015-05-15T12:15:31Z</time>
      </trkpt>
      <trkpt lat="45.72417" lon="5.52476">
        <ele>203.40731100455</ele>
        <time>2015-05-15T12:15:36Z</time>
      </trkpt>
      <trkpt lat="45.72423" lon="5.52481">
        <ele>203.40731100455</ele>
        <time>2015-05-15T12:15:41Z</time>
      </trkpt>
      <trkpt lat="45.72429" lon="5.52485">
        <ele>203.87483881383</ele>
        <time>2015-05-15T12:15:46Z</time>
      </trkpt>
      <trkpt lat="45.72435" lon="5.5249">
        <ele>203.87483881383</ele>
        <time>2015-05-15T12:15:51Z</time>
      </trkpt>
      <trkpt lat="45.72441" lon="5.52496">
        <ele>204.18849045844</ele>
        <time>2015-05-15T12:15:56Z</time>
      </trkpt>
      <trkpt lat="45.72447" lon="5.52499">
        <ele>204.18849045844</ele>
        <time>2015-05-15T12:16:01Z</time>
      </trkpt>
      <trkpt lat="45.72453" lon="5.52502">
        <ele>204.45916490257</ele>
        <time>2015-05-15T12:16:06Z</time>
      </trkpt>
      <trkpt lat="45.72459" lon="5.52505">
        <ele>204.45916490257</ele>
        <time>2015-05-15T12:16:11Z</time>
      </trkpt>
      <trkpt lat="45.72466" lon="5.52506">
        <ele>204.58798265111</ele>
        <time>2015-05-15T12:16:16Z</time>
      </trkpt>
      <trkpt lat="45.72472" lon="5.52504">
        <ele>204.58798265111</ele>
        <time>2015-05-15T12:16:21Z</time>
      </trkpt>
      <trkpt lat="45.72476" lon="5.525">
        <ele>204.88724371384</ele>
        <time>2015-05-15T12:16:26Z</time>
      </trkpt>
      <trkpt lat="45.72481" lon="5.52494">
        <ele>204.88724371384</ele>
        <time>2015-05-15T12:16:31Z</time>
      </trkpt>
      <trkpt lat="45.72485" lon="5.52487">
        <ele>205.11262662955</ele>
        <time>2015-05-15T12:16:36Z</time>
      </trkpt>
      <trkpt lat="45.72491" lon="5.52482">
        <ele>205.11262662955</ele>
        <time>2015-05-15T12:16:41Z</time>
      </trkpt>
      <trkpt lat="45.72496" lon="5.52475">
        <ele>205.3694323802</ele>
        <time>2015-05-15T12:16:46Z</time>
      </trkpt>
      <trkpt lat="45.72501" lon="5.52469">
        <ele>205.3694323802</ele>
        <time>2015-05-15T12:16:51Z</time>
      </trkpt>
      <trkpt lat="45.72507" lon="5.52463">
        <ele>205.84161957392</ele>
        <time>2015-05-15T12:16:56Z</time>
      </trkpt>
      <trkpt lat="45.72513" lon="5.52457">
        <ele>205.84161957392</ele>
        <time>2015-05-15T12:17:01Z</time>
      </trkpt>
      <trkpt lat="45.72519" lon="5.52453">
        <ele>206.12260136502</ele>
        <time>2015-05-15T12:17:06Z</time>
      </trkpt>
      <trkpt lat="45.72525" lon="5.5245">
        <ele>206.12260136502</ele>
        <time>2015-05-15T12:17:11Z</time>
      </trkpt>
      <trkpt lat="45.72531" lon="5.52447">
        <ele>206.18208064763</ele>
        <time>2015-05-15T12:17:16Z</time>
      </trkpt>
      <trkpt lat="45.72538" lon="5.52447">
        <ele>206.18208064763</ele>
        <time>2015-05-15T12:17:21Z</time>
      </trkpt>
      <trkpt lat="45.72544" lon="5.52452">
        <ele>205.89174938147</ele>
        <time>2015-05-15T12:17:26Z</time>
      </trkpt>
      <trkpt lat="45.7255" lon="5.52459">
        <ele>205.89174938147</ele>
        <time>2015-05-15T12:17:31Z</time>
      </trkpt>
      <trkpt lat="45.72554" lon="5.52466">
        <ele>205.55164829714</ele>
        <time>2015-05-15T12:17:36Z</time>
      </trkpt>
      <trkpt lat="45.72559" lon="5.52475">
        <ele>205.55164829714</ele>
        <time>2015-05-15T12:17:41Z</time>
      </trkpt>
      <trkpt lat="45.72563" lon="5.52487">
        <ele>205.13730119392</ele>
        <time>2015-05-15T12:17:46Z</time>
      </trkpt>
      <trkpt lat="45.72566" lon="5.52496">
        <ele>205.13730119392</ele>
        <time>2015-05-15T12:17:51Z</time>
      </trkpt>
      <trkpt lat="45.7257" lon="5.52504">
        <ele>204.49655240638</ele>
        <time>2015-05-15T12:17:58Z</time>
      </trkpt>
      <trkpt lat="45.72575" lon="5.52515">
        <ele>204.49655240638</ele>
        <time>2015-05-15T12:18:01Z</time>
      </trkpt>
      <trkpt lat="45.7258" lon="5.5253">
        <ele>204.22403631106</ele>
        <time>2015-05-15T12:18:06Z</time>
      </trkpt>
      <trkpt lat="45.72585" lon="5.5254">
        <ele>204.22403631106</ele>
        <time>2015-05-15T12:18:11Z</time>
      </trkpt>
      <trkpt lat="45.72588" lon="5.52548">
        <ele>204.06265761762</ele>
        <time>2015-05-15T12:18:16Z</time>
      </trkpt>
      <trkpt lat="45.72592" lon="5.52556">
        <ele>204.06265761762</ele>
        <time>2015-05-15T12:18:21Z</time>
      </trkpt>
      <trkpt lat="45.72596" lon="5.52563">
        <ele>204.07653368675</ele>
        <time>2015-05-15T12:18:26Z</time>
      </trkpt>
      <trkpt lat="45.72603" lon="5.52568">
        <ele>204.07653368675</ele>
        <time>2015-05-15T12:18:31Z</time>
      </trkpt>
      <trkpt lat="45.72609" lon="5.52573">
        <ele>204.95867437176</ele>
        <time>2015-05-15T12:18:36Z</time>
      </trkpt>
      <trkpt lat="45.7261" lon="5.52578">
        <ele>204.95867437176</ele>
        <time>2015-05-15T12:18:41Z</time>
      </trkpt>
      <trkpt lat="45.72615" lon="5.52583">
        <ele>205.92205265087</ele>
        <time>2015-05-15T12:18:46Z</time>
      </trkpt>
      <trkpt lat="45.7262" lon="5.52586">
        <ele>205.92205265087</ele>
        <time>2015-05-15T12:18:51Z</time>
      </trkpt>
      <trkpt lat="45.72624" lon="5.52593">
        <ele>205.58873782031</ele>
        <time>2015-05-15T12:18:56Z</time>
      </trkpt>
      <trkpt lat="45.72631" lon="5.52597">
        <ele>205.58873782031</ele>
        <time>2015-05-15T12:19:01Z</time>
      </trkpt>
      <trkpt lat="45.72639" lon="5.52601">
        <ele>205.76965113487</ele>
        <time>2015-05-15T12:19:06Z</time>
      </trkpt>
      <trkpt lat="45.72646" lon="5.52606">
        <ele>205.76965113487</ele>
        <time>2015-05-15T12:19:11Z</time>
      </trkpt>
      <trkpt lat="45.72653" lon="5.52612">
        <ele>205.74901231714</ele>
        <time>2015-05-15T12:19:16Z</time>
      </trkpt>
      <trkpt lat="45.7266" lon="5.52617">
        <ele>205.74901231714</ele>
        <time>2015-05-15T12:19:21Z</time>
      </trkpt>
      <trkpt lat="45.72667" lon="5.52623">
        <ele>205.67122563239</ele>
        <time>2015-05-15T12:19:26Z</time>
      </trkpt>
      <trkpt lat="45.72675" lon="5.52629">
        <ele>205.67122563239</ele>
        <time>2015-05-15T12:19:31Z</time>
      </trkpt>
      <trkpt lat="45.72682" lon="5.52636">
        <ele>205.00735012777</ele>
        <time>2015-05-15T12:19:36Z</time>
      </trkpt>
      <trkpt lat="45.72688" lon="5.52641">
        <ele>205.00735012777</ele>
        <time>2015-05-15T12:19:41Z</time>
      </trkpt>
      <trkpt lat="45.72694" lon="5.52645">
        <ele>204.49390095216</ele>
        <time>2015-05-15T12:19:46Z</time>
      </trkpt>
      <trkpt lat="45.727" lon="5.52649">
        <ele>204.49390095216</ele>
        <time>2015-05-15T12:19:51Z</time>
      </trkpt>
      <trkpt lat="45.72706" lon="5.52652">
        <ele>204.30848653668</ele>
        <time>2015-05-15T12:19:56Z</time>
      </trkpt>
      <trkpt lat="45.72712" lon="5.52655">
        <ele>204.30848653668</ele>
        <time>2015-05-15T12:20:01Z</time>
      </trkpt>
      <trkpt lat="45.72719" lon="5.52658">
        <ele>204.35535338716</ele>
        <time>2015-05-15T12:20:06Z</time>
      </trkpt>
      <trkpt lat="45.72726" lon="5.52664">
        <ele>204.35535338716</ele>
        <time>2015-05-15T12:20:11Z</time>
      </trkpt>
      <trkpt lat="45.72732" lon="5.52672">
        <ele>204.47307813694</ele>
        <time>2015-05-15T12:20:16Z</time>
      </trkpt>
      <trkpt lat="45.72736" lon="5.52681">
        <ele>204.47307813694</ele>
        <time>2015-05-15T12:20:21Z</time>
      </trkpt>
      <trkpt lat="45.7274" lon="5.52688">
        <ele>204.58395510518</ele>
        <time>2015-05-15T12:20:26Z</time>
      </trkpt>
      <trkpt lat="45.72744" lon="5.52696">
        <ele>204.58395510518</ele>
        <time>2015-05-15T12:20:31Z</time>
      </trkpt>
      <trkpt lat="45.72749" lon="5.52704">
        <ele>204.78894297011</ele>
        <time>2015-05-15T12:20:36Z</time>
      </trkpt>
      <trkpt lat="45.72754" lon="5.5271">
        <ele>204.78894297011</ele>
        <time>2015-05-15T12:20:41Z</time>
      </trkpt>
      <trkpt lat="45.7276" lon="5.52714">
        <ele>205.05162484659</ele>
        <time>2015-05-15T12:20:46Z</time>
      </trkpt>
      <trkpt lat="45.72765" lon="5.52718">
        <ele>205.05162484659</ele>
        <time>2015-05-15T12:20:51Z</time>
      </trkpt>
      <trkpt lat="45.72772" lon="5.52722">
        <ele>205.17958106952</ele>
        <time>2015-05-15T12:20:56Z</time>
      </trkpt>
      <trkpt lat="45.72778" lon="5.52726">
        <ele>205.17958106952</ele>
        <time>2015-05-15T12:21:01Z</time>
      </trkpt>
      <trkpt lat="45.72783" lon="5.5273">
        <ele>205.16784562507</ele>
        <time>2015-05-15T12:21:06Z</time>
      </trkpt>
      <trkpt lat="45.72789" lon="5.52735">
        <ele>205.16784562507</ele>
        <time>2015-05-15T12:21:11Z</time>
      </trkpt>
      <trkpt lat="45.72794" lon="5.5274">
        <ele>204.91133896048</ele>
        <time>2015-05-15T12:21:16Z</time>
      </trkpt>
      <trkpt lat="45.728" lon="5.52746">
        <ele>204.91133896048</ele>
        <time>2015-05-15T12:21:21Z</time>
      </trkpt>
      <trkpt lat="45.72805" lon="5.52754">
        <ele>204.90425055372</ele>
        <time>2015-05-15T12:21:26Z</time>
      </trkpt>
      <trkpt lat="45.72805" lon="5.52765">
        <ele>204.90425055372</ele>
        <time>2015-05-15T12:21:31Z</time>
      </trkpt>
      <trkpt lat="45.72804" lon="5.52775">
        <ele>204.89762938101</ele>
        <time>2015-05-15T12:21:36Z</time>
      </trkpt>
      <trkpt lat="45.72804" lon="5.52784">
        <ele>204.89762938101</ele>
        <time>2015-05-15T12:21:41Z</time>
      </trkpt>
      <trkpt lat="45.72806" lon="5.52791">
        <ele>204.92021696454</ele>
        <time>2015-05-15T12:21:46Z</time>
      </trkpt>
      <trkpt lat="45.72809" lon="5.52801">
        <ele>204.92021696454</ele>
        <time>2015-05-15T12:21:51Z</time>
      </trkpt>
      <trkpt lat="45.72812" lon="5.5281">
        <ele>205.38766787159</ele>
        <time>2015-05-15T12:21:56Z</time>
      </trkpt>
      <trkpt lat="45.72814" lon="5.52817">
        <ele>205.38766787159</ele>
        <time>2015-05-15T12:22:01Z</time>
      </trkpt>
      <trkpt lat="45.72816" lon="5.52826">
        <ele>206.26594062879</ele>
        <time>2015-05-15T12:22:06Z</time>
      </trkpt>
      <trkpt lat="45.72817" lon="5.52834">
        <ele>206.26594062879</ele>
        <time>2015-05-15T12:22:11Z</time>
      </trkpt>
      <trkpt lat="45.72822" lon="5.52841">
        <ele>207.10443079848</ele>
        <time>2015-05-15T12:22:16Z</time>
      </trkpt>
      <trkpt lat="45.72828" lon="5.52843">
        <ele>207.10443079848</ele>
        <time>2015-05-15T12:22:21Z</time>
      </trkpt>
      <trkpt lat="45.72833" lon="5.52845">
        <ele>207.71633999833</ele>
        <time>2015-05-15T12:22:26Z</time>
      </trkpt>
      <trkpt lat="45.72833" lon="5.52846">
        <ele>207.71633999833</ele>
        <time>2015-05-15T12:22:31Z</time>
      </trkpt>
      <trkpt lat="45.72833" lon="5.52847">
        <ele>207.71633999833</ele>
        <time>2015-05-15T12:22:36Z</time>
      </trkpt>
      <trkpt lat="45.72831" lon="5.52847">
        <ele>207.71633999833</ele>
        <time>2015-05-15T12:22:41Z</time>
      </trkpt>
      <trkpt lat="45.7283" lon="5.52847">
        <ele>207.71633999833</ele>
        <time>2015-05-15T12:22:46Z</time>
      </trkpt>
      <trkpt lat="45.7283" lon="5.52848">
        <ele>207.71633999833</ele>
        <time>2015-05-15T12:22:51Z</time>
      </trkpt>
      <trkpt lat="45.72829" lon="5.52848">
        <ele>207.71633999833</ele>
        <time>2015-05-15T12:22:56Z</time>
      </trkpt>
      <trkpt lat="45.72829" lon="5.52849">
        <ele>207.71633999833</ele>
        <time>2015-05-15T12:23:01Z</time>
      </trkpt>
      <trkpt lat="45.72829" lon="5.52849">
        <ele>207.71633999833</ele>
        <time>2015-05-15T12:23:06Z</time>
      </trkpt>
      <trkpt lat="45.72829" lon="5.52849">
        <ele>207.71633999833</ele>
        <time>2015-05-15T12:23:11Z</time>
      </trkpt>
      <trkpt lat="45.72829" lon="5.52849">
        <ele>207.71633999833</ele>
        <time>2015-05-15T12:23:16Z</time>
      </trkpt>
      <trkpt lat="45.72829" lon="5.52849">
        <ele>207.71633999833</ele>
        <time>2015-05-15T12:23:21Z</time>
      </trkpt>
      <trkpt lat="45.72833" lon="5.52848">
        <ele>208.07335863543</ele>
        <time>2015-05-15T12:23:26Z</time>
      </trkpt>
      <trkpt lat="45.72837" lon="5.52851">
        <ele>208.07335863543</ele>
        <time>2015-05-15T12:23:31Z</time>
      </trkpt>
      <trkpt lat="45.72842" lon="5.52854">
        <ele>207.38620438359</ele>
        <time>2015-05-15T12:23:36Z</time>
      </trkpt>
      <trkpt lat="45.72849" lon="5.52857">
        <ele>207.38620438359</ele>
        <time>2015-05-15T12:23:41Z</time>
      </trkpt>
      <trkpt lat="45.72856" lon="5.5286">
        <ele>207.39082755634</ele>
        <time>2015-05-15T12:23:46Z</time>
      </trkpt>
      <trkpt lat="45.72863" lon="5.52865">
        <ele>207.39082755634</ele>
        <time>2015-05-15T12:23:51Z</time>
      </trkpt>
      <trkpt lat="45.7287" lon="5.52869">
        <ele>207.31590214087</ele>
        <time>2015-05-15T12:23:56Z</time>
      </trkpt>
      <trkpt lat="45.72877" lon="5.52873">
        <ele>207.31590214087</ele>
        <time>2015-05-15T12:24:01Z</time>
      </trkpt>
      <trkpt lat="45.72883" lon="5.52878">
        <ele>207.49901600359</ele>
        <time>2015-05-15T12:24:06Z</time>
      </trkpt>
      <trkpt lat="45.7289" lon="5.52884">
        <ele>207.49901600359</ele>
        <time>2015-05-15T12:24:11Z</time>
      </trkpt>
      <trkpt lat="45.72895" lon="5.52891">
        <ele>208.03608391692</ele>
        <time>2015-05-15T12:24:16Z</time>
      </trkpt>
      <trkpt lat="45.72895" lon="5.529">
        <ele>208.03608391692</ele>
        <time>2015-05-15T12:24:21Z</time>
      </trkpt>
      <trkpt lat="45.72893" lon="5.52909">
        <ele>208.68354325183</ele>
        <time>2015-05-15T12:24:26Z</time>
      </trkpt>
      <trkpt lat="45.72894" lon="5.52917">
        <ele>208.68354325183</ele>
        <time>2015-05-15T12:24:31Z</time>
      </trkpt>
      <trkpt lat="45.72895" lon="5.52915">
        <ele>208.68354325183</ele>
        <time>2015-05-15T12:24:36Z</time>
      </trkpt>
      <trkpt lat="45.72895" lon="5.52917">
        <ele>208.68354325183</ele>
        <time>2015-05-15T12:24:41Z</time>
      </trkpt>
      <trkpt lat="45.72897" lon="5.52922">
        <ele>209.95040048417</ele>
        <time>2015-05-15T12:24:46Z</time>
      </trkpt>
      <trkpt lat="45.729" lon="5.5293">
        <ele>209.95040048417</ele>
        <time>2015-05-15T12:24:51Z</time>
      </trkpt>
      <trkpt lat="45.72903" lon="5.52941">
        <ele>211.16807938666</ele>
        <time>2015-05-15T12:24:56Z</time>
      </trkpt>
      <trkpt lat="45.72906" lon="5.52948">
        <ele>211.16807938666</ele>
        <time>2015-05-15T12:25:01Z</time>
      </trkpt>
      <trkpt lat="45.72909" lon="5.52954">
        <ele>212.36578558749</ele>
        <time>2015-05-15T12:25:06Z</time>
      </trkpt>
      <trkpt lat="45.72913" lon="5.52959">
        <ele>212.36578558749</ele>
        <time>2015-05-15T12:25:11Z</time>
      </trkpt>
      <trkpt lat="45.72915" lon="5.52966">
        <ele>214.10388471514</ele>
        <time>2015-05-15T12:25:16Z</time>
      </trkpt>
      <trkpt lat="45.72917" lon="5.52974">
        <ele>214.10388471514</ele>
        <time>2015-05-15T12:25:21Z</time>
      </trkpt>
      <trkpt lat="45.72918" lon="5.52988">
        <ele>216.64071006081</ele>
        <time>2015-05-15T12:25:26Z</time>
      </trkpt>
      <trkpt lat="45.7292" lon="5.52997">
        <ele>216.64071006081</ele>
        <time>2015-05-15T12:25:31Z</time>
      </trkpt>
      <trkpt lat="45.72924" lon="5.53002">
        <ele>218.98849080819</ele>
        <time>2015-05-15T12:25:36Z</time>
      </trkpt>
      <trkpt lat="45.72927" lon="5.53008">
        <ele>218.98849080819</ele>
        <time>2015-05-15T12:25:41Z</time>
      </trkpt>
      <trkpt lat="45.72931" lon="5.53014">
        <ele>221.4287409363</ele>
        <time>2015-05-15T12:25:46Z</time>
      </trkpt>
      <trkpt lat="45.72937" lon="5.53016">
        <ele>221.4287409363</ele>
        <time>2015-05-15T12:25:51Z</time>
      </trkpt>
      <trkpt lat="45.72942" lon="5.53019">
        <ele>224.55357592146</ele>
        <time>2015-05-15T12:25:56Z</time>
      </trkpt>
      <trkpt lat="45.72948" lon="5.53022">
        <ele>224.55357592146</ele>
        <time>2015-05-15T12:26:01Z</time>
      </trkpt>
      <trkpt lat="45.72952" lon="5.53022">
        <ele>228.57834008532</ele>
        <time>2015-05-15T12:26:06Z</time>
      </trkpt>
      <trkpt lat="45.72955" lon="5.53021">
        <ele>228.57834008532</ele>
        <time>2015-05-15T12:26:11Z</time>
      </trkpt>
      <trkpt lat="45.72961" lon="5.53018">
        <ele>228.57834008532</ele>
        <time>2015-05-15T12:26:16Z</time>
      </trkpt>
      <trkpt lat="45.72967" lon="5.53014">
        <ele>231.62495042602</ele>
        <time>2015-05-15T12:26:21Z</time>
      </trkpt>
      <trkpt lat="45.72975" lon="5.53012">
        <ele>231.62495042602</ele>
        <time>2015-05-15T12:26:26Z</time>
      </trkpt>
      <trkpt lat="45.7298" lon="5.53016">
        <ele>235.21307738142</ele>
        <time>2015-05-15T12:26:31Z</time>
      </trkpt>
      <trkpt lat="45.72985" lon="5.53018">
        <ele>235.21307738142</ele>
        <time>2015-05-15T12:26:36Z</time>
      </trkpt>
      <trkpt lat="45.72989" lon="5.53024">
        <ele>239.06328899332</ele>
        <time>2015-05-15T12:26:41Z</time>
      </trkpt>
      <trkpt lat="45.72991" lon="5.53031">
        <ele>239.06328899332</ele>
        <time>2015-05-15T12:26:46Z</time>
      </trkpt>
      <trkpt lat="45.7299" lon="5.53036">
        <ele>242.4261338684</ele>
        <time>2015-05-15T12:26:51Z</time>
      </trkpt>
      <trkpt lat="45.72991" lon="5.53043">
        <ele>242.4261338684</ele>
        <time>2015-05-15T12:26:56Z</time>
      </trkpt>
      <trkpt lat="45.72993" lon="5.53048">
        <ele>242.4261338684</ele>
        <time>2015-05-15T12:27:01Z</time>
      </trkpt>
      <trkpt lat="45.72994" lon="5.53058">
        <ele>245.9778186815</ele>
        <time>2015-05-15T12:27:06Z</time>
      </trkpt>
      <trkpt lat="45.72994" lon="5.53068">
        <ele>245.9778186815</ele>
        <time>2015-05-15T12:27:11Z</time>
      </trkpt>
      <trkpt lat="45.72994" lon="5.53075">
        <ele>249.04753838601</ele>
        <time>2015-05-15T12:27:16Z</time>
      </trkpt>
      <trkpt lat="45.72994" lon="5.53082">
        <ele>249.04753838601</ele>
        <time>2015-05-15T12:27:21Z</time>
      </trkpt>
      <trkpt lat="45.72987" lon="5.53094">
        <ele>252.11056346346</ele>
        <time>2015-05-15T12:27:26Z</time>
      </trkpt>
      <trkpt lat="45.72983" lon="5.53111">
        <ele>255.18955617224</ele>
        <time>2015-05-15T12:27:31Z</time>
      </trkpt>
      <trkpt lat="45.72982" lon="5.53116">
        <ele>255.18955617224</ele>
        <time>2015-05-15T12:27:36Z</time>
      </trkpt>
      <trkpt lat="45.7298" lon="5.53124">
        <ele>258.47861641447</ele>
        <time>2015-05-15T12:27:41Z</time>
      </trkpt>
      <trkpt lat="45.72979" lon="5.53132">
        <ele>258.47861641447</ele>
        <time>2015-05-15T12:27:46Z</time>
      </trkpt>
      <trkpt lat="45.72976" lon="5.53141">
        <ele>261.76811388943</ele>
        <time>2015-05-15T12:27:51Z</time>
      </trkpt>
      <trkpt lat="45.72973" lon="5.53149">
        <ele>261.76811388943</ele>
        <time>2015-05-15T12:27:56Z</time>
      </trkpt>
      <trkpt lat="45.72972" lon="5.53156">
        <ele>265.15226001558</ele>
        <time>2015-05-15T12:28:01Z</time>
      </trkpt>
      <trkpt lat="45.7297" lon="5.53166">
        <ele>265.15226001558</ele>
        <time>2015-05-15T12:28:06Z</time>
      </trkpt>
      <trkpt lat="45.72968" lon="5.53174">
        <ele>268.24273711934</ele>
        <time>2015-05-15T12:28:11Z</time>
      </trkpt>
      <trkpt lat="45.72968" lon="5.5318">
        <ele>268.24273711934</ele>
        <time>2015-05-15T12:28:16Z</time>
      </trkpt>
      <trkpt lat="45.7297" lon="5.53186">
        <ele>270.62315713221</ele>
        <time>2015-05-15T12:28:21Z</time>
      </trkpt>
      <trkpt lat="45.72971" lon="5.53193">
        <ele>270.62315713221</ele>
        <time>2015-05-15T12:28:26Z</time>
      </trkpt>
      <trkpt lat="45.72972" lon="5.53196">
        <ele>270.62315713221</ele>
        <time>2015-05-15T12:28:31Z</time>
      </trkpt>
      <trkpt lat="45.72972" lon="5.53197">
        <ele>270.62315713221</ele>
        <time>2015-05-15T12:28:36Z</time>
      </trkpt>
      <trkpt lat="45.72974" lon="5.53201">
        <ele>273.78338127101</ele>
        <time>2015-05-15T12:28:41Z</time>
      </trkpt>
      <trkpt lat="45.72977" lon="5.53209">
        <ele>273.78338127101</ele>
        <time>2015-05-15T12:28:46Z</time>
      </trkpt>
      <trkpt lat="45.72981" lon="5.53217">
        <ele>276.92578315355</ele>
        <time>2015-05-15T12:28:51Z</time>
      </trkpt>
      <trkpt lat="45.72986" lon="5.53221">
        <ele>276.92578315355</ele>
        <time>2015-05-15T12:28:56Z</time>
      </trkpt>
      <trkpt lat="45.72989" lon="5.53229">
        <ele>279.9601001102</ele>
        <time>2015-05-15T12:29:01Z</time>
      </trkpt>
      <trkpt lat="45.7299" lon="5.53237">
        <ele>279.9601001102</ele>
        <time>2015-05-15T12:29:06Z</time>
      </trkpt>
      <trkpt lat="45.72989" lon="5.53241">
        <ele>279.9601001102</ele>
        <time>2015-05-15T12:29:11Z</time>
      </trkpt>
      <trkpt lat="45.72988" lon="5.53247">
        <ele>282.86086517785</ele>
        <time>2015-05-15T12:29:16Z</time>
      </trkpt>
      <trkpt lat="45.72987" lon="5.53257">
        <ele>282.86086517785</ele>
        <time>2015-05-15T12:29:21Z</time>
      </trkpt>
      <trkpt lat="45.72985" lon="5.53266">
        <ele>285.04303669463</ele>
        <time>2015-05-15T12:29:26Z</time>
      </trkpt>
      <trkpt lat="45.72986" lon="5.53273">
        <ele>285.04303669463</ele>
        <time>2015-05-15T12:29:31Z</time>
      </trkpt>
      <trkpt lat="45.72986" lon="5.5328">
        <ele>286.16852709</ele>
        <time>2015-05-15T12:29:36Z</time>
      </trkpt>
      <trkpt lat="45.72988" lon="5.53293">
        <ele>286.16852709</ele>
        <time>2015-05-15T12:29:41Z</time>
      </trkpt>
      <trkpt lat="45.72989" lon="5.53303">
        <ele>287.80068964528</ele>
        <time>2015-05-15T12:29:46Z</time>
      </trkpt>
      <trkpt lat="45.72991" lon="5.5331">
        <ele>287.80068964528</ele>
        <time>2015-05-15T12:29:51Z</time>
      </trkpt>
      <trkpt lat="45.72993" lon="5.53316">
        <ele>288.96572749158</ele>
        <time>2015-05-15T12:29:56Z</time>
      </trkpt>
      <trkpt lat="45.72996" lon="5.53323">
        <ele>288.96572749158</ele>
        <time>2015-05-15T12:30:01Z</time>
      </trkpt>
      <trkpt lat="45.72999" lon="5.5333">
        <ele>290.11749948827</ele>
        <time>2015-05-15T12:30:06Z</time>
      </trkpt>
      <trkpt lat="45.73002" lon="5.53335">
        <ele>290.11749948827</ele>
        <time>2015-05-15T12:30:11Z</time>
      </trkpt>
      <trkpt lat="45.73006" lon="5.53341">
        <ele>291.27319932619</ele>
        <time>2015-05-15T12:30:16Z</time>
      </trkpt>
      <trkpt lat="45.73009" lon="5.5335">
        <ele>291.27319932619</ele>
        <time>2015-05-15T12:30:21Z</time>
      </trkpt>
      <trkpt lat="45.7301" lon="5.53356">
        <ele>293.55853752437</ele>
        <time>2015-05-15T12:30:26Z</time>
      </trkpt>
      <trkpt lat="45.73013" lon="5.53361">
        <ele>293.55853752437</ele>
        <time>2015-05-15T12:30:31Z</time>
      </trkpt>
      <trkpt lat="45.73014" lon="5.53364">
        <ele>293.55853752437</ele>
        <time>2015-05-15T12:30:36Z</time>
      </trkpt>
      <trkpt lat="45.73015" lon="5.53364">
        <ele>293.55853752437</ele>
        <time>2015-05-15T12:30:41Z</time>
      </trkpt>
      <trkpt lat="45.73024" lon="5.5337">
        <ele>296.0103389293</ele>
        <time>2015-05-15T12:30:46Z</time>
      </trkpt>
      <trkpt lat="45.73032" lon="5.53376">
        <ele>296.0103389293</ele>
        <time>2015-05-15T12:30:51Z</time>
      </trkpt>
      <trkpt lat="45.7304" lon="5.53387">
        <ele>298.24021767962</ele>
        <time>2015-05-15T12:30:56Z</time>
      </trkpt>
      <trkpt lat="45.73041" lon="5.53398">
        <ele>298.24021767962</ele>
        <time>2015-05-15T12:31:01Z</time>
      </trkpt>
      <trkpt lat="45.7304" lon="5.53412">
        <ele>300.23491342597</ele>
        <time>2015-05-15T12:31:06Z</time>
      </trkpt>
      <trkpt lat="45.73042" lon="5.53424">
        <ele>300.23491342597</ele>
        <time>2015-05-15T12:31:11Z</time>
      </trkpt>
      <trkpt lat="45.73047" lon="5.53432">
        <ele>303.26549039878</ele>
        <time>2015-05-15T12:31:16Z</time>
      </trkpt>
      <trkpt lat="45.7305" lon="5.53442">
        <ele>303.26549039878</ele>
        <time>2015-05-15T12:31:21Z</time>
      </trkpt>
      <trkpt lat="45.73052" lon="5.53449">
        <ele>305.16345204549</ele>
        <time>2015-05-15T12:31:26Z</time>
      </trkpt>
      <trkpt lat="45.73048" lon="5.53457">
        <ele>305.16345204549</ele>
        <time>2015-05-15T12:31:31Z</time>
      </trkpt>
      <trkpt lat="45.73048" lon="5.53468">
        <ele>306.51686601965</ele>
        <time>2015-05-15T12:31:36Z</time>
      </trkpt>
      <trkpt lat="45.73049" lon="5.5348">
        <ele>306.51686601965</ele>
        <time>2015-05-15T12:31:41Z</time>
      </trkpt>
      <trkpt lat="45.73049" lon="5.53488">
        <ele>307.65604322181</ele>
        <time>2015-05-15T12:31:46Z</time>
      </trkpt>
      <trkpt lat="45.7305" lon="5.53493">
        <ele>307.65604322181</ele>
        <time>2015-05-15T12:31:51Z</time>
      </trkpt>
      <trkpt lat="45.73054" lon="5.53497">
        <ele>307.65604322181</ele>
        <time>2015-05-15T12:31:56Z</time>
      </trkpt>
      <trkpt lat="45.73056" lon="5.53502">
        <ele>308.81564721809</ele>
        <time>2015-05-15T12:32:01Z</time>
      </trkpt>
      <trkpt lat="45.73057" lon="5.53504">
        <ele>308.81564721809</ele>
        <time>2015-05-15T12:32:06Z</time>
      </trkpt>
      <trkpt lat="45.73055" lon="5.53507">
        <ele>308.81564721809</ele>
        <time>2015-05-15T12:32:11Z</time>
      </trkpt>
      <trkpt lat="45.73051" lon="5.53514">
        <ele>309.95370528671</ele>
        <time>2015-05-15T12:32:16Z</time>
      </trkpt>
      <trkpt lat="45.73044" lon="5.53522">
        <ele>309.95370528671</ele>
        <time>2015-05-15T12:32:21Z</time>
      </trkpt>
      <trkpt lat="45.73038" lon="5.53527">
        <ele>310.61351186202</ele>
        <time>2015-05-15T12:32:26Z</time>
      </trkpt>
      <trkpt lat="45.73034" lon="5.53532">
        <ele>310.61351186202</ele>
        <time>2015-05-15T12:32:31Z</time>
      </trkpt>
      <trkpt lat="45.73029" lon="5.5354">
        <ele>311.49735203164</ele>
        <time>2015-05-15T12:32:36Z</time>
      </trkpt>
      <trkpt lat="45.73025" lon="5.5355">
        <ele>311.49735203164</ele>
        <time>2015-05-15T12:32:41Z</time>
      </trkpt>
      <trkpt lat="45.7303" lon="5.53563">
        <ele>311.87184446543</ele>
        <time>2015-05-15T12:32:46Z</time>
      </trkpt>
      <trkpt lat="45.73026" lon="5.53572">
        <ele>311.87184446543</ele>
        <time>2015-05-15T12:32:51Z</time>
      </trkpt>
      <trkpt lat="45.73024" lon="5.53579">
        <ele>312.57208290315</ele>
        <time>2015-05-15T12:32:56Z</time>
      </trkpt>
      <trkpt lat="45.73022" lon="5.53588">
        <ele>312.57208290315</ele>
        <time>2015-05-15T12:33:01Z</time>
      </trkpt>
      <trkpt lat="45.73021" lon="5.53596">
        <ele>312.82890339262</ele>
        <time>2015-05-15T12:33:06Z</time>
      </trkpt>
      <trkpt lat="45.73019" lon="5.53607">
        <ele>312.82890339262</ele>
        <time>2015-05-15T12:33:11Z</time>
      </trkpt>
      <trkpt lat="45.73018" lon="5.53618">
        <ele>313.19904416731</ele>
        <time>2015-05-15T12:33:16Z</time>
      </trkpt>
      <trkpt lat="45.73019" lon="5.53628">
        <ele>313.19904416731</ele>
        <time>2015-05-15T12:33:21Z</time>
      </trkpt>
      <trkpt lat="45.73022" lon="5.53639">
        <ele>314.57268320928</ele>
        <time>2015-05-15T12:33:26Z</time>
      </trkpt>
      <trkpt lat="45.73027" lon="5.53646">
        <ele>314.57268320928</ele>
        <time>2015-05-15T12:33:31Z</time>
      </trkpt>
      <trkpt lat="45.73031" lon="5.53654">
        <ele>316.11447030828</ele>
        <time>2015-05-15T12:33:36Z</time>
      </trkpt>
      <trkpt lat="45.73036" lon="5.5366">
        <ele>316.11447030828</ele>
        <time>2015-05-15T12:33:41Z</time>
      </trkpt>
      <trkpt lat="45.7304" lon="5.53664">
        <ele>317.28047611544</ele>
        <time>2015-05-15T12:33:46Z</time>
      </trkpt>
      <trkpt lat="45.73044" lon="5.5367">
        <ele>317.28047611544</ele>
        <time>2015-05-15T12:33:51Z</time>
      </trkpt>
      <trkpt lat="45.73049" lon="5.5368">
        <ele>319.22500807824</ele>
        <time>2015-05-15T12:33:56Z</time>
      </trkpt>
      <trkpt lat="45.73052" lon="5.53689">
        <ele>319.22500807824</ele>
        <time>2015-05-15T12:34:01Z</time>
      </trkpt>
      <trkpt lat="45.73053" lon="5.53697">
        <ele>320.27722811928</ele>
        <time>2015-05-15T12:34:06Z</time>
      </trkpt>
      <trkpt lat="45.73055" lon="5.53704">
        <ele>320.27722811928</ele>
        <time>2015-05-15T12:34:11Z</time>
      </trkpt>
      <trkpt lat="45.73056" lon="5.53707">
        <ele>320.27722811928</ele>
        <time>2015-05-15T12:34:16Z</time>
      </trkpt>
      <trkpt lat="45.73054" lon="5.53714">
        <ele>320.79375010549</ele>
        <time>2015-05-15T12:34:21Z</time>
      </trkpt>
      <trkpt lat="45.73055" lon="5.53721">
        <ele>320.79375010549</ele>
        <time>2015-05-15T12:34:26Z</time>
      </trkpt>
      <trkpt lat="45.73054" lon="5.53732">
        <ele>320.4867532271</ele>
        <time>2015-05-15T12:34:31Z</time>
      </trkpt>
      <trkpt lat="45.73054" lon="5.53743">
        <ele>320.4867532271</ele>
        <time>2015-05-15T12:34:36Z</time>
      </trkpt>
      <trkpt lat="45.73056" lon="5.53749">
        <ele>319.62500987965</ele>
        <time>2015-05-15T12:34:41Z</time>
      </trkpt>
      <trkpt lat="45.73058" lon="5.53755">
        <ele>319.62500987965</ele>
        <time>2015-05-15T12:34:46Z</time>
      </trkpt>
      <trkpt lat="45.73062" lon="5.53764">
        <ele>319.62632279542</ele>
        <time>2015-05-15T12:34:51Z</time>
      </trkpt>
      <trkpt lat="45.73065" lon="5.5377">
        <ele>319.62632279542</ele>
        <time>2015-05-15T12:34:56Z</time>
      </trkpt>
      <trkpt lat="45.73069" lon="5.53778">
        <ele>320.31748406155</ele>
        <time>2015-05-15T12:35:01Z</time>
      </trkpt>
      <trkpt lat="45.73075" lon="5.53784">
        <ele>320.31748406155</ele>
        <time>2015-05-15T12:35:06Z</time>
      </trkpt>
      <trkpt lat="45.7308" lon="5.53788">
        <ele>320.29661400477</ele>
        <time>2015-05-15T12:35:11Z</time>
      </trkpt>
      <trkpt lat="45.73084" lon="5.53792">
        <ele>320.29661400477</ele>
        <time>2015-05-15T12:35:16Z</time>
      </trkpt>
      <trkpt lat="45.73088" lon="5.53796">
        <ele>318.41080719677</ele>
        <time>2015-05-15T12:35:21Z</time>
      </trkpt>
      <trkpt lat="45.73093" lon="5.538">
        <ele>318.41080719677</ele>
        <time>2015-05-15T12:35:26Z</time>
      </trkpt>
      <trkpt lat="45.73097" lon="5.53806">
        <ele>315.84508745561</ele>
        <time>2015-05-15T12:35:31Z</time>
      </trkpt>
      <trkpt lat="45.73099" lon="5.53815">
        <ele>315.84508745561</ele>
        <time>2015-05-15T12:35:36Z</time>
      </trkpt>
      <trkpt lat="45.731" lon="5.53824">
        <ele>313.59831249992</ele>
        <time>2015-05-15T12:35:41Z</time>
      </trkpt>
      <trkpt lat="45.73106" lon="5.53839">
        <ele>314.3386555613</ele>
        <time>2015-05-15T12:35:46Z</time>
      </trkpt>
      <trkpt lat="45.73111" lon="5.53855">
        <ele>313.48269701375</ele>
        <time>2015-05-15T12:35:51Z</time>
      </trkpt>
      <trkpt lat="45.73114" lon="5.53863">
        <ele>313.48269701375</ele>
        <time>2015-05-15T12:35:56Z</time>
      </trkpt>
      <trkpt lat="45.7312" lon="5.5387">
        <ele>313.56123260372</ele>
        <time>2015-05-15T12:36:01Z</time>
      </trkpt>
      <trkpt lat="45.7312" lon="5.53875">
        <ele>313.56123260372</ele>
        <time>2015-05-15T12:36:06Z</time>
      </trkpt>
      <trkpt lat="45.73124" lon="5.53879">
        <ele>313.56123260372</ele>
        <time>2015-05-15T12:36:11Z</time>
      </trkpt>
      <trkpt lat="45.73131" lon="5.53889">
        <ele>313.15503793502</ele>
        <time>2015-05-15T12:36:16Z</time>
      </trkpt>
      <trkpt lat="45.73136" lon="5.53898">
        <ele>313.15503793502</ele>
        <time>2015-05-15T12:36:21Z</time>
      </trkpt>
      <trkpt lat="45.73136" lon="5.53907">
        <ele>313.03992928221</ele>
        <time>2015-05-15T12:36:26Z</time>
      </trkpt>
      <trkpt lat="45.73136" lon="5.53917">
        <ele>313.03992928221</ele>
        <time>2015-05-15T12:36:31Z</time>
      </trkpt>
      <trkpt lat="45.73136" lon="5.53927">
        <ele>312.9970060363</ele>
        <time>2015-05-15T12:36:36Z</time>
      </trkpt>
      <trkpt lat="45.73134" lon="5.53952">
        <ele>312.89511548373</ele>
        <time>2015-05-15T12:36:41Z</time>
      </trkpt>
      <trkpt lat="45.73119" lon="5.53986">
        <ele>312.8288877229</ele>
        <time>2015-05-15T12:36:46Z</time>
      </trkpt>
      <trkpt lat="45.73108" lon="5.54028">
        <ele>312.98659840882</ele>
        <time>2015-05-15T12:36:51Z</time>
      </trkpt>
      <trkpt lat="45.731" lon="5.54075">
        <ele>313.1095537473</ele>
        <time>2015-05-15T12:36:56Z</time>
      </trkpt>
      <trkpt lat="45.73097" lon="5.54109">
        <ele>313.76501156935</ele>
        <time>2015-05-15T12:37:01Z</time>
      </trkpt>
      <trkpt lat="45.731" lon="5.54124">
        <ele>314.90045619792</ele>
        <time>2015-05-15T12:37:06Z</time>
      </trkpt>
      <trkpt lat="45.73107" lon="5.54124">
        <ele>314.90045619792</ele>
        <time>2015-05-15T12:37:11Z</time>
      </trkpt>
      <trkpt lat="45.7311" lon="5.54127">
        <ele>317.57538651894</ele>
        <time>2015-05-15T12:37:16Z</time>
      </trkpt>
      <trkpt lat="45.73113" lon="5.54128">
        <ele>317.57538651894</ele>
        <time>2015-05-15T12:37:21Z</time>
      </trkpt>
      <trkpt lat="45.73119" lon="5.54131">
        <ele>321.35472786933</ele>
        <time>2015-05-15T12:37:26Z</time>
      </trkpt>
      <trkpt lat="45.7313" lon="5.54132">
        <ele>325.4286445748</ele>
        <time>2015-05-15T12:37:31Z</time>
      </trkpt>
      <trkpt lat="45.73136" lon="5.54134">
        <ele>325.4286445748</ele>
        <time>2015-05-15T12:37:36Z</time>
      </trkpt>
      <trkpt lat="45.73143" lon="5.54136">
        <ele>328.95941343348</ele>
        <time>2015-05-15T12:37:41Z</time>
      </trkpt>
      <trkpt lat="45.73147" lon="5.54138">
        <ele>328.95941343348</ele>
        <time>2015-05-15T12:37:47Z</time>
      </trkpt>
      <trkpt lat="45.73151" lon="5.54139">
        <ele>328.95941343348</ele>
        <time>2015-05-15T12:37:51Z</time>
      </trkpt>
      <trkpt lat="45.73155" lon="5.5414">
        <ele>332.58460837866</ele>
        <time>2015-05-15T12:37:56Z</time>
      </trkpt>
      <trkpt lat="45.73159" lon="5.54142">
        <ele>332.58460837866</ele>
        <time>2015-05-15T12:38:01Z</time>
      </trkpt>
      <trkpt lat="45.73165" lon="5.54146">
        <ele>335.68414214458</ele>
        <time>2015-05-15T12:38:06Z</time>
      </trkpt>
      <trkpt lat="45.73172" lon="5.54149">
        <ele>335.68414214458</ele>
        <time>2015-05-15T12:38:11Z</time>
      </trkpt>
      <trkpt lat="45.73178" lon="5.54155">
        <ele>339.37105301082</ele>
        <time>2015-05-15T12:38:16Z</time>
      </trkpt>
      <trkpt lat="45.73181" lon="5.5416">
        <ele>339.37105301082</ele>
        <time>2015-05-15T12:38:21Z</time>
      </trkpt>
      <trkpt lat="45.73186" lon="5.54165">
        <ele>342.42685499128</ele>
        <time>2015-05-15T12:38:26Z</time>
      </trkpt>
      <trkpt lat="45.73192" lon="5.54169">
        <ele>342.42685499128</ele>
        <time>2015-05-15T12:38:31Z</time>
      </trkpt>
      <trkpt lat="45.73195" lon="5.54175">
        <ele>345.10784872763</ele>
        <time>2015-05-15T12:38:36Z</time>
      </trkpt>
      <trkpt lat="45.73198" lon="5.54181">
        <ele>345.10784872763</ele>
        <time>2015-05-15T12:38:41Z</time>
      </trkpt>
      <trkpt lat="45.73199" lon="5.54187">
        <ele>347.91201462531</ele>
        <time>2015-05-15T12:38:46Z</time>
      </trkpt>
      <trkpt lat="45.73204" lon="5.54191">
        <ele>347.91201462531</ele>
        <time>2015-05-15T12:38:51Z</time>
      </trkpt>
      <trkpt lat="45.73206" lon="5.54194">
        <ele>347.91201462531</ele>
        <time>2015-05-15T12:38:56Z</time>
      </trkpt>
      <trkpt lat="45.73209" lon="5.54196">
        <ele>349.90259611136</ele>
        <time>2015-05-15T12:39:01Z</time>
      </trkpt>
      <trkpt lat="45.73215" lon="5.54206">
        <ele>349.90259611136</ele>
        <time>2015-05-15T12:39:06Z</time>
      </trkpt>
      <trkpt lat="45.7322" lon="5.54216">
        <ele>351.95775471058</ele>
        <time>2015-05-15T12:39:11Z</time>
      </trkpt>
      <trkpt lat="45.73224" lon="5.54227">
        <ele>351.95775471058</ele>
        <time>2015-05-15T12:39:16Z</time>
      </trkpt>
      <trkpt lat="45.73226" lon="5.5423">
        <ele>353.52198775196</ele>
        <time>2015-05-15T12:39:21Z</time>
      </trkpt>
      <trkpt lat="45.73227" lon="5.54231">
        <ele>353.52198775196</ele>
        <time>2015-05-15T12:39:26Z</time>
      </trkpt>
      <trkpt lat="45.73227" lon="5.54229">
        <ele>353.52198775196</ele>
        <time>2015-05-15T12:39:31Z</time>
      </trkpt>
      <trkpt lat="45.73227" lon="5.54225">
        <ele>353.52198775196</ele>
        <time>2015-05-15T12:39:36Z</time>
      </trkpt>
      <trkpt lat="45.73225" lon="5.54222">
        <ele>353.52198775196</ele>
        <time>2015-05-15T12:39:41Z</time>
      </trkpt>
      <trkpt lat="45.73224" lon="5.54218">
        <ele>354.87467257077</ele>
        <time>2015-05-15T12:39:46Z</time>
      </trkpt>
      <trkpt lat="45.73222" lon="5.54213">
        <ele>354.87467257077</ele>
        <time>2015-05-15T12:39:51Z</time>
      </trkpt>
      <trkpt lat="45.73217" lon="5.54206">
        <ele>355.97270720078</ele>
        <time>2015-05-15T12:39:56Z</time>
      </trkpt>
      <trkpt lat="45.73216" lon="5.54204">
        <ele>355.97270720078</ele>
        <time>2015-05-15T12:40:01Z</time>
      </trkpt>
      <trkpt lat="45.73216" lon="5.54202">
        <ele>355.97270720078</ele>
        <time>2015-05-15T12:40:06Z</time>
      </trkpt>
      <trkpt lat="45.73217" lon="5.54196">
        <ele>355.97270720078</ele>
        <time>2015-05-15T12:40:11Z</time>
      </trkpt>
      <trkpt lat="45.73214" lon="5.54186">
        <ele>356.44549434443</ele>
        <time>2015-05-15T12:40:16Z</time>
      </trkpt>
      <trkpt lat="45.73211" lon="5.54173">
        <ele>356.97467743611</ele>
        <time>2015-05-15T12:40:21Z</time>
      </trkpt>
      <trkpt lat="45.73208" lon="5.54162">
        <ele>356.97467743611</ele>
        <time>2015-05-15T12:40:26Z</time>
      </trkpt>
      <trkpt lat="45.73206" lon="5.54153">
        <ele>357.60087863904</ele>
        <time>2015-05-15T12:40:31Z</time>
      </trkpt>
      <trkpt lat="45.73205" lon="5.54149">
        <ele>357.60087863904</ele>
        <time>2015-05-15T12:40:36Z</time>
      </trkpt>
      <trkpt lat="45.73204" lon="5.54141">
        <ele>357.60087863904</ele>
        <time>2015-05-15T12:40:42Z</time>
      </trkpt>
      <trkpt lat="45.73205" lon="5.54135">
        <ele>357.77066444352</ele>
        <time>2015-05-15T12:40:46Z</time>
      </trkpt>
      <trkpt lat="45.73209" lon="5.5413">
        <ele>357.77066444352</ele>
        <time>2015-05-15T12:40:51Z</time>
      </trkpt>
      <trkpt lat="45.73213" lon="5.54127">
        <ele>357.31844860576</ele>
        <time>2015-05-15T12:40:56Z</time>
      </trkpt>
      <trkpt lat="45.73216" lon="5.54121">
        <ele>357.31844860576</ele>
        <time>2015-05-15T12:41:01Z</time>
      </trkpt>
      <trkpt lat="45.73219" lon="5.54114">
        <ele>356.32316379964</ele>
        <time>2015-05-15T12:41:06Z</time>
      </trkpt>
      <trkpt lat="45.73228" lon="5.54101">
        <ele>355.59445271641</ele>
        <time>2015-05-15T12:41:16Z</time>
      </trkpt>
      <trkpt lat="45.73234" lon="5.54094">
        <ele>355.59445271641</ele>
        <time>2015-05-15T12:41:21Z</time>
      </trkpt>
      <trkpt lat="45.73234" lon="5.54086">
        <ele>355.43499275584</ele>
        <time>2015-05-15T12:41:26Z</time>
      </trkpt>
      <trkpt lat="45.73234" lon="5.54087">
        <ele>355.43499275584</ele>
        <time>2015-05-15T12:41:31Z</time>
      </trkpt>
      <trkpt lat="45.73235" lon="5.54086">
        <ele>355.43499275584</ele>
        <time>2015-05-15T12:41:36Z</time>
      </trkpt>
      <trkpt lat="45.73235" lon="5.54086">
        <ele>355.43499275584</ele>
        <time>2015-05-15T12:41:41Z</time>
      </trkpt>
      <trkpt lat="45.73236" lon="5.54084">
        <ele>355.43499275584</ele>
        <time>2015-05-15T12:41:46Z</time>
      </trkpt>
      <trkpt lat="45.73233" lon="5.54083">
        <ele>355.43499275584</ele>
        <time>2015-05-15T12:41:51Z</time>
      </trkpt>
      <trkpt lat="45.73231" lon="5.54082">
        <ele>355.08601777228</ele>
        <time>2015-05-15T12:41:56Z</time>
      </trkpt>
      <trkpt lat="45.73231" lon="5.54082">
        <ele>355.08601777228</ele>
        <time>2015-05-15T12:42:01Z</time>
      </trkpt>
      <trkpt lat="45.7323" lon="5.54081">
        <ele>355.08601777228</ele>
        <time>2015-05-15T12:42:06Z</time>
      </trkpt>
      <trkpt lat="45.73229" lon="5.54079">
        <ele>355.08601777228</ele>
        <time>2015-05-15T12:42:11Z</time>
      </trkpt>
      <trkpt lat="45.73229" lon="5.54079">
        <ele>355.08601777228</ele>
        <time>2015-05-15T12:42:16Z</time>
      </trkpt>
      <trkpt lat="45.73229" lon="5.54079">
        <ele>355.08601777228</ele>
        <time>2015-05-15T12:42:21Z</time>
      </trkpt>
      <trkpt lat="45.73229" lon="5.54079">
        <ele>355.08601777228</ele>
        <time>2015-05-15T12:42:26Z</time>
      </trkpt>
      <trkpt lat="45.73229" lon="5.54078">
        <ele>355.08601777228</ele>
        <time>2015-05-15T12:42:31Z</time>
      </trkpt>
      <trkpt lat="45.73228" lon="5.54078">
        <ele>355.08601777228</ele>
        <time>2015-05-15T12:42:36Z</time>
      </trkpt>
      <trkpt lat="45.73228" lon="5.54074">
        <ele>355.08601777228</ele>
        <time>2015-05-15T12:42:41Z</time>
      </trkpt>
      <trkpt lat="45.73229" lon="5.54067">
        <ele>354.46468472391</ele>
        <time>2015-05-15T12:42:46Z</time>
      </trkpt>
      <trkpt lat="45.7323" lon="5.5406">
        <ele>354.46468472391</ele>
        <time>2015-05-15T12:42:51Z</time>
      </trkpt>
      <trkpt lat="45.73232" lon="5.54054">
        <ele>353.89847499198</ele>
        <time>2015-05-15T12:42:56Z</time>
      </trkpt>
      <trkpt lat="45.73232" lon="5.54052">
        <ele>353.89847499198</ele>
        <time>2015-05-15T12:43:01Z</time>
      </trkpt>
      <trkpt lat="45.73232" lon="5.54051">
        <ele>353.89847499198</ele>
        <time>2015-05-15T12:43:06Z</time>
      </trkpt>
      <trkpt lat="45.73231" lon="5.54056">
        <ele>353.89847499198</ele>
        <time>2015-05-15T12:43:11Z</time>
      </trkpt>
      <trkpt lat="45.73231" lon="5.54063">
        <ele>353.21504466225</ele>
        <time>2015-05-15T12:43:16Z</time>
      </trkpt>
      <trkpt lat="45.73231" lon="5.54073">
        <ele>353.21504466225</ele>
        <time>2015-05-15T12:43:21Z</time>
      </trkpt>
      <trkpt lat="45.7323" lon="5.54081">
        <ele>352.18292491975</ele>
        <time>2015-05-15T12:43:26Z</time>
      </trkpt>
      <trkpt lat="45.73227" lon="5.54085">
        <ele>352.18292491975</ele>
        <time>2015-05-15T12:43:31Z</time>
      </trkpt>
      <trkpt lat="45.73223" lon="5.54093">
        <ele>351.58292689496</ele>
        <time>2015-05-15T12:43:36Z</time>
      </trkpt>
      <trkpt lat="45.73219" lon="5.54099">
        <ele>351.58292689496</ele>
        <time>2015-05-15T12:43:41Z</time>
      </trkpt>
      <trkpt lat="45.73217" lon="5.54106">
        <ele>351.34460223321</ele>
        <time>2015-05-15T12:43:46Z</time>
      </trkpt>
      <trkpt lat="45.73213" lon="5.54112">
        <ele>351.34460223321</ele>
        <time>2015-05-15T12:43:51Z</time>
      </trkpt>
      <trkpt lat="45.7321" lon="5.54117">
        <ele>351.34393348364</ele>
        <time>2015-05-15T12:43:56Z</time>
      </trkpt>
      <trkpt lat="45.73205" lon="5.54125">
        <ele>351.34393348364</ele>
        <time>2015-05-15T12:44:01Z</time>
      </trkpt>
      <trkpt lat="45.73204" lon="5.54135">
        <ele>351.14821176822</ele>
        <time>2015-05-15T12:44:06Z</time>
      </trkpt>
      <trkpt lat="45.73206" lon="5.54144">
        <ele>351.14821176822</ele>
        <time>2015-05-15T12:44:11Z</time>
      </trkpt>
      <trkpt lat="45.73207" lon="5.54152">
        <ele>350.83253507693</ele>
        <time>2015-05-15T12:44:16Z</time>
      </trkpt>
      <trkpt lat="45.73208" lon="5.54158">
        <ele>350.83253507693</ele>
        <time>2015-05-15T12:44:21Z</time>
      </trkpt>
      <trkpt lat="45.73209" lon="5.54165">
        <ele>349.97674629664</ele>
        <time>2015-05-15T12:44:26Z</time>
      </trkpt>
      <trkpt lat="45.73209" lon="5.54173">
        <ele>349.97674629664</ele>
        <time>2015-05-15T12:44:31Z</time>
      </trkpt>
      <trkpt lat="45.7321" lon="5.54181">
        <ele>348.52442185395</ele>
        <time>2015-05-15T12:44:36Z</time>
      </trkpt>
      <trkpt lat="45.73209" lon="5.54188">
        <ele>348.52442185395</ele>
        <time>2015-05-15T12:44:41Z</time>
      </trkpt>
      <trkpt lat="45.73209" lon="5.54194">
        <ele>348.93238563713</ele>
        <time>2015-05-15T12:44:46Z</time>
      </trkpt>
      <trkpt lat="45.7321" lon="5.54195">
        <ele>348.93238563713</ele>
        <time>2015-05-15T12:44:51Z</time>
      </trkpt>
      <trkpt lat="45.7321" lon="5.54196">
        <ele>348.93238563713</ele>
        <time>2015-05-15T12:44:56Z</time>
      </trkpt>
      <trkpt lat="45.7321" lon="5.542">
        <ele>348.93238563713</ele>
        <time>2015-05-15T12:45:01Z</time>
      </trkpt>
      <trkpt lat="45.73213" lon="5.54203">
        <ele>348.93238563713</ele>
        <time>2015-05-15T12:45:06Z</time>
      </trkpt>
      <trkpt lat="45.73215" lon="5.54207">
        <ele>348.45658804628</ele>
        <time>2015-05-15T12:45:11Z</time>
      </trkpt>
      <trkpt lat="45.73219" lon="5.54214">
        <ele>348.45658804628</ele>
        <time>2015-05-15T12:45:16Z</time>
      </trkpt>
      <trkpt lat="45.73223" lon="5.54223">
        <ele>348.88025923841</ele>
        <time>2015-05-15T12:45:21Z</time>
      </trkpt>
      <trkpt lat="45.73228" lon="5.54233">
        <ele>348.88025923841</ele>
        <time>2015-05-15T12:45:26Z</time>
      </trkpt>
      <trkpt lat="45.73232" lon="5.54244">
        <ele>349.35987865245</ele>
        <time>2015-05-15T12:45:31Z</time>
      </trkpt>
      <trkpt lat="45.73241" lon="5.54247">
        <ele>350.19446284785</ele>
        <time>2015-05-15T12:45:36Z</time>
      </trkpt>
      <trkpt lat="45.73246" lon="5.54252">
        <ele>350.19446284785</ele>
        <time>2015-05-15T12:45:41Z</time>
      </trkpt>
      <trkpt lat="45.73254" lon="5.54255">
        <ele>351.22763580442</ele>
        <time>2015-05-15T12:45:46Z</time>
      </trkpt>
      <trkpt lat="45.7326" lon="5.5426">
        <ele>351.22763580442</ele>
        <time>2015-05-15T12:45:51Z</time>
      </trkpt>
      <trkpt lat="45.73266" lon="5.54263">
        <ele>352.0400509882</ele>
        <time>2015-05-15T12:45:56Z</time>
      </trkpt>
      <trkpt lat="45.73274" lon="5.54264">
        <ele>352.0400509882</ele>
        <time>2015-05-15T12:46:01Z</time>
      </trkpt>
      <trkpt lat="45.73281" lon="5.54264">
        <ele>353.26689539048</ele>
        <time>2015-05-15T12:46:06Z</time>
      </trkpt>
      <trkpt lat="45.73288" lon="5.54267">
        <ele>353.26689539048</ele>
        <time>2015-05-15T12:46:11Z</time>
      </trkpt>
      <trkpt lat="45.73294" lon="5.54272">
        <ele>354.50109589836</ele>
        <time>2015-05-15T12:46:16Z</time>
      </trkpt>
      <trkpt lat="45.733" lon="5.54277">
        <ele>354.50109589836</ele>
        <time>2015-05-15T12:46:21Z</time>
      </trkpt>
      <trkpt lat="45.73304" lon="5.54284">
        <ele>355.53833531854</ele>
        <time>2015-05-15T12:46:26Z</time>
      </trkpt>
      <trkpt lat="45.73309" lon="5.54292">
        <ele>355.53833531854</ele>
        <time>2015-05-15T12:46:31Z</time>
      </trkpt>
      <trkpt lat="45.73312" lon="5.543">
        <ele>356.17539551673</ele>
        <time>2015-05-15T12:46:36Z</time>
      </trkpt>
      <trkpt lat="45.73317" lon="5.54308">
        <ele>356.17539551673</ele>
        <time>2015-05-15T12:46:41Z</time>
      </trkpt>
      <trkpt lat="45.73322" lon="5.54315">
        <ele>356.16742023198</ele>
        <time>2015-05-15T12:46:46Z</time>
      </trkpt>
      <trkpt lat="45.73329" lon="5.5432">
        <ele>356.16742023198</ele>
        <time>2015-05-15T12:46:51Z</time>
      </trkpt>
      <trkpt lat="45.73336" lon="5.54326">
        <ele>357.03305614116</ele>
        <time>2015-05-15T12:46:56Z</time>
      </trkpt>
      <trkpt lat="45.73341" lon="5.5433">
        <ele>357.03305614116</ele>
        <time>2015-05-15T12:47:01Z</time>
      </trkpt>
      <trkpt lat="45.73347" lon="5.54336">
        <ele>358.07288320029</ele>
        <time>2015-05-15T12:47:06Z</time>
      </trkpt>
      <trkpt lat="45.73353" lon="5.54344">
        <ele>358.07288320029</ele>
        <time>2015-05-15T12:47:11Z</time>
      </trkpt>
      <trkpt lat="45.73357" lon="5.54352">
        <ele>358.8400973717</ele>
        <time>2015-05-15T12:47:16Z</time>
      </trkpt>
      <trkpt lat="45.73358" lon="5.54358">
        <ele>358.8400973717</ele>
        <time>2015-05-15T12:47:21Z</time>
      </trkpt>
      <trkpt lat="45.73363" lon="5.54359">
        <ele>358.6188209577</ele>
        <time>2015-05-15T12:47:26Z</time>
      </trkpt>
      <trkpt lat="45.73365" lon="5.54358">
        <ele>358.6188209577</ele>
        <time>2015-05-15T12:47:31Z</time>
      </trkpt>
      <trkpt lat="45.73368" lon="5.54354">
        <ele>358.6188209577</ele>
        <time>2015-05-15T12:47:36Z</time>
      </trkpt>
      <trkpt lat="45.73372" lon="5.54348">
        <ele>358.05992384018</ele>
        <time>2015-05-15T12:47:41Z</time>
      </trkpt>
      <trkpt lat="45.73378" lon="5.54341">
        <ele>358.05992384018</ele>
        <time>2015-05-15T12:47:46Z</time>
      </trkpt>
      <trkpt lat="45.73379" lon="5.54336">
        <ele>356.64331598799</ele>
        <time>2015-05-15T12:47:51Z</time>
      </trkpt>
      <trkpt lat="45.73381" lon="5.54331">
        <ele>356.64331598799</ele>
        <time>2015-05-15T12:47:56Z</time>
      </trkpt>
      <trkpt lat="45.73385" lon="5.54327">
        <ele>355.73410906096</ele>
        <time>2015-05-15T12:48:01Z</time>
      </trkpt>
      <trkpt lat="45.7339" lon="5.54319">
        <ele>355.73410906096</ele>
        <time>2015-05-15T12:48:06Z</time>
      </trkpt>
      <trkpt lat="45.73392" lon="5.54313">
        <ele>355.03926986138</ele>
        <time>2015-05-15T12:48:11Z</time>
      </trkpt>
      <trkpt lat="45.73394" lon="5.54306">
        <ele>355.03926986138</ele>
        <time>2015-05-15T12:48:16Z</time>
      </trkpt>
      <trkpt lat="45.73397" lon="5.54298">
        <ele>354.08488543959</ele>
        <time>2015-05-15T12:48:21Z</time>
      </trkpt>
      <trkpt lat="45.73402" lon="5.54292">
        <ele>354.08488543959</ele>
        <time>2015-05-15T12:48:26Z</time>
      </trkpt>
      <trkpt lat="45.73405" lon="5.54284">
        <ele>353.47012896779</ele>
        <time>2015-05-15T12:48:31Z</time>
      </trkpt>
      <trkpt lat="45.73409" lon="5.54277">
        <ele>353.47012896779</ele>
        <time>2015-05-15T12:48:36Z</time>
      </trkpt>
      <trkpt lat="45.73412" lon="5.54274">
        <ele>352.91330033516</ele>
        <time>2015-05-15T12:48:41Z</time>
      </trkpt>
      <trkpt lat="45.73413" lon="5.54273">
        <ele>352.91330033516</ele>
        <time>2015-05-15T12:48:46Z</time>
      </trkpt>
      <trkpt lat="45.73413" lon="5.54273">
        <ele>352.91330033516</ele>
        <time>2015-05-15T12:48:51Z</time>
      </trkpt>
      <trkpt lat="45.73413" lon="5.54273">
        <ele>352.91330033516</ele>
        <time>2015-05-15T12:48:56Z</time>
      </trkpt>
      <trkpt lat="45.73413" lon="5.54273">
        <ele>352.91330033516</ele>
        <time>2015-05-15T12:49:01Z</time>
      </trkpt>
      <trkpt lat="45.73413" lon="5.54273">
        <ele>352.91330033516</ele>
        <time>2015-05-15T12:49:06Z</time>
      </trkpt>
      <trkpt lat="45.73413" lon="5.54273">
        <ele>352.91330033516</ele>
        <time>2015-05-15T12:49:11Z</time>
      </trkpt>
      <trkpt lat="45.73413" lon="5.54272">
        <ele>352.91330033516</ele>
        <time>2015-05-15T12:49:16Z</time>
      </trkpt>
      <trkpt lat="45.73413" lon="5.54272">
        <ele>352.91330033516</ele>
        <time>2015-05-15T12:49:21Z</time>
      </trkpt>
      <trkpt lat="45.73413" lon="5.54272">
        <ele>352.91330033516</ele>
        <time>2015-05-15T12:49:26Z</time>
      </trkpt>
      <trkpt lat="45.73413" lon="5.54272">
        <ele>352.91330033516</ele>
        <time>2015-05-15T12:49:31Z</time>
      </trkpt>
      <trkpt lat="45.73413" lon="5.54272">
        <ele>352.91330033516</ele>
        <time>2015-05-15T12:49:36Z</time>
      </trkpt>
      <trkpt lat="45.73414" lon="5.54269">
        <ele>352.91330033516</ele>
        <time>2015-05-15T12:49:41Z</time>
      </trkpt>
      <trkpt lat="45.73413" lon="5.54267">
        <ele>352.91330033516</ele>
        <time>2015-05-15T12:49:46Z</time>
      </trkpt>
      <trkpt lat="45.73413" lon="5.54266">
        <ele>352.91330033516</ele>
        <time>2015-05-15T12:49:51Z</time>
      </trkpt>
      <trkpt lat="45.73413" lon="5.54266">
        <ele>352.91330033516</ele>
        <time>2015-05-15T12:49:56Z</time>
      </trkpt>
      <trkpt lat="45.73414" lon="5.54266">
        <ele>352.91330033516</ele>
        <time>2015-05-15T12:50:01Z</time>
      </trkpt>
      <trkpt lat="45.73414" lon="5.54266">
        <ele>352.91330033516</ele>
        <time>2015-05-15T12:50:06Z</time>
      </trkpt>
      <trkpt lat="45.73414" lon="5.54266">
        <ele>352.91330033516</ele>
        <time>2015-05-15T12:50:11Z</time>
      </trkpt>
      <trkpt lat="45.73414" lon="5.54266">
        <ele>352.91330033516</ele>
        <time>2015-05-15T12:50:16Z</time>
      </trkpt>
      <trkpt lat="45.73414" lon="5.54266">
        <ele>352.91330033516</ele>
        <time>2015-05-15T12:50:21Z</time>
      </trkpt>
      <trkpt lat="45.73414" lon="5.54266">
        <ele>352.91330033516</ele>
        <time>2015-05-15T12:50:26Z</time>
      </trkpt>
      <trkpt lat="45.73414" lon="5.54266">
        <ele>352.91330033516</ele>
        <time>2015-05-15T12:50:31Z</time>
      </trkpt>
      <trkpt lat="45.73414" lon="5.54266">
        <ele>352.91330033516</ele>
        <time>2015-05-15T12:50:36Z</time>
      </trkpt>
      <trkpt lat="45.73414" lon="5.54266">
        <ele>352.91330033516</ele>
        <time>2015-05-15T12:50:41Z</time>
      </trkpt>
      <trkpt lat="45.73414" lon="5.54266">
        <ele>352.91330033516</ele>
        <time>2015-05-15T12:50:46Z</time>
      </trkpt>
      <trkpt lat="45.73414" lon="5.54266">
        <ele>352.91330033516</ele>
        <time>2015-05-15T12:50:51Z</time>
      </trkpt>
      <trkpt lat="45.73414" lon="5.54266">
        <ele>352.91330033516</ele>
        <time>2015-05-15T12:50:56Z</time>
      </trkpt>
      <trkpt lat="45.73414" lon="5.54266">
        <ele>352.91330033516</ele>
        <time>2015-05-15T12:51:01Z</time>
      </trkpt>
      <trkpt lat="45.73414" lon="5.54266">
        <ele>352.91330033516</ele>
        <time>2015-05-15T12:51:06Z</time>
      </trkpt>
      <trkpt lat="45.73414" lon="5.54266">
        <ele>352.91330033516</ele>
        <time>2015-05-15T12:51:11Z</time>
      </trkpt>
      <trkpt lat="45.73414" lon="5.54266">
        <ele>352.91330033516</ele>
        <time>2015-05-15T12:51:16Z</time>
      </trkpt>
      <trkpt lat="45.73414" lon="5.54266">
        <ele>352.91330033516</ele>
        <time>2015-05-15T12:51:21Z</time>
      </trkpt>
      <trkpt lat="45.73414" lon="5.54266">
        <ele>352.91330033516</ele>
        <time>2015-05-15T12:51:26Z</time>
      </trkpt>
      <trkpt lat="45.73414" lon="5.54266">
        <ele>352.91330033516</ele>
        <time>2015-05-15T12:51:31Z</time>
      </trkpt>
      <trkpt lat="45.73414" lon="5.54266">
        <ele>352.91330033516</ele>
        <time>2015-05-15T12:51:36Z</time>
      </trkpt>
      <trkpt lat="45.73414" lon="5.54266">
        <ele>352.91330033516</ele>
        <time>2015-05-15T12:51:41Z</time>
      </trkpt>
      <trkpt lat="45.73414" lon="5.54266">
        <ele>352.91330033516</ele>
        <time>2015-05-15T12:51:46Z</time>
      </trkpt>
      <trkpt lat="45.73414" lon="5.54266">
        <ele>352.91330033516</ele>
        <time>2015-05-15T12:51:51Z</time>
      </trkpt>
      <trkpt lat="45.73414" lon="5.54266">
        <ele>352.91330033516</ele>
        <time>2015-05-15T12:51:56Z</time>
      </trkpt>
      <trkpt lat="45.73414" lon="5.54266">
        <ele>352.91330033516</ele>
        <time>2015-05-15T12:52:01Z</time>
      </trkpt>
      <trkpt lat="45.73414" lon="5.54266">
        <ele>352.91330033516</ele>
        <time>2015-05-15T12:52:06Z</time>
      </trkpt>
      <trkpt lat="45.73414" lon="5.54266">
        <ele>352.91330033516</ele>
        <time>2015-05-15T12:52:11Z</time>
      </trkpt>
      <trkpt lat="45.73414" lon="5.54266">
        <ele>352.91330033516</ele>
        <time>2015-05-15T12:52:16Z</time>
      </trkpt>
      <trkpt lat="45.73414" lon="5.54266">
        <ele>352.91330033516</ele>
        <time>2015-05-15T12:52:21Z</time>
      </trkpt>
      <trkpt lat="45.73414" lon="5.54266">
        <ele>352.91330033516</ele>
        <time>2015-05-15T12:52:26Z</time>
      </trkpt>
      <trkpt lat="45.73414" lon="5.54266">
        <ele>352.91330033516</ele>
        <time>2015-05-15T12:52:31Z</time>
      </trkpt>
      <trkpt lat="45.73414" lon="5.54266">
        <ele>352.91330033516</ele>
        <time>2015-05-15T12:52:36Z</time>
      </trkpt>
      <trkpt lat="45.73414" lon="5.54266">
        <ele>352.91330033516</ele>
        <time>2015-05-15T12:52:41Z</time>
      </trkpt>
      <trkpt lat="45.73414" lon="5.54266">
        <ele>352.91330033516</ele>
        <time>2015-05-15T12:52:46Z</time>
      </trkpt>
      <trkpt lat="45.73413" lon="5.54266">
        <ele>352.91330033516</ele>
        <time>2015-05-15T12:52:51Z</time>
      </trkpt>
      <trkpt lat="45.73413" lon="5.54266">
        <ele>352.91330033516</ele>
        <time>2015-05-15T12:52:56Z</time>
      </trkpt>
      <trkpt lat="45.73413" lon="5.54266">
        <ele>352.91330033516</ele>
        <time>2015-05-15T12:53:01Z</time>
      </trkpt>
      <trkpt lat="45.73414" lon="5.54266">
        <ele>352.91330033516</ele>
        <time>2015-05-15T12:53:06Z</time>
      </trkpt>
      <trkpt lat="45.73414" lon="5.54266">
        <ele>352.91330033516</ele>
        <time>2015-05-15T12:53:11Z</time>
      </trkpt>
      <trkpt lat="45.73415" lon="5.54264">
        <ele>352.91330033516</ele>
        <time>2015-05-15T12:53:16Z</time>
      </trkpt>
      <trkpt lat="45.73415" lon="5.54263">
        <ele>353.01783376499</ele>
        <time>2015-05-15T12:53:21Z</time>
      </trkpt>
      <trkpt lat="45.73415" lon="5.54261">
        <ele>353.01783376499</ele>
        <time>2015-05-15T12:53:26Z</time>
      </trkpt>
      <trkpt lat="45.73416" lon="5.5426">
        <ele>353.01783376499</ele>
        <time>2015-05-15T12:53:31Z</time>
      </trkpt>
      <trkpt lat="45.73419" lon="5.54259">
        <ele>353.01783376499</ele>
        <time>2015-05-15T12:53:36Z</time>
      </trkpt>
      <trkpt lat="45.73421" lon="5.54258">
        <ele>353.01783376499</ele>
        <time>2015-05-15T12:53:41Z</time>
      </trkpt>
      <trkpt lat="45.73421" lon="5.54258">
        <ele>353.01783376499</ele>
        <time>2015-05-15T12:53:46Z</time>
      </trkpt>
      <trkpt lat="45.73421" lon="5.54258">
        <ele>353.01783376499</ele>
        <time>2015-05-15T12:53:51Z</time>
      </trkpt>
      <trkpt lat="45.73421" lon="5.54258">
        <ele>353.01783376499</ele>
        <time>2015-05-15T12:53:56Z</time>
      </trkpt>
      <trkpt lat="45.73424" lon="5.54256">
        <ele>352.94303683621</ele>
        <time>2015-05-15T12:54:01Z</time>
      </trkpt>
      <trkpt lat="45.73433" lon="5.54251">
        <ele>352.74625703244</ele>
        <time>2015-05-15T12:54:06Z</time>
      </trkpt>
      <trkpt lat="45.73436" lon="5.5425">
        <ele>352.74625703244</ele>
        <time>2015-05-15T12:54:12Z</time>
      </trkpt>
      <trkpt lat="45.73437" lon="5.54249">
        <ele>352.74625703244</ele>
        <time>2015-05-15T12:54:16Z</time>
      </trkpt>
      <trkpt lat="45.73437" lon="5.54248">
        <ele>352.74625703244</ele>
        <time>2015-05-15T12:54:21Z</time>
      </trkpt>
      <trkpt lat="45.73437" lon="5.54248">
        <ele>352.74625703244</ele>
        <time>2015-05-15T12:54:26Z</time>
      </trkpt>
      <trkpt lat="45.73437" lon="5.54247">
        <ele>352.74625703244</ele>
        <time>2015-05-15T12:54:31Z</time>
      </trkpt>
      <trkpt lat="45.73437" lon="5.54247">
        <ele>352.74625703244</ele>
        <time>2015-05-15T12:54:36Z</time>
      </trkpt>
      <trkpt lat="45.73437" lon="5.54247">
        <ele>352.74625703244</ele>
        <time>2015-05-15T12:54:41Z</time>
      </trkpt>
      <trkpt lat="45.73437" lon="5.54247">
        <ele>352.74625703244</ele>
        <time>2015-05-15T12:54:46Z</time>
      </trkpt>
      <trkpt lat="45.73437" lon="5.54247">
        <ele>352.74625703244</ele>
        <time>2015-05-15T12:54:51Z</time>
      </trkpt>
      <trkpt lat="45.73437" lon="5.54247">
        <ele>352.74625703244</ele>
        <time>2015-05-15T12:54:56Z</time>
      </trkpt>
      <trkpt lat="45.73437" lon="5.54247">
        <ele>352.74625703244</ele>
        <time>2015-05-15T12:55:01Z</time>
      </trkpt>
      <trkpt lat="45.73437" lon="5.54247">
        <ele>352.74625703244</ele>
        <time>2015-05-15T12:55:06Z</time>
      </trkpt>
      <trkpt lat="45.73437" lon="5.54247">
        <ele>352.74625703244</ele>
        <time>2015-05-15T12:55:11Z</time>
      </trkpt>
      <trkpt lat="45.73437" lon="5.54247">
        <ele>352.74625703244</ele>
        <time>2015-05-15T12:55:16Z</time>
      </trkpt>
      <trkpt lat="45.73437" lon="5.54247">
        <ele>352.74625703244</ele>
        <time>2015-05-15T12:55:21Z</time>
      </trkpt>
      <trkpt lat="45.73437" lon="5.54247">
        <ele>352.74625703244</ele>
        <time>2015-05-15T12:55:26Z</time>
      </trkpt>
      <trkpt lat="45.73437" lon="5.54247">
        <ele>352.74625703244</ele>
        <time>2015-05-15T12:55:31Z</time>
      </trkpt>
      <trkpt lat="45.73437" lon="5.54247">
        <ele>352.74625703244</ele>
        <time>2015-05-15T12:55:36Z</time>
      </trkpt>
      <trkpt lat="45.73437" lon="5.54247">
        <ele>352.74625703244</ele>
        <time>2015-05-15T12:55:41Z</time>
      </trkpt>
      <trkpt lat="45.73437" lon="5.54247">
        <ele>352.74625703244</ele>
        <time>2015-05-15T12:55:46Z</time>
      </trkpt>
      <trkpt lat="45.73437" lon="5.54247">
        <ele>352.74625703244</ele>
        <time>2015-05-15T12:55:51Z</time>
      </trkpt>
      <trkpt lat="45.73437" lon="5.54247">
        <ele>352.74625703244</ele>
        <time>2015-05-15T12:55:56Z</time>
      </trkpt>
      <trkpt lat="45.73437" lon="5.54247">
        <ele>352.74625703244</ele>
        <time>2015-05-15T12:56:01Z</time>
      </trkpt>
      <trkpt lat="45.73437" lon="5.54247">
        <ele>352.74625703244</ele>
        <time>2015-05-15T12:56:06Z</time>
      </trkpt>
      <trkpt lat="45.73437" lon="5.54247">
        <ele>352.74625703244</ele>
        <time>2015-05-15T12:56:11Z</time>
      </trkpt>
      <trkpt lat="45.73437" lon="5.54247">
        <ele>352.74625703244</ele>
        <time>2015-05-15T12:56:16Z</time>
      </trkpt>
      <trkpt lat="45.73437" lon="5.54247">
        <ele>352.74625703244</ele>
        <time>2015-05-15T12:56:21Z</time>
      </trkpt>
      <trkpt lat="45.73437" lon="5.54247">
        <ele>352.74625703244</ele>
        <time>2015-05-15T12:56:26Z</time>
      </trkpt>
      <trkpt lat="45.73437" lon="5.54247">
        <ele>352.74625703244</ele>
        <time>2015-05-15T12:56:31Z</time>
      </trkpt>
      <trkpt lat="45.73437" lon="5.54247">
        <ele>352.74625703244</ele>
        <time>2015-05-15T12:56:36Z</time>
      </trkpt>
      <trkpt lat="45.73437" lon="5.54247">
        <ele>352.74625703244</ele>
        <time>2015-05-15T12:56:41Z</time>
      </trkpt>
      <trkpt lat="45.73437" lon="5.54247">
        <ele>352.74625703244</ele>
        <time>2015-05-15T12:56:46Z</time>
      </trkpt>
      <trkpt lat="45.73437" lon="5.54247">
        <ele>352.74625703244</ele>
        <time>2015-05-15T12:56:51Z</time>
      </trkpt>
      <trkpt lat="45.73437" lon="5.54247">
        <ele>352.74625703244</ele>
        <time>2015-05-15T12:56:56Z</time>
      </trkpt>
      <trkpt lat="45.73437" lon="5.54247">
        <ele>352.74625703244</ele>
        <time>2015-05-15T12:57:01Z</time>
      </trkpt>
      <trkpt lat="45.73437" lon="5.54247">
        <ele>352.74625703244</ele>
        <time>2015-05-15T12:57:06Z</time>
      </trkpt>
      <trkpt lat="45.73432" lon="5.5425">
        <ele>352.74030846218</ele>
        <time>2015-05-15T12:57:12Z</time>
      </trkpt>
      <trkpt lat="45.73428" lon="5.54253">
        <ele>352.74030846218</ele>
        <time>2015-05-15T12:57:16Z</time>
      </trkpt>
      <trkpt lat="45.73423" lon="5.54258">
        <ele>351.97507279268</ele>
        <time>2015-05-15T12:57:21Z</time>
      </trkpt>
      <trkpt lat="45.73417" lon="5.54265">
        <ele>351.97507279268</ele>
        <time>2015-05-15T12:57:26Z</time>
      </trkpt>
      <trkpt lat="45.73411" lon="5.54272">
        <ele>352.18070874635</ele>
        <time>2015-05-15T12:57:31Z</time>
      </trkpt>
      <trkpt lat="45.73406" lon="5.54278">
        <ele>352.18070874635</ele>
        <time>2015-05-15T12:57:36Z</time>
      </trkpt>
      <trkpt lat="45.73402" lon="5.54284">
        <ele>352.30585092109</ele>
        <time>2015-05-15T12:57:41Z</time>
      </trkpt>
      <trkpt lat="45.73401" lon="5.54289">
        <ele>352.30585092109</ele>
        <time>2015-05-15T12:57:46Z</time>
      </trkpt>
      <trkpt lat="45.73399" lon="5.54294">
        <ele>352.30585092109</ele>
        <time>2015-05-15T12:57:51Z</time>
      </trkpt>
      <trkpt lat="45.73398" lon="5.54298">
        <ele>352.91852637293</ele>
        <time>2015-05-15T12:57:56Z</time>
      </trkpt>
      <trkpt lat="45.73398" lon="5.543">
        <ele>352.91852637293</ele>
        <time>2015-05-15T12:58:01Z</time>
      </trkpt>
      <trkpt lat="45.73398" lon="5.54305">
        <ele>352.91852637293</ele>
        <time>2015-05-15T12:58:06Z</time>
      </trkpt>
      <trkpt lat="45.73396" lon="5.5431">
        <ele>354.02481713421</ele>
        <time>2015-05-15T12:58:11Z</time>
      </trkpt>
      <trkpt lat="45.73392" lon="5.54317">
        <ele>354.02481713421</ele>
        <time>2015-05-15T12:58:16Z</time>
      </trkpt>
      <trkpt lat="45.73388" lon="5.54322">
        <ele>355.11013113849</ele>
        <time>2015-05-15T12:58:21Z</time>
      </trkpt>
      <trkpt lat="45.73384" lon="5.5433">
        <ele>355.11013113849</ele>
        <time>2015-05-15T12:58:26Z</time>
      </trkpt>
      <trkpt lat="45.73382" lon="5.54338">
        <ele>356.07239245091</ele>
        <time>2015-05-15T12:58:31Z</time>
      </trkpt>
      <trkpt lat="45.73378" lon="5.54344">
        <ele>356.07239245091</ele>
        <time>2015-05-15T12:58:36Z</time>
      </trkpt>
      <trkpt lat="45.73372" lon="5.54348">
        <ele>356.32736605487</ele>
        <time>2015-05-15T12:58:41Z</time>
      </trkpt>
      <trkpt lat="45.73367" lon="5.54351">
        <ele>356.32736605487</ele>
        <time>2015-05-15T12:58:46Z</time>
      </trkpt>
      <trkpt lat="45.73362" lon="5.54353">
        <ele>355.89773372039</ele>
        <time>2015-05-15T12:58:51Z</time>
      </trkpt>
      <trkpt lat="45.73359" lon="5.54356">
        <ele>355.89773372039</ele>
        <time>2015-05-15T12:58:56Z</time>
      </trkpt>
      <trkpt lat="45.73358" lon="5.54356">
        <ele>355.89773372039</ele>
        <time>2015-05-15T12:59:01Z</time>
      </trkpt>
      <trkpt lat="45.73357" lon="5.54356">
        <ele>355.89773372039</ele>
        <time>2015-05-15T12:59:06Z</time>
      </trkpt>
      <trkpt lat="45.73357" lon="5.54356">
        <ele>355.89773372039</ele>
        <time>2015-05-15T12:59:11Z</time>
      </trkpt>
      <trkpt lat="45.73357" lon="5.54356">
        <ele>355.89773372039</ele>
        <time>2015-05-15T12:59:16Z</time>
      </trkpt>
      <trkpt lat="45.73357" lon="5.54357">
        <ele>355.89773372039</ele>
        <time>2015-05-15T12:59:21Z</time>
      </trkpt>
      <trkpt lat="45.73357" lon="5.54357">
        <ele>355.89773372039</ele>
        <time>2015-05-15T12:59:26Z</time>
      </trkpt>
      <trkpt lat="45.73357" lon="5.54357">
        <ele>355.89773372039</ele>
        <time>2015-05-15T12:59:31Z</time>
      </trkpt>
      <trkpt lat="45.73357" lon="5.54357">
        <ele>355.89773372039</ele>
        <time>2015-05-15T12:59:36Z</time>
      </trkpt>
      <trkpt lat="45.73357" lon="5.54357">
        <ele>355.89773372039</ele>
        <time>2015-05-15T12:59:41Z</time>
      </trkpt>
      <trkpt lat="45.73357" lon="5.54357">
        <ele>355.89773372039</ele>
        <time>2015-05-15T12:59:46Z</time>
      </trkpt>
      <trkpt lat="45.73358" lon="5.54364">
        <ele>355.16669367601</ele>
        <time>2015-05-15T12:59:51Z</time>
      </trkpt>
      <trkpt lat="45.7336" lon="5.54371">
        <ele>355.16669367601</ele>
        <time>2015-05-15T12:59:56Z</time>
      </trkpt>
      <trkpt lat="45.7336" lon="5.54373">
        <ele>355.16669367601</ele>
        <time>2015-05-15T13:00:01Z</time>
      </trkpt>
      <trkpt lat="45.73361" lon="5.54374">
        <ele>355.16669367601</ele>
        <time>2015-05-15T13:00:07Z</time>
      </trkpt>
      <trkpt lat="45.73362" lon="5.54375">
        <ele>355.16669367601</ele>
        <time>2015-05-15T13:00:11Z</time>
      </trkpt>
      <trkpt lat="45.73362" lon="5.54375">
        <ele>355.16669367601</ele>
        <time>2015-05-15T13:00:16Z</time>
      </trkpt>
      <trkpt lat="45.73362" lon="5.54376">
        <ele>355.16669367601</ele>
        <time>2015-05-15T13:00:21Z</time>
      </trkpt>
      <trkpt lat="45.73362" lon="5.54376">
        <ele>355.16669367601</ele>
        <time>2015-05-15T13:00:26Z</time>
      </trkpt>
      <trkpt lat="45.73362" lon="5.54376">
        <ele>355.16669367601</ele>
        <time>2015-05-15T13:00:31Z</time>
      </trkpt>
      <trkpt lat="45.73362" lon="5.54376">
        <ele>355.16669367601</ele>
        <time>2015-05-15T13:00:36Z</time>
      </trkpt>
      <trkpt lat="45.73363" lon="5.54378">
        <ele>354.49012361365</ele>
        <time>2015-05-15T13:00:41Z</time>
      </trkpt>
      <trkpt lat="45.73363" lon="5.54382">
        <ele>354.49012361365</ele>
        <time>2015-05-15T13:00:46Z</time>
      </trkpt>
      <trkpt lat="45.73365" lon="5.54385">
        <ele>354.49012361365</ele>
        <time>2015-05-15T13:00:51Z</time>
      </trkpt>
      <trkpt lat="45.73366" lon="5.5439">
        <ele>353.18880651394</ele>
        <time>2015-05-15T13:00:56Z</time>
      </trkpt>
      <trkpt lat="45.73368" lon="5.54398">
        <ele>353.18880651394</ele>
        <time>2015-05-15T13:01:01Z</time>
      </trkpt>
      <trkpt lat="45.73373" lon="5.5441">
        <ele>353.54619365407</ele>
        <time>2015-05-15T13:01:06Z</time>
      </trkpt>
      <trkpt lat="45.73377" lon="5.54423">
        <ele>354.97843788563</ele>
        <time>2015-05-15T13:01:11Z</time>
      </trkpt>
      <trkpt lat="45.73382" lon="5.54434">
        <ele>356.95595552943</ele>
        <time>2015-05-15T13:01:16Z</time>
      </trkpt>
      <trkpt lat="45.73386" lon="5.54444">
        <ele>356.95595552943</ele>
        <time>2015-05-15T13:01:21Z</time>
      </trkpt>
      <trkpt lat="45.73388" lon="5.5445">
        <ele>359.01534631151</ele>
        <time>2015-05-15T13:01:26Z</time>
      </trkpt>
      <trkpt lat="45.73387" lon="5.5445">
        <ele>359.01534631151</ele>
        <time>2015-05-15T13:01:31Z</time>
      </trkpt>
      <trkpt lat="45.73387" lon="5.5445">
        <ele>359.01534631151</ele>
        <time>2015-05-15T13:01:36Z</time>
      </trkpt>
      <trkpt lat="45.7339" lon="5.54456">
        <ele>359.01534631151</ele>
        <time>2015-05-15T13:01:41Z</time>
      </trkpt>
      <trkpt lat="45.73393" lon="5.54461">
        <ele>359.54530938064</ele>
        <time>2015-05-15T13:01:46Z</time>
      </trkpt>
      <trkpt lat="45.73391" lon="5.54461">
        <ele>359.54530938064</ele>
        <time>2015-05-15T13:01:51Z</time>
      </trkpt>
      <trkpt lat="45.73391" lon="5.5446">
        <ele>359.54530938064</ele>
        <time>2015-05-15T13:01:56Z</time>
      </trkpt>
      <trkpt lat="45.73391" lon="5.5446">
        <ele>359.54530938064</ele>
        <time>2015-05-15T13:02:01Z</time>
      </trkpt>
      <trkpt lat="45.73391" lon="5.5446">
        <ele>359.54530938064</ele>
        <time>2015-05-15T13:02:06Z</time>
      </trkpt>
      <trkpt lat="45.73391" lon="5.54459">
        <ele>359.54530938064</ele>
        <time>2015-05-15T13:02:11Z</time>
      </trkpt>
      <trkpt lat="45.73391" lon="5.54459">
        <ele>359.54530938064</ele>
        <time>2015-05-15T13:02:16Z</time>
      </trkpt>
      <trkpt lat="45.7339" lon="5.54463">
        <ele>359.54530938064</ele>
        <time>2015-05-15T13:02:21Z</time>
      </trkpt>
      <trkpt lat="45.73394" lon="5.54471">
        <ele>358.8297757455</ele>
        <time>2015-05-15T13:02:26Z</time>
      </trkpt>
      <trkpt lat="45.73398" lon="5.5448">
        <ele>358.8297757455</ele>
        <time>2015-05-15T13:02:31Z</time>
      </trkpt>
      <trkpt lat="45.73404" lon="5.54487">
        <ele>358.96553969543</ele>
        <time>2015-05-15T13:02:36Z</time>
      </trkpt>
      <trkpt lat="45.7341" lon="5.54491">
        <ele>358.96553969543</ele>
        <time>2015-05-15T13:02:41Z</time>
      </trkpt>
      <trkpt lat="45.73416" lon="5.54495">
        <ele>359.28458240922</ele>
        <time>2015-05-15T13:02:46Z</time>
      </trkpt>
      <trkpt lat="45.73422" lon="5.545">
        <ele>359.28458240922</ele>
        <time>2015-05-15T13:02:51Z</time>
      </trkpt>
      <trkpt lat="45.73428" lon="5.54502">
        <ele>359.58538076072</ele>
        <time>2015-05-15T13:02:56Z</time>
      </trkpt>
      <trkpt lat="45.73446" lon="5.54502">
        <ele>359.78215858237</ele>
        <time>2015-05-15T13:03:01Z</time>
      </trkpt>
      <trkpt lat="45.7347" lon="5.54528">
        <ele>359.89662482175</ele>
        <time>2015-05-15T13:03:06Z</time>
      </trkpt>
      <trkpt lat="45.73497" lon="5.54545">
        <ele>359.87708327485</ele>
        <time>2015-05-15T13:03:11Z</time>
      </trkpt>
      <trkpt lat="45.73523" lon="5.54568">
        <ele>360.09394750085</ele>
        <time>2015-05-15T13:03:16Z</time>
      </trkpt>
      <trkpt lat="45.73549" lon="5.5459">
        <ele>360.74566032334</ele>
        <time>2015-05-15T13:03:21Z</time>
      </trkpt>
      <trkpt lat="45.73573" lon="5.54604">
        <ele>361.25109248395</ele>
        <time>2015-05-15T13:03:26Z</time>
      </trkpt>
      <trkpt lat="45.73587" lon="5.54617">
        <ele>362.67186590792</ele>
        <time>2015-05-15T13:03:31Z</time>
      </trkpt>
      <trkpt lat="45.73592" lon="5.54623">
        <ele>362.67186590792</ele>
        <time>2015-05-15T13:03:36Z</time>
      </trkpt>
      <trkpt lat="45.73594" lon="5.54631">
        <ele>364.6056045735</ele>
        <time>2015-05-15T13:03:41Z</time>
      </trkpt>
      <trkpt lat="45.73593" lon="5.54636">
        <ele>364.6056045735</ele>
        <time>2015-05-15T13:03:46Z</time>
      </trkpt>
      <trkpt lat="45.73591" lon="5.54644">
        <ele>366.64926095985</ele>
        <time>2015-05-15T13:03:51Z</time>
      </trkpt>
      <trkpt lat="45.73589" lon="5.54651">
        <ele>366.64926095985</ele>
        <time>2015-05-15T13:03:56Z</time>
      </trkpt>
      <trkpt lat="45.73584" lon="5.54662">
        <ele>368.50118389888</ele>
        <time>2015-05-15T13:04:01Z</time>
      </trkpt>
      <trkpt lat="45.7358" lon="5.54672">
        <ele>368.50118389888</ele>
        <time>2015-05-15T13:04:06Z</time>
      </trkpt>
      <trkpt lat="45.73575" lon="5.54682">
        <ele>369.70953756115</ele>
        <time>2015-05-15T13:04:11Z</time>
      </trkpt>
      <trkpt lat="45.73572" lon="5.54691">
        <ele>369.70953756115</ele>
        <time>2015-05-15T13:04:16Z</time>
      </trkpt>
      <trkpt lat="45.73567" lon="5.54701">
        <ele>370.39075424853</ele>
        <time>2015-05-15T13:04:21Z</time>
      </trkpt>
      <trkpt lat="45.73562" lon="5.54713">
        <ele>370.88483435617</ele>
        <time>2015-05-15T13:04:26Z</time>
      </trkpt>
      <trkpt lat="45.73558" lon="5.54723">
        <ele>370.88483435617</ele>
        <time>2015-05-15T13:04:31Z</time>
      </trkpt>
      <trkpt lat="45.73554" lon="5.54732">
        <ele>370.91653618773</ele>
        <time>2015-05-15T13:04:36Z</time>
      </trkpt>
      <trkpt lat="45.73551" lon="5.5474">
        <ele>370.91653618773</ele>
        <time>2015-05-15T13:04:41Z</time>
      </trkpt>
      <trkpt lat="45.73548" lon="5.54747">
        <ele>371.02480802916</ele>
        <time>2015-05-15T13:04:46Z</time>
      </trkpt>
      <trkpt lat="45.73546" lon="5.54755">
        <ele>371.02480802916</ele>
        <time>2015-05-15T13:04:51Z</time>
      </trkpt>
      <trkpt lat="45.73544" lon="5.54762">
        <ele>370.55596006009</ele>
        <time>2015-05-15T13:04:56Z</time>
      </trkpt>
      <trkpt lat="45.73547" lon="5.5477">
        <ele>370.55596006009</ele>
        <time>2015-05-15T13:05:01Z</time>
      </trkpt>
      <trkpt lat="45.7355" lon="5.54778">
        <ele>369.98682448897</ele>
        <time>2015-05-15T13:05:06Z</time>
      </trkpt>
      <trkpt lat="45.73551" lon="5.54788">
        <ele>369.98682448897</ele>
        <time>2015-05-15T13:05:11Z</time>
      </trkpt>
      <trkpt lat="45.73552" lon="5.54798">
        <ele>369.87481776485</ele>
        <time>2015-05-15T13:05:16Z</time>
      </trkpt>
      <trkpt lat="45.7355" lon="5.54808">
        <ele>369.87481776485</ele>
        <time>2015-05-15T13:05:21Z</time>
      </trkpt>
      <trkpt lat="45.73546" lon="5.54818">
        <ele>369.51021489867</ele>
        <time>2015-05-15T13:05:26Z</time>
      </trkpt>
      <trkpt lat="45.73542" lon="5.54826">
        <ele>369.51021489867</ele>
        <time>2015-05-15T13:05:31Z</time>
      </trkpt>
      <trkpt lat="45.73539" lon="5.54833">
        <ele>368.66849322052</ele>
        <time>2015-05-15T13:05:36Z</time>
      </trkpt>
      <trkpt lat="45.73536" lon="5.54841">
        <ele>368.66849322052</ele>
        <time>2015-05-15T13:05:41Z</time>
      </trkpt>
      <trkpt lat="45.73532" lon="5.5485">
        <ele>367.47443225159</ele>
        <time>2015-05-15T13:05:46Z</time>
      </trkpt>
      <trkpt lat="45.73528" lon="5.5486">
        <ele>367.47443225159</ele>
        <time>2015-05-15T13:05:51Z</time>
      </trkpt>
      <trkpt lat="45.73526" lon="5.54871">
        <ele>366.24639387354</ele>
        <time>2015-05-15T13:05:56Z</time>
      </trkpt>
      <trkpt lat="45.73527" lon="5.54876">
        <ele>366.24639387354</ele>
        <time>2015-05-15T13:06:01Z</time>
      </trkpt>
      <trkpt lat="45.7353" lon="5.54884">
        <ele>365.3226755249</ele>
        <time>2015-05-15T13:06:06Z</time>
      </trkpt>
      <trkpt lat="45.73535" lon="5.54889">
        <ele>365.3226755249</ele>
        <time>2015-05-15T13:06:11Z</time>
      </trkpt>
      <trkpt lat="45.73542" lon="5.54895">
        <ele>365.15996473168</ele>
        <time>2015-05-15T13:06:16Z</time>
      </trkpt>
      <trkpt lat="45.73548" lon="5.54903">
        <ele>365.15996473168</ele>
        <time>2015-05-15T13:06:21Z</time>
      </trkpt>
      <trkpt lat="45.73556" lon="5.54905">
        <ele>365.45868699123</ele>
        <time>2015-05-15T13:06:26Z</time>
      </trkpt>
      <trkpt lat="45.73562" lon="5.54908">
        <ele>365.45868699123</ele>
        <time>2015-05-15T13:06:31Z</time>
      </trkpt>
      <trkpt lat="45.73568" lon="5.54911">
        <ele>366.31464281569</ele>
        <time>2015-05-15T13:06:36Z</time>
      </trkpt>
      <trkpt lat="45.73576" lon="5.54913">
        <ele>366.31464281569</ele>
        <time>2015-05-15T13:06:41Z</time>
      </trkpt>
      <trkpt lat="45.73582" lon="5.54919">
        <ele>367.26738480712</ele>
        <time>2015-05-15T13:06:46Z</time>
      </trkpt>
      <trkpt lat="45.73588" lon="5.54924">
        <ele>367.26738480712</ele>
        <time>2015-05-15T13:06:51Z</time>
      </trkpt>
      <trkpt lat="45.73593" lon="5.5493">
        <ele>368.23586476355</ele>
        <time>2015-05-15T13:06:56Z</time>
      </trkpt>
      <trkpt lat="45.73599" lon="5.54937">
        <ele>368.23586476355</ele>
        <time>2015-05-15T13:07:01Z</time>
      </trkpt>
      <trkpt lat="45.73606" lon="5.54941">
        <ele>369.8943092786</ele>
        <time>2015-05-15T13:07:06Z</time>
      </trkpt>
      <trkpt lat="45.73613" lon="5.54946">
        <ele>369.8943092786</ele>
        <time>2015-05-15T13:07:11Z</time>
      </trkpt>
      <trkpt lat="45.7362" lon="5.54951">
        <ele>372.05845536833</ele>
        <time>2015-05-15T13:07:16Z</time>
      </trkpt>
      <trkpt lat="45.73627" lon="5.54957">
        <ele>372.05845536833</ele>
        <time>2015-05-15T13:07:21Z</time>
      </trkpt>
      <trkpt lat="45.73635" lon="5.54961">
        <ele>373.92207560533</ele>
        <time>2015-05-15T13:07:26Z</time>
      </trkpt>
      <trkpt lat="45.73643" lon="5.54966">
        <ele>373.92207560533</ele>
        <time>2015-05-15T13:07:31Z</time>
      </trkpt>
      <trkpt lat="45.73649" lon="5.5497">
        <ele>375.79104150358</ele>
        <time>2015-05-15T13:07:36Z</time>
      </trkpt>
      <trkpt lat="45.73656" lon="5.54974">
        <ele>375.79104150358</ele>
        <time>2015-05-15T13:07:41Z</time>
      </trkpt>
      <trkpt lat="45.73663" lon="5.54972">
        <ele>377.76142772607</ele>
        <time>2015-05-15T13:07:46Z</time>
      </trkpt>
      <trkpt lat="45.73668" lon="5.54968">
        <ele>377.76142772607</ele>
        <time>2015-05-15T13:07:51Z</time>
      </trkpt>
      <trkpt lat="45.73671" lon="5.5496">
        <ele>378.9996975227</ele>
        <time>2015-05-15T13:07:56Z</time>
      </trkpt>
      <trkpt lat="45.73674" lon="5.54953">
        <ele>378.9996975227</ele>
        <time>2015-05-15T13:08:01Z</time>
      </trkpt>
      <trkpt lat="45.73677" lon="5.54946">
        <ele>380.07588305065</ele>
        <time>2015-05-15T13:08:06Z</time>
      </trkpt>
      <trkpt lat="45.73678" lon="5.54937">
        <ele>380.07588305065</ele>
        <time>2015-05-15T13:08:11Z</time>
      </trkpt>
      <trkpt lat="45.73681" lon="5.54929">
        <ele>381.0719080222</ele>
        <time>2015-05-15T13:08:16Z</time>
      </trkpt>
      <trkpt lat="45.73684" lon="5.5492">
        <ele>381.0719080222</ele>
        <time>2015-05-15T13:08:21Z</time>
      </trkpt>
      <trkpt lat="45.73687" lon="5.5491">
        <ele>382.17925099894</ele>
        <time>2015-05-15T13:08:26Z</time>
      </trkpt>
      <trkpt lat="45.73691" lon="5.549">
        <ele>382.17925099894</ele>
        <time>2015-05-15T13:08:31Z</time>
      </trkpt>
      <trkpt lat="45.73694" lon="5.54892">
        <ele>382.95539451194</ele>
        <time>2015-05-15T13:08:36Z</time>
      </trkpt>
      <trkpt lat="45.73698" lon="5.54888">
        <ele>382.95539451194</ele>
        <time>2015-05-15T13:08:41Z</time>
      </trkpt>
      <trkpt lat="45.73701" lon="5.54878">
        <ele>383.71187344371</ele>
        <time>2015-05-15T13:08:46Z</time>
      </trkpt>
      <trkpt lat="45.73705" lon="5.54875">
        <ele>383.71187344371</ele>
        <time>2015-05-15T13:08:51Z</time>
      </trkpt>
      <trkpt lat="45.73708" lon="5.54871">
        <ele>383.39721667091</ele>
        <time>2015-05-15T13:08:56Z</time>
      </trkpt>
      <trkpt lat="45.73712" lon="5.54868">
        <ele>383.39721667091</ele>
        <time>2015-05-15T13:09:01Z</time>
      </trkpt>
      <trkpt lat="45.73715" lon="5.54855">
        <ele>383.95129883492</ele>
        <time>2015-05-15T13:09:06Z</time>
      </trkpt>
      <trkpt lat="45.73719" lon="5.54843">
        <ele>384.40217136331</ele>
        <time>2015-05-15T13:09:11Z</time>
      </trkpt>
      <trkpt lat="45.73725" lon="5.54836">
        <ele>384.40217136331</ele>
        <time>2015-05-15T13:09:16Z</time>
      </trkpt>
      <trkpt lat="45.73731" lon="5.54837">
        <ele>385.88158861606</ele>
        <time>2015-05-15T13:09:21Z</time>
      </trkpt>
      <trkpt lat="45.73736" lon="5.54842">
        <ele>385.88158861606</ele>
        <time>2015-05-15T13:09:26Z</time>
      </trkpt>
      <trkpt lat="45.73742" lon="5.5485">
        <ele>387.34571522815</ele>
        <time>2015-05-15T13:09:31Z</time>
      </trkpt>
      <trkpt lat="45.73749" lon="5.54856">
        <ele>387.34571522815</ele>
        <time>2015-05-15T13:09:36Z</time>
      </trkpt>
      <trkpt lat="45.73756" lon="5.54859">
        <ele>389.48476486583</ele>
        <time>2015-05-15T13:09:41Z</time>
      </trkpt>
      <trkpt lat="45.73763" lon="5.54861">
        <ele>389.48476486583</ele>
        <time>2015-05-15T13:09:46Z</time>
      </trkpt>
      <trkpt lat="45.73769" lon="5.54867">
        <ele>391.17825138737</ele>
        <time>2015-05-15T13:09:51Z</time>
      </trkpt>
      <trkpt lat="45.73775" lon="5.54871">
        <ele>391.17825138737</ele>
        <time>2015-05-15T13:09:56Z</time>
      </trkpt>
      <trkpt lat="45.73782" lon="5.54875">
        <ele>392.83041885988</ele>
        <time>2015-05-15T13:10:01Z</time>
      </trkpt>
      <trkpt lat="45.73789" lon="5.54881">
        <ele>392.83041885988</ele>
        <time>2015-05-15T13:10:06Z</time>
      </trkpt>
      <trkpt lat="45.73797" lon="5.54886">
        <ele>395.26274166832</ele>
        <time>2015-05-15T13:10:11Z</time>
      </trkpt>
      <trkpt lat="45.73804" lon="5.54892">
        <ele>395.26274166832</ele>
        <time>2015-05-15T13:10:16Z</time>
      </trkpt>
      <trkpt lat="45.7381" lon="5.54899">
        <ele>397.93723307772</ele>
        <time>2015-05-15T13:10:21Z</time>
      </trkpt>
      <trkpt lat="45.73817" lon="5.54905">
        <ele>397.93723307772</ele>
        <time>2015-05-15T13:10:26Z</time>
      </trkpt>
      <trkpt lat="45.7382" lon="5.54913">
        <ele>400.44129464878</ele>
        <time>2015-05-15T13:10:31Z</time>
      </trkpt>
      <trkpt lat="45.73826" lon="5.5492">
        <ele>400.44129464878</ele>
        <time>2015-05-15T13:10:36Z</time>
      </trkpt>
      <trkpt lat="45.73829" lon="5.54929">
        <ele>403.0417051855</ele>
        <time>2015-05-15T13:10:41Z</time>
      </trkpt>
      <trkpt lat="45.73829" lon="5.54933">
        <ele>403.0417051855</ele>
        <time>2015-05-15T13:10:46Z</time>
      </trkpt>
      <trkpt lat="45.7383" lon="5.54942">
        <ele>405.22168478677</ele>
        <time>2015-05-15T13:10:51Z</time>
      </trkpt>
      <trkpt lat="45.7383" lon="5.54952">
        <ele>405.22168478677</ele>
        <time>2015-05-15T13:10:56Z</time>
      </trkpt>
      <trkpt lat="45.73831" lon="5.54962">
        <ele>407.84393533368</ele>
        <time>2015-05-15T13:11:01Z</time>
      </trkpt>
      <trkpt lat="45.73833" lon="5.54972">
        <ele>407.84393533368</ele>
        <time>2015-05-15T13:11:06Z</time>
      </trkpt>
      <trkpt lat="45.73837" lon="5.54984">
        <ele>410.52494585774</ele>
        <time>2015-05-15T13:11:11Z</time>
      </trkpt>
      <trkpt lat="45.73844" lon="5.54992">
        <ele>410.52494585774</ele>
        <time>2015-05-15T13:11:16Z</time>
      </trkpt>
      <trkpt lat="45.73849" lon="5.54997">
        <ele>413.52901086313</ele>
        <time>2015-05-15T13:11:21Z</time>
      </trkpt>
      <trkpt lat="45.73853" lon="5.55002">
        <ele>413.52901086313</ele>
        <time>2015-05-15T13:11:26Z</time>
      </trkpt>
      <trkpt lat="45.73861" lon="5.55007">
        <ele>416.86965299491</ele>
        <time>2015-05-15T13:11:31Z</time>
      </trkpt>
      <trkpt lat="45.73871" lon="5.55013">
        <ele>420.05420343954</ele>
        <time>2015-05-15T13:11:36Z</time>
      </trkpt>
      <trkpt lat="45.7388" lon="5.55018">
        <ele>423.18879926499</ele>
        <time>2015-05-15T13:11:41Z</time>
      </trkpt>
      <trkpt lat="45.73883" lon="5.55021">
        <ele>423.18879926499</ele>
        <time>2015-05-15T13:11:46Z</time>
      </trkpt>
      <trkpt lat="45.73883" lon="5.55023">
        <ele>423.18879926499</ele>
        <time>2015-05-15T13:11:51Z</time>
      </trkpt>
      <trkpt lat="45.73884" lon="5.55024">
        <ele>423.18879926499</ele>
        <time>2015-05-15T13:11:56Z</time>
      </trkpt>
      <trkpt lat="45.73884" lon="5.55025">
        <ele>423.18879926499</ele>
        <time>2015-05-15T13:12:01Z</time>
      </trkpt>
      <trkpt lat="45.73885" lon="5.55027">
        <ele>423.18879926499</ele>
        <time>2015-05-15T13:12:06Z</time>
      </trkpt>
      <trkpt lat="45.73892" lon="5.55039">
        <ele>426.8332285866</ele>
        <time>2015-05-15T13:12:11Z</time>
      </trkpt>
      <trkpt lat="45.73896" lon="5.55048">
        <ele>426.8332285866</ele>
        <time>2015-05-15T13:12:16Z</time>
      </trkpt>
      <trkpt lat="45.73899" lon="5.55059">
        <ele>430.64022107158</ele>
        <time>2015-05-15T13:12:21Z</time>
      </trkpt>
      <trkpt lat="45.739" lon="5.55065">
        <ele>430.64022107158</ele>
        <time>2015-05-15T13:12:26Z</time>
      </trkpt>
      <trkpt lat="45.73906" lon="5.55073">
        <ele>434.12920664245</ele>
        <time>2015-05-15T13:12:31Z</time>
      </trkpt>
      <trkpt lat="45.73909" lon="5.55072">
        <ele>434.12920664245</ele>
        <time>2015-05-15T13:12:36Z</time>
      </trkpt>
      <trkpt lat="45.73914" lon="5.55062">
        <ele>437.77829732863</ele>
        <time>2015-05-15T13:12:41Z</time>
      </trkpt>
      <trkpt lat="45.73919" lon="5.55054">
        <ele>437.77829732863</ele>
        <time>2015-05-15T13:12:46Z</time>
      </trkpt>
      <trkpt lat="45.73924" lon="5.55045">
        <ele>441.23760587309</ele>
        <time>2015-05-15T13:12:51Z</time>
      </trkpt>
      <trkpt lat="45.73929" lon="5.55037">
        <ele>441.23760587309</ele>
        <time>2015-05-15T13:12:56Z</time>
      </trkpt>
      <trkpt lat="45.73934" lon="5.5503">
        <ele>444.32777908501</ele>
        <time>2015-05-15T13:13:01Z</time>
      </trkpt>
      <trkpt lat="45.73938" lon="5.55022">
        <ele>444.32777908501</ele>
        <time>2015-05-15T13:13:06Z</time>
      </trkpt>
      <trkpt lat="45.73943" lon="5.55015">
        <ele>447.12885391219</ele>
        <time>2015-05-15T13:13:11Z</time>
      </trkpt>
      <trkpt lat="45.73948" lon="5.55006">
        <ele>447.12885391219</ele>
        <time>2015-05-15T13:13:16Z</time>
      </trkpt>
      <trkpt lat="45.73953" lon="5.54998">
        <ele>449.55746673115</ele>
        <time>2015-05-15T13:13:22Z</time>
      </trkpt>
      <trkpt lat="45.73956" lon="5.54993">
        <ele>449.55746673115</ele>
        <time>2015-05-15T13:13:26Z</time>
      </trkpt>
      <trkpt lat="45.73961" lon="5.54986">
        <ele>451.71054280815</ele>
        <time>2015-05-15T13:13:31Z</time>
      </trkpt>
      <trkpt lat="45.73965" lon="5.54978">
        <ele>451.71054280815</ele>
        <time>2015-05-15T13:13:36Z</time>
      </trkpt>
      <trkpt lat="45.73969" lon="5.54971">
        <ele>453.33297344562</ele>
        <time>2015-05-15T13:13:41Z</time>
      </trkpt>
      <trkpt lat="45.73974" lon="5.54965">
        <ele>453.33297344562</ele>
        <time>2015-05-15T13:13:46Z</time>
      </trkpt>
      <trkpt lat="45.73978" lon="5.54961">
        <ele>454.62238229382</ele>
        <time>2015-05-15T13:13:51Z</time>
      </trkpt>
      <trkpt lat="45.73983" lon="5.54954">
        <ele>454.62238229382</ele>
        <time>2015-05-15T13:13:56Z</time>
      </trkpt>
      <trkpt lat="45.73988" lon="5.54947">
        <ele>455.90707895695</ele>
        <time>2015-05-15T13:14:01Z</time>
      </trkpt>
      <trkpt lat="45.73993" lon="5.54939">
        <ele>455.90707895695</ele>
        <time>2015-05-15T13:14:06Z</time>
      </trkpt>
      <trkpt lat="45.73997" lon="5.5493">
        <ele>456.92937881644</ele>
        <time>2015-05-15T13:14:11Z</time>
      </trkpt>
      <trkpt lat="45.74002" lon="5.54921">
        <ele>456.92937881644</ele>
        <time>2015-05-15T13:14:16Z</time>
      </trkpt>
      <trkpt lat="45.74009" lon="5.54912">
        <ele>457.69637936284</ele>
        <time>2015-05-15T13:14:21Z</time>
      </trkpt>
      <trkpt lat="45.74013" lon="5.5491">
        <ele>457.69637936284</ele>
        <time>2015-05-15T13:14:26Z</time>
      </trkpt>
      <trkpt lat="45.74019" lon="5.5491">
        <ele>457.91284976403</ele>
        <time>2015-05-15T13:14:31Z</time>
      </trkpt>
      <trkpt lat="45.74024" lon="5.54909">
        <ele>457.91284976403</ele>
        <time>2015-05-15T13:14:36Z</time>
      </trkpt>
      <trkpt lat="45.74029" lon="5.54909">
        <ele>457.11953695869</ele>
        <time>2015-05-15T13:14:41Z</time>
      </trkpt>
      <trkpt lat="45.74034" lon="5.54907">
        <ele>457.11953695869</ele>
        <time>2015-05-15T13:14:46Z</time>
      </trkpt>
      <trkpt lat="45.7404" lon="5.54908">
        <ele>455.22527924026</ele>
        <time>2015-05-15T13:14:51Z</time>
      </trkpt>
      <trkpt lat="45.74049" lon="5.54902">
        <ele>453.47456220908</ele>
        <time>2015-05-15T13:14:56Z</time>
      </trkpt>
      <trkpt lat="45.74061" lon="5.54883">
        <ele>451.88158113734</ele>
        <time>2015-05-15T13:15:01Z</time>
      </trkpt>
      <trkpt lat="45.74068" lon="5.54871">
        <ele>450.17080273027</ele>
        <time>2015-05-15T13:15:06Z</time>
      </trkpt>
      <trkpt lat="45.74073" lon="5.54862">
        <ele>450.17080273027</ele>
        <time>2015-05-15T13:15:11Z</time>
      </trkpt>
      <trkpt lat="45.74079" lon="5.54852">
        <ele>448.80777079693</ele>
        <time>2015-05-15T13:15:16Z</time>
      </trkpt>
      <trkpt lat="45.74084" lon="5.54843">
        <ele>448.80777079693</ele>
        <time>2015-05-15T13:15:21Z</time>
      </trkpt>
      <trkpt lat="45.7409" lon="5.5484">
        <ele>447.34370138836</ele>
        <time>2015-05-15T13:15:26Z</time>
      </trkpt>
      <trkpt lat="45.74095" lon="5.54838">
        <ele>447.34370138836</ele>
        <time>2015-05-15T13:15:31Z</time>
      </trkpt>
      <trkpt lat="45.74099" lon="5.54831">
        <ele>446.50144208139</ele>
        <time>2015-05-15T13:15:36Z</time>
      </trkpt>
      <trkpt lat="45.74104" lon="5.54825">
        <ele>446.50144208139</ele>
        <time>2015-05-15T13:15:41Z</time>
      </trkpt>
      <trkpt lat="45.7411" lon="5.5482">
        <ele>445.4789455215</ele>
        <time>2015-05-15T13:15:46Z</time>
      </trkpt>
      <trkpt lat="45.74115" lon="5.54811">
        <ele>445.4789455215</ele>
        <time>2015-05-15T13:15:51Z</time>
      </trkpt>
      <trkpt lat="45.7412" lon="5.54801">
        <ele>444.57105572863</ele>
        <time>2015-05-15T13:15:56Z</time>
      </trkpt>
      <trkpt lat="45.74126" lon="5.54799">
        <ele>444.57105572863</ele>
        <time>2015-05-15T13:16:01Z</time>
      </trkpt>
      <trkpt lat="45.74131" lon="5.54796">
        <ele>443.5028675062</ele>
        <time>2015-05-15T13:16:06Z</time>
      </trkpt>
      <trkpt lat="45.74135" lon="5.54788">
        <ele>443.5028675062</ele>
        <time>2015-05-15T13:16:11Z</time>
      </trkpt>
      <trkpt lat="45.74141" lon="5.5478">
        <ele>442.74051822011</ele>
        <time>2015-05-15T13:16:16Z</time>
      </trkpt>
      <trkpt lat="45.74146" lon="5.54773">
        <ele>442.74051822011</ele>
        <time>2015-05-15T13:16:21Z</time>
      </trkpt>
      <trkpt lat="45.74151" lon="5.54765">
        <ele>442.32577848629</ele>
        <time>2015-05-15T13:16:26Z</time>
      </trkpt>
      <trkpt lat="45.74155" lon="5.54755">
        <ele>442.32577848629</ele>
        <time>2015-05-15T13:16:31Z</time>
      </trkpt>
      <trkpt lat="45.7416" lon="5.54748">
        <ele>442.26738026453</ele>
        <time>2015-05-15T13:16:36Z</time>
      </trkpt>
      <trkpt lat="45.74164" lon="5.54744">
        <ele>442.26738026453</ele>
        <time>2015-05-15T13:16:41Z</time>
      </trkpt>
      <trkpt lat="45.74165" lon="5.54743">
        <ele>442.26738026453</ele>
        <time>2015-05-15T13:16:46Z</time>
      </trkpt>
      <trkpt lat="45.74166" lon="5.54744">
        <ele>442.26738026453</ele>
        <time>2015-05-15T13:16:51Z</time>
      </trkpt>
      <trkpt lat="45.74166" lon="5.54744">
        <ele>442.26738026453</ele>
        <time>2015-05-15T13:16:56Z</time>
      </trkpt>
      <trkpt lat="45.74166" lon="5.54744">
        <ele>442.26738026453</ele>
        <time>2015-05-15T13:17:01Z</time>
      </trkpt>
      <trkpt lat="45.74166" lon="5.54744">
        <ele>442.26738026453</ele>
        <time>2015-05-15T13:17:06Z</time>
      </trkpt>
      <trkpt lat="45.74166" lon="5.54744">
        <ele>442.26738026453</ele>
        <time>2015-05-15T13:17:11Z</time>
      </trkpt>
      <trkpt lat="45.74166" lon="5.54744">
        <ele>442.26738026453</ele>
        <time>2015-05-15T13:17:16Z</time>
      </trkpt>
      <trkpt lat="45.74166" lon="5.54744">
        <ele>442.26738026453</ele>
        <time>2015-05-15T13:17:21Z</time>
      </trkpt>
      <trkpt lat="45.74167" lon="5.54744">
        <ele>442.26738026453</ele>
        <time>2015-05-15T13:17:26Z</time>
      </trkpt>
      <trkpt lat="45.74166" lon="5.54744">
        <ele>442.26738026453</ele>
        <time>2015-05-15T13:17:31Z</time>
      </trkpt>
      <trkpt lat="45.74167" lon="5.54744">
        <ele>442.26738026453</ele>
        <time>2015-05-15T13:17:36Z</time>
      </trkpt>
      <trkpt lat="45.74167" lon="5.54745">
        <ele>441.96697049486</ele>
        <time>2015-05-15T13:17:41Z</time>
      </trkpt>
      <trkpt lat="45.74167" lon="5.54745">
        <ele>441.96697049486</ele>
        <time>2015-05-15T13:17:46Z</time>
      </trkpt>
      <trkpt lat="45.74167" lon="5.54744">
        <ele>441.96697049486</ele>
        <time>2015-05-15T13:17:51Z</time>
      </trkpt>
      <trkpt lat="45.74167" lon="5.54745">
        <ele>441.96697049486</ele>
        <time>2015-05-15T13:17:56Z</time>
      </trkpt>
      <trkpt lat="45.74167" lon="5.54744">
        <ele>441.96697049486</ele>
        <time>2015-05-15T13:18:01Z</time>
      </trkpt>
      <trkpt lat="45.74169" lon="5.54739">
        <ele>441.96697049486</ele>
        <time>2015-05-15T13:18:06Z</time>
      </trkpt>
      <trkpt lat="45.74168" lon="5.54743">
        <ele>441.96697049486</ele>
        <time>2015-05-15T13:18:11Z</time>
      </trkpt>
      <trkpt lat="45.74169" lon="5.54743">
        <ele>441.96697049486</ele>
        <time>2015-05-15T13:18:16Z</time>
      </trkpt>
      <trkpt lat="45.7417" lon="5.54742">
        <ele>440.81300488263</ele>
        <time>2015-05-15T13:18:21Z</time>
      </trkpt>
      <trkpt lat="45.74171" lon="5.5474">
        <ele>440.81300488263</ele>
        <time>2015-05-15T13:18:26Z</time>
      </trkpt>
      <trkpt lat="45.74169" lon="5.5474">
        <ele>440.81300488263</ele>
        <time>2015-05-15T13:18:31Z</time>
      </trkpt>
      <trkpt lat="45.74168" lon="5.54744">
        <ele>440.81300488263</ele>
        <time>2015-05-15T13:18:36Z</time>
      </trkpt>
      <trkpt lat="45.74169" lon="5.54743">
        <ele>440.81300488263</ele>
        <time>2015-05-15T13:18:41Z</time>
      </trkpt>
      <trkpt lat="45.74169" lon="5.54743">
        <ele>440.81300488263</ele>
        <time>2015-05-15T13:18:46Z</time>
      </trkpt>
      <trkpt lat="45.74169" lon="5.54742">
        <ele>440.81300488263</ele>
        <time>2015-05-15T13:18:51Z</time>
      </trkpt>
      <trkpt lat="45.74169" lon="5.54743">
        <ele>440.81300488263</ele>
        <time>2015-05-15T13:18:56Z</time>
      </trkpt>
      <trkpt lat="45.74166" lon="5.54743">
        <ele>439.79747481131</ele>
        <time>2015-05-15T13:19:01Z</time>
      </trkpt>
      <trkpt lat="45.74161" lon="5.54748">
        <ele>439.79747481131</ele>
        <time>2015-05-15T13:19:06Z</time>
      </trkpt>
      <trkpt lat="45.74159" lon="5.54751">
        <ele>438.36899097039</ele>
        <time>2015-05-15T13:19:11Z</time>
      </trkpt>
      <trkpt lat="45.74158" lon="5.5475">
        <ele>438.36899097039</ele>
        <time>2015-05-15T13:19:16Z</time>
      </trkpt>
      <trkpt lat="45.74157" lon="5.54749">
        <ele>438.36899097039</ele>
        <time>2015-05-15T13:19:21Z</time>
      </trkpt>
      <trkpt lat="45.74157" lon="5.54749">
        <ele>438.36899097039</ele>
        <time>2015-05-15T13:19:26Z</time>
      </trkpt>
      <trkpt lat="45.74158" lon="5.54749">
        <ele>438.36899097039</ele>
        <time>2015-05-15T13:19:31Z</time>
      </trkpt>
      <trkpt lat="45.74158" lon="5.54749">
        <ele>438.36899097039</ele>
        <time>2015-05-15T13:19:36Z</time>
      </trkpt>
      <trkpt lat="45.74158" lon="5.54749">
        <ele>438.36899097039</ele>
        <time>2015-05-15T13:19:41Z</time>
      </trkpt>
      <trkpt lat="45.74159" lon="5.54749">
        <ele>438.36899097039</ele>
        <time>2015-05-15T13:19:46Z</time>
      </trkpt>
      <trkpt lat="45.7416" lon="5.54748">
        <ele>438.36899097039</ele>
        <time>2015-05-15T13:19:51Z</time>
      </trkpt>
      <trkpt lat="45.7416" lon="5.54749">
        <ele>438.36899097039</ele>
        <time>2015-05-15T13:19:56Z</time>
      </trkpt>
      <trkpt lat="45.7416" lon="5.54748">
        <ele>438.36899097039</ele>
        <time>2015-05-15T13:20:01Z</time>
      </trkpt>
      <trkpt lat="45.7416" lon="5.54748">
        <ele>438.36899097039</ele>
        <time>2015-05-15T13:20:06Z</time>
      </trkpt>
      <trkpt lat="45.7416" lon="5.54748">
        <ele>438.36899097039</ele>
        <time>2015-05-15T13:20:11Z</time>
      </trkpt>
      <trkpt lat="45.7416" lon="5.54749">
        <ele>438.36899097039</ele>
        <time>2015-05-15T13:20:16Z</time>
      </trkpt>
      <trkpt lat="45.74159" lon="5.54747">
        <ele>438.36899097039</ele>
        <time>2015-05-15T13:20:21Z</time>
      </trkpt>
      <trkpt lat="45.74159" lon="5.54747">
        <ele>438.36899097039</ele>
        <time>2015-05-15T13:20:26Z</time>
      </trkpt>
      <trkpt lat="45.74158" lon="5.54749">
        <ele>437.63168050209</ele>
        <time>2015-05-15T13:20:31Z</time>
      </trkpt>
      <trkpt lat="45.74158" lon="5.54749">
        <ele>437.63168050209</ele>
        <time>2015-05-15T13:20:37Z</time>
      </trkpt>
      <trkpt lat="45.74159" lon="5.54749">
        <ele>437.63168050209</ele>
        <time>2015-05-15T13:20:41Z</time>
      </trkpt>
      <trkpt lat="45.74157" lon="5.5475">
        <ele>437.63168050209</ele>
        <time>2015-05-15T13:20:46Z</time>
      </trkpt>
      <trkpt lat="45.74157" lon="5.54749">
        <ele>437.63168050209</ele>
        <time>2015-05-15T13:20:51Z</time>
      </trkpt>
      <trkpt lat="45.74159" lon="5.54749">
        <ele>437.63168050209</ele>
        <time>2015-05-15T13:20:56Z</time>
      </trkpt>
      <trkpt lat="45.74159" lon="5.54748">
        <ele>437.63168050209</ele>
        <time>2015-05-15T13:21:01Z</time>
      </trkpt>
      <trkpt lat="45.74159" lon="5.54748">
        <ele>437.63168050209</ele>
        <time>2015-05-15T13:21:06Z</time>
      </trkpt>
      <trkpt lat="45.74158" lon="5.54748">
        <ele>437.63168050209</ele>
        <time>2015-05-15T13:21:11Z</time>
      </trkpt>
      <trkpt lat="45.74158" lon="5.54747">
        <ele>437.63168050209</ele>
        <time>2015-05-15T13:21:16Z</time>
      </trkpt>
      <trkpt lat="45.74157" lon="5.54746">
        <ele>437.63168050209</ele>
        <time>2015-05-15T13:21:21Z</time>
      </trkpt>
      <trkpt lat="45.74157" lon="5.54747">
        <ele>437.63168050209</ele>
        <time>2015-05-15T13:21:26Z</time>
      </trkpt>
      <trkpt lat="45.74156" lon="5.54747">
        <ele>437.63168050209</ele>
        <time>2015-05-15T13:21:31Z</time>
      </trkpt>
      <trkpt lat="45.74156" lon="5.54746">
        <ele>437.64088340148</ele>
        <time>2015-05-15T13:21:36Z</time>
      </trkpt>
      <trkpt lat="45.74156" lon="5.54747">
        <ele>437.64088340148</ele>
        <time>2015-05-15T13:21:41Z</time>
      </trkpt>
      <trkpt lat="45.74157" lon="5.54748">
        <ele>437.64088340148</ele>
        <time>2015-05-15T13:21:46Z</time>
      </trkpt>
      <trkpt lat="45.74157" lon="5.54749">
        <ele>437.64088340148</ele>
        <time>2015-05-15T13:21:51Z</time>
      </trkpt>
      <trkpt lat="45.74157" lon="5.54747">
        <ele>437.64088340148</ele>
        <time>2015-05-15T13:21:56Z</time>
      </trkpt>
      <trkpt lat="45.74158" lon="5.54747">
        <ele>437.64088340148</ele>
        <time>2015-05-15T13:22:01Z</time>
      </trkpt>
      <trkpt lat="45.74158" lon="5.54747">
        <ele>437.64088340148</ele>
        <time>2015-05-15T13:22:06Z</time>
      </trkpt>
      <trkpt lat="45.74157" lon="5.54746">
        <ele>437.64088340148</ele>
        <time>2015-05-15T13:22:11Z</time>
      </trkpt>
      <trkpt lat="45.7416" lon="5.54746">
        <ele>437.64088340148</ele>
        <time>2015-05-15T13:22:16Z</time>
      </trkpt>
      <trkpt lat="45.74159" lon="5.54743">
        <ele>437.09093899598</ele>
        <time>2015-05-15T13:22:21Z</time>
      </trkpt>
      <trkpt lat="45.74163" lon="5.54744">
        <ele>437.09093899598</ele>
        <time>2015-05-15T13:22:26Z</time>
      </trkpt>
      <trkpt lat="45.74166" lon="5.54743">
        <ele>437.09093899598</ele>
        <time>2015-05-15T13:22:31Z</time>
      </trkpt>
      <trkpt lat="45.74168" lon="5.54739">
        <ele>436.5892736559</ele>
        <time>2015-05-15T13:22:36Z</time>
      </trkpt>
      <trkpt lat="45.74168" lon="5.54737">
        <ele>436.5892736559</ele>
        <time>2015-05-15T13:22:41Z</time>
      </trkpt>
      <trkpt lat="45.74169" lon="5.54738">
        <ele>436.5892736559</ele>
        <time>2015-05-15T13:22:46Z</time>
      </trkpt>
      <trkpt lat="45.74176" lon="5.54741">
        <ele>436.15074234673</ele>
        <time>2015-05-15T13:22:51Z</time>
      </trkpt>
      <trkpt lat="45.7418" lon="5.54743">
        <ele>436.15074234673</ele>
        <time>2015-05-15T13:22:56Z</time>
      </trkpt>
      <trkpt lat="45.7418" lon="5.54744">
        <ele>436.15074234673</ele>
        <time>2015-05-15T13:23:01Z</time>
      </trkpt>
      <trkpt lat="45.74178" lon="5.54743">
        <ele>436.15074234673</ele>
        <time>2015-05-15T13:23:06Z</time>
      </trkpt>
      <trkpt lat="45.74178" lon="5.54743">
        <ele>436.15074234673</ele>
        <time>2015-05-15T13:23:11Z</time>
      </trkpt>
      <trkpt lat="45.74178" lon="5.54742">
        <ele>436.15074234673</ele>
        <time>2015-05-15T13:23:16Z</time>
      </trkpt>
      <trkpt lat="45.74178" lon="5.54742">
        <ele>436.15074234673</ele>
        <time>2015-05-15T13:23:21Z</time>
      </trkpt>
      <trkpt lat="45.74178" lon="5.54742">
        <ele>436.15074234673</ele>
        <time>2015-05-15T13:23:26Z</time>
      </trkpt>
      <trkpt lat="45.74178" lon="5.54742">
        <ele>436.15074234673</ele>
        <time>2015-05-15T13:23:31Z</time>
      </trkpt>
      <trkpt lat="45.74178" lon="5.54742">
        <ele>436.15074234673</ele>
        <time>2015-05-15T13:23:36Z</time>
      </trkpt>
      <trkpt lat="45.74178" lon="5.54742">
        <ele>436.15074234673</ele>
        <time>2015-05-15T13:23:41Z</time>
      </trkpt>
      <trkpt lat="45.74178" lon="5.54742">
        <ele>436.15074234673</ele>
        <time>2015-05-15T13:23:46Z</time>
      </trkpt>
      <trkpt lat="45.74178" lon="5.54742">
        <ele>436.15074234673</ele>
        <time>2015-05-15T13:23:51Z</time>
      </trkpt>
      <trkpt lat="45.74178" lon="5.54742">
        <ele>436.15074234673</ele>
        <time>2015-05-15T13:23:56Z</time>
      </trkpt>
      <trkpt lat="45.74178" lon="5.54742">
        <ele>436.15074234673</ele>
        <time>2015-05-15T13:24:01Z</time>
      </trkpt>
      <trkpt lat="45.74178" lon="5.54742">
        <ele>436.15074234673</ele>
        <time>2015-05-15T13:24:06Z</time>
      </trkpt>
      <trkpt lat="45.74178" lon="5.54742">
        <ele>436.15074234673</ele>
        <time>2015-05-15T13:24:11Z</time>
      </trkpt>
      <trkpt lat="45.74178" lon="5.54742">
        <ele>436.15074234673</ele>
        <time>2015-05-15T13:24:16Z</time>
      </trkpt>
      <trkpt lat="45.74178" lon="5.54742">
        <ele>436.15074234673</ele>
        <time>2015-05-15T13:24:21Z</time>
      </trkpt>
      <trkpt lat="45.74178" lon="5.54742">
        <ele>436.15074234673</ele>
        <time>2015-05-15T13:24:26Z</time>
      </trkpt>
      <trkpt lat="45.74178" lon="5.54742">
        <ele>436.15074234673</ele>
        <time>2015-05-15T13:24:31Z</time>
      </trkpt>
      <trkpt lat="45.74178" lon="5.54742">
        <ele>436.15074234673</ele>
        <time>2015-05-15T13:24:36Z</time>
      </trkpt>
      <trkpt lat="45.74178" lon="5.54742">
        <ele>436.15074234673</ele>
        <time>2015-05-15T13:24:41Z</time>
      </trkpt>
      <trkpt lat="45.74178" lon="5.54742">
        <ele>436.15074234673</ele>
        <time>2015-05-15T13:24:46Z</time>
      </trkpt>
      <trkpt lat="45.74178" lon="5.54742">
        <ele>436.15074234673</ele>
        <time>2015-05-15T13:24:51Z</time>
      </trkpt>
      <trkpt lat="45.74178" lon="5.54742">
        <ele>436.15074234673</ele>
        <time>2015-05-15T13:24:56Z</time>
      </trkpt>
      <trkpt lat="45.74178" lon="5.54742">
        <ele>436.15074234673</ele>
        <time>2015-05-15T13:25:01Z</time>
      </trkpt>
      <trkpt lat="45.74178" lon="5.54743">
        <ele>436.15074234673</ele>
        <time>2015-05-15T13:25:06Z</time>
      </trkpt>
      <trkpt lat="45.74175" lon="5.54743">
        <ele>435.9616765539</ele>
        <time>2015-05-15T13:25:11Z</time>
      </trkpt>
      <trkpt lat="45.74174" lon="5.54742">
        <ele>435.9616765539</ele>
        <time>2015-05-15T13:25:16Z</time>
      </trkpt>
      <trkpt lat="45.74174" lon="5.5474">
        <ele>435.9616765539</ele>
        <time>2015-05-15T13:25:21Z</time>
      </trkpt>
      <trkpt lat="45.74174" lon="5.5474">
        <ele>435.9616765539</ele>
        <time>2015-05-15T13:25:26Z</time>
      </trkpt>
      <trkpt lat="45.74173" lon="5.5474">
        <ele>435.9616765539</ele>
        <time>2015-05-15T13:25:31Z</time>
      </trkpt>
      <trkpt lat="45.74173" lon="5.5474">
        <ele>435.9616765539</ele>
        <time>2015-05-15T13:25:36Z</time>
      </trkpt>
      <trkpt lat="45.74173" lon="5.5474">
        <ele>435.9616765539</ele>
        <time>2015-05-15T13:25:41Z</time>
      </trkpt>
      <trkpt lat="45.74173" lon="5.5474">
        <ele>435.9616765539</ele>
        <time>2015-05-15T13:25:46Z</time>
      </trkpt>
      <trkpt lat="45.74173" lon="5.5474">
        <ele>435.9616765539</ele>
        <time>2015-05-15T13:25:51Z</time>
      </trkpt>
      <trkpt lat="45.74173" lon="5.5474">
        <ele>435.9616765539</ele>
        <time>2015-05-15T13:25:56Z</time>
      </trkpt>
      <trkpt lat="45.74173" lon="5.5474">
        <ele>435.9616765539</ele>
        <time>2015-05-15T13:26:01Z</time>
      </trkpt>
      <trkpt lat="45.74173" lon="5.5474">
        <ele>435.9616765539</ele>
        <time>2015-05-15T13:26:06Z</time>
      </trkpt>
      <trkpt lat="45.74173" lon="5.5474">
        <ele>435.9616765539</ele>
        <time>2015-05-15T13:26:11Z</time>
      </trkpt>
      <trkpt lat="45.74173" lon="5.5474">
        <ele>435.9616765539</ele>
        <time>2015-05-15T13:26:16Z</time>
      </trkpt>
      <trkpt lat="45.74173" lon="5.5474">
        <ele>435.9616765539</ele>
        <time>2015-05-15T13:26:21Z</time>
      </trkpt>
      <trkpt lat="45.74173" lon="5.5474">
        <ele>435.9616765539</ele>
        <time>2015-05-15T13:26:26Z</time>
      </trkpt>
      <trkpt lat="45.74173" lon="5.5474">
        <ele>435.9616765539</ele>
        <time>2015-05-15T13:26:31Z</time>
      </trkpt>
      <trkpt lat="45.74173" lon="5.5474">
        <ele>435.9616765539</ele>
        <time>2015-05-15T13:26:36Z</time>
      </trkpt>
      <trkpt lat="45.74173" lon="5.5474">
        <ele>435.9616765539</ele>
        <time>2015-05-15T13:26:41Z</time>
      </trkpt>
      <trkpt lat="45.74173" lon="5.5474">
        <ele>435.9616765539</ele>
        <time>2015-05-15T13:26:46Z</time>
      </trkpt>
      <trkpt lat="45.74173" lon="5.5474">
        <ele>435.9616765539</ele>
        <time>2015-05-15T13:26:51Z</time>
      </trkpt>
      <trkpt lat="45.74173" lon="5.5474">
        <ele>435.9616765539</ele>
        <time>2015-05-15T13:26:56Z</time>
      </trkpt>
      <trkpt lat="45.74173" lon="5.54739">
        <ele>435.9616765539</ele>
        <time>2015-05-15T13:27:01Z</time>
      </trkpt>
      <trkpt lat="45.74173" lon="5.54739">
        <ele>435.9616765539</ele>
        <time>2015-05-15T13:27:06Z</time>
      </trkpt>
      <trkpt lat="45.74173" lon="5.54739">
        <ele>435.9616765539</ele>
        <time>2015-05-15T13:27:11Z</time>
      </trkpt>
      <trkpt lat="45.74173" lon="5.54739">
        <ele>435.9616765539</ele>
        <time>2015-05-15T13:27:16Z</time>
      </trkpt>
      <trkpt lat="45.74173" lon="5.54739">
        <ele>435.9616765539</ele>
        <time>2015-05-15T13:27:21Z</time>
      </trkpt>
      <trkpt lat="45.74173" lon="5.54739">
        <ele>435.9616765539</ele>
        <time>2015-05-15T13:27:26Z</time>
      </trkpt>
      <trkpt lat="45.74173" lon="5.54739">
        <ele>435.9616765539</ele>
        <time>2015-05-15T13:27:31Z</time>
      </trkpt>
      <trkpt lat="45.74173" lon="5.54739">
        <ele>435.9616765539</ele>
        <time>2015-05-15T13:27:36Z</time>
      </trkpt>
      <trkpt lat="45.74173" lon="5.5474">
        <ele>435.9616765539</ele>
        <time>2015-05-15T13:27:41Z</time>
      </trkpt>
      <trkpt lat="45.74174" lon="5.54739">
        <ele>435.9616765539</ele>
        <time>2015-05-15T13:27:46Z</time>
      </trkpt>
      <trkpt lat="45.74173" lon="5.54738">
        <ele>435.9616765539</ele>
        <time>2015-05-15T13:27:51Z</time>
      </trkpt>
      <trkpt lat="45.74172" lon="5.54737">
        <ele>435.9616765539</ele>
        <time>2015-05-15T13:27:56Z</time>
      </trkpt>
      <trkpt lat="45.74172" lon="5.54737">
        <ele>435.9616765539</ele>
        <time>2015-05-15T13:28:01Z</time>
      </trkpt>
      <trkpt lat="45.74172" lon="5.54737">
        <ele>435.9616765539</ele>
        <time>2015-05-15T13:28:06Z</time>
      </trkpt>
      <trkpt lat="45.74172" lon="5.54737">
        <ele>435.9616765539</ele>
        <time>2015-05-15T13:28:11Z</time>
      </trkpt>
      <trkpt lat="45.74172" lon="5.54737">
        <ele>435.9616765539</ele>
        <time>2015-05-15T13:28:16Z</time>
      </trkpt>
      <trkpt lat="45.74172" lon="5.54737">
        <ele>435.9616765539</ele>
        <time>2015-05-15T13:28:21Z</time>
      </trkpt>
      <trkpt lat="45.74172" lon="5.54737">
        <ele>435.9616765539</ele>
        <time>2015-05-15T13:28:26Z</time>
      </trkpt>
      <trkpt lat="45.74172" lon="5.54737">
        <ele>435.9616765539</ele>
        <time>2015-05-15T13:28:31Z</time>
      </trkpt>
      <trkpt lat="45.74168" lon="5.54738">
        <ele>436.00649139246</ele>
        <time>2015-05-15T13:28:36Z</time>
      </trkpt>
      <trkpt lat="45.74157" lon="5.54744">
        <ele>435.77993361629</ele>
        <time>2015-05-15T13:28:41Z</time>
      </trkpt>
      <trkpt lat="45.74153" lon="5.54745">
        <ele>435.77993361629</ele>
        <time>2015-05-15T13:28:46Z</time>
      </trkpt>
      <trkpt lat="45.74156" lon="5.54745">
        <ele>435.77993361629</ele>
        <time>2015-05-15T13:28:51Z</time>
      </trkpt>
      <trkpt lat="45.74158" lon="5.54746">
        <ele>435.77993361629</ele>
        <time>2015-05-15T13:28:56Z</time>
      </trkpt>
      <trkpt lat="45.74161" lon="5.54749">
        <ele>435.44854260471</ele>
        <time>2015-05-15T13:29:01Z</time>
      </trkpt>
      <trkpt lat="45.7416" lon="5.54751">
        <ele>435.44854260471</ele>
        <time>2015-05-15T13:29:06Z</time>
      </trkpt>
      <trkpt lat="45.74159" lon="5.54752">
        <ele>435.44854260471</ele>
        <time>2015-05-15T13:29:11Z</time>
      </trkpt>
      <trkpt lat="45.74159" lon="5.54752">
        <ele>435.44854260471</ele>
        <time>2015-05-15T13:29:16Z</time>
      </trkpt>
      <trkpt lat="45.74159" lon="5.5475">
        <ele>435.44854260471</ele>
        <time>2015-05-15T13:29:21Z</time>
      </trkpt>
      <trkpt lat="45.74161" lon="5.54747">
        <ele>435.44854260471</ele>
        <time>2015-05-15T13:29:26Z</time>
      </trkpt>
      <trkpt lat="45.74166" lon="5.54743">
        <ele>435.13792829476</ele>
        <time>2015-05-15T13:29:31Z</time>
      </trkpt>
      <trkpt lat="45.74172" lon="5.54742">
        <ele>435.13792829476</ele>
        <time>2015-05-15T13:29:36Z</time>
      </trkpt>
      <trkpt lat="45.74173" lon="5.54741">
        <ele>435.13792829476</ele>
        <time>2015-05-15T13:29:41Z</time>
      </trkpt>
      <trkpt lat="45.74175" lon="5.5474">
        <ele>435.13792829476</ele>
        <time>2015-05-15T13:29:46Z</time>
      </trkpt>
      <trkpt lat="45.74175" lon="5.5474">
        <ele>435.13792829476</ele>
        <time>2015-05-15T13:29:51Z</time>
      </trkpt>
      <trkpt lat="45.74174" lon="5.5474">
        <ele>435.31012095462</ele>
        <time>2015-05-15T13:29:56Z</time>
      </trkpt>
      <trkpt lat="45.74174" lon="5.5474">
        <ele>435.31012095462</ele>
        <time>2015-05-15T13:30:01Z</time>
      </trkpt>
      <trkpt lat="45.74174" lon="5.54739">
        <ele>435.31012095462</ele>
        <time>2015-05-15T13:30:06Z</time>
      </trkpt>
      <trkpt lat="45.74174" lon="5.5474">
        <ele>435.31012095462</ele>
        <time>2015-05-15T13:30:11Z</time>
      </trkpt>
      <trkpt lat="45.74174" lon="5.54739">
        <ele>435.31012095462</ele>
        <time>2015-05-15T13:30:16Z</time>
      </trkpt>
      <trkpt lat="45.74174" lon="5.54739">
        <ele>435.31012095462</ele>
        <time>2015-05-15T13:30:21Z</time>
      </trkpt>
      <trkpt lat="45.74174" lon="5.54739">
        <ele>435.31012095462</ele>
        <time>2015-05-15T13:30:26Z</time>
      </trkpt>
      <trkpt lat="45.74174" lon="5.54739">
        <ele>435.31012095462</ele>
        <time>2015-05-15T13:30:31Z</time>
      </trkpt>
      <trkpt lat="45.74174" lon="5.54739">
        <ele>435.31012095462</ele>
        <time>2015-05-15T13:30:36Z</time>
      </trkpt>
      <trkpt lat="45.74174" lon="5.54739">
        <ele>435.31012095462</ele>
        <time>2015-05-15T13:30:41Z</time>
      </trkpt>
      <trkpt lat="45.74174" lon="5.54739">
        <ele>435.31012095462</ele>
        <time>2015-05-15T13:30:46Z</time>
      </trkpt>
      <trkpt lat="45.74174" lon="5.54739">
        <ele>435.31012095462</ele>
        <time>2015-05-15T13:30:51Z</time>
      </trkpt>
      <trkpt lat="45.74174" lon="5.54739">
        <ele>435.31012095462</ele>
        <time>2015-05-15T13:30:56Z</time>
      </trkpt>
      <trkpt lat="45.74174" lon="5.54739">
        <ele>435.31012095462</ele>
        <time>2015-05-15T13:31:01Z</time>
      </trkpt>
      <trkpt lat="45.74174" lon="5.54739">
        <ele>435.31012095462</ele>
        <time>2015-05-15T13:31:06Z</time>
      </trkpt>
      <trkpt lat="45.74174" lon="5.54739">
        <ele>435.31012095462</ele>
        <time>2015-05-15T13:31:11Z</time>
      </trkpt>
      <trkpt lat="45.74174" lon="5.54739">
        <ele>435.31012095462</ele>
        <time>2015-05-15T13:31:16Z</time>
      </trkpt>
      <trkpt lat="45.74174" lon="5.54739">
        <ele>435.31012095462</ele>
        <time>2015-05-15T13:31:21Z</time>
      </trkpt>
      <trkpt lat="45.74174" lon="5.54739">
        <ele>435.31012095462</ele>
        <time>2015-05-15T13:31:26Z</time>
      </trkpt>
      <trkpt lat="45.74174" lon="5.54739">
        <ele>435.31012095462</ele>
        <time>2015-05-15T13:31:31Z</time>
      </trkpt>
      <trkpt lat="45.74174" lon="5.54739">
        <ele>435.31012095462</ele>
        <time>2015-05-15T13:31:36Z</time>
      </trkpt>
      <trkpt lat="45.74174" lon="5.54739">
        <ele>435.31012095462</ele>
        <time>2015-05-15T13:31:41Z</time>
      </trkpt>
      <trkpt lat="45.74174" lon="5.54739">
        <ele>435.31012095462</ele>
        <time>2015-05-15T13:31:46Z</time>
      </trkpt>
      <trkpt lat="45.74174" lon="5.54739">
        <ele>435.31012095462</ele>
        <time>2015-05-15T13:31:51Z</time>
      </trkpt>
      <trkpt lat="45.74174" lon="5.54739">
        <ele>435.31012095462</ele>
        <time>2015-05-15T13:31:56Z</time>
      </trkpt>
      <trkpt lat="45.74174" lon="5.54739">
        <ele>435.31012095462</ele>
        <time>2015-05-15T13:32:01Z</time>
      </trkpt>
      <trkpt lat="45.74174" lon="5.54739">
        <ele>435.31012095462</ele>
        <time>2015-05-15T13:32:06Z</time>
      </trkpt>
      <trkpt lat="45.74174" lon="5.54739">
        <ele>435.31012095462</ele>
        <time>2015-05-15T13:32:11Z</time>
      </trkpt>
      <trkpt lat="45.74174" lon="5.54739">
        <ele>435.31012095462</ele>
        <time>2015-05-15T13:32:16Z</time>
      </trkpt>
      <trkpt lat="45.74174" lon="5.54739">
        <ele>435.31012095462</ele>
        <time>2015-05-15T13:32:21Z</time>
      </trkpt>
      <trkpt lat="45.74174" lon="5.54739">
        <ele>435.31012095462</ele>
        <time>2015-05-15T13:32:26Z</time>
      </trkpt>
      <trkpt lat="45.74174" lon="5.54739">
        <ele>435.31012095462</ele>
        <time>2015-05-15T13:32:31Z</time>
      </trkpt>
      <trkpt lat="45.74174" lon="5.54739">
        <ele>435.31012095462</ele>
        <time>2015-05-15T13:32:36Z</time>
      </trkpt>
      <trkpt lat="45.74174" lon="5.54739">
        <ele>435.31012095462</ele>
        <time>2015-05-15T13:32:41Z</time>
      </trkpt>
      <trkpt lat="45.74174" lon="5.54739">
        <ele>435.31012095462</ele>
        <time>2015-05-15T13:32:46Z</time>
      </trkpt>
      <trkpt lat="45.74174" lon="5.54739">
        <ele>435.31012095462</ele>
        <time>2015-05-15T13:32:51Z</time>
      </trkpt>
      <trkpt lat="45.74174" lon="5.54739">
        <ele>435.31012095462</ele>
        <time>2015-05-15T13:32:56Z</time>
      </trkpt>
      <trkpt lat="45.74174" lon="5.54739">
        <ele>435.31012095462</ele>
        <time>2015-05-15T13:33:01Z</time>
      </trkpt>
      <trkpt lat="45.74174" lon="5.54739">
        <ele>435.31012095462</ele>
        <time>2015-05-15T13:33:06Z</time>
      </trkpt>
      <trkpt lat="45.74173" lon="5.54739">
        <ele>435.31012095462</ele>
        <time>2015-05-15T13:33:11Z</time>
      </trkpt>
      <trkpt lat="45.74171" lon="5.54739">
        <ele>435.31012095462</ele>
        <time>2015-05-15T13:33:16Z</time>
      </trkpt>
      <trkpt lat="45.74167" lon="5.54732">
        <ele>435.22440068372</ele>
        <time>2015-05-15T13:33:21Z</time>
      </trkpt>
      <trkpt lat="45.74166" lon="5.54732">
        <ele>435.22440068372</ele>
        <time>2015-05-15T13:33:26Z</time>
      </trkpt>
      <trkpt lat="45.74166" lon="5.54734">
        <ele>435.22440068372</ele>
        <time>2015-05-15T13:33:31Z</time>
      </trkpt>
      <trkpt lat="45.74164" lon="5.5474">
        <ele>435.22440068372</ele>
        <time>2015-05-15T13:33:36Z</time>
      </trkpt>
      <trkpt lat="45.74167" lon="5.5474">
        <ele>435.20381406616</ele>
        <time>2015-05-15T13:33:41Z</time>
      </trkpt>
      <trkpt lat="45.7417" lon="5.54741">
        <ele>435.20381406616</ele>
        <time>2015-05-15T13:33:46Z</time>
      </trkpt>
      <trkpt lat="45.74174" lon="5.54741">
        <ele>435.20381406616</ele>
        <time>2015-05-15T13:33:51Z</time>
      </trkpt>
      <trkpt lat="45.74177" lon="5.54742">
        <ele>435.57617627934</ele>
        <time>2015-05-15T13:33:56Z</time>
      </trkpt>
      <trkpt lat="45.74176" lon="5.54741">
        <ele>435.57617627934</ele>
        <time>2015-05-15T13:34:01Z</time>
      </trkpt>
      <trkpt lat="45.74176" lon="5.5474">
        <ele>435.57617627934</ele>
        <time>2015-05-15T13:34:06Z</time>
      </trkpt>
      <trkpt lat="45.74176" lon="5.54739">
        <ele>435.57617627934</ele>
        <time>2015-05-15T13:34:11Z</time>
      </trkpt>
      <trkpt lat="45.74176" lon="5.54738">
        <ele>435.57617627934</ele>
        <time>2015-05-15T13:34:16Z</time>
      </trkpt>
      <trkpt lat="45.74176" lon="5.54738">
        <ele>435.57617627934</ele>
        <time>2015-05-15T13:34:21Z</time>
      </trkpt>
      <trkpt lat="45.74176" lon="5.54738">
        <ele>435.57617627934</ele>
        <time>2015-05-15T13:34:26Z</time>
      </trkpt>
      <trkpt lat="45.74176" lon="5.54738">
        <ele>435.57617627934</ele>
        <time>2015-05-15T13:34:31Z</time>
      </trkpt>
      <trkpt lat="45.74176" lon="5.54738">
        <ele>435.57617627934</ele>
        <time>2015-05-15T13:34:36Z</time>
      </trkpt>
      <trkpt lat="45.74176" lon="5.54738">
        <ele>435.57617627934</ele>
        <time>2015-05-15T13:34:41Z</time>
      </trkpt>
      <trkpt lat="45.74176" lon="5.54738">
        <ele>435.57617627934</ele>
        <time>2015-05-15T13:34:46Z</time>
      </trkpt>
      <trkpt lat="45.74176" lon="5.54738">
        <ele>435.57617627934</ele>
        <time>2015-05-15T13:34:51Z</time>
      </trkpt>
      <trkpt lat="45.74176" lon="5.54738">
        <ele>435.57617627934</ele>
        <time>2015-05-15T13:34:56Z</time>
      </trkpt>
      <trkpt lat="45.74176" lon="5.54738">
        <ele>435.57617627934</ele>
        <time>2015-05-15T13:35:01Z</time>
      </trkpt>
      <trkpt lat="45.74176" lon="5.54738">
        <ele>435.57617627934</ele>
        <time>2015-05-15T13:35:06Z</time>
      </trkpt>
      <trkpt lat="45.74176" lon="5.54738">
        <ele>435.57617627934</ele>
        <time>2015-05-15T13:35:11Z</time>
      </trkpt>
      <trkpt lat="45.74176" lon="5.54738">
        <ele>435.57617627934</ele>
        <time>2015-05-15T13:35:16Z</time>
      </trkpt>
      <trkpt lat="45.74176" lon="5.54738">
        <ele>435.57617627934</ele>
        <time>2015-05-15T13:35:21Z</time>
      </trkpt>
      <trkpt lat="45.74176" lon="5.54738">
        <ele>435.57617627934</ele>
        <time>2015-05-15T13:35:36Z</time>
      </trkpt>
      <trkpt lat="45.74176" lon="5.54738">
        <ele>435.57617627934</ele>
        <time>2015-05-15T13:35:41Z</time>
      </trkpt>
      <trkpt lat="45.74176" lon="5.54738">
        <ele>435.57617627934</ele>
        <time>2015-05-15T13:35:46Z</time>
      </trkpt>
      <trkpt lat="45.74176" lon="5.54738">
        <ele>435.57617627934</ele>
        <time>2015-05-15T13:35:51Z</time>
      </trkpt>
      <trkpt lat="45.74176" lon="5.54738">
        <ele>435.57617627934</ele>
        <time>2015-05-15T13:35:56Z</time>
      </trkpt>
      <trkpt lat="45.74176" lon="5.54738">
        <ele>435.57617627934</ele>
        <time>2015-05-15T13:36:01Z</time>
      </trkpt>
      <trkpt lat="45.74176" lon="5.54738">
        <ele>435.57617627934</ele>
        <time>2015-05-15T13:36:06Z</time>
      </trkpt>
      <trkpt lat="45.74176" lon="5.54738">
        <ele>435.57617627934</ele>
        <time>2015-05-15T13:36:11Z</time>
      </trkpt>
      <trkpt lat="45.74176" lon="5.54738">
        <ele>435.57617627934</ele>
        <time>2015-05-15T13:36:16Z</time>
      </trkpt>
      <trkpt lat="45.74176" lon="5.54738">
        <ele>435.57617627934</ele>
        <time>2015-05-15T13:36:21Z</time>
      </trkpt>
      <trkpt lat="45.74176" lon="5.54738">
        <ele>435.57617627934</ele>
        <time>2015-05-15T13:36:26Z</time>
      </trkpt>
      <trkpt lat="45.74176" lon="5.54738">
        <ele>435.57617627934</ele>
        <time>2015-05-15T13:36:31Z</time>
      </trkpt>
      <trkpt lat="45.74176" lon="5.54738">
        <ele>435.57617627934</ele>
        <time>2015-05-15T13:36:36Z</time>
      </trkpt>
      <trkpt lat="45.74176" lon="5.54738">
        <ele>435.57617627934</ele>
        <time>2015-05-15T13:36:41Z</time>
      </trkpt>
      <trkpt lat="45.74176" lon="5.54738">
        <ele>435.57617627934</ele>
        <time>2015-05-15T13:36:46Z</time>
      </trkpt>
      <trkpt lat="45.74176" lon="5.54738">
        <ele>435.57617627934</ele>
        <time>2015-05-15T13:36:51Z</time>
      </trkpt>
      <trkpt lat="45.74176" lon="5.54738">
        <ele>435.57617627934</ele>
        <time>2015-05-15T13:36:56Z</time>
      </trkpt>
      <trkpt lat="45.74176" lon="5.54738">
        <ele>435.57617627934</ele>
        <time>2015-05-15T13:37:06Z</time>
      </trkpt>
      <trkpt lat="45.74176" lon="5.54738">
        <ele>435.57617627934</ele>
        <time>2015-05-15T13:37:11Z</time>
      </trkpt>
      <trkpt lat="45.74176" lon="5.54738">
        <ele>435.57617627934</ele>
        <time>2015-05-15T13:37:16Z</time>
      </trkpt>
      <trkpt lat="45.74176" lon="5.54738">
        <ele>435.57617627934</ele>
        <time>2015-05-15T13:37:21Z</time>
      </trkpt>
      <trkpt lat="45.74176" lon="5.54738">
        <ele>435.57617627934</ele>
        <time>2015-05-15T13:37:26Z</time>
      </trkpt>
      <trkpt lat="45.74176" lon="5.54738">
        <ele>435.57617627934</ele>
        <time>2015-05-15T13:37:31Z</time>
      </trkpt>
      <trkpt lat="45.74176" lon="5.54738">
        <ele>435.57617627934</ele>
        <time>2015-05-15T13:37:36Z</time>
      </trkpt>
      <trkpt lat="45.74176" lon="5.54738">
        <ele>435.57617627934</ele>
        <time>2015-05-15T13:37:41Z</time>
      </trkpt>
      <trkpt lat="45.74176" lon="5.54738">
        <ele>435.57617627934</ele>
        <time>2015-05-15T13:37:46Z</time>
      </trkpt>
      <trkpt lat="45.74176" lon="5.54738">
        <ele>435.57617627934</ele>
        <time>2015-05-15T13:37:51Z</time>
      </trkpt>
      <trkpt lat="45.74176" lon="5.54738">
        <ele>435.57617627934</ele>
        <time>2015-05-15T13:37:56Z</time>
      </trkpt>
      <trkpt lat="45.74176" lon="5.54738">
        <ele>435.57617627934</ele>
        <time>2015-05-15T13:38:01Z</time>
      </trkpt>
      <trkpt lat="45.74176" lon="5.54738">
        <ele>435.57617627934</ele>
        <time>2015-05-15T13:38:06Z</time>
      </trkpt>
      <trkpt lat="45.74176" lon="5.54738">
        <ele>435.57617627934</ele>
        <time>2015-05-15T13:38:11Z</time>
      </trkpt>
      <trkpt lat="45.74176" lon="5.54738">
        <ele>435.57617627934</ele>
        <time>2015-05-15T13:38:16Z</time>
      </trkpt>
      <trkpt lat="45.74176" lon="5.54738">
        <ele>435.57617627934</ele>
        <time>2015-05-15T13:38:21Z</time>
      </trkpt>
      <trkpt lat="45.74176" lon="5.54738">
        <ele>435.57617627934</ele>
        <time>2015-05-15T13:38:26Z</time>
      </trkpt>
      <trkpt lat="45.74176" lon="5.54738">
        <ele>435.57617627934</ele>
        <time>2015-05-15T13:38:31Z</time>
      </trkpt>
      <trkpt lat="45.74176" lon="5.54738">
        <ele>435.57617627934</ele>
        <time>2015-05-15T13:38:36Z</time>
      </trkpt>
      <trkpt lat="45.74176" lon="5.54738">
        <ele>435.57617627934</ele>
        <time>2015-05-15T13:38:41Z</time>
      </trkpt>
      <trkpt lat="45.74176" lon="5.54738">
        <ele>435.57617627934</ele>
        <time>2015-05-15T13:38:46Z</time>
      </trkpt>
      <trkpt lat="45.74176" lon="5.54738">
        <ele>435.57617627934</ele>
        <time>2015-05-15T13:38:51Z</time>
      </trkpt>
      <trkpt lat="45.74176" lon="5.54738">
        <ele>435.57617627934</ele>
        <time>2015-05-15T13:38:56Z</time>
      </trkpt>
      <trkpt lat="45.74174" lon="5.54736">
        <ele>435.57617627934</ele>
        <time>2015-05-15T13:39:01Z</time>
      </trkpt>
      <trkpt lat="45.74175" lon="5.54737">
        <ele>435.57617627934</ele>
        <time>2015-05-15T13:39:06Z</time>
      </trkpt>
      <trkpt lat="45.74174" lon="5.54738">
        <ele>435.57617627934</ele>
        <time>2015-05-15T13:39:11Z</time>
      </trkpt>
      <trkpt lat="45.74174" lon="5.54738">
        <ele>435.57617627934</ele>
        <time>2015-05-15T13:39:16Z</time>
      </trkpt>
      <trkpt lat="45.74174" lon="5.54738">
        <ele>435.57617627934</ele>
        <time>2015-05-15T13:39:21Z</time>
      </trkpt>
      <trkpt lat="45.74174" lon="5.54738">
        <ele>435.57617627934</ele>
        <time>2015-05-15T13:39:26Z</time>
      </trkpt>
      <trkpt lat="45.74174" lon="5.54738">
        <ele>435.57617627934</ele>
        <time>2015-05-15T13:39:31Z</time>
      </trkpt>
      <trkpt lat="45.74174" lon="5.54738">
        <ele>435.57617627934</ele>
        <time>2015-05-15T13:39:36Z</time>
      </trkpt>
      <trkpt lat="45.74174" lon="5.54738">
        <ele>435.57617627934</ele>
        <time>2015-05-15T13:39:41Z</time>
      </trkpt>
      <trkpt lat="45.74174" lon="5.54738">
        <ele>435.57617627934</ele>
        <time>2015-05-15T13:39:46Z</time>
      </trkpt>
      <trkpt lat="45.74174" lon="5.54738">
        <ele>435.57617627934</ele>
        <time>2015-05-15T13:39:51Z</time>
      </trkpt>
      <trkpt lat="45.74174" lon="5.54738">
        <ele>435.57617627934</ele>
        <time>2015-05-15T13:39:56Z</time>
      </trkpt>
      <trkpt lat="45.74174" lon="5.54738">
        <ele>435.57617627934</ele>
        <time>2015-05-15T13:40:01Z</time>
      </trkpt>
      <trkpt lat="45.74174" lon="5.54738">
        <ele>435.57617627934</ele>
        <time>2015-05-15T13:40:06Z</time>
      </trkpt>
      <trkpt lat="45.74174" lon="5.54738">
        <ele>435.57617627934</ele>
        <time>2015-05-15T13:40:11Z</time>
      </trkpt>
      <trkpt lat="45.74174" lon="5.54738">
        <ele>435.57617627934</ele>
        <time>2015-05-15T13:40:16Z</time>
      </trkpt>
      <trkpt lat="45.74174" lon="5.54738">
        <ele>435.57617627934</ele>
        <time>2015-05-15T13:40:21Z</time>
      </trkpt>
      <trkpt lat="45.74174" lon="5.54738">
        <ele>435.57617627934</ele>
        <time>2015-05-15T13:40:26Z</time>
      </trkpt>
      <trkpt lat="45.74174" lon="5.54738">
        <ele>435.57617627934</ele>
        <time>2015-05-15T13:40:31Z</time>
      </trkpt>
      <trkpt lat="45.74174" lon="5.54737">
        <ele>435.57617627934</ele>
        <time>2015-05-15T13:40:36Z</time>
      </trkpt>
      <trkpt lat="45.74174" lon="5.54737">
        <ele>435.57617627934</ele>
        <time>2015-05-15T13:40:41Z</time>
      </trkpt>
      <trkpt lat="45.74174" lon="5.54737">
        <ele>435.57617627934</ele>
        <time>2015-05-15T13:40:46Z</time>
      </trkpt>
      <trkpt lat="45.74174" lon="5.54737">
        <ele>435.57617627934</ele>
        <time>2015-05-15T13:40:51Z</time>
      </trkpt>
      <trkpt lat="45.74174" lon="5.54737">
        <ele>435.57617627934</ele>
        <time>2015-05-15T13:40:56Z</time>
      </trkpt>
      <trkpt lat="45.74174" lon="5.54737">
        <ele>435.57617627934</ele>
        <time>2015-05-15T13:41:01Z</time>
      </trkpt>
      <trkpt lat="45.74174" lon="5.54737">
        <ele>435.57617627934</ele>
        <time>2015-05-15T13:41:06Z</time>
      </trkpt>
      <trkpt lat="45.74174" lon="5.54737">
        <ele>435.57617627934</ele>
        <time>2015-05-15T13:41:11Z</time>
      </trkpt>
      <trkpt lat="45.74174" lon="5.54737">
        <ele>435.57617627934</ele>
        <time>2015-05-15T13:41:16Z</time>
      </trkpt>
      <trkpt lat="45.74174" lon="5.54737">
        <ele>435.57617627934</ele>
        <time>2015-05-15T13:41:21Z</time>
      </trkpt>
      <trkpt lat="45.74173" lon="5.54735">
        <ele>435.15964112136</ele>
        <time>2015-05-15T13:41:26Z</time>
      </trkpt>
      <trkpt lat="45.74172" lon="5.54732">
        <ele>435.15964112136</ele>
        <time>2015-05-15T13:41:31Z</time>
      </trkpt>
      <trkpt lat="45.74171" lon="5.54732">
        <ele>435.15964112136</ele>
        <time>2015-05-15T13:41:36Z</time>
      </trkpt>
      <trkpt lat="45.74168" lon="5.54735">
        <ele>435.15964112136</ele>
        <time>2015-05-15T13:41:41Z</time>
      </trkpt>
      <trkpt lat="45.74161" lon="5.54741">
        <ele>434.79235658307</ele>
        <time>2015-05-15T13:41:46Z</time>
      </trkpt>
      <trkpt lat="45.74157" lon="5.54747">
        <ele>434.79235658307</ele>
        <time>2015-05-15T13:41:51Z</time>
      </trkpt>
      <trkpt lat="45.74157" lon="5.54745">
        <ele>434.79235658307</ele>
        <time>2015-05-15T13:41:56Z</time>
      </trkpt>
      <trkpt lat="45.74158" lon="5.54745">
        <ele>434.79235658307</ele>
        <time>2015-05-15T13:42:01Z</time>
      </trkpt>
      <trkpt lat="45.7416" lon="5.54747">
        <ele>434.54449772037</ele>
        <time>2015-05-15T13:42:06Z</time>
      </trkpt>
      <trkpt lat="45.74159" lon="5.54749">
        <ele>434.54449772037</ele>
        <time>2015-05-15T13:42:11Z</time>
      </trkpt>
      <trkpt lat="45.74158" lon="5.54748">
        <ele>434.54449772037</ele>
        <time>2015-05-15T13:42:16Z</time>
      </trkpt>
      <trkpt lat="45.74159" lon="5.54748">
        <ele>434.54449772037</ele>
        <time>2015-05-15T13:42:21Z</time>
      </trkpt>
      <trkpt lat="45.7416" lon="5.54749">
        <ele>434.54449772037</ele>
        <time>2015-05-15T13:42:26Z</time>
      </trkpt>
      <trkpt lat="45.7416" lon="5.54749">
        <ele>434.54449772037</ele>
        <time>2015-05-15T13:42:31Z</time>
      </trkpt>
      <trkpt lat="45.7416" lon="5.54749">
        <ele>434.54449772037</ele>
        <time>2015-05-15T13:42:36Z</time>
      </trkpt>
      <trkpt lat="45.74161" lon="5.54747">
        <ele>434.54449772037</ele>
        <time>2015-05-15T13:42:41Z</time>
      </trkpt>
      <trkpt lat="45.74162" lon="5.54747">
        <ele>434.54449772037</ele>
        <time>2015-05-15T13:42:46Z</time>
      </trkpt>
      <trkpt lat="45.74163" lon="5.54746">
        <ele>434.54449772037</ele>
        <time>2015-05-15T13:42:51Z</time>
      </trkpt>
      <trkpt lat="45.74163" lon="5.54746">
        <ele>434.54449772037</ele>
        <time>2015-05-15T13:42:56Z</time>
      </trkpt>
      <trkpt lat="45.74163" lon="5.54744">
        <ele>433.76007776546</ele>
        <time>2015-05-15T13:43:01Z</time>
      </trkpt>
      <trkpt lat="45.74164" lon="5.54744">
        <ele>433.76007776546</ele>
        <time>2015-05-15T13:43:06Z</time>
      </trkpt>
      <trkpt lat="45.74164" lon="5.54745">
        <ele>433.76007776546</ele>
        <time>2015-05-15T13:43:11Z</time>
      </trkpt>
      <trkpt lat="45.74164" lon="5.54745">
        <ele>433.76007776546</ele>
        <time>2015-05-15T13:43:16Z</time>
      </trkpt>
      <trkpt lat="45.74164" lon="5.54745">
        <ele>433.76007776546</ele>
        <time>2015-05-15T13:43:21Z</time>
      </trkpt>
      <trkpt lat="45.74164" lon="5.54745">
        <ele>433.76007776546</ele>
        <time>2015-05-15T13:43:26Z</time>
      </trkpt>
      <trkpt lat="45.74164" lon="5.54745">
        <ele>433.76007776546</ele>
        <time>2015-05-15T13:43:31Z</time>
      </trkpt>
      <trkpt lat="45.74164" lon="5.54745">
        <ele>433.76007776546</ele>
        <time>2015-05-15T13:43:36Z</time>
      </trkpt>
      <trkpt lat="45.74164" lon="5.54745">
        <ele>433.76007776546</ele>
        <time>2015-05-15T13:43:41Z</time>
      </trkpt>
      <trkpt lat="45.74164" lon="5.54745">
        <ele>433.76007776546</ele>
        <time>2015-05-15T13:43:46Z</time>
      </trkpt>
      <trkpt lat="45.74164" lon="5.54745">
        <ele>433.76007776546</ele>
        <time>2015-05-15T13:43:51Z</time>
      </trkpt>
      <trkpt lat="45.74164" lon="5.54745">
        <ele>433.76007776546</ele>
        <time>2015-05-15T13:43:56Z</time>
      </trkpt>
      <trkpt lat="45.74164" lon="5.54745">
        <ele>433.76007776546</ele>
        <time>2015-05-15T13:44:02Z</time>
      </trkpt>
      <trkpt lat="45.74163" lon="5.54745">
        <ele>433.76007776546</ele>
        <time>2015-05-15T13:44:06Z</time>
      </trkpt>
      <trkpt lat="45.74163" lon="5.54745">
        <ele>433.76007776546</ele>
        <time>2015-05-15T13:44:11Z</time>
      </trkpt>
      <trkpt lat="45.74163" lon="5.54745">
        <ele>433.76007776546</ele>
        <time>2015-05-15T13:44:16Z</time>
      </trkpt>
      <trkpt lat="45.74163" lon="5.54745">
        <ele>433.76007776546</ele>
        <time>2015-05-15T13:44:21Z</time>
      </trkpt>
      <trkpt lat="45.74161" lon="5.54745">
        <ele>433.76007776546</ele>
        <time>2015-05-15T13:44:26Z</time>
      </trkpt>
      <trkpt lat="45.74161" lon="5.54746">
        <ele>433.76007776546</ele>
        <time>2015-05-15T13:44:31Z</time>
      </trkpt>
      <trkpt lat="45.74159" lon="5.54747">
        <ele>433.76007776546</ele>
        <time>2015-05-15T13:44:36Z</time>
      </trkpt>
      <trkpt lat="45.74158" lon="5.54747">
        <ele>434.00877085575</ele>
        <time>2015-05-15T13:44:41Z</time>
      </trkpt>
      <trkpt lat="45.74159" lon="5.54748">
        <ele>434.00877085575</ele>
        <time>2015-05-15T13:44:46Z</time>
      </trkpt>
      <trkpt lat="45.74162" lon="5.54748">
        <ele>434.00877085575</ele>
        <time>2015-05-15T13:44:51Z</time>
      </trkpt>
      <trkpt lat="45.74166" lon="5.54744">
        <ele>434.59468368025</ele>
        <time>2015-05-15T13:44:56Z</time>
      </trkpt>
      <trkpt lat="45.74171" lon="5.5474">
        <ele>434.59468368025</ele>
        <time>2015-05-15T13:45:01Z</time>
      </trkpt>
      <trkpt lat="45.74173" lon="5.54738">
        <ele>434.59468368025</ele>
        <time>2015-05-15T13:45:06Z</time>
      </trkpt>
      <trkpt lat="45.74174" lon="5.54738">
        <ele>434.59468368025</ele>
        <time>2015-05-15T13:45:11Z</time>
      </trkpt>
      <trkpt lat="45.74174" lon="5.54738">
        <ele>434.59468368025</ele>
        <time>2015-05-15T13:45:16Z</time>
      </trkpt>
      <trkpt lat="45.74174" lon="5.54738">
        <ele>434.59468368025</ele>
        <time>2015-05-15T13:45:21Z</time>
      </trkpt>
      <trkpt lat="45.74174" lon="5.54738">
        <ele>434.59468368025</ele>
        <time>2015-05-15T13:45:26Z</time>
      </trkpt>
      <trkpt lat="45.74174" lon="5.54738">
        <ele>434.59468368025</ele>
        <time>2015-05-15T13:45:31Z</time>
      </trkpt>
      <trkpt lat="45.74174" lon="5.54738">
        <ele>435.65019974674</ele>
        <time>2015-05-15T13:45:36Z</time>
      </trkpt>
      <trkpt lat="45.74174" lon="5.54737">
        <ele>435.65019974674</ele>
        <time>2015-05-15T13:45:41Z</time>
      </trkpt>
      <trkpt lat="45.74175" lon="5.54736">
        <ele>435.65019974674</ele>
        <time>2015-05-15T13:45:46Z</time>
      </trkpt>
      <trkpt lat="45.74175" lon="5.54737">
        <ele>435.65019974674</ele>
        <time>2015-05-15T13:45:51Z</time>
      </trkpt>
      <trkpt lat="45.74175" lon="5.54736">
        <ele>435.65019974674</ele>
        <time>2015-05-15T13:45:56Z</time>
      </trkpt>
      <trkpt lat="45.74173" lon="5.54736">
        <ele>435.65019974674</ele>
        <time>2015-05-15T13:46:01Z</time>
      </trkpt>
      <trkpt lat="45.74168" lon="5.54739">
        <ele>436.20132771274</ele>
        <time>2015-05-15T13:46:06Z</time>
      </trkpt>
      <trkpt lat="45.74169" lon="5.54742">
        <ele>436.20132771274</ele>
        <time>2015-05-15T13:46:11Z</time>
      </trkpt>
      <trkpt lat="45.74172" lon="5.54742">
        <ele>436.20132771274</ele>
        <time>2015-05-15T13:46:16Z</time>
      </trkpt>
      <trkpt lat="45.74174" lon="5.54738">
        <ele>436.73043088785</ele>
        <time>2015-05-15T13:46:21Z</time>
      </trkpt>
      <trkpt lat="45.74176" lon="5.54738">
        <ele>436.73043088785</ele>
        <time>2015-05-15T13:46:26Z</time>
      </trkpt>
      <trkpt lat="45.74175" lon="5.54736">
        <ele>436.73043088785</ele>
        <time>2015-05-15T13:46:31Z</time>
      </trkpt>
      <trkpt lat="45.74175" lon="5.54736">
        <ele>436.73043088785</ele>
        <time>2015-05-15T13:46:36Z</time>
      </trkpt>
      <trkpt lat="45.74175" lon="5.54736">
        <ele>436.73043088785</ele>
        <time>2015-05-15T13:46:41Z</time>
      </trkpt>
      <trkpt lat="45.74175" lon="5.54735">
        <ele>436.73043088785</ele>
        <time>2015-05-15T13:46:46Z</time>
      </trkpt>
      <trkpt lat="45.74175" lon="5.54735">
        <ele>436.73043088785</ele>
        <time>2015-05-15T13:46:51Z</time>
      </trkpt>
      <trkpt lat="45.74175" lon="5.54735">
        <ele>436.73043088785</ele>
        <time>2015-05-15T13:46:56Z</time>
      </trkpt>
      <trkpt lat="45.74175" lon="5.54735">
        <ele>436.73043088785</ele>
        <time>2015-05-15T13:47:01Z</time>
      </trkpt>
      <trkpt lat="45.74175" lon="5.54735">
        <ele>436.73043088785</ele>
        <time>2015-05-15T13:47:06Z</time>
      </trkpt>
      <trkpt lat="45.74175" lon="5.54735">
        <ele>436.73043088785</ele>
        <time>2015-05-15T13:47:11Z</time>
      </trkpt>
      <trkpt lat="45.74175" lon="5.54735">
        <ele>436.73043088785</ele>
        <time>2015-05-15T13:47:16Z</time>
      </trkpt>
      <trkpt lat="45.74175" lon="5.54735">
        <ele>436.73043088785</ele>
        <time>2015-05-15T13:47:21Z</time>
      </trkpt>
      <trkpt lat="45.74175" lon="5.54735">
        <ele>436.73043088785</ele>
        <time>2015-05-15T13:47:26Z</time>
      </trkpt>
      <trkpt lat="45.74175" lon="5.54735">
        <ele>436.73043088785</ele>
        <time>2015-05-15T13:47:31Z</time>
      </trkpt>
      <trkpt lat="45.74175" lon="5.54735">
        <ele>436.73043088785</ele>
        <time>2015-05-15T13:47:36Z</time>
      </trkpt>
      <trkpt lat="45.74175" lon="5.54735">
        <ele>436.73043088785</ele>
        <time>2015-05-15T13:47:41Z</time>
      </trkpt>
      <trkpt lat="45.74175" lon="5.54735">
        <ele>436.73043088785</ele>
        <time>2015-05-15T13:47:46Z</time>
      </trkpt>
      <trkpt lat="45.74175" lon="5.54735">
        <ele>436.73043088785</ele>
        <time>2015-05-15T13:47:51Z</time>
      </trkpt>
      <trkpt lat="45.74175" lon="5.54735">
        <ele>436.73043088785</ele>
        <time>2015-05-15T13:47:56Z</time>
      </trkpt>
      <trkpt lat="45.74175" lon="5.54735">
        <ele>436.73043088785</ele>
        <time>2015-05-15T13:48:01Z</time>
      </trkpt>
      <trkpt lat="45.74175" lon="5.54735">
        <ele>436.73043088785</ele>
        <time>2015-05-15T13:48:06Z</time>
      </trkpt>
      <trkpt lat="45.74175" lon="5.54735">
        <ele>436.73043088785</ele>
        <time>2015-05-15T13:48:11Z</time>
      </trkpt>
      <trkpt lat="45.74175" lon="5.54735">
        <ele>436.73043088785</ele>
        <time>2015-05-15T13:48:16Z</time>
      </trkpt>
      <trkpt lat="45.74175" lon="5.54735">
        <ele>436.73043088785</ele>
        <time>2015-05-15T13:48:21Z</time>
      </trkpt>
      <trkpt lat="45.74172" lon="5.54729">
        <ele>436.73043088785</ele>
        <time>2015-05-15T13:48:26Z</time>
      </trkpt>
      <trkpt lat="45.74171" lon="5.54729">
        <ele>437.52591323053</ele>
        <time>2015-05-15T13:48:31Z</time>
      </trkpt>
      <trkpt lat="45.7417" lon="5.54728">
        <ele>437.52591323053</ele>
        <time>2015-05-15T13:48:36Z</time>
      </trkpt>
      <trkpt lat="45.7417" lon="5.54728">
        <ele>437.52591323053</ele>
        <time>2015-05-15T13:48:41Z</time>
      </trkpt>
      <trkpt lat="45.7417" lon="5.54729">
        <ele>437.52591323053</ele>
        <time>2015-05-15T13:48:46Z</time>
      </trkpt>
      <trkpt lat="45.7417" lon="5.5473">
        <ele>437.52591323053</ele>
        <time>2015-05-15T13:48:51Z</time>
      </trkpt>
      <trkpt lat="45.74171" lon="5.5473">
        <ele>437.52591323053</ele>
        <time>2015-05-15T13:48:56Z</time>
      </trkpt>
      <trkpt lat="45.74171" lon="5.5473">
        <ele>437.52591323053</ele>
        <time>2015-05-15T13:49:01Z</time>
      </trkpt>
      <trkpt lat="45.74171" lon="5.5473">
        <ele>437.52591323053</ele>
        <time>2015-05-15T13:49:06Z</time>
      </trkpt>
      <trkpt lat="45.74171" lon="5.5473">
        <ele>437.52591323053</ele>
        <time>2015-05-15T13:49:11Z</time>
      </trkpt>
      <trkpt lat="45.74171" lon="5.5473">
        <ele>437.52591323053</ele>
        <time>2015-05-15T13:49:16Z</time>
      </trkpt>
      <trkpt lat="45.74171" lon="5.5473">
        <ele>437.52591323053</ele>
        <time>2015-05-15T13:49:21Z</time>
      </trkpt>
      <trkpt lat="45.74171" lon="5.5473">
        <ele>437.52591323053</ele>
        <time>2015-05-15T13:49:26Z</time>
      </trkpt>
      <trkpt lat="45.74171" lon="5.5473">
        <ele>437.52591323053</ele>
        <time>2015-05-15T13:49:31Z</time>
      </trkpt>
      <trkpt lat="45.74171" lon="5.5473">
        <ele>437.52591323053</ele>
        <time>2015-05-15T13:49:36Z</time>
      </trkpt>
      <trkpt lat="45.74171" lon="5.5473">
        <ele>437.52591323053</ele>
        <time>2015-05-15T13:49:41Z</time>
      </trkpt>
      <trkpt lat="45.74171" lon="5.5473">
        <ele>437.52591323053</ele>
        <time>2015-05-15T13:49:46Z</time>
      </trkpt>
      <trkpt lat="45.74171" lon="5.5473">
        <ele>437.52591323053</ele>
        <time>2015-05-15T13:49:51Z</time>
      </trkpt>
      <trkpt lat="45.74171" lon="5.5473">
        <ele>437.52591323053</ele>
        <time>2015-05-15T13:49:56Z</time>
      </trkpt>
      <trkpt lat="45.74171" lon="5.5473">
        <ele>437.52591323053</ele>
        <time>2015-05-15T13:50:01Z</time>
      </trkpt>
      <trkpt lat="45.74171" lon="5.5473">
        <ele>437.52591323053</ele>
        <time>2015-05-15T13:50:06Z</time>
      </trkpt>
      <trkpt lat="45.74171" lon="5.5473">
        <ele>437.52591323053</ele>
        <time>2015-05-15T13:50:11Z</time>
      </trkpt>
      <trkpt lat="45.74171" lon="5.5473">
        <ele>437.52591323053</ele>
        <time>2015-05-15T13:50:16Z</time>
      </trkpt>
      <trkpt lat="45.74171" lon="5.5473">
        <ele>437.52591323053</ele>
        <time>2015-05-15T13:50:21Z</time>
      </trkpt>
      <trkpt lat="45.74171" lon="5.5473">
        <ele>437.52591323053</ele>
        <time>2015-05-15T13:50:26Z</time>
      </trkpt>
      <trkpt lat="45.74171" lon="5.5473">
        <ele>437.52591323053</ele>
        <time>2015-05-15T13:50:31Z</time>
      </trkpt>
      <trkpt lat="45.74171" lon="5.5473">
        <ele>437.52591323053</ele>
        <time>2015-05-15T13:50:36Z</time>
      </trkpt>
      <trkpt lat="45.74171" lon="5.5473">
        <ele>437.52591323053</ele>
        <time>2015-05-15T13:50:41Z</time>
      </trkpt>
      <trkpt lat="45.74171" lon="5.5473">
        <ele>437.52591323053</ele>
        <time>2015-05-15T13:50:46Z</time>
      </trkpt>
      <trkpt lat="45.7417" lon="5.5473">
        <ele>437.52591323053</ele>
        <time>2015-05-15T13:50:51Z</time>
      </trkpt>
      <trkpt lat="45.7417" lon="5.5473">
        <ele>437.52591323053</ele>
        <time>2015-05-15T13:50:56Z</time>
      </trkpt>
      <trkpt lat="45.7417" lon="5.5473">
        <ele>437.52591323053</ele>
        <time>2015-05-15T13:51:01Z</time>
      </trkpt>
      <trkpt lat="45.7417" lon="5.5473">
        <ele>437.52591323053</ele>
        <time>2015-05-15T13:51:06Z</time>
      </trkpt>
      <trkpt lat="45.7417" lon="5.5473">
        <ele>437.52591323053</ele>
        <time>2015-05-15T13:51:11Z</time>
      </trkpt>
      <trkpt lat="45.7417" lon="5.5473">
        <ele>437.52591323053</ele>
        <time>2015-05-15T13:51:16Z</time>
      </trkpt>
      <trkpt lat="45.7417" lon="5.5473">
        <ele>437.52591323053</ele>
        <time>2015-05-15T13:51:21Z</time>
      </trkpt>
      <trkpt lat="45.7417" lon="5.5473">
        <ele>437.52591323053</ele>
        <time>2015-05-15T13:51:26Z</time>
      </trkpt>
      <trkpt lat="45.7417" lon="5.5473">
        <ele>437.52591323053</ele>
        <time>2015-05-15T13:51:31Z</time>
      </trkpt>
      <trkpt lat="45.7417" lon="5.5473">
        <ele>437.52591323053</ele>
        <time>2015-05-15T13:51:36Z</time>
      </trkpt>
      <trkpt lat="45.7417" lon="5.5473">
        <ele>437.52591323053</ele>
        <time>2015-05-15T13:51:41Z</time>
      </trkpt>
      <trkpt lat="45.74171" lon="5.5473">
        <ele>437.52591323053</ele>
        <time>2015-05-15T13:51:46Z</time>
      </trkpt>
      <trkpt lat="45.74171" lon="5.5473">
        <ele>437.52591323053</ele>
        <time>2015-05-15T13:51:51Z</time>
      </trkpt>
      <trkpt lat="45.74171" lon="5.5473">
        <ele>437.52591323053</ele>
        <time>2015-05-15T13:51:56Z</time>
      </trkpt>
      <trkpt lat="45.74171" lon="5.5473">
        <ele>437.52591323053</ele>
        <time>2015-05-15T13:52:01Z</time>
      </trkpt>
      <trkpt lat="45.74171" lon="5.5473">
        <ele>437.52591323053</ele>
        <time>2015-05-15T13:52:06Z</time>
      </trkpt>
      <trkpt lat="45.74171" lon="5.5473">
        <ele>437.52591323053</ele>
        <time>2015-05-15T13:52:11Z</time>
      </trkpt>
      <trkpt lat="45.74171" lon="5.5473">
        <ele>437.52591323053</ele>
        <time>2015-05-15T13:52:16Z</time>
      </trkpt>
      <trkpt lat="45.74171" lon="5.5473">
        <ele>437.52591323053</ele>
        <time>2015-05-15T13:52:21Z</time>
      </trkpt>
      <trkpt lat="45.74171" lon="5.5473">
        <ele>437.52591323053</ele>
        <time>2015-05-15T13:52:26Z</time>
      </trkpt>
      <trkpt lat="45.7417" lon="5.5473">
        <ele>437.52591323053</ele>
        <time>2015-05-15T13:52:31Z</time>
      </trkpt>
      <trkpt lat="45.7417" lon="5.5473">
        <ele>437.52591323053</ele>
        <time>2015-05-15T13:52:36Z</time>
      </trkpt>
      <trkpt lat="45.7417" lon="5.5473">
        <ele>437.52591323053</ele>
        <time>2015-05-15T13:52:41Z</time>
      </trkpt>
      <trkpt lat="45.7417" lon="5.5473">
        <ele>437.52591323053</ele>
        <time>2015-05-15T13:52:46Z</time>
      </trkpt>
      <trkpt lat="45.7417" lon="5.54728">
        <ele>437.52591323053</ele>
        <time>2015-05-15T13:52:51Z</time>
      </trkpt>
      <trkpt lat="45.74169" lon="5.5473">
        <ele>437.52591323053</ele>
        <time>2015-05-15T13:52:56Z</time>
      </trkpt>
      <trkpt lat="45.74169" lon="5.54729">
        <ele>437.52591323053</ele>
        <time>2015-05-15T13:53:01Z</time>
      </trkpt>
      <trkpt lat="45.74168" lon="5.54727">
        <ele>437.52591323053</ele>
        <time>2015-05-15T13:53:06Z</time>
      </trkpt>
      <trkpt lat="45.74167" lon="5.54726">
        <ele>438.36421368315</ele>
        <time>2015-05-15T13:53:11Z</time>
      </trkpt>
      <trkpt lat="45.74167" lon="5.54727">
        <ele>438.36421368315</ele>
        <time>2015-05-15T13:53:16Z</time>
      </trkpt>
      <trkpt lat="45.74167" lon="5.54728">
        <ele>438.36421368315</ele>
        <time>2015-05-15T13:53:21Z</time>
      </trkpt>
      <trkpt lat="45.74167" lon="5.54728">
        <ele>438.36421368315</ele>
        <time>2015-05-15T13:53:26Z</time>
      </trkpt>
      <trkpt lat="45.74167" lon="5.54728">
        <ele>438.36421368315</ele>
        <time>2015-05-15T13:53:31Z</time>
      </trkpt>
      <trkpt lat="45.74167" lon="5.54728">
        <ele>438.36421368315</ele>
        <time>2015-05-15T13:53:36Z</time>
      </trkpt>
      <trkpt lat="45.74167" lon="5.54728">
        <ele>438.36421368315</ele>
        <time>2015-05-15T13:53:41Z</time>
      </trkpt>
      <trkpt lat="45.7417" lon="5.54729">
        <ele>438.36421368315</ele>
        <time>2015-05-15T13:53:46Z</time>
      </trkpt>
      <trkpt lat="45.74169" lon="5.54728">
        <ele>438.36421368315</ele>
        <time>2015-05-15T13:53:51Z</time>
      </trkpt>
      <trkpt lat="45.74169" lon="5.54728">
        <ele>438.36421368315</ele>
        <time>2015-05-15T13:53:56Z</time>
      </trkpt>
      <trkpt lat="45.74169" lon="5.54728">
        <ele>438.36421368315</ele>
        <time>2015-05-15T13:54:01Z</time>
      </trkpt>
      <trkpt lat="45.74169" lon="5.54728">
        <ele>438.36421368315</ele>
        <time>2015-05-15T13:54:06Z</time>
      </trkpt>
      <trkpt lat="45.74169" lon="5.54728">
        <ele>438.36421368315</ele>
        <time>2015-05-15T13:54:11Z</time>
      </trkpt>
      <trkpt lat="45.74169" lon="5.54728">
        <ele>438.36421368315</ele>
        <time>2015-05-15T13:54:16Z</time>
      </trkpt>
      <trkpt lat="45.74169" lon="5.54728">
        <ele>438.36421368315</ele>
        <time>2015-05-15T13:54:21Z</time>
      </trkpt>
      <trkpt lat="45.74169" lon="5.54728">
        <ele>438.36421368315</ele>
        <time>2015-05-15T13:54:26Z</time>
      </trkpt>
      <trkpt lat="45.74169" lon="5.54728">
        <ele>438.36421368315</ele>
        <time>2015-05-15T13:54:31Z</time>
      </trkpt>
      <trkpt lat="45.74169" lon="5.54728">
        <ele>438.36421368315</ele>
        <time>2015-05-15T13:54:36Z</time>
      </trkpt>
      <trkpt lat="45.74169" lon="5.54728">
        <ele>438.36421368315</ele>
        <time>2015-05-15T13:54:41Z</time>
      </trkpt>
      <trkpt lat="45.74169" lon="5.54728">
        <ele>438.36421368315</ele>
        <time>2015-05-15T13:54:46Z</time>
      </trkpt>
      <trkpt lat="45.74169" lon="5.54728">
        <ele>438.36421368315</ele>
        <time>2015-05-15T13:54:51Z</time>
      </trkpt>
      <trkpt lat="45.74169" lon="5.54728">
        <ele>438.36421368315</ele>
        <time>2015-05-15T13:54:56Z</time>
      </trkpt>
      <trkpt lat="45.74169" lon="5.54728">
        <ele>438.36421368315</ele>
        <time>2015-05-15T13:55:01Z</time>
      </trkpt>
      <trkpt lat="45.74169" lon="5.54728">
        <ele>438.36421368315</ele>
        <time>2015-05-15T13:55:06Z</time>
      </trkpt>
      <trkpt lat="45.74169" lon="5.54728">
        <ele>438.36421368315</ele>
        <time>2015-05-15T13:55:11Z</time>
      </trkpt>
      <trkpt lat="45.74169" lon="5.54728">
        <ele>438.36421368315</ele>
        <time>2015-05-15T13:55:16Z</time>
      </trkpt>
      <trkpt lat="45.74169" lon="5.54728">
        <ele>438.36421368315</ele>
        <time>2015-05-15T13:55:21Z</time>
      </trkpt>
      <trkpt lat="45.74169" lon="5.54728">
        <ele>438.36421368315</ele>
        <time>2015-05-15T13:55:26Z</time>
      </trkpt>
      <trkpt lat="45.74169" lon="5.54728">
        <ele>438.36421368315</ele>
        <time>2015-05-15T13:55:31Z</time>
      </trkpt>
      <trkpt lat="45.74169" lon="5.54728">
        <ele>438.36421368315</ele>
        <time>2015-05-15T13:55:36Z</time>
      </trkpt>
      <trkpt lat="45.74169" lon="5.54728">
        <ele>438.36421368315</ele>
        <time>2015-05-15T13:55:41Z</time>
      </trkpt>
      <trkpt lat="45.74169" lon="5.54728">
        <ele>438.36421368315</ele>
        <time>2015-05-15T13:55:46Z</time>
      </trkpt>
      <trkpt lat="45.74169" lon="5.54728">
        <ele>438.36421368315</ele>
        <time>2015-05-15T13:55:51Z</time>
      </trkpt>
      <trkpt lat="45.74169" lon="5.54728">
        <ele>438.36421368315</ele>
        <time>2015-05-15T13:55:56Z</time>
      </trkpt>
      <trkpt lat="45.74169" lon="5.54728">
        <ele>438.36421368315</ele>
        <time>2015-05-15T13:56:01Z</time>
      </trkpt>
      <trkpt lat="45.74166" lon="5.54728">
        <ele>439.19655235627</ele>
        <time>2015-05-15T13:56:06Z</time>
      </trkpt>
      <trkpt lat="45.74165" lon="5.54727">
        <ele>439.19655235627</ele>
        <time>2015-05-15T13:56:11Z</time>
      </trkpt>
      <trkpt lat="45.74166" lon="5.54727">
        <ele>439.19655235627</ele>
        <time>2015-05-15T13:56:16Z</time>
      </trkpt>
      <trkpt lat="45.74168" lon="5.54729">
        <ele>439.19655235627</ele>
        <time>2015-05-15T13:56:21Z</time>
      </trkpt>
      <trkpt lat="45.74168" lon="5.54729">
        <ele>439.19655235627</ele>
        <time>2015-05-15T13:56:26Z</time>
      </trkpt>
      <trkpt lat="45.74168" lon="5.5473">
        <ele>439.19655235627</ele>
        <time>2015-05-15T13:56:31Z</time>
      </trkpt>
      <trkpt lat="45.74168" lon="5.54731">
        <ele>439.19655235627</ele>
        <time>2015-05-15T13:56:36Z</time>
      </trkpt>
      <trkpt lat="45.74168" lon="5.54732">
        <ele>439.19655235627</ele>
        <time>2015-05-15T13:56:41Z</time>
      </trkpt>
      <trkpt lat="45.74168" lon="5.54732">
        <ele>439.19655235627</ele>
        <time>2015-05-15T13:56:46Z</time>
      </trkpt>
      <trkpt lat="45.74168" lon="5.54732">
        <ele>439.19655235627</ele>
        <time>2015-05-15T13:56:51Z</time>
      </trkpt>
      <trkpt lat="45.74168" lon="5.54732">
        <ele>439.19655235627</ele>
        <time>2015-05-15T13:56:56Z</time>
      </trkpt>
      <trkpt lat="45.74168" lon="5.54733">
        <ele>439.19655235627</ele>
        <time>2015-05-15T13:57:01Z</time>
      </trkpt>
      <trkpt lat="45.74173" lon="5.54738">
        <ele>439.54538149733</ele>
        <time>2015-05-15T13:57:06Z</time>
      </trkpt>
      <trkpt lat="45.74177" lon="5.54737">
        <ele>439.54538149733</ele>
        <time>2015-05-15T13:57:11Z</time>
      </trkpt>
      <trkpt lat="45.74175" lon="5.54736">
        <ele>439.54538149733</ele>
        <time>2015-05-15T13:57:16Z</time>
      </trkpt>
      <trkpt lat="45.74176" lon="5.54736">
        <ele>439.54538149733</ele>
        <time>2015-05-15T13:57:21Z</time>
      </trkpt>
      <trkpt lat="45.74177" lon="5.54735">
        <ele>439.54538149733</ele>
        <time>2015-05-15T13:57:26Z</time>
      </trkpt>
      <trkpt lat="45.74176" lon="5.54734">
        <ele>439.54538149733</ele>
        <time>2015-05-15T13:57:31Z</time>
      </trkpt>
      <trkpt lat="45.74176" lon="5.54734">
        <ele>440.97271119515</ele>
        <time>2015-05-15T13:57:36Z</time>
      </trkpt>
      <trkpt lat="45.74176" lon="5.54734">
        <ele>440.97271119515</ele>
        <time>2015-05-15T13:57:41Z</time>
      </trkpt>
      <trkpt lat="45.74176" lon="5.54734">
        <ele>440.97271119515</ele>
        <time>2015-05-15T13:57:46Z</time>
      </trkpt>
      <trkpt lat="45.74175" lon="5.54734">
        <ele>440.97271119515</ele>
        <time>2015-05-15T13:57:51Z</time>
      </trkpt>
      <trkpt lat="45.74174" lon="5.54735">
        <ele>440.97271119515</ele>
        <time>2015-05-15T13:57:56Z</time>
      </trkpt>
      <trkpt lat="45.74171" lon="5.54736">
        <ele>440.97271119515</ele>
        <time>2015-05-15T13:58:01Z</time>
      </trkpt>
      <trkpt lat="45.74164" lon="5.54736">
        <ele>441.76673197817</ele>
        <time>2015-05-15T13:58:06Z</time>
      </trkpt>
      <trkpt lat="45.7416" lon="5.54743">
        <ele>441.76673197817</ele>
        <time>2015-05-15T13:58:11Z</time>
      </trkpt>
      <trkpt lat="45.74158" lon="5.54744">
        <ele>441.76673197817</ele>
        <time>2015-05-15T13:58:16Z</time>
      </trkpt>
      <trkpt lat="45.74158" lon="5.54744">
        <ele>441.76673197817</ele>
        <time>2015-05-15T13:58:21Z</time>
      </trkpt>
      <trkpt lat="45.74158" lon="5.54745">
        <ele>441.76673197817</ele>
        <time>2015-05-15T13:58:26Z</time>
      </trkpt>
      <trkpt lat="45.74156" lon="5.54746">
        <ele>442.73539875661</ele>
        <time>2015-05-15T13:58:31Z</time>
      </trkpt>
      <trkpt lat="45.74156" lon="5.54746">
        <ele>442.73539875661</ele>
        <time>2015-05-15T13:58:36Z</time>
      </trkpt>
      <trkpt lat="45.74155" lon="5.54747">
        <ele>442.73539875661</ele>
        <time>2015-05-15T13:58:41Z</time>
      </trkpt>
      <trkpt lat="45.74156" lon="5.54747">
        <ele>442.73539875661</ele>
        <time>2015-05-15T13:58:46Z</time>
      </trkpt>
      <trkpt lat="45.74155" lon="5.54747">
        <ele>442.73539875661</ele>
        <time>2015-05-15T13:58:51Z</time>
      </trkpt>
      <trkpt lat="45.74156" lon="5.54747">
        <ele>442.73539875661</ele>
        <time>2015-05-15T13:58:56Z</time>
      </trkpt>
      <trkpt lat="45.74156" lon="5.54746">
        <ele>442.73539875661</ele>
        <time>2015-05-15T13:59:01Z</time>
      </trkpt>
      <trkpt lat="45.74156" lon="5.54746">
        <ele>442.73539875661</ele>
        <time>2015-05-15T13:59:06Z</time>
      </trkpt>
      <trkpt lat="45.74156" lon="5.54747">
        <ele>442.73539875661</ele>
        <time>2015-05-15T13:59:11Z</time>
      </trkpt>
      <trkpt lat="45.74156" lon="5.54749">
        <ele>442.73539875661</ele>
        <time>2015-05-15T13:59:16Z</time>
      </trkpt>
      <trkpt lat="45.74156" lon="5.54748">
        <ele>442.73539875661</ele>
        <time>2015-05-15T13:59:21Z</time>
      </trkpt>
      <trkpt lat="45.74156" lon="5.54749">
        <ele>442.73539875661</ele>
        <time>2015-05-15T13:59:26Z</time>
      </trkpt>
      <trkpt lat="45.74156" lon="5.54749">
        <ele>442.73539875661</ele>
        <time>2015-05-15T13:59:31Z</time>
      </trkpt>
      <trkpt lat="45.74156" lon="5.54749">
        <ele>442.73539875661</ele>
        <time>2015-05-15T13:59:36Z</time>
      </trkpt>
      <trkpt lat="45.74156" lon="5.54749">
        <ele>442.73539875661</ele>
        <time>2015-05-15T13:59:41Z</time>
      </trkpt>
      <trkpt lat="45.74156" lon="5.54749">
        <ele>442.73539875661</ele>
        <time>2015-05-15T13:59:46Z</time>
      </trkpt>
      <trkpt lat="45.74156" lon="5.54749">
        <ele>442.73539875661</ele>
        <time>2015-05-15T13:59:51Z</time>
      </trkpt>
      <trkpt lat="45.74156" lon="5.54749">
        <ele>442.73539875661</ele>
        <time>2015-05-15T13:59:56Z</time>
      </trkpt>
      <trkpt lat="45.74156" lon="5.54749">
        <ele>442.73539875661</ele>
        <time>2015-05-15T14:00:01Z</time>
      </trkpt>
      <trkpt lat="45.74156" lon="5.54749">
        <ele>442.73539875661</ele>
        <time>2015-05-15T14:00:06Z</time>
      </trkpt>
      <trkpt lat="45.74156" lon="5.54749">
        <ele>442.73539875661</ele>
        <time>2015-05-15T14:00:11Z</time>
      </trkpt>
      <trkpt lat="45.74156" lon="5.54749">
        <ele>442.73539875661</ele>
        <time>2015-05-15T14:00:16Z</time>
      </trkpt>
      <trkpt lat="45.74156" lon="5.54748">
        <ele>442.73539875661</ele>
        <time>2015-05-15T14:00:21Z</time>
      </trkpt>
      <trkpt lat="45.74159" lon="5.54748">
        <ele>443.54599326682</ele>
        <time>2015-05-15T14:00:26Z</time>
      </trkpt>
      <trkpt lat="45.74159" lon="5.54749">
        <ele>443.54599326682</ele>
        <time>2015-05-15T14:00:31Z</time>
      </trkpt>
      <trkpt lat="45.74159" lon="5.54749">
        <ele>443.54599326682</ele>
        <time>2015-05-15T14:00:36Z</time>
      </trkpt>
      <trkpt lat="45.74158" lon="5.54748">
        <ele>443.54599326682</ele>
        <time>2015-05-15T14:00:41Z</time>
      </trkpt>
      <trkpt lat="45.74159" lon="5.54749">
        <ele>443.54599326682</ele>
        <time>2015-05-15T14:00:46Z</time>
      </trkpt>
      <trkpt lat="45.74159" lon="5.54749">
        <ele>443.54599326682</ele>
        <time>2015-05-15T14:00:51Z</time>
      </trkpt>
      <trkpt lat="45.74159" lon="5.5475">
        <ele>443.54599326682</ele>
        <time>2015-05-15T14:00:56Z</time>
      </trkpt>
      <trkpt lat="45.74161" lon="5.54749">
        <ele>443.54599326682</ele>
        <time>2015-05-15T14:01:01Z</time>
      </trkpt>
      <trkpt lat="45.7416" lon="5.5475">
        <ele>443.54599326682</ele>
        <time>2015-05-15T14:01:06Z</time>
      </trkpt>
      <trkpt lat="45.74161" lon="5.5475">
        <ele>443.54599326682</ele>
        <time>2015-05-15T14:01:11Z</time>
      </trkpt>
      <trkpt lat="45.74161" lon="5.54751">
        <ele>443.54599326682</ele>
        <time>2015-05-15T14:01:16Z</time>
      </trkpt>
      <trkpt lat="45.74162" lon="5.54751">
        <ele>443.54599326682</ele>
        <time>2015-05-15T14:01:21Z</time>
      </trkpt>
      <trkpt lat="45.74162" lon="5.5475">
        <ele>443.54599326682</ele>
        <time>2015-05-15T14:01:26Z</time>
      </trkpt>
      <trkpt lat="45.74162" lon="5.5475">
        <ele>443.54599326682</ele>
        <time>2015-05-15T14:01:31Z</time>
      </trkpt>
      <trkpt lat="45.74162" lon="5.5475">
        <ele>443.54599326682</ele>
        <time>2015-05-15T14:01:36Z</time>
      </trkpt>
      <trkpt lat="45.74162" lon="5.5475">
        <ele>443.54599326682</ele>
        <time>2015-05-15T14:01:41Z</time>
      </trkpt>
      <trkpt lat="45.74161" lon="5.54749">
        <ele>443.54599326682</ele>
        <time>2015-05-15T14:01:46Z</time>
      </trkpt>
      <trkpt lat="45.74163" lon="5.54747">
        <ele>443.71775807558</ele>
        <time>2015-05-15T14:01:51Z</time>
      </trkpt>
      <trkpt lat="45.74166" lon="5.54741">
        <ele>443.71775807558</ele>
        <time>2015-05-15T14:01:56Z</time>
      </trkpt>
      <trkpt lat="45.74169" lon="5.54735">
        <ele>443.84465867439</ele>
        <time>2015-05-15T14:02:01Z</time>
      </trkpt>
      <trkpt lat="45.74168" lon="5.54735">
        <ele>443.84465867439</ele>
        <time>2015-05-15T14:02:06Z</time>
      </trkpt>
      <trkpt lat="45.74168" lon="5.54735">
        <ele>443.84465867439</ele>
        <time>2015-05-15T14:02:11Z</time>
      </trkpt>
      <trkpt lat="45.74167" lon="5.54736">
        <ele>443.84465867439</ele>
        <time>2015-05-15T14:02:16Z</time>
      </trkpt>
      <trkpt lat="45.74167" lon="5.54736">
        <ele>443.84465867439</ele>
        <time>2015-05-15T14:02:21Z</time>
      </trkpt>
      <trkpt lat="45.74169" lon="5.54732">
        <ele>443.84465867439</ele>
        <time>2015-05-15T14:02:26Z</time>
      </trkpt>
      <trkpt lat="45.74173" lon="5.54725">
        <ele>444.07366012981</ele>
        <time>2015-05-15T14:02:31Z</time>
      </trkpt>
      <trkpt lat="45.74178" lon="5.54718">
        <ele>444.07366012981</ele>
        <time>2015-05-15T14:02:36Z</time>
      </trkpt>
      <trkpt lat="45.74182" lon="5.54714">
        <ele>444.03627425916</ele>
        <time>2015-05-15T14:02:41Z</time>
      </trkpt>
      <trkpt lat="45.74185" lon="5.54708">
        <ele>444.03627425916</ele>
        <time>2015-05-15T14:02:46Z</time>
      </trkpt>
      <trkpt lat="45.74191" lon="5.54701">
        <ele>443.85300246038</ele>
        <time>2015-05-15T14:02:51Z</time>
      </trkpt>
      <trkpt lat="45.74196" lon="5.54694">
        <ele>443.85300246038</ele>
        <time>2015-05-15T14:02:57Z</time>
      </trkpt>
      <trkpt lat="45.74199" lon="5.54687">
        <ele>443.89532033644</ele>
        <time>2015-05-15T14:03:01Z</time>
      </trkpt>
      <trkpt lat="45.74203" lon="5.54678">
        <ele>443.89532033644</ele>
        <time>2015-05-15T14:03:06Z</time>
      </trkpt>
      <trkpt lat="45.74206" lon="5.54671">
        <ele>443.9303532087</ele>
        <time>2015-05-15T14:03:11Z</time>
      </trkpt>
      <trkpt lat="45.74209" lon="5.54663">
        <ele>443.9303532087</ele>
        <time>2015-05-15T14:03:16Z</time>
      </trkpt>
      <trkpt lat="45.74211" lon="5.54656">
        <ele>443.814423244</ele>
        <time>2015-05-15T14:03:21Z</time>
      </trkpt>
      <trkpt lat="45.74215" lon="5.54647">
        <ele>443.814423244</ele>
        <time>2015-05-15T14:03:26Z</time>
      </trkpt>
      <trkpt lat="45.74217" lon="5.54638">
        <ele>443.84717683466</ele>
        <time>2015-05-15T14:03:31Z</time>
      </trkpt>
      <trkpt lat="45.74221" lon="5.54631">
        <ele>443.84717683466</ele>
        <time>2015-05-15T14:03:36Z</time>
      </trkpt>
      <trkpt lat="45.74223" lon="5.54623">
        <ele>443.54205338577</ele>
        <time>2015-05-15T14:03:41Z</time>
      </trkpt>
      <trkpt lat="45.74225" lon="5.54612">
        <ele>443.54205338577</ele>
        <time>2015-05-15T14:03:46Z</time>
      </trkpt>
      <trkpt lat="45.74227" lon="5.54602">
        <ele>443.58767060474</ele>
        <time>2015-05-15T14:03:51Z</time>
      </trkpt>
      <trkpt lat="45.74228" lon="5.54592">
        <ele>443.58767060474</ele>
        <time>2015-05-15T14:03:57Z</time>
      </trkpt>
      <trkpt lat="45.74229" lon="5.54584">
        <ele>443.52584013359</ele>
        <time>2015-05-15T14:04:01Z</time>
      </trkpt>
      <trkpt lat="45.74232" lon="5.54577">
        <ele>443.52584013359</ele>
        <time>2015-05-15T14:04:06Z</time>
      </trkpt>
      <trkpt lat="45.74236" lon="5.54569">
        <ele>443.01880599294</ele>
        <time>2015-05-15T14:04:11Z</time>
      </trkpt>
      <trkpt lat="45.74241" lon="5.54561">
        <ele>443.01880599294</ele>
        <time>2015-05-15T14:04:16Z</time>
      </trkpt>
      <trkpt lat="45.74246" lon="5.54553">
        <ele>442.61954307706</ele>
        <time>2015-05-15T14:04:21Z</time>
      </trkpt>
      <trkpt lat="45.74252" lon="5.54546">
        <ele>442.61954307706</ele>
        <time>2015-05-15T14:04:26Z</time>
      </trkpt>
      <trkpt lat="45.74255" lon="5.54541">
        <ele>442.14836985339</ele>
        <time>2015-05-15T14:04:31Z</time>
      </trkpt>
      <trkpt lat="45.74258" lon="5.54537">
        <ele>442.14836985339</ele>
        <time>2015-05-15T14:04:36Z</time>
      </trkpt>
      <trkpt lat="45.74259" lon="5.54533">
        <ele>442.14836985339</ele>
        <time>2015-05-15T14:04:41Z</time>
      </trkpt>
      <trkpt lat="45.74259" lon="5.54532">
        <ele>442.14836985339</ele>
        <time>2015-05-15T14:04:46Z</time>
      </trkpt>
      <trkpt lat="45.74259" lon="5.54532">
        <ele>442.14836985339</ele>
        <time>2015-05-15T14:04:51Z</time>
      </trkpt>
      <trkpt lat="45.74259" lon="5.54531">
        <ele>442.14836985339</ele>
        <time>2015-05-15T14:04:56Z</time>
      </trkpt>
      <trkpt lat="45.74259" lon="5.54531">
        <ele>442.14836985339</ele>
        <time>2015-05-15T14:05:01Z</time>
      </trkpt>
      <trkpt lat="45.74259" lon="5.5453">
        <ele>441.82810337489</ele>
        <time>2015-05-15T14:05:06Z</time>
      </trkpt>
      <trkpt lat="45.74262" lon="5.54525">
        <ele>441.82810337489</ele>
        <time>2015-05-15T14:05:11Z</time>
      </trkpt>
      <trkpt lat="45.74266" lon="5.54519">
        <ele>441.3315517488</ele>
        <time>2015-05-15T14:05:16Z</time>
      </trkpt>
      <trkpt lat="45.74271" lon="5.54512">
        <ele>441.3315517488</ele>
        <time>2015-05-15T14:05:21Z</time>
      </trkpt>
      <trkpt lat="45.74275" lon="5.54505">
        <ele>440.81719904692</ele>
        <time>2015-05-15T14:05:26Z</time>
      </trkpt>
      <trkpt lat="45.7428" lon="5.54498">
        <ele>440.81719904692</ele>
        <time>2015-05-15T14:05:31Z</time>
      </trkpt>
      <trkpt lat="45.74284" lon="5.54492">
        <ele>440.24457964798</ele>
        <time>2015-05-15T14:05:36Z</time>
      </trkpt>
      <trkpt lat="45.74289" lon="5.54486">
        <ele>440.24457964798</ele>
        <time>2015-05-15T14:05:41Z</time>
      </trkpt>
      <trkpt lat="45.74292" lon="5.54478">
        <ele>439.97985949117</ele>
        <time>2015-05-15T14:05:46Z</time>
      </trkpt>
      <trkpt lat="45.74297" lon="5.5447">
        <ele>439.97985949117</ele>
        <time>2015-05-15T14:05:51Z</time>
      </trkpt>
      <trkpt lat="45.74301" lon="5.54462">
        <ele>440.01555791654</ele>
        <time>2015-05-15T14:05:56Z</time>
      </trkpt>
      <trkpt lat="45.74306" lon="5.54457">
        <ele>440.01555791654</ele>
        <time>2015-05-15T14:06:01Z</time>
      </trkpt>
      <trkpt lat="45.74309" lon="5.5445">
        <ele>439.83949298416</ele>
        <time>2015-05-15T14:06:06Z</time>
      </trkpt>
      <trkpt lat="45.74315" lon="5.54449">
        <ele>439.83949298416</ele>
        <time>2015-05-15T14:06:11Z</time>
      </trkpt>
      <trkpt lat="45.74318" lon="5.5444">
        <ele>439.68382696699</ele>
        <time>2015-05-15T14:06:16Z</time>
      </trkpt>
      <trkpt lat="45.74318" lon="5.5443">
        <ele>439.68382696699</ele>
        <time>2015-05-15T14:06:21Z</time>
      </trkpt>
      <trkpt lat="45.7432" lon="5.54422">
        <ele>439.11509078999</ele>
        <time>2015-05-15T14:06:26Z</time>
      </trkpt>
      <trkpt lat="45.74322" lon="5.54413">
        <ele>439.11509078999</ele>
        <time>2015-05-15T14:06:31Z</time>
      </trkpt>
      <trkpt lat="45.74321" lon="5.54408">
        <ele>438.62628587253</ele>
        <time>2015-05-15T14:06:36Z</time>
      </trkpt>
      <trkpt lat="45.74321" lon="5.54406">
        <ele>438.62628587253</ele>
        <time>2015-05-15T14:06:41Z</time>
      </trkpt>
      <trkpt lat="45.74321" lon="5.54405">
        <ele>438.62628587253</ele>
        <time>2015-05-15T14:06:46Z</time>
      </trkpt>
      <trkpt lat="45.74321" lon="5.54405">
        <ele>438.62628587253</ele>
        <time>2015-05-15T14:06:51Z</time>
      </trkpt>
      <trkpt lat="45.74322" lon="5.54404">
        <ele>438.62628587253</ele>
        <time>2015-05-15T14:06:56Z</time>
      </trkpt>
      <trkpt lat="45.74324" lon="5.544">
        <ele>438.62628587253</ele>
        <time>2015-05-15T14:07:01Z</time>
      </trkpt>
      <trkpt lat="45.74325" lon="5.544">
        <ele>438.62628587253</ele>
        <time>2015-05-15T14:07:06Z</time>
      </trkpt>
      <trkpt lat="45.74325" lon="5.54399">
        <ele>438.90453168</ele>
        <time>2015-05-15T14:07:11Z</time>
      </trkpt>
      <trkpt lat="45.74325" lon="5.54398">
        <ele>438.90453168</ele>
        <time>2015-05-15T14:07:16Z</time>
      </trkpt>
      <trkpt lat="45.74325" lon="5.54397">
        <ele>438.90453168</ele>
        <time>2015-05-15T14:07:21Z</time>
      </trkpt>
      <trkpt lat="45.74323" lon="5.54396">
        <ele>438.90453168</ele>
        <time>2015-05-15T14:07:26Z</time>
      </trkpt>
      <trkpt lat="45.74327" lon="5.54392">
        <ele>438.90453168</ele>
        <time>2015-05-15T14:07:31Z</time>
      </trkpt>
      <trkpt lat="45.7433" lon="5.54385">
        <ele>439.63316794612</ele>
        <time>2015-05-15T14:07:36Z</time>
      </trkpt>
      <trkpt lat="45.7433" lon="5.54377">
        <ele>439.63316794612</ele>
        <time>2015-05-15T14:07:41Z</time>
      </trkpt>
      <trkpt lat="45.74333" lon="5.54371">
        <ele>439.81137100079</ele>
        <time>2015-05-15T14:07:46Z</time>
      </trkpt>
      <trkpt lat="45.74334" lon="5.54364">
        <ele>439.81137100079</ele>
        <time>2015-05-15T14:07:51Z</time>
      </trkpt>
      <trkpt lat="45.74335" lon="5.54356">
        <ele>439.94006847381</ele>
        <time>2015-05-15T14:07:56Z</time>
      </trkpt>
      <trkpt lat="45.74338" lon="5.54348">
        <ele>439.94006847381</ele>
        <time>2015-05-15T14:08:01Z</time>
      </trkpt>
      <trkpt lat="45.7434" lon="5.5434">
        <ele>439.93589716474</ele>
        <time>2015-05-15T14:08:06Z</time>
      </trkpt>
      <trkpt lat="45.74342" lon="5.54333">
        <ele>439.93589716474</ele>
        <time>2015-05-15T14:08:11Z</time>
      </trkpt>
      <trkpt lat="45.74345" lon="5.54327">
        <ele>440.08226200952</ele>
        <time>2015-05-15T14:08:16Z</time>
      </trkpt>
      <trkpt lat="45.74348" lon="5.54319">
        <ele>440.08226200952</ele>
        <time>2015-05-15T14:08:21Z</time>
      </trkpt>
      <trkpt lat="45.74349" lon="5.54312">
        <ele>440.03605528727</ele>
        <time>2015-05-15T14:08:26Z</time>
      </trkpt>
      <trkpt lat="45.74351" lon="5.54304">
        <ele>440.03605528727</ele>
        <time>2015-05-15T14:08:31Z</time>
      </trkpt>
      <trkpt lat="45.74355" lon="5.54296">
        <ele>439.76813247481</ele>
        <time>2015-05-15T14:08:36Z</time>
      </trkpt>
      <trkpt lat="45.74359" lon="5.54287">
        <ele>439.76813247481</ele>
        <time>2015-05-15T14:08:41Z</time>
      </trkpt>
      <trkpt lat="45.74361" lon="5.5428">
        <ele>439.46827503996</ele>
        <time>2015-05-15T14:08:46Z</time>
      </trkpt>
      <trkpt lat="45.74364" lon="5.54272">
        <ele>439.46827503996</ele>
        <time>2015-05-15T14:08:51Z</time>
      </trkpt>
      <trkpt lat="45.74367" lon="5.54265">
        <ele>438.88007461251</ele>
        <time>2015-05-15T14:08:56Z</time>
      </trkpt>
      <trkpt lat="45.74372" lon="5.54257">
        <ele>438.88007461251</ele>
        <time>2015-05-15T14:09:01Z</time>
      </trkpt>
      <trkpt lat="45.74376" lon="5.54249">
        <ele>438.31438302321</ele>
        <time>2015-05-15T14:09:06Z</time>
      </trkpt>
      <trkpt lat="45.74381" lon="5.54243">
        <ele>438.31438302321</ele>
        <time>2015-05-15T14:09:11Z</time>
      </trkpt>
      <trkpt lat="45.74386" lon="5.54237">
        <ele>437.68445530468</ele>
        <time>2015-05-15T14:09:16Z</time>
      </trkpt>
      <trkpt lat="45.74392" lon="5.5423">
        <ele>437.68445530468</ele>
        <time>2015-05-15T14:09:21Z</time>
      </trkpt>
      <trkpt lat="45.74397" lon="5.54222">
        <ele>437.52976482983</ele>
        <time>2015-05-15T14:09:26Z</time>
      </trkpt>
      <trkpt lat="45.74403" lon="5.54214">
        <ele>437.52976482983</ele>
        <time>2015-05-15T14:09:31Z</time>
      </trkpt>
      <trkpt lat="45.74406" lon="5.54206">
        <ele>437.25356310778</ele>
        <time>2015-05-15T14:09:36Z</time>
      </trkpt>
      <trkpt lat="45.74408" lon="5.54196">
        <ele>437.25356310778</ele>
        <time>2015-05-15T14:09:41Z</time>
      </trkpt>
      <trkpt lat="45.74412" lon="5.54187">
        <ele>437.25439770323</ele>
        <time>2015-05-15T14:09:46Z</time>
      </trkpt>
      <trkpt lat="45.74416" lon="5.54181">
        <ele>437.25439770323</ele>
        <time>2015-05-15T14:09:51Z</time>
      </trkpt>
      <trkpt lat="45.74419" lon="5.54186">
        <ele>437.33871343177</ele>
        <time>2015-05-15T14:09:56Z</time>
      </trkpt>
      <trkpt lat="45.74418" lon="5.54194">
        <ele>437.33871343177</ele>
        <time>2015-05-15T14:10:01Z</time>
      </trkpt>
      <trkpt lat="45.74416" lon="5.54197">
        <ele>437.33871343177</ele>
        <time>2015-05-15T14:10:06Z</time>
      </trkpt>
      <trkpt lat="45.74416" lon="5.54199">
        <ele>437.4854482544</ele>
        <time>2015-05-15T14:10:11Z</time>
      </trkpt>
      <trkpt lat="45.74416" lon="5.542">
        <ele>437.4854482544</ele>
        <time>2015-05-15T14:10:16Z</time>
      </trkpt>
      <trkpt lat="45.74416" lon="5.54201">
        <ele>437.4854482544</ele>
        <time>2015-05-15T14:10:21Z</time>
      </trkpt>
      <trkpt lat="45.74416" lon="5.54201">
        <ele>437.4854482544</ele>
        <time>2015-05-15T14:10:26Z</time>
      </trkpt>
      <trkpt lat="45.74416" lon="5.54201">
        <ele>437.4854482544</ele>
        <time>2015-05-15T14:10:31Z</time>
      </trkpt>
      <trkpt lat="45.74416" lon="5.54201">
        <ele>437.4854482544</ele>
        <time>2015-05-15T14:10:36Z</time>
      </trkpt>
      <trkpt lat="45.74416" lon="5.54203">
        <ele>437.4854482544</ele>
        <time>2015-05-15T14:10:41Z</time>
      </trkpt>
      <trkpt lat="45.74418" lon="5.54209">
        <ele>437.4854482544</ele>
        <time>2015-05-15T14:10:46Z</time>
      </trkpt>
      <trkpt lat="45.74422" lon="5.5422">
        <ele>437.96312386972</ele>
        <time>2015-05-15T14:10:51Z</time>
      </trkpt>
      <trkpt lat="45.74423" lon="5.54228">
        <ele>437.96312386972</ele>
        <time>2015-05-15T14:10:56Z</time>
      </trkpt>
      <trkpt lat="45.74426" lon="5.54241">
        <ele>439.40870292327</ele>
        <time>2015-05-15T14:11:01Z</time>
      </trkpt>
      <trkpt lat="45.74429" lon="5.54252">
        <ele>439.40870292327</ele>
        <time>2015-05-15T14:11:06Z</time>
      </trkpt>
      <trkpt lat="45.74432" lon="5.54262">
        <ele>441.15587706398</ele>
        <time>2015-05-15T14:11:11Z</time>
      </trkpt>
      <trkpt lat="45.74435" lon="5.5427">
        <ele>441.15587706398</ele>
        <time>2015-05-15T14:11:16Z</time>
      </trkpt>
      <trkpt lat="45.74439" lon="5.54276">
        <ele>442.67291733135</ele>
        <time>2015-05-15T14:11:21Z</time>
      </trkpt>
      <trkpt lat="45.74441" lon="5.54284">
        <ele>442.67291733135</ele>
        <time>2015-05-15T14:11:26Z</time>
      </trkpt>
      <trkpt lat="45.74445" lon="5.5429">
        <ele>444.02985799087</ele>
        <time>2015-05-15T14:11:31Z</time>
      </trkpt>
      <trkpt lat="45.74447" lon="5.54297">
        <ele>444.02985799087</ele>
        <time>2015-05-15T14:11:36Z</time>
      </trkpt>
      <trkpt lat="45.74447" lon="5.54304">
        <ele>445.85410744222</ele>
        <time>2015-05-15T14:11:41Z</time>
      </trkpt>
      <trkpt lat="45.74449" lon="5.54312">
        <ele>445.85410744222</ele>
        <time>2015-05-15T14:11:46Z</time>
      </trkpt>
      <trkpt lat="45.74453" lon="5.54319">
        <ele>447.77458842652</ele>
        <time>2015-05-15T14:11:51Z</time>
      </trkpt>
      <trkpt lat="45.74456" lon="5.54324">
        <ele>447.77458842652</ele>
        <time>2015-05-15T14:11:56Z</time>
      </trkpt>
      <trkpt lat="45.74459" lon="5.5433">
        <ele>449.67785001607</ele>
        <time>2015-05-15T14:12:01Z</time>
      </trkpt>
      <trkpt lat="45.7446" lon="5.54339">
        <ele>449.67785001607</ele>
        <time>2015-05-15T14:12:06Z</time>
      </trkpt>
      <trkpt lat="45.74461" lon="5.54348">
        <ele>451.99210608664</ele>
        <time>2015-05-15T14:12:11Z</time>
      </trkpt>
      <trkpt lat="45.74463" lon="5.54356">
        <ele>451.99210608664</ele>
        <time>2015-05-15T14:12:16Z</time>
      </trkpt>
      <trkpt lat="45.74462" lon="5.5436">
        <ele>451.99210608664</ele>
        <time>2015-05-15T14:12:21Z</time>
      </trkpt>
      <trkpt lat="45.74462" lon="5.54363">
        <ele>454.65188928768</ele>
        <time>2015-05-15T14:12:26Z</time>
      </trkpt>
      <trkpt lat="45.74464" lon="5.54368">
        <ele>454.65188928768</ele>
        <time>2015-05-15T14:12:31Z</time>
      </trkpt>
      <trkpt lat="45.74467" lon="5.54376">
        <ele>456.94716792966</ele>
        <time>2015-05-15T14:12:36Z</time>
      </trkpt>
      <trkpt lat="45.74468" lon="5.54382">
        <ele>456.94716792966</ele>
        <time>2015-05-15T14:12:41Z</time>
      </trkpt>
      <trkpt lat="45.74468" lon="5.54383">
        <ele>456.94716792966</ele>
        <time>2015-05-15T14:12:46Z</time>
      </trkpt>
      <trkpt lat="45.74468" lon="5.54384">
        <ele>456.94716792966</ele>
        <time>2015-05-15T14:12:51Z</time>
      </trkpt>
      <trkpt lat="45.74468" lon="5.54384">
        <ele>456.94716792966</ele>
        <time>2015-05-15T14:12:56Z</time>
      </trkpt>
      <trkpt lat="45.74468" lon="5.54384">
        <ele>456.94716792966</ele>
        <time>2015-05-15T14:13:01Z</time>
      </trkpt>
      <trkpt lat="45.74468" lon="5.54384">
        <ele>456.94716792966</ele>
        <time>2015-05-15T14:13:06Z</time>
      </trkpt>
      <trkpt lat="45.74468" lon="5.54384">
        <ele>456.94716792966</ele>
        <time>2015-05-15T14:13:11Z</time>
      </trkpt>
      <trkpt lat="45.74468" lon="5.54384">
        <ele>456.94716792966</ele>
        <time>2015-05-15T14:13:16Z</time>
      </trkpt>
      <trkpt lat="45.74469" lon="5.54386">
        <ele>456.94716792966</ele>
        <time>2015-05-15T14:13:21Z</time>
      </trkpt>
      <trkpt lat="45.74468" lon="5.54387">
        <ele>456.94716792966</ele>
        <time>2015-05-15T14:13:26Z</time>
      </trkpt>
      <trkpt lat="45.74469" lon="5.54386">
        <ele>456.94716792966</ele>
        <time>2015-05-15T14:13:31Z</time>
      </trkpt>
      <trkpt lat="45.74469" lon="5.54387">
        <ele>456.94716792966</ele>
        <time>2015-05-15T14:13:36Z</time>
      </trkpt>
      <trkpt lat="45.74469" lon="5.54387">
        <ele>456.94716792966</ele>
        <time>2015-05-15T14:13:41Z</time>
      </trkpt>
      <trkpt lat="45.74469" lon="5.54386">
        <ele>456.94716792966</ele>
        <time>2015-05-15T14:13:46Z</time>
      </trkpt>
      <trkpt lat="45.74469" lon="5.54387">
        <ele>456.94716792966</ele>
        <time>2015-05-15T14:13:51Z</time>
      </trkpt>
      <trkpt lat="45.74469" lon="5.54387">
        <ele>456.94716792966</ele>
        <time>2015-05-15T14:13:56Z</time>
      </trkpt>
      <trkpt lat="45.74469" lon="5.54387">
        <ele>456.94716792966</ele>
        <time>2015-05-15T14:14:01Z</time>
      </trkpt>
      <trkpt lat="45.74469" lon="5.54387">
        <ele>456.94716792966</ele>
        <time>2015-05-15T14:14:06Z</time>
      </trkpt>
      <trkpt lat="45.74469" lon="5.54387">
        <ele>456.94716792966</ele>
        <time>2015-05-15T14:14:11Z</time>
      </trkpt>
      <trkpt lat="45.74469" lon="5.54387">
        <ele>456.94716792966</ele>
        <time>2015-05-15T14:14:16Z</time>
      </trkpt>
      <trkpt lat="45.74469" lon="5.54387">
        <ele>456.94716792966</ele>
        <time>2015-05-15T14:14:21Z</time>
      </trkpt>
      <trkpt lat="45.74469" lon="5.54387">
        <ele>456.94716792966</ele>
        <time>2015-05-15T14:14:26Z</time>
      </trkpt>
      <trkpt lat="45.74469" lon="5.54387">
        <ele>456.94716792966</ele>
        <time>2015-05-15T14:14:31Z</time>
      </trkpt>
      <trkpt lat="45.74469" lon="5.54387">
        <ele>456.94716792966</ele>
        <time>2015-05-15T14:14:36Z</time>
      </trkpt>
      <trkpt lat="45.74469" lon="5.54387">
        <ele>456.94716792966</ele>
        <time>2015-05-15T14:14:41Z</time>
      </trkpt>
      <trkpt lat="45.74469" lon="5.54387">
        <ele>456.94716792966</ele>
        <time>2015-05-15T14:14:46Z</time>
      </trkpt>
      <trkpt lat="45.74469" lon="5.54387">
        <ele>456.94716792966</ele>
        <time>2015-05-15T14:14:51Z</time>
      </trkpt>
      <trkpt lat="45.74469" lon="5.54387">
        <ele>456.94716792966</ele>
        <time>2015-05-15T14:14:56Z</time>
      </trkpt>
      <trkpt lat="45.74467" lon="5.54389">
        <ele>459.38850011337</ele>
        <time>2015-05-15T14:15:01Z</time>
      </trkpt>
      <trkpt lat="45.74467" lon="5.54391">
        <ele>459.38850011337</ele>
        <time>2015-05-15T14:15:06Z</time>
      </trkpt>
      <trkpt lat="45.74467" lon="5.5439">
        <ele>459.38850011337</ele>
        <time>2015-05-15T14:15:11Z</time>
      </trkpt>
      <trkpt lat="45.74467" lon="5.5439">
        <ele>459.38850011337</ele>
        <time>2015-05-15T14:15:16Z</time>
      </trkpt>
      <trkpt lat="45.74467" lon="5.5439">
        <ele>459.38850011337</ele>
        <time>2015-05-15T14:15:21Z</time>
      </trkpt>
      <trkpt lat="45.74467" lon="5.5439">
        <ele>459.38850011337</ele>
        <time>2015-05-15T14:15:26Z</time>
      </trkpt>
      <trkpt lat="45.74466" lon="5.5439">
        <ele>459.38850011337</ele>
        <time>2015-05-15T14:15:31Z</time>
      </trkpt>
      <trkpt lat="45.74466" lon="5.5439">
        <ele>459.38850011337</ele>
        <time>2015-05-15T14:15:36Z</time>
      </trkpt>
      <trkpt lat="45.74466" lon="5.54389">
        <ele>459.38850011337</ele>
        <time>2015-05-15T14:15:41Z</time>
      </trkpt>
      <trkpt lat="45.74466" lon="5.54389">
        <ele>459.38850011337</ele>
        <time>2015-05-15T14:15:46Z</time>
      </trkpt>
      <trkpt lat="45.74466" lon="5.54389">
        <ele>459.38850011337</ele>
        <time>2015-05-15T14:15:51Z</time>
      </trkpt>
      <trkpt lat="45.74466" lon="5.54389">
        <ele>459.38850011337</ele>
        <time>2015-05-15T14:15:56Z</time>
      </trkpt>
      <trkpt lat="45.74466" lon="5.54389">
        <ele>459.38850011337</ele>
        <time>2015-05-15T14:16:01Z</time>
      </trkpt>
      <trkpt lat="45.74466" lon="5.54389">
        <ele>459.38850011337</ele>
        <time>2015-05-15T14:16:06Z</time>
      </trkpt>
      <trkpt lat="45.74467" lon="5.54393">
        <ele>459.38850011337</ele>
        <time>2015-05-15T14:16:11Z</time>
      </trkpt>
      <trkpt lat="45.74469" lon="5.54399">
        <ele>461.26693635811</ele>
        <time>2015-05-15T14:16:16Z</time>
      </trkpt>
      <trkpt lat="45.74469" lon="5.54406">
        <ele>461.26693635811</ele>
        <time>2015-05-15T14:16:21Z</time>
      </trkpt>
      <trkpt lat="45.7447" lon="5.54411">
        <ele>461.26693635811</ele>
        <time>2015-05-15T14:16:26Z</time>
      </trkpt>
      <trkpt lat="45.7447" lon="5.5442">
        <ele>463.42606973696</ele>
        <time>2015-05-15T14:16:31Z</time>
      </trkpt>
      <trkpt lat="45.74471" lon="5.54429">
        <ele>463.42606973696</ele>
        <time>2015-05-15T14:16:36Z</time>
      </trkpt>
      <trkpt lat="45.74473" lon="5.54437">
        <ele>466.05601662172</ele>
        <time>2015-05-15T14:16:41Z</time>
      </trkpt>
      <trkpt lat="45.74474" lon="5.54445">
        <ele>466.05601662172</ele>
        <time>2015-05-15T14:16:46Z</time>
      </trkpt>
      <trkpt lat="45.74474" lon="5.54447">
        <ele>466.05601662172</ele>
        <time>2015-05-15T14:16:51Z</time>
      </trkpt>
      <trkpt lat="45.74475" lon="5.54449">
        <ele>466.05601662172</ele>
        <time>2015-05-15T14:16:56Z</time>
      </trkpt>
      <trkpt lat="45.74477" lon="5.54453">
        <ele>468.16444910103</ele>
        <time>2015-05-15T14:17:01Z</time>
      </trkpt>
      <trkpt lat="45.74475" lon="5.54458">
        <ele>468.16444910103</ele>
        <time>2015-05-15T14:17:06Z</time>
      </trkpt>
      <trkpt lat="45.74473" lon="5.54465">
        <ele>470.53405862831</ele>
        <time>2015-05-15T14:17:11Z</time>
      </trkpt>
      <trkpt lat="45.74474" lon="5.54467">
        <ele>470.53405862831</ele>
        <time>2015-05-15T14:17:16Z</time>
      </trkpt>
      <trkpt lat="45.74474" lon="5.54467">
        <ele>470.53405862831</ele>
        <time>2015-05-15T14:17:21Z</time>
      </trkpt>
      <trkpt lat="45.74473" lon="5.54468">
        <ele>470.53405862831</ele>
        <time>2015-05-15T14:17:26Z</time>
      </trkpt>
      <trkpt lat="45.74473" lon="5.54468">
        <ele>470.53405862831</ele>
        <time>2015-05-15T14:17:31Z</time>
      </trkpt>
      <trkpt lat="45.74473" lon="5.54468">
        <ele>470.53405862831</ele>
        <time>2015-05-15T14:17:36Z</time>
      </trkpt>
      <trkpt lat="45.74476" lon="5.54466">
        <ele>470.53405862831</ele>
        <time>2015-05-15T14:17:41Z</time>
      </trkpt>
      <trkpt lat="45.74479" lon="5.54462">
        <ele>473.77417496739</ele>
        <time>2015-05-15T14:17:46Z</time>
      </trkpt>
      <trkpt lat="45.74484" lon="5.54464">
        <ele>473.77417496739</ele>
        <time>2015-05-15T14:17:51Z</time>
      </trkpt>
      <trkpt lat="45.74495" lon="5.54459">
        <ele>476.12689698694</ele>
        <time>2015-05-15T14:17:56Z</time>
      </trkpt>
      <trkpt lat="45.74499" lon="5.54457">
        <ele>476.12689698694</ele>
        <time>2015-05-15T14:18:01Z</time>
      </trkpt>
      <trkpt lat="45.74503" lon="5.54451">
        <ele>479.00686120603</ele>
        <time>2015-05-15T14:18:06Z</time>
      </trkpt>
      <trkpt lat="45.74507" lon="5.54449">
        <ele>479.00686120603</ele>
        <time>2015-05-15T14:18:11Z</time>
      </trkpt>
      <trkpt lat="45.74509" lon="5.54445">
        <ele>479.00686120603</ele>
        <time>2015-05-15T14:18:16Z</time>
      </trkpt>
      <trkpt lat="45.74511" lon="5.54441">
        <ele>481.7635691883</ele>
        <time>2015-05-15T14:18:21Z</time>
      </trkpt>
      <trkpt lat="45.74512" lon="5.54439">
        <ele>481.7635691883</ele>
        <time>2015-05-15T14:18:26Z</time>
      </trkpt>
      <trkpt lat="45.74513" lon="5.54438">
        <ele>481.7635691883</ele>
        <time>2015-05-15T14:18:31Z</time>
      </trkpt>
      <trkpt lat="45.74513" lon="5.54435">
        <ele>481.7635691883</ele>
        <time>2015-05-15T14:18:36Z</time>
      </trkpt>
      <trkpt lat="45.74522" lon="5.54426">
        <ele>484.37127768947</ele>
        <time>2015-05-15T14:18:41Z</time>
      </trkpt>
      <trkpt lat="45.74532" lon="5.54419">
        <ele>487.28230306759</ele>
        <time>2015-05-15T14:18:46Z</time>
      </trkpt>
      <trkpt lat="45.74537" lon="5.54415">
        <ele>487.28230306759</ele>
        <time>2015-05-15T14:18:51Z</time>
      </trkpt>
      <trkpt lat="45.74541" lon="5.54412">
        <ele>489.96393733397</ele>
        <time>2015-05-15T14:18:56Z</time>
      </trkpt>
      <trkpt lat="45.74545" lon="5.5441">
        <ele>489.96393733397</ele>
        <time>2015-05-15T14:19:01Z</time>
      </trkpt>
      <trkpt lat="45.7455" lon="5.54406">
        <ele>492.26930418959</ele>
        <time>2015-05-15T14:19:06Z</time>
      </trkpt>
      <trkpt lat="45.74555" lon="5.54398">
        <ele>492.26930418959</ele>
        <time>2015-05-15T14:19:11Z</time>
      </trkpt>
      <trkpt lat="45.74561" lon="5.54391">
        <ele>494.94264058295</ele>
        <time>2015-05-15T14:19:16Z</time>
      </trkpt>
      <trkpt lat="45.74568" lon="5.54381">
        <ele>497.83682594154</ele>
        <time>2015-05-15T14:19:21Z</time>
      </trkpt>
      <trkpt lat="45.74574" lon="5.54372">
        <ele>497.83682594154</ele>
        <time>2015-05-15T14:19:27Z</time>
      </trkpt>
      <trkpt lat="45.74579" lon="5.54368">
        <ele>500.81511834331</ele>
        <time>2015-05-15T14:19:31Z</time>
      </trkpt>
      <trkpt lat="45.74584" lon="5.54362">
        <ele>500.81511834331</ele>
        <time>2015-05-15T14:19:36Z</time>
      </trkpt>
      <trkpt lat="45.74587" lon="5.5436">
        <ele>503.52019766203</ele>
        <time>2015-05-15T14:19:41Z</time>
      </trkpt>
      <trkpt lat="45.74588" lon="5.54358">
        <ele>503.52019766203</ele>
        <time>2015-05-15T14:19:46Z</time>
      </trkpt>
      <trkpt lat="45.7459" lon="5.54356">
        <ele>503.52019766203</ele>
        <time>2015-05-15T14:19:51Z</time>
      </trkpt>
      <trkpt lat="45.74595" lon="5.54352">
        <ele>505.49224804618</ele>
        <time>2015-05-15T14:19:56Z</time>
      </trkpt>
      <trkpt lat="45.74599" lon="5.54344">
        <ele>505.49224804618</ele>
        <time>2015-05-15T14:20:01Z</time>
      </trkpt>
      <trkpt lat="45.74601" lon="5.54337">
        <ele>507.10008512109</ele>
        <time>2015-05-15T14:20:06Z</time>
      </trkpt>
      <trkpt lat="45.74603" lon="5.54327">
        <ele>507.10008512109</ele>
        <time>2015-05-15T14:20:11Z</time>
      </trkpt>
      <trkpt lat="45.74609" lon="5.54321">
        <ele>508.06695384058</ele>
        <time>2015-05-15T14:20:16Z</time>
      </trkpt>
      <trkpt lat="45.74614" lon="5.54315">
        <ele>508.06695384058</ele>
        <time>2015-05-15T14:20:21Z</time>
      </trkpt>
      <trkpt lat="45.74618" lon="5.54307">
        <ele>509.44980773892</ele>
        <time>2015-05-15T14:20:26Z</time>
      </trkpt>
      <trkpt lat="45.74623" lon="5.543">
        <ele>509.44980773892</ele>
        <time>2015-05-15T14:20:31Z</time>
      </trkpt>
      <trkpt lat="45.7463" lon="5.5429">
        <ele>511.14611336616</ele>
        <time>2015-05-15T14:20:36Z</time>
      </trkpt>
      <trkpt lat="45.74635" lon="5.54284">
        <ele>511.14611336616</ele>
        <time>2015-05-15T14:20:41Z</time>
      </trkpt>
      <trkpt lat="45.74639" lon="5.54277">
        <ele>511.67666591465</ele>
        <time>2015-05-15T14:20:46Z</time>
      </trkpt>
      <trkpt lat="45.74643" lon="5.54269">
        <ele>511.67666591465</ele>
        <time>2015-05-15T14:20:51Z</time>
      </trkpt>
      <trkpt lat="45.74644" lon="5.54267">
        <ele>511.67666591465</ele>
        <time>2015-05-15T14:20:56Z</time>
      </trkpt>
      <trkpt lat="45.74645" lon="5.54265">
        <ele>512.21067789412</ele>
        <time>2015-05-15T14:21:01Z</time>
      </trkpt>
      <trkpt lat="45.74648" lon="5.54258">
        <ele>512.21067789412</ele>
        <time>2015-05-15T14:21:06Z</time>
      </trkpt>
      <trkpt lat="45.74653" lon="5.54248">
        <ele>512.69309848548</ele>
        <time>2015-05-15T14:21:11Z</time>
      </trkpt>
      <trkpt lat="45.7466" lon="5.54239">
        <ele>512.97228576732</ele>
        <time>2015-05-15T14:21:16Z</time>
      </trkpt>
      <trkpt lat="45.74667" lon="5.54228">
        <ele>513.13896584734</ele>
        <time>2015-05-15T14:21:21Z</time>
      </trkpt>
      <trkpt lat="45.74673" lon="5.5422">
        <ele>513.13896584734</ele>
        <time>2015-05-15T14:21:26Z</time>
      </trkpt>
      <trkpt lat="45.74678" lon="5.54211">
        <ele>512.87406719733</ele>
        <time>2015-05-15T14:21:31Z</time>
      </trkpt>
      <trkpt lat="45.74684" lon="5.54205">
        <ele>512.87406719733</ele>
        <time>2015-05-15T14:21:36Z</time>
      </trkpt>
      <trkpt lat="45.74689" lon="5.54196">
        <ele>512.32995670969</ele>
        <time>2015-05-15T14:21:41Z</time>
      </trkpt>
      <trkpt lat="45.74692" lon="5.54186">
        <ele>512.32995670969</ele>
        <time>2015-05-15T14:21:46Z</time>
      </trkpt>
      <trkpt lat="45.74696" lon="5.54177">
        <ele>511.85037290113</ele>
        <time>2015-05-15T14:21:51Z</time>
      </trkpt>
      <trkpt lat="45.74698" lon="5.54167">
        <ele>511.85037290113</ele>
        <time>2015-05-15T14:21:56Z</time>
      </trkpt>
      <trkpt lat="45.747" lon="5.54158">
        <ele>510.84572774735</ele>
        <time>2015-05-15T14:22:01Z</time>
      </trkpt>
      <trkpt lat="45.74701" lon="5.54151">
        <ele>510.84572774735</ele>
        <time>2015-05-15T14:22:06Z</time>
      </trkpt>
      <trkpt lat="45.74703" lon="5.54144">
        <ele>509.65028033706</ele>
        <time>2015-05-15T14:22:11Z</time>
      </trkpt>
      <trkpt lat="45.74706" lon="5.54138">
        <ele>509.65028033706</ele>
        <time>2015-05-15T14:22:16Z</time>
      </trkpt>
      <trkpt lat="45.74709" lon="5.54132">
        <ele>507.925734241</ele>
        <time>2015-05-15T14:22:21Z</time>
      </trkpt>
      <trkpt lat="45.74711" lon="5.54126">
        <ele>507.925734241</ele>
        <time>2015-05-15T14:22:26Z</time>
      </trkpt>
      <trkpt lat="45.74714" lon="5.54118">
        <ele>506.02298173912</ele>
        <time>2015-05-15T14:22:31Z</time>
      </trkpt>
      <trkpt lat="45.74718" lon="5.54109">
        <ele>506.02298173912</ele>
        <time>2015-05-15T14:22:36Z</time>
      </trkpt>
      <trkpt lat="45.74722" lon="5.54098">
        <ele>504.23873615872</ele>
        <time>2015-05-15T14:22:41Z</time>
      </trkpt>
      <trkpt lat="45.74727" lon="5.54088">
        <ele>504.23873615872</ele>
        <time>2015-05-15T14:22:46Z</time>
      </trkpt>
      <trkpt lat="45.7473" lon="5.54083">
        <ele>502.70336907344</ele>
        <time>2015-05-15T14:22:51Z</time>
      </trkpt>
      <trkpt lat="45.74733" lon="5.54079">
        <ele>502.70336907344</ele>
        <time>2015-05-15T14:22:56Z</time>
      </trkpt>
      <trkpt lat="45.74736" lon="5.54071">
        <ele>501.56567802535</ele>
        <time>2015-05-15T14:23:01Z</time>
      </trkpt>
      <trkpt lat="45.7474" lon="5.54063">
        <ele>501.56567802535</ele>
        <time>2015-05-15T14:23:06Z</time>
      </trkpt>
      <trkpt lat="45.74744" lon="5.54054">
        <ele>500.02555359218</ele>
        <time>2015-05-15T14:23:11Z</time>
      </trkpt>
      <trkpt lat="45.74748" lon="5.54048">
        <ele>500.02555359218</ele>
        <time>2015-05-15T14:23:16Z</time>
      </trkpt>
      <trkpt lat="45.74752" lon="5.54044">
        <ele>497.97672643349</ele>
        <time>2015-05-15T14:23:21Z</time>
      </trkpt>
      <trkpt lat="45.74756" lon="5.54038">
        <ele>497.97672643349</ele>
        <time>2015-05-15T14:23:26Z</time>
      </trkpt>
      <trkpt lat="45.7476" lon="5.5403">
        <ele>495.82638199334</ele>
        <time>2015-05-15T14:23:31Z</time>
      </trkpt>
      <trkpt lat="45.74765" lon="5.54022">
        <ele>495.82638199334</ele>
        <time>2015-05-15T14:23:36Z</time>
      </trkpt>
      <trkpt lat="45.74768" lon="5.54014">
        <ele>493.1448734719</ele>
        <time>2015-05-15T14:23:41Z</time>
      </trkpt>
      <trkpt lat="45.74771" lon="5.54007">
        <ele>493.1448734719</ele>
        <time>2015-05-15T14:23:46Z</time>
      </trkpt>
      <trkpt lat="45.74773" lon="5.53997">
        <ele>491.06298642403</ele>
        <time>2015-05-15T14:23:51Z</time>
      </trkpt>
      <trkpt lat="45.74777" lon="5.53991">
        <ele>491.06298642403</ele>
        <time>2015-05-15T14:23:56Z</time>
      </trkpt>
      <trkpt lat="45.74779" lon="5.53986">
        <ele>488.47928826484</ele>
        <time>2015-05-15T14:24:01Z</time>
      </trkpt>
      <trkpt lat="45.74782" lon="5.53984">
        <ele>488.47928826484</ele>
        <time>2015-05-15T14:24:06Z</time>
      </trkpt>
      <trkpt lat="45.74785" lon="5.5398">
        <ele>488.47928826484</ele>
        <time>2015-05-15T14:24:11Z</time>
      </trkpt>
      <trkpt lat="45.74787" lon="5.53973">
        <ele>486.04612776227</ele>
        <time>2015-05-15T14:24:16Z</time>
      </trkpt>
      <trkpt lat="45.74789" lon="5.53964">
        <ele>486.04612776227</ele>
        <time>2015-05-15T14:24:21Z</time>
      </trkpt>
      <trkpt lat="45.74793" lon="5.53958">
        <ele>483.64671563111</ele>
        <time>2015-05-15T14:24:26Z</time>
      </trkpt>
      <trkpt lat="45.74796" lon="5.5395">
        <ele>483.64671563111</ele>
        <time>2015-05-15T14:24:31Z</time>
      </trkpt>
      <trkpt lat="45.74801" lon="5.53936">
        <ele>481.43189840692</ele>
        <time>2015-05-15T14:24:36Z</time>
      </trkpt>
      <trkpt lat="45.74804" lon="5.53932">
        <ele>481.43189840692</ele>
        <time>2015-05-15T14:24:41Z</time>
      </trkpt>
      <trkpt lat="45.74808" lon="5.5392">
        <ele>479.51184443041</ele>
        <time>2015-05-15T14:24:46Z</time>
      </trkpt>
      <trkpt lat="45.74811" lon="5.5391">
        <ele>479.51184443041</ele>
        <time>2015-05-15T14:24:51Z</time>
      </trkpt>
      <trkpt lat="45.74817" lon="5.53902">
        <ele>477.06522714336</ele>
        <time>2015-05-15T14:24:56Z</time>
      </trkpt>
      <trkpt lat="45.74823" lon="5.53896">
        <ele>477.06522714336</ele>
        <time>2015-05-15T14:25:01Z</time>
      </trkpt>
      <trkpt lat="45.74829" lon="5.53892">
        <ele>474.94630832254</ele>
        <time>2015-05-15T14:25:06Z</time>
      </trkpt>
      <trkpt lat="45.74835" lon="5.53886">
        <ele>474.94630832254</ele>
        <time>2015-05-15T14:25:11Z</time>
      </trkpt>
      <trkpt lat="45.74843" lon="5.53879">
        <ele>472.51870465515</ele>
        <time>2015-05-15T14:25:16Z</time>
      </trkpt>
      <trkpt lat="45.7485" lon="5.53877">
        <ele>472.51870465515</ele>
        <time>2015-05-15T14:25:21Z</time>
      </trkpt>
      <trkpt lat="45.74857" lon="5.53866">
        <ele>470.00039490512</ele>
        <time>2015-05-15T14:25:26Z</time>
      </trkpt>
      <trkpt lat="45.74864" lon="5.53856">
        <ele>467.55008889552</ele>
        <time>2015-05-15T14:25:31Z</time>
      </trkpt>
      <trkpt lat="45.74869" lon="5.53852">
        <ele>467.55008889552</ele>
        <time>2015-05-15T14:25:36Z</time>
      </trkpt>
      <trkpt lat="45.74875" lon="5.53843">
        <ele>465.17025652402</ele>
        <time>2015-05-15T14:25:41Z</time>
      </trkpt>
      <trkpt lat="45.7488" lon="5.53835">
        <ele>465.17025652402</ele>
        <time>2015-05-15T14:25:46Z</time>
      </trkpt>
      <trkpt lat="45.74886" lon="5.53827">
        <ele>463.179753352</ele>
        <time>2015-05-15T14:25:51Z</time>
      </trkpt>
      <trkpt lat="45.74892" lon="5.53822">
        <ele>463.179753352</ele>
        <time>2015-05-15T14:25:56Z</time>
      </trkpt>
      <trkpt lat="45.74898" lon="5.53817">
        <ele>461.20972977616</ele>
        <time>2015-05-15T14:26:01Z</time>
      </trkpt>
      <trkpt lat="45.74903" lon="5.53811">
        <ele>461.20972977616</ele>
        <time>2015-05-15T14:26:06Z</time>
      </trkpt>
      <trkpt lat="45.74909" lon="5.53805">
        <ele>459.63865498364</ele>
        <time>2015-05-15T14:26:11Z</time>
      </trkpt>
      <trkpt lat="45.74914" lon="5.53797">
        <ele>459.63865498364</ele>
        <time>2015-05-15T14:26:16Z</time>
      </trkpt>
      <trkpt lat="45.74919" lon="5.53788">
        <ele>458.52758588361</ele>
        <time>2015-05-15T14:26:21Z</time>
      </trkpt>
      <trkpt lat="45.74924" lon="5.53778">
        <ele>458.52758588361</ele>
        <time>2015-05-15T14:26:26Z</time>
      </trkpt>
      <trkpt lat="45.74929" lon="5.53771">
        <ele>458.26300097708</ele>
        <time>2015-05-15T14:26:31Z</time>
      </trkpt>
      <trkpt lat="45.74933" lon="5.53767">
        <ele>458.26300097708</ele>
        <time>2015-05-15T14:26:36Z</time>
      </trkpt>
      <trkpt lat="45.74939" lon="5.53764">
        <ele>457.90336767022</ele>
        <time>2015-05-15T14:26:41Z</time>
      </trkpt>
      <trkpt lat="45.74945" lon="5.53759">
        <ele>457.90336767022</ele>
        <time>2015-05-15T14:26:46Z</time>
      </trkpt>
      <trkpt lat="45.74951" lon="5.53755">
        <ele>457.32573243815</ele>
        <time>2015-05-15T14:26:51Z</time>
      </trkpt>
      <trkpt lat="45.74957" lon="5.53754">
        <ele>457.32573243815</ele>
        <time>2015-05-15T14:26:56Z</time>
      </trkpt>
      <trkpt lat="45.74963" lon="5.5375">
        <ele>456.4165715202</ele>
        <time>2015-05-15T14:27:01Z</time>
      </trkpt>
      <trkpt lat="45.74968" lon="5.53744">
        <ele>456.4165715202</ele>
        <time>2015-05-15T14:27:06Z</time>
      </trkpt>
      <trkpt lat="45.74974" lon="5.53736">
        <ele>455.47494355063</ele>
        <time>2015-05-15T14:27:11Z</time>
      </trkpt>
      <trkpt lat="45.74979" lon="5.53729">
        <ele>455.47494355063</ele>
        <time>2015-05-15T14:27:16Z</time>
      </trkpt>
      <trkpt lat="45.74985" lon="5.53726">
        <ele>454.23022204762</ele>
        <time>2015-05-15T14:27:21Z</time>
      </trkpt>
      <trkpt lat="45.74991" lon="5.53723">
        <ele>454.23022204762</ele>
        <time>2015-05-15T14:27:26Z</time>
      </trkpt>
      <trkpt lat="45.74998" lon="5.53721">
        <ele>452.95113722591</ele>
        <time>2015-05-15T14:27:31Z</time>
      </trkpt>
      <trkpt lat="45.75005" lon="5.53715">
        <ele>452.95113722591</ele>
        <time>2015-05-15T14:27:36Z</time>
      </trkpt>
      <trkpt lat="45.75011" lon="5.5371">
        <ele>451.97307806963</ele>
        <time>2015-05-15T14:27:41Z</time>
      </trkpt>
      <trkpt lat="45.75016" lon="5.53702">
        <ele>451.97307806963</ele>
        <time>2015-05-15T14:27:46Z</time>
      </trkpt>
      <trkpt lat="45.75021" lon="5.53698">
        <ele>451.74991019516</ele>
        <time>2015-05-15T14:27:51Z</time>
      </trkpt>
      <trkpt lat="45.75022" lon="5.53696">
        <ele>451.74991019516</ele>
        <time>2015-05-15T14:27:56Z</time>
      </trkpt>
      <trkpt lat="45.75024" lon="5.53694">
        <ele>451.74991019516</ele>
        <time>2015-05-15T14:28:01Z</time>
      </trkpt>
      <trkpt lat="45.75024" lon="5.53694">
        <ele>451.74991019516</ele>
        <time>2015-05-15T14:28:06Z</time>
      </trkpt>
      <trkpt lat="45.75024" lon="5.53694">
        <ele>451.74991019516</ele>
        <time>2015-05-15T14:28:11Z</time>
      </trkpt>
      <trkpt lat="45.75027" lon="5.53692">
        <ele>451.74991019516</ele>
        <time>2015-05-15T14:28:16Z</time>
      </trkpt>
      <trkpt lat="45.75032" lon="5.53689">
        <ele>452.094634074</ele>
        <time>2015-05-15T14:28:21Z</time>
      </trkpt>
      <trkpt lat="45.75036" lon="5.53685">
        <ele>452.094634074</ele>
        <time>2015-05-15T14:28:26Z</time>
      </trkpt>
      <trkpt lat="45.75041" lon="5.53681">
        <ele>452.81785869867</ele>
        <time>2015-05-15T14:28:31Z</time>
      </trkpt>
      <trkpt lat="45.75046" lon="5.53679">
        <ele>452.81785869867</ele>
        <time>2015-05-15T14:28:36Z</time>
      </trkpt>
      <trkpt lat="45.75051" lon="5.53675">
        <ele>453.82940535935</ele>
        <time>2015-05-15T14:28:41Z</time>
      </trkpt>
      <trkpt lat="45.75057" lon="5.53671">
        <ele>453.82940535935</ele>
        <time>2015-05-15T14:28:46Z</time>
      </trkpt>
      <trkpt lat="45.75063" lon="5.5367">
        <ele>454.45397056852</ele>
        <time>2015-05-15T14:28:51Z</time>
      </trkpt>
      <trkpt lat="45.75069" lon="5.53668">
        <ele>454.45397056852</ele>
        <time>2015-05-15T14:28:56Z</time>
      </trkpt>
      <trkpt lat="45.75074" lon="5.53664">
        <ele>455.40711440988</ele>
        <time>2015-05-15T14:29:01Z</time>
      </trkpt>
      <trkpt lat="45.75079" lon="5.53661">
        <ele>455.40711440988</ele>
        <time>2015-05-15T14:29:06Z</time>
      </trkpt>
      <trkpt lat="45.75085" lon="5.53658">
        <ele>456.28444521399</ele>
        <time>2015-05-15T14:29:11Z</time>
      </trkpt>
      <trkpt lat="45.75091" lon="5.53653">
        <ele>456.28444521399</ele>
        <time>2015-05-15T14:29:16Z</time>
      </trkpt>
      <trkpt lat="45.75097" lon="5.53648">
        <ele>457.74906833751</ele>
        <time>2015-05-15T14:29:21Z</time>
      </trkpt>
      <trkpt lat="45.75103" lon="5.53644">
        <ele>457.74906833751</ele>
        <time>2015-05-15T14:29:26Z</time>
      </trkpt>
      <trkpt lat="45.75109" lon="5.5364">
        <ele>459.44818303946</ele>
        <time>2015-05-15T14:29:31Z</time>
      </trkpt>
      <trkpt lat="45.75115" lon="5.53636">
        <ele>459.44818303946</ele>
        <time>2015-05-15T14:29:36Z</time>
      </trkpt>
      <trkpt lat="45.7512" lon="5.53635">
        <ele>461.38572127022</ele>
        <time>2015-05-15T14:29:41Z</time>
      </trkpt>
      <trkpt lat="45.75124" lon="5.53631">
        <ele>461.38572127022</ele>
        <time>2015-05-15T14:29:46Z</time>
      </trkpt>
      <trkpt lat="45.75131" lon="5.53633">
        <ele>463.31970754587</ele>
        <time>2015-05-15T14:29:51Z</time>
      </trkpt>
      <trkpt lat="45.75138" lon="5.53632">
        <ele>463.31970754587</ele>
        <time>2015-05-15T14:29:56Z</time>
      </trkpt>
      <trkpt lat="45.75144" lon="5.53627">
        <ele>465.71774634506</ele>
        <time>2015-05-15T14:30:01Z</time>
      </trkpt>
      <trkpt lat="45.75145" lon="5.53622">
        <ele>465.71774634506</ele>
        <time>2015-05-15T14:30:06Z</time>
      </trkpt>
      <trkpt lat="45.75146" lon="5.53619">
        <ele>465.71774634506</ele>
        <time>2015-05-15T14:30:11Z</time>
      </trkpt>
      <trkpt lat="45.75147" lon="5.53617">
        <ele>465.71774634506</ele>
        <time>2015-05-15T14:30:16Z</time>
      </trkpt>
      <trkpt lat="45.75149" lon="5.53617">
        <ele>468.10397239426</ele>
        <time>2015-05-15T14:30:21Z</time>
      </trkpt>
      <trkpt lat="45.75157" lon="5.53614">
        <ele>468.10397239426</ele>
        <time>2015-05-15T14:30:26Z</time>
      </trkpt>
      <trkpt lat="45.75165" lon="5.53611">
        <ele>469.72056749709</ele>
        <time>2015-05-15T14:30:31Z</time>
      </trkpt>
      <trkpt lat="45.75176" lon="5.536">
        <ele>471.58258385768</ele>
        <time>2015-05-15T14:30:36Z</time>
      </trkpt>
      <trkpt lat="45.7519" lon="5.53596">
        <ele>473.26089876328</ele>
        <time>2015-05-15T14:30:41Z</time>
      </trkpt>
      <trkpt lat="45.75198" lon="5.53593">
        <ele>473.26089876328</ele>
        <time>2015-05-15T14:30:46Z</time>
      </trkpt>
      <trkpt lat="45.75204" lon="5.53587">
        <ele>475.06471998324</ele>
        <time>2015-05-15T14:30:51Z</time>
      </trkpt>
      <trkpt lat="45.7521" lon="5.53582">
        <ele>475.06471998324</ele>
        <time>2015-05-15T14:30:56Z</time>
      </trkpt>
      <trkpt lat="45.75216" lon="5.53578">
        <ele>477.56857023781</ele>
        <time>2015-05-15T14:31:01Z</time>
      </trkpt>
      <trkpt lat="45.75221" lon="5.53575">
        <ele>477.56857023781</ele>
        <time>2015-05-15T14:31:06Z</time>
      </trkpt>
      <trkpt lat="45.75226" lon="5.53573">
        <ele>479.67451779911</ele>
        <time>2015-05-15T14:31:11Z</time>
      </trkpt>
      <trkpt lat="45.75231" lon="5.53569">
        <ele>479.67451779911</ele>
        <time>2015-05-15T14:31:16Z</time>
      </trkpt>
      <trkpt lat="45.75237" lon="5.53568">
        <ele>481.98062590786</ele>
        <time>2015-05-15T14:31:21Z</time>
      </trkpt>
      <trkpt lat="45.75242" lon="5.53569">
        <ele>481.98062590786</ele>
        <time>2015-05-15T14:31:26Z</time>
      </trkpt>
      <trkpt lat="45.75248" lon="5.53571">
        <ele>484.72360965179</ele>
        <time>2015-05-15T14:31:31Z</time>
      </trkpt>
      <trkpt lat="45.75262" lon="5.53569">
        <ele>486.79594778247</ele>
        <time>2015-05-15T14:31:36Z</time>
      </trkpt>
      <trkpt lat="45.75274" lon="5.53565">
        <ele>488.55703397092</ele>
        <time>2015-05-15T14:31:41Z</time>
      </trkpt>
      <trkpt lat="45.75278" lon="5.53561">
        <ele>488.55703397092</ele>
        <time>2015-05-15T14:31:46Z</time>
      </trkpt>
      <trkpt lat="45.75278" lon="5.53556">
        <ele>488.55703397092</ele>
        <time>2015-05-15T14:31:51Z</time>
      </trkpt>
      <trkpt lat="45.7528" lon="5.53553">
        <ele>491.1479723976</ele>
        <time>2015-05-15T14:31:56Z</time>
      </trkpt>
      <trkpt lat="45.75285" lon="5.53545">
        <ele>491.1479723976</ele>
        <time>2015-05-15T14:32:01Z</time>
      </trkpt>
      <trkpt lat="45.7529" lon="5.53539">
        <ele>492.75612186844</ele>
        <time>2015-05-15T14:32:06Z</time>
      </trkpt>
      <trkpt lat="45.75292" lon="5.53531">
        <ele>492.75612186844</ele>
        <time>2015-05-15T14:32:11Z</time>
      </trkpt>
      <trkpt lat="45.75291" lon="5.53521">
        <ele>494.37103189145</ele>
        <time>2015-05-15T14:32:16Z</time>
      </trkpt>
      <trkpt lat="45.75288" lon="5.5351">
        <ele>494.37103189145</ele>
        <time>2015-05-15T14:32:21Z</time>
      </trkpt>
      <trkpt lat="45.75285" lon="5.53499">
        <ele>497.94736693993</ele>
        <time>2015-05-15T14:32:26Z</time>
      </trkpt>
      <trkpt lat="45.75288" lon="5.53487">
        <ele>497.94736693993</ele>
        <time>2015-05-15T14:32:31Z</time>
      </trkpt>
      <trkpt lat="45.75293" lon="5.53478">
        <ele>501.78902953437</ele>
        <time>2015-05-15T14:32:36Z</time>
      </trkpt>
      <trkpt lat="45.75297" lon="5.53473">
        <ele>501.78902953437</ele>
        <time>2015-05-15T14:32:41Z</time>
      </trkpt>
      <trkpt lat="45.75302" lon="5.53469">
        <ele>505.75071023227</ele>
        <time>2015-05-15T14:32:46Z</time>
      </trkpt>
      <trkpt lat="45.75305" lon="5.53473">
        <ele>505.75071023227</ele>
        <time>2015-05-15T14:32:51Z</time>
      </trkpt>
      <trkpt lat="45.75308" lon="5.53483">
        <ele>508.38627138861</ele>
        <time>2015-05-15T14:32:56Z</time>
      </trkpt>
      <trkpt lat="45.75306" lon="5.53494">
        <ele>508.38627138861</ele>
        <time>2015-05-15T14:33:01Z</time>
      </trkpt>
      <trkpt lat="45.75303" lon="5.53501">
        <ele>510.29087060208</ele>
        <time>2015-05-15T14:33:06Z</time>
      </trkpt>
      <trkpt lat="45.75303" lon="5.53507">
        <ele>510.29087060208</ele>
        <time>2015-05-15T14:33:11Z</time>
      </trkpt>
      <trkpt lat="45.75303" lon="5.53514">
        <ele>510.29087060208</ele>
        <time>2015-05-15T14:33:16Z</time>
      </trkpt>
      <trkpt lat="45.75307" lon="5.53518">
        <ele>512.62351963802</ele>
        <time>2015-05-15T14:33:21Z</time>
      </trkpt>
      <trkpt lat="45.7531" lon="5.53514">
        <ele>512.62351963802</ele>
        <time>2015-05-15T14:33:26Z</time>
      </trkpt>
      <trkpt lat="45.75312" lon="5.53508">
        <ele>515.73659042322</ele>
        <time>2015-05-15T14:33:31Z</time>
      </trkpt>
      <trkpt lat="45.75317" lon="5.53502">
        <ele>515.73659042322</ele>
        <time>2015-05-15T14:33:36Z</time>
      </trkpt>
      <trkpt lat="45.75322" lon="5.53496">
        <ele>519.07555828236</ele>
        <time>2015-05-15T14:33:41Z</time>
      </trkpt>
      <trkpt lat="45.75326" lon="5.53493">
        <ele>519.07555828236</ele>
        <time>2015-05-15T14:33:46Z</time>
      </trkpt>
      <trkpt lat="45.75331" lon="5.5349">
        <ele>522.58741161309</ele>
        <time>2015-05-15T14:33:51Z</time>
      </trkpt>
      <trkpt lat="45.75336" lon="5.53487">
        <ele>522.58741161309</ele>
        <time>2015-05-15T14:33:56Z</time>
      </trkpt>
      <trkpt lat="45.75341" lon="5.53483">
        <ele>525.66077187819</ele>
        <time>2015-05-15T14:34:01Z</time>
      </trkpt>
      <trkpt lat="45.75346" lon="5.53478">
        <ele>525.66077187819</ele>
        <time>2015-05-15T14:34:06Z</time>
      </trkpt>
      <trkpt lat="45.75351" lon="5.53474">
        <ele>528.97001780861</ele>
        <time>2015-05-15T14:34:11Z</time>
      </trkpt>
      <trkpt lat="45.75357" lon="5.53471">
        <ele>528.97001780861</ele>
        <time>2015-05-15T14:34:16Z</time>
      </trkpt>
      <trkpt lat="45.75363" lon="5.53468">
        <ele>532.79372199076</ele>
        <time>2015-05-15T14:34:21Z</time>
      </trkpt>
      <trkpt lat="45.75368" lon="5.53464">
        <ele>532.79372199076</ele>
        <time>2015-05-15T14:34:26Z</time>
      </trkpt>
      <trkpt lat="45.75372" lon="5.53458">
        <ele>536.16386796816</ele>
        <time>2015-05-15T14:34:31Z</time>
      </trkpt>
      <trkpt lat="45.75377" lon="5.53454">
        <ele>536.16386796816</ele>
        <time>2015-05-15T14:34:36Z</time>
      </trkpt>
      <trkpt lat="45.7538" lon="5.53452">
        <ele>536.16386796816</ele>
        <time>2015-05-15T14:34:41Z</time>
      </trkpt>
      <trkpt lat="45.75384" lon="5.53448">
        <ele>539.42444072924</ele>
        <time>2015-05-15T14:34:46Z</time>
      </trkpt>
      <trkpt lat="45.75389" lon="5.53444">
        <ele>539.42444072924</ele>
        <time>2015-05-15T14:34:51Z</time>
      </trkpt>
      <trkpt lat="45.75394" lon="5.5344">
        <ele>542.73620436643</ele>
        <time>2015-05-15T14:34:56Z</time>
      </trkpt>
      <trkpt lat="45.75397" lon="5.53439">
        <ele>542.73620436643</ele>
        <time>2015-05-15T14:35:01Z</time>
      </trkpt>
      <trkpt lat="45.75401" lon="5.5344">
        <ele>542.73620436643</ele>
        <time>2015-05-15T14:35:06Z</time>
      </trkpt>
      <trkpt lat="45.75407" lon="5.53441">
        <ele>545.87354199706</ele>
        <time>2015-05-15T14:35:11Z</time>
      </trkpt>
      <trkpt lat="45.75415" lon="5.53443">
        <ele>545.87354199706</ele>
        <time>2015-05-15T14:35:16Z</time>
      </trkpt>
      <trkpt lat="45.75424" lon="5.53447">
        <ele>548.67139053013</ele>
        <time>2015-05-15T14:35:21Z</time>
      </trkpt>
      <trkpt lat="45.75432" lon="5.5345">
        <ele>548.67139053013</ele>
        <time>2015-05-15T14:35:26Z</time>
      </trkpt>
      <trkpt lat="45.75435" lon="5.5345">
        <ele>551.46799488179</ele>
        <time>2015-05-15T14:35:31Z</time>
      </trkpt>
      <trkpt lat="45.75442" lon="5.53446">
        <ele>551.46799488179</ele>
        <time>2015-05-15T14:35:36Z</time>
      </trkpt>
      <trkpt lat="45.75448" lon="5.53444">
        <ele>553.92850103828</ele>
        <time>2015-05-15T14:35:41Z</time>
      </trkpt>
      <trkpt lat="45.75453" lon="5.53442">
        <ele>553.92850103828</ele>
        <time>2015-05-15T14:35:46Z</time>
      </trkpt>
      <trkpt lat="45.75459" lon="5.53444">
        <ele>556.1041098429</ele>
        <time>2015-05-15T14:35:51Z</time>
      </trkpt>
      <trkpt lat="45.75465" lon="5.53448">
        <ele>556.1041098429</ele>
        <time>2015-05-15T14:35:56Z</time>
      </trkpt>
      <trkpt lat="45.75473" lon="5.53447">
        <ele>557.71182866826</ele>
        <time>2015-05-15T14:36:01Z</time>
      </trkpt>
      <trkpt lat="45.7548" lon="5.53445">
        <ele>557.71182866826</ele>
        <time>2015-05-15T14:36:06Z</time>
      </trkpt>
      <trkpt lat="45.75487" lon="5.53448">
        <ele>559.35592415975</ele>
        <time>2015-05-15T14:36:11Z</time>
      </trkpt>
      <trkpt lat="45.75494" lon="5.53449">
        <ele>559.35592415975</ele>
        <time>2015-05-15T14:36:16Z</time>
      </trkpt>
      <trkpt lat="45.75503" lon="5.53447">
        <ele>560.81816670372</ele>
        <time>2015-05-15T14:36:21Z</time>
      </trkpt>
      <trkpt lat="45.75509" lon="5.53448">
        <ele>560.81816670372</ele>
        <time>2015-05-15T14:36:26Z</time>
      </trkpt>
      <trkpt lat="45.75513" lon="5.53448">
        <ele>562.27173539835</ele>
        <time>2015-05-15T14:36:31Z</time>
      </trkpt>
      <trkpt lat="45.75517" lon="5.53449">
        <ele>562.27173539835</ele>
        <time>2015-05-15T14:36:36Z</time>
      </trkpt>
      <trkpt lat="45.75522" lon="5.53446">
        <ele>563.68992896381</ele>
        <time>2015-05-15T14:36:41Z</time>
      </trkpt>
      <trkpt lat="45.75527" lon="5.53444">
        <ele>563.68992896381</ele>
        <time>2015-05-15T14:36:46Z</time>
      </trkpt>
      <trkpt lat="45.75528" lon="5.53441">
        <ele>563.68992896381</ele>
        <time>2015-05-15T14:36:51Z</time>
      </trkpt>
      <trkpt lat="45.75533" lon="5.53438">
        <ele>565.66793061462</ele>
        <time>2015-05-15T14:36:56Z</time>
      </trkpt>
      <trkpt lat="45.75538" lon="5.53436">
        <ele>565.66793061462</ele>
        <time>2015-05-15T14:37:01Z</time>
      </trkpt>
      <trkpt lat="45.75541" lon="5.53434">
        <ele>565.66793061462</ele>
        <time>2015-05-15T14:37:06Z</time>
      </trkpt>
      <trkpt lat="45.75541" lon="5.53433">
        <ele>565.66793061462</ele>
        <time>2015-05-15T14:37:11Z</time>
      </trkpt>
      <trkpt lat="45.75542" lon="5.53433">
        <ele>567.74698462672</ele>
        <time>2015-05-15T14:37:16Z</time>
      </trkpt>
      <trkpt lat="45.75548" lon="5.53433">
        <ele>567.74698462672</ele>
        <time>2015-05-15T14:37:21Z</time>
      </trkpt>
      <trkpt lat="45.75556" lon="5.53439">
        <ele>568.99748024097</ele>
        <time>2015-05-15T14:37:26Z</time>
      </trkpt>
      <trkpt lat="45.75564" lon="5.53443">
        <ele>568.99748024097</ele>
        <time>2015-05-15T14:37:31Z</time>
      </trkpt>
      <trkpt lat="45.7557" lon="5.53446">
        <ele>570.17456925558</ele>
        <time>2015-05-15T14:37:36Z</time>
      </trkpt>
      <trkpt lat="45.75575" lon="5.53449">
        <ele>570.17456925558</ele>
        <time>2015-05-15T14:37:41Z</time>
      </trkpt>
      <trkpt lat="45.75578" lon="5.53452">
        <ele>571.40178301309</ele>
        <time>2015-05-15T14:37:46Z</time>
      </trkpt>
      <trkpt lat="45.75582" lon="5.53455">
        <ele>571.40178301309</ele>
        <time>2015-05-15T14:37:51Z</time>
      </trkpt>
      <trkpt lat="45.75588" lon="5.53455">
        <ele>573.54289458688</ele>
        <time>2015-05-15T14:37:56Z</time>
      </trkpt>
      <trkpt lat="45.75591" lon="5.53456">
        <ele>573.54289458688</ele>
        <time>2015-05-15T14:38:01Z</time>
      </trkpt>
      <trkpt lat="45.75591" lon="5.5346">
        <ele>573.54289458688</ele>
        <time>2015-05-15T14:38:06Z</time>
      </trkpt>
      <trkpt lat="45.75594" lon="5.53463">
        <ele>576.14196180112</ele>
        <time>2015-05-15T14:38:11Z</time>
      </trkpt>
      <trkpt lat="45.75599" lon="5.53467">
        <ele>576.14196180112</ele>
        <time>2015-05-15T14:38:16Z</time>
      </trkpt>
      <trkpt lat="45.75604" lon="5.53473">
        <ele>578.55914408792</ele>
        <time>2015-05-15T14:38:21Z</time>
      </trkpt>
      <trkpt lat="45.75604" lon="5.53475">
        <ele>578.55914408792</ele>
        <time>2015-05-15T14:38:26Z</time>
      </trkpt>
      <trkpt lat="45.75608" lon="5.53479">
        <ele>578.55914408792</ele>
        <time>2015-05-15T14:38:31Z</time>
      </trkpt>
      <trkpt lat="45.75612" lon="5.53483">
        <ele>581.00919076035</ele>
        <time>2015-05-15T14:38:36Z</time>
      </trkpt>
      <trkpt lat="45.75616" lon="5.5349">
        <ele>581.00919076035</ele>
        <time>2015-05-15T14:38:41Z</time>
      </trkpt>
      <trkpt lat="45.75618" lon="5.53496">
        <ele>582.68225588044</ele>
        <time>2015-05-15T14:38:46Z</time>
      </trkpt>
      <trkpt lat="45.75625" lon="5.535">
        <ele>582.68225588044</ele>
        <time>2015-05-15T14:38:51Z</time>
      </trkpt>
      <trkpt lat="45.75635" lon="5.535">
        <ele>583.82457570611</ele>
        <time>2015-05-15T14:38:56Z</time>
      </trkpt>
      <trkpt lat="45.75642" lon="5.53497">
        <ele>583.82457570611</ele>
        <time>2015-05-15T14:39:01Z</time>
      </trkpt>
      <trkpt lat="45.75649" lon="5.53493">
        <ele>584.75229005134</ele>
        <time>2015-05-15T14:39:06Z</time>
      </trkpt>
      <trkpt lat="45.7565" lon="5.53492">
        <ele>584.75229005134</ele>
        <time>2015-05-15T14:39:11Z</time>
      </trkpt>
      <trkpt lat="45.75654" lon="5.53488">
        <ele>584.75229005134</ele>
        <time>2015-05-15T14:39:16Z</time>
      </trkpt>
      <trkpt lat="45.75661" lon="5.53485">
        <ele>586.07598819607</ele>
        <time>2015-05-15T14:39:21Z</time>
      </trkpt>
      <trkpt lat="45.7567" lon="5.53478">
        <ele>587.0633089122</ele>
        <time>2015-05-15T14:39:26Z</time>
      </trkpt>
      <trkpt lat="45.75677" lon="5.53475">
        <ele>587.0633089122</ele>
        <time>2015-05-15T14:39:31Z</time>
      </trkpt>
      <trkpt lat="45.75683" lon="5.53474">
        <ele>588.04541410317</ele>
        <time>2015-05-15T14:39:36Z</time>
      </trkpt>
      <trkpt lat="45.7569" lon="5.53471">
        <ele>588.04541410317</ele>
        <time>2015-05-15T14:39:41Z</time>
      </trkpt>
      <trkpt lat="45.75698" lon="5.53465">
        <ele>589.35796748302</ele>
        <time>2015-05-15T14:39:46Z</time>
      </trkpt>
      <trkpt lat="45.75704" lon="5.53461">
        <ele>589.35796748302</ele>
        <time>2015-05-15T14:39:51Z</time>
      </trkpt>
      <trkpt lat="45.75709" lon="5.53458">
        <ele>591.09486452964</ele>
        <time>2015-05-15T14:39:56Z</time>
      </trkpt>
      <trkpt lat="45.75714" lon="5.53455">
        <ele>591.09486452964</ele>
        <time>2015-05-15T14:40:01Z</time>
      </trkpt>
      <trkpt lat="45.75718" lon="5.53451">
        <ele>591.78548633584</ele>
        <time>2015-05-15T14:40:06Z</time>
      </trkpt>
      <trkpt lat="45.75722" lon="5.53447">
        <ele>591.78548633584</ele>
        <time>2015-05-15T14:40:11Z</time>
      </trkpt>
      <trkpt lat="45.75727" lon="5.53446">
        <ele>593.26941515116</ele>
        <time>2015-05-15T14:40:16Z</time>
      </trkpt>
      <trkpt lat="45.75731" lon="5.5345">
        <ele>593.26941515116</ele>
        <time>2015-05-15T14:40:21Z</time>
      </trkpt>
      <trkpt lat="45.75735" lon="5.53446">
        <ele>594.58277764884</ele>
        <time>2015-05-15T14:40:26Z</time>
      </trkpt>
      <trkpt lat="45.75742" lon="5.53442">
        <ele>594.58277764884</ele>
        <time>2015-05-15T14:40:31Z</time>
      </trkpt>
      <trkpt lat="45.75746" lon="5.53438">
        <ele>596.34610791918</ele>
        <time>2015-05-15T14:40:36Z</time>
      </trkpt>
      <trkpt lat="45.7575" lon="5.53432">
        <ele>596.34610791918</ele>
        <time>2015-05-15T14:40:41Z</time>
      </trkpt>
      <trkpt lat="45.75753" lon="5.53425">
        <ele>597.51899965364</ele>
        <time>2015-05-15T14:40:46Z</time>
      </trkpt>
      <trkpt lat="45.75759" lon="5.53423">
        <ele>597.51899965364</ele>
        <time>2015-05-15T14:40:51Z</time>
      </trkpt>
      <trkpt lat="45.75764" lon="5.5342">
        <ele>597.84522112849</ele>
        <time>2015-05-15T14:40:56Z</time>
      </trkpt>
      <trkpt lat="45.75768" lon="5.53416">
        <ele>597.84522112849</ele>
        <time>2015-05-15T14:41:01Z</time>
      </trkpt>
      <trkpt lat="45.75774" lon="5.53412">
        <ele>597.89670006736</ele>
        <time>2015-05-15T14:41:06Z</time>
      </trkpt>
      <trkpt lat="45.75778" lon="5.53406">
        <ele>597.89670006736</ele>
        <time>2015-05-15T14:41:11Z</time>
      </trkpt>
      <trkpt lat="45.75782" lon="5.53397">
        <ele>598.14640772219</ele>
        <time>2015-05-15T14:41:16Z</time>
      </trkpt>
      <trkpt lat="45.75788" lon="5.53389">
        <ele>598.14640772219</ele>
        <time>2015-05-15T14:41:21Z</time>
      </trkpt>
      <trkpt lat="45.75794" lon="5.53385">
        <ele>599.19045913687</ele>
        <time>2015-05-15T14:41:26Z</time>
      </trkpt>
      <trkpt lat="45.75798" lon="5.53378">
        <ele>599.19045913687</ele>
        <time>2015-05-15T14:41:31Z</time>
      </trkpt>
      <trkpt lat="45.75804" lon="5.53373">
        <ele>600.94477636535</ele>
        <time>2015-05-15T14:41:36Z</time>
      </trkpt>
      <trkpt lat="45.75811" lon="5.53369">
        <ele>600.94477636535</ele>
        <time>2015-05-15T14:41:41Z</time>
      </trkpt>
      <trkpt lat="45.75818" lon="5.53367">
        <ele>603.15644382531</ele>
        <time>2015-05-15T14:41:46Z</time>
      </trkpt>
      <trkpt lat="45.75823" lon="5.53366">
        <ele>603.15644382531</ele>
        <time>2015-05-15T14:41:51Z</time>
      </trkpt>
      <trkpt lat="45.75828" lon="5.53365">
        <ele>605.34476647982</ele>
        <time>2015-05-15T14:41:56Z</time>
      </trkpt>
      <trkpt lat="45.75833" lon="5.53363">
        <ele>605.34476647982</ele>
        <time>2015-05-15T14:42:01Z</time>
      </trkpt>
      <trkpt lat="45.75841" lon="5.5336">
        <ele>607.58314523984</ele>
        <time>2015-05-15T14:42:06Z</time>
      </trkpt>
      <trkpt lat="45.75848" lon="5.5336">
        <ele>607.58314523984</ele>
        <time>2015-05-15T14:42:11Z</time>
      </trkpt>
      <trkpt lat="45.7585" lon="5.53359">
        <ele>609.75202958376</ele>
        <time>2015-05-15T14:42:16Z</time>
      </trkpt>
      <trkpt lat="45.75851" lon="5.53359">
        <ele>609.75202958376</ele>
        <time>2015-05-15T14:42:21Z</time>
      </trkpt>
      <trkpt lat="45.75851" lon="5.53362">
        <ele>609.75202958376</ele>
        <time>2015-05-15T14:42:26Z</time>
      </trkpt>
      <trkpt lat="45.75851" lon="5.53362">
        <ele>609.75202958376</ele>
        <time>2015-05-15T14:42:31Z</time>
      </trkpt>
      <trkpt lat="45.75851" lon="5.53362">
        <ele>609.75202958376</ele>
        <time>2015-05-15T14:42:36Z</time>
      </trkpt>
      <trkpt lat="45.75851" lon="5.53362">
        <ele>609.75202958376</ele>
        <time>2015-05-15T14:42:41Z</time>
      </trkpt>
      <trkpt lat="45.75851" lon="5.53362">
        <ele>609.75202958376</ele>
        <time>2015-05-15T14:42:46Z</time>
      </trkpt>
      <trkpt lat="45.75851" lon="5.53362">
        <ele>609.75202958376</ele>
        <time>2015-05-15T14:42:51Z</time>
      </trkpt>
      <trkpt lat="45.75851" lon="5.53362">
        <ele>609.75202958376</ele>
        <time>2015-05-15T14:42:56Z</time>
      </trkpt>
      <trkpt lat="45.75851" lon="5.53362">
        <ele>609.75202958376</ele>
        <time>2015-05-15T14:43:01Z</time>
      </trkpt>
      <trkpt lat="45.75851" lon="5.53362">
        <ele>609.75202958376</ele>
        <time>2015-05-15T14:43:06Z</time>
      </trkpt>
      <trkpt lat="45.75851" lon="5.53362">
        <ele>609.75202958376</ele>
        <time>2015-05-15T14:43:11Z</time>
      </trkpt>
      <trkpt lat="45.75851" lon="5.53362">
        <ele>609.75202958376</ele>
        <time>2015-05-15T14:43:16Z</time>
      </trkpt>
      <trkpt lat="45.75851" lon="5.53362">
        <ele>609.75202958376</ele>
        <time>2015-05-15T14:43:21Z</time>
      </trkpt>
      <trkpt lat="45.75851" lon="5.53362">
        <ele>609.75202958376</ele>
        <time>2015-05-15T14:43:26Z</time>
      </trkpt>
      <trkpt lat="45.75851" lon="5.53362">
        <ele>609.75202958376</ele>
        <time>2015-05-15T14:43:31Z</time>
      </trkpt>
      <trkpt lat="45.75851" lon="5.53362">
        <ele>609.75202958376</ele>
        <time>2015-05-15T14:43:36Z</time>
      </trkpt>
      <trkpt lat="45.75851" lon="5.53362">
        <ele>609.75202958376</ele>
        <time>2015-05-15T14:43:41Z</time>
      </trkpt>
      <trkpt lat="45.75851" lon="5.53362">
        <ele>609.75202958376</ele>
        <time>2015-05-15T14:43:46Z</time>
      </trkpt>
      <trkpt lat="45.75851" lon="5.53362">
        <ele>609.75202958376</ele>
        <time>2015-05-15T14:43:51Z</time>
      </trkpt>
      <trkpt lat="45.75851" lon="5.53362">
        <ele>609.75202958376</ele>
        <time>2015-05-15T14:43:56Z</time>
      </trkpt>
      <trkpt lat="45.75851" lon="5.53362">
        <ele>609.75202958376</ele>
        <time>2015-05-15T14:44:01Z</time>
      </trkpt>
      <trkpt lat="45.75851" lon="5.53362">
        <ele>609.75202958376</ele>
        <time>2015-05-15T14:44:06Z</time>
      </trkpt>
      <trkpt lat="45.75851" lon="5.53362">
        <ele>609.75202958376</ele>
        <time>2015-05-15T14:44:11Z</time>
      </trkpt>
      <trkpt lat="45.75851" lon="5.53362">
        <ele>609.75202958376</ele>
        <time>2015-05-15T14:44:16Z</time>
      </trkpt>
      <trkpt lat="45.75851" lon="5.53362">
        <ele>609.75202958376</ele>
        <time>2015-05-15T14:44:21Z</time>
      </trkpt>
      <trkpt lat="45.75851" lon="5.53362">
        <ele>609.75202958376</ele>
        <time>2015-05-15T14:44:26Z</time>
      </trkpt>
      <trkpt lat="45.75851" lon="5.53362">
        <ele>609.75202958376</ele>
        <time>2015-05-15T14:44:31Z</time>
      </trkpt>
      <trkpt lat="45.75851" lon="5.53362">
        <ele>609.75202958376</ele>
        <time>2015-05-15T14:44:36Z</time>
      </trkpt>
      <trkpt lat="45.75851" lon="5.53362">
        <ele>609.75202958376</ele>
        <time>2015-05-15T14:44:41Z</time>
      </trkpt>
      <trkpt lat="45.75851" lon="5.53362">
        <ele>609.75202958376</ele>
        <time>2015-05-15T14:44:46Z</time>
      </trkpt>
      <trkpt lat="45.75851" lon="5.53362">
        <ele>609.75202958376</ele>
        <time>2015-05-15T14:44:51Z</time>
      </trkpt>
      <trkpt lat="45.75851" lon="5.53362">
        <ele>609.75202958376</ele>
        <time>2015-05-15T14:44:56Z</time>
      </trkpt>
      <trkpt lat="45.75851" lon="5.53362">
        <ele>609.75202958376</ele>
        <time>2015-05-15T14:45:01Z</time>
      </trkpt>
      <trkpt lat="45.75851" lon="5.53362">
        <ele>609.75202958376</ele>
        <time>2015-05-15T14:45:06Z</time>
      </trkpt>
      <trkpt lat="45.75851" lon="5.53363">
        <ele>609.75202958376</ele>
        <time>2015-05-15T14:45:11Z</time>
      </trkpt>
      <trkpt lat="45.75853" lon="5.53364">
        <ele>609.75202958376</ele>
        <time>2015-05-15T14:45:16Z</time>
      </trkpt>
      <trkpt lat="45.75854" lon="5.53367">
        <ele>609.75202958376</ele>
        <time>2015-05-15T14:45:21Z</time>
      </trkpt>
      <trkpt lat="45.75857" lon="5.53373">
        <ele>611.79842290089</ele>
        <time>2015-05-15T14:45:26Z</time>
      </trkpt>
      <trkpt lat="45.75864" lon="5.5338">
        <ele>611.79842290089</ele>
        <time>2015-05-15T14:45:31Z</time>
      </trkpt>
      <trkpt lat="45.75872" lon="5.5339">
        <ele>614.49493879156</ele>
        <time>2015-05-15T14:45:36Z</time>
      </trkpt>
      <trkpt lat="45.7588" lon="5.53393">
        <ele>614.49493879156</ele>
        <time>2015-05-15T14:45:41Z</time>
      </trkpt>
      <trkpt lat="45.75888" lon="5.53395">
        <ele>617.5756035245</ele>
        <time>2015-05-15T14:45:46Z</time>
      </trkpt>
      <trkpt lat="45.75895" lon="5.534">
        <ele>617.5756035245</ele>
        <time>2015-05-15T14:45:51Z</time>
      </trkpt>
      <trkpt lat="45.75902" lon="5.53405">
        <ele>621.62870790316</ele>
        <time>2015-05-15T14:45:56Z</time>
      </trkpt>
      <trkpt lat="45.75904" lon="5.53414">
        <ele>621.62870790316</ele>
        <time>2015-05-15T14:46:01Z</time>
      </trkpt>
      <trkpt lat="45.75909" lon="5.53422">
        <ele>625.82751609817</ele>
        <time>2015-05-15T14:46:06Z</time>
      </trkpt>
      <trkpt lat="45.75912" lon="5.53434">
        <ele>625.82751609817</ele>
        <time>2015-05-15T14:46:11Z</time>
      </trkpt>
      <trkpt lat="45.75913" lon="5.53436">
        <ele>630.0541049452</ele>
        <time>2015-05-15T14:46:16Z</time>
      </trkpt>
      <trkpt lat="45.75913" lon="5.53436">
        <ele>630.0541049452</ele>
        <time>2015-05-15T14:46:21Z</time>
      </trkpt>
      <trkpt lat="45.75914" lon="5.53434">
        <ele>630.0541049452</ele>
        <time>2015-05-15T14:46:26Z</time>
      </trkpt>
      <trkpt lat="45.75915" lon="5.53432">
        <ele>630.0541049452</ele>
        <time>2015-05-15T14:46:31Z</time>
      </trkpt>
      <trkpt lat="45.75914" lon="5.53432">
        <ele>630.0541049452</ele>
        <time>2015-05-15T14:46:36Z</time>
      </trkpt>
      <trkpt lat="45.75914" lon="5.53432">
        <ele>630.0541049452</ele>
        <time>2015-05-15T14:46:41Z</time>
      </trkpt>
      <trkpt lat="45.75914" lon="5.53432">
        <ele>630.0541049452</ele>
        <time>2015-05-15T14:46:46Z</time>
      </trkpt>
      <trkpt lat="45.75914" lon="5.53432">
        <ele>630.0541049452</ele>
        <time>2015-05-15T14:46:51Z</time>
      </trkpt>
      <trkpt lat="45.75914" lon="5.53432">
        <ele>630.0541049452</ele>
        <time>2015-05-15T14:46:56Z</time>
      </trkpt>
      <trkpt lat="45.75914" lon="5.53432">
        <ele>630.0541049452</ele>
        <time>2015-05-15T14:47:01Z</time>
      </trkpt>
      <trkpt lat="45.75914" lon="5.53433">
        <ele>630.0541049452</ele>
        <time>2015-05-15T14:47:06Z</time>
      </trkpt>
      <trkpt lat="45.75915" lon="5.53435">
        <ele>630.0541049452</ele>
        <time>2015-05-15T14:47:11Z</time>
      </trkpt>
      <trkpt lat="45.75918" lon="5.53438">
        <ele>633.88209854306</ele>
        <time>2015-05-15T14:47:16Z</time>
      </trkpt>
      <trkpt lat="45.75918" lon="5.5344">
        <ele>633.88209854306</ele>
        <time>2015-05-15T14:47:21Z</time>
      </trkpt>
      <trkpt lat="45.75918" lon="5.5344">
        <ele>633.88209854306</ele>
        <time>2015-05-15T14:47:26Z</time>
      </trkpt>
      <trkpt lat="45.75918" lon="5.53441">
        <ele>633.88209854306</ele>
        <time>2015-05-15T14:47:31Z</time>
      </trkpt>
      <trkpt lat="45.75918" lon="5.53442">
        <ele>633.88209854306</ele>
        <time>2015-05-15T14:47:36Z</time>
      </trkpt>
      <trkpt lat="45.75917" lon="5.53442">
        <ele>633.88209854306</ele>
        <time>2015-05-15T14:47:41Z</time>
      </trkpt>
      <trkpt lat="45.75917" lon="5.53442">
        <ele>633.88209854306</ele>
        <time>2015-05-15T14:47:46Z</time>
      </trkpt>
      <trkpt lat="45.75917" lon="5.53442">
        <ele>633.88209854306</ele>
        <time>2015-05-15T14:47:51Z</time>
      </trkpt>
      <trkpt lat="45.75917" lon="5.53442">
        <ele>633.88209854306</ele>
        <time>2015-05-15T14:47:56Z</time>
      </trkpt>
      <trkpt lat="45.75917" lon="5.53442">
        <ele>633.88209854306</ele>
        <time>2015-05-15T14:48:01Z</time>
      </trkpt>
      <trkpt lat="45.75917" lon="5.53442">
        <ele>633.88209854306</ele>
        <time>2015-05-15T14:48:06Z</time>
      </trkpt>
      <trkpt lat="45.75917" lon="5.53442">
        <ele>633.88209854306</ele>
        <time>2015-05-15T14:48:11Z</time>
      </trkpt>
      <trkpt lat="45.75917" lon="5.53442">
        <ele>633.88209854306</ele>
        <time>2015-05-15T14:48:16Z</time>
      </trkpt>
      <trkpt lat="45.75917" lon="5.53442">
        <ele>633.88209854306</ele>
        <time>2015-05-15T14:48:21Z</time>
      </trkpt>
      <trkpt lat="45.75917" lon="5.53442">
        <ele>633.88209854306</ele>
        <time>2015-05-15T14:48:26Z</time>
      </trkpt>
      <trkpt lat="45.75917" lon="5.53442">
        <ele>633.88209854306</ele>
        <time>2015-05-15T14:48:31Z</time>
      </trkpt>
      <trkpt lat="45.75917" lon="5.53442">
        <ele>633.88209854306</ele>
        <time>2015-05-15T14:48:36Z</time>
      </trkpt>
      <trkpt lat="45.75917" lon="5.53442">
        <ele>633.88209854306</ele>
        <time>2015-05-15T14:48:41Z</time>
      </trkpt>
      <trkpt lat="45.75917" lon="5.53442">
        <ele>633.88209854306</ele>
        <time>2015-05-15T14:48:46Z</time>
      </trkpt>
      <trkpt lat="45.75917" lon="5.53442">
        <ele>633.88209854306</ele>
        <time>2015-05-15T14:48:51Z</time>
      </trkpt>
      <trkpt lat="45.75917" lon="5.53442">
        <ele>633.88209854306</ele>
        <time>2015-05-15T14:48:56Z</time>
      </trkpt>
      <trkpt lat="45.75916" lon="5.53443">
        <ele>633.88209854306</ele>
        <time>2015-05-15T14:49:01Z</time>
      </trkpt>
      <trkpt lat="45.75917" lon="5.53447">
        <ele>633.88209854306</ele>
        <time>2015-05-15T14:49:06Z</time>
      </trkpt>
      <trkpt lat="45.75917" lon="5.53448">
        <ele>638.4163423853</ele>
        <time>2015-05-15T14:49:11Z</time>
      </trkpt>
      <trkpt lat="45.75918" lon="5.53449">
        <ele>638.4163423853</ele>
        <time>2015-05-15T14:49:16Z</time>
      </trkpt>
      <trkpt lat="45.75917" lon="5.53449">
        <ele>638.4163423853</ele>
        <time>2015-05-15T14:49:21Z</time>
      </trkpt>
      <trkpt lat="45.75918" lon="5.53449">
        <ele>638.4163423853</ele>
        <time>2015-05-15T14:49:26Z</time>
      </trkpt>
      <trkpt lat="45.75917" lon="5.53454">
        <ele>638.4163423853</ele>
        <time>2015-05-15T14:49:31Z</time>
      </trkpt>
      <trkpt lat="45.75914" lon="5.53459">
        <ele>642.92042635716</ele>
        <time>2015-05-15T14:49:36Z</time>
      </trkpt>
      <trkpt lat="45.75912" lon="5.53464">
        <ele>642.92042635716</ele>
        <time>2015-05-15T14:49:41Z</time>
      </trkpt>
      <trkpt lat="45.75913" lon="5.53469">
        <ele>642.92042635716</ele>
        <time>2015-05-15T14:49:46Z</time>
      </trkpt>
      <trkpt lat="45.75911" lon="5.53474">
        <ele>647.47597024063</ele>
        <time>2015-05-15T14:49:51Z</time>
      </trkpt>
      <trkpt lat="45.75909" lon="5.53478">
        <ele>647.47597024063</ele>
        <time>2015-05-15T14:49:56Z</time>
      </trkpt>
      <trkpt lat="45.7591" lon="5.5348">
        <ele>647.47597024063</ele>
        <time>2015-05-15T14:50:01Z</time>
      </trkpt>
      <trkpt lat="45.7591" lon="5.53481">
        <ele>647.47597024063</ele>
        <time>2015-05-15T14:50:06Z</time>
      </trkpt>
      <trkpt lat="45.7591" lon="5.53481">
        <ele>647.47597024063</ele>
        <time>2015-05-15T14:50:11Z</time>
      </trkpt>
      <trkpt lat="45.7591" lon="5.53482">
        <ele>647.47597024063</ele>
        <time>2015-05-15T14:50:16Z</time>
      </trkpt>
      <trkpt lat="45.7591" lon="5.53487">
        <ele>651.59649537177</ele>
        <time>2015-05-15T14:50:21Z</time>
      </trkpt>
      <trkpt lat="45.75911" lon="5.53493">
        <ele>651.59649537177</ele>
        <time>2015-05-15T14:50:26Z</time>
      </trkpt>
      <trkpt lat="45.75911" lon="5.535">
        <ele>651.59649537177</ele>
        <time>2015-05-15T14:50:31Z</time>
      </trkpt>
      <trkpt lat="45.75909" lon="5.53504">
        <ele>655.5675361488</ele>
        <time>2015-05-15T14:50:36Z</time>
      </trkpt>
      <trkpt lat="45.75909" lon="5.53507">
        <ele>655.5675361488</ele>
        <time>2015-05-15T14:50:41Z</time>
      </trkpt>
      <trkpt lat="45.75909" lon="5.53509">
        <ele>655.5675361488</ele>
        <time>2015-05-15T14:50:46Z</time>
      </trkpt>
      <trkpt lat="45.75909" lon="5.53513">
        <ele>655.5675361488</ele>
        <time>2015-05-15T14:50:51Z</time>
      </trkpt>
      <trkpt lat="45.75908" lon="5.53515">
        <ele>655.5675361488</ele>
        <time>2015-05-15T14:50:56Z</time>
      </trkpt>
      <trkpt lat="45.75908" lon="5.53517">
        <ele>655.5675361488</ele>
        <time>2015-05-15T14:51:01Z</time>
      </trkpt>
      <trkpt lat="45.75908" lon="5.53517">
        <ele>659.35153840906</ele>
        <time>2015-05-15T14:51:06Z</time>
      </trkpt>
      <trkpt lat="45.75908" lon="5.5352">
        <ele>659.35153840906</ele>
        <time>2015-05-15T14:51:11Z</time>
      </trkpt>
      <trkpt lat="45.7591" lon="5.53526">
        <ele>659.35153840906</ele>
        <time>2015-05-15T14:51:16Z</time>
      </trkpt>
      <trkpt lat="45.75911" lon="5.53529">
        <ele>662.56847321849</ele>
        <time>2015-05-15T14:51:21Z</time>
      </trkpt>
      <trkpt lat="45.7591" lon="5.5353">
        <ele>662.56847321849</ele>
        <time>2015-05-15T14:51:26Z</time>
      </trkpt>
      <trkpt lat="45.7591" lon="5.53531">
        <ele>662.56847321849</ele>
        <time>2015-05-15T14:51:31Z</time>
      </trkpt>
      <trkpt lat="45.75911" lon="5.53533">
        <ele>662.56847321849</ele>
        <time>2015-05-15T14:51:36Z</time>
      </trkpt>
      <trkpt lat="45.75911" lon="5.53536">
        <ele>662.56847321849</ele>
        <time>2015-05-15T14:51:41Z</time>
      </trkpt>
      <trkpt lat="45.75911" lon="5.53538">
        <ele>662.56847321849</ele>
        <time>2015-05-15T14:51:46Z</time>
      </trkpt>
      <trkpt lat="45.75911" lon="5.53542">
        <ele>665.9631778626</ele>
        <time>2015-05-15T14:51:51Z</time>
      </trkpt>
      <trkpt lat="45.7591" lon="5.53545">
        <ele>665.9631778626</ele>
        <time>2015-05-15T14:51:56Z</time>
      </trkpt>
      <trkpt lat="45.7591" lon="5.53549">
        <ele>665.9631778626</ele>
        <time>2015-05-15T14:52:01Z</time>
      </trkpt>
      <trkpt lat="45.75909" lon="5.53553">
        <ele>665.9631778626</ele>
        <time>2015-05-15T14:52:06Z</time>
      </trkpt>
      <trkpt lat="45.7591" lon="5.53556">
        <ele>669.72100401932</ele>
        <time>2015-05-15T14:52:11Z</time>
      </trkpt>
      <trkpt lat="45.75909" lon="5.53559">
        <ele>669.72100401932</ele>
        <time>2015-05-15T14:52:16Z</time>
      </trkpt>
      <trkpt lat="45.7591" lon="5.53559">
        <ele>669.72100401932</ele>
        <time>2015-05-15T14:52:21Z</time>
      </trkpt>
      <trkpt lat="45.75909" lon="5.53559">
        <ele>669.72100401932</ele>
        <time>2015-05-15T14:52:26Z</time>
      </trkpt>
      <trkpt lat="45.75909" lon="5.53559">
        <ele>669.72100401932</ele>
        <time>2015-05-15T14:52:31Z</time>
      </trkpt>
      <trkpt lat="45.75909" lon="5.53559">
        <ele>669.72100401932</ele>
        <time>2015-05-15T14:52:36Z</time>
      </trkpt>
      <trkpt lat="45.7591" lon="5.5356">
        <ele>669.72100401932</ele>
        <time>2015-05-15T14:52:41Z</time>
      </trkpt>
      <trkpt lat="45.7591" lon="5.53561">
        <ele>669.72100401932</ele>
        <time>2015-05-15T14:52:46Z</time>
      </trkpt>
      <trkpt lat="45.7591" lon="5.53561">
        <ele>669.72100401932</ele>
        <time>2015-05-15T14:52:51Z</time>
      </trkpt>
      <trkpt lat="45.7591" lon="5.53561">
        <ele>669.72100401932</ele>
        <time>2015-05-15T14:52:56Z</time>
      </trkpt>
      <trkpt lat="45.7591" lon="5.53561">
        <ele>669.72100401932</ele>
        <time>2015-05-15T14:53:01Z</time>
      </trkpt>
      <trkpt lat="45.7591" lon="5.53561">
        <ele>669.72100401932</ele>
        <time>2015-05-15T14:53:06Z</time>
      </trkpt>
      <trkpt lat="45.75908" lon="5.5356">
        <ele>669.72100401932</ele>
        <time>2015-05-15T14:53:11Z</time>
      </trkpt>
      <trkpt lat="45.75907" lon="5.53561">
        <ele>669.72100401932</ele>
        <time>2015-05-15T14:53:16Z</time>
      </trkpt>
      <trkpt lat="45.75907" lon="5.53562">
        <ele>673.53722206895</ele>
        <time>2015-05-15T14:53:21Z</time>
      </trkpt>
      <trkpt lat="45.75906" lon="5.53562">
        <ele>673.53722206895</ele>
        <time>2015-05-15T14:53:26Z</time>
      </trkpt>
      <trkpt lat="45.75907" lon="5.53565">
        <ele>673.53722206895</ele>
        <time>2015-05-15T14:53:31Z</time>
      </trkpt>
      <trkpt lat="45.75906" lon="5.53567">
        <ele>673.53722206895</ele>
        <time>2015-05-15T14:53:36Z</time>
      </trkpt>
      <trkpt lat="45.75904" lon="5.53568">
        <ele>673.53722206895</ele>
        <time>2015-05-15T14:53:41Z</time>
      </trkpt>
      <trkpt lat="45.75903" lon="5.53568">
        <ele>673.53722206895</ele>
        <time>2015-05-15T14:53:46Z</time>
      </trkpt>
      <trkpt lat="45.75903" lon="5.53567">
        <ele>673.53722206895</ele>
        <time>2015-05-15T14:53:51Z</time>
      </trkpt>
      <trkpt lat="45.75902" lon="5.53567">
        <ele>673.53722206895</ele>
        <time>2015-05-15T14:53:56Z</time>
      </trkpt>
      <trkpt lat="45.75902" lon="5.53567">
        <ele>673.53722206895</ele>
        <time>2015-05-15T14:54:01Z</time>
      </trkpt>
      <trkpt lat="45.75902" lon="5.53568">
        <ele>673.53722206895</ele>
        <time>2015-05-15T14:54:06Z</time>
      </trkpt>
      <trkpt lat="45.75901" lon="5.53568">
        <ele>677.86441413183</ele>
        <time>2015-05-15T14:54:11Z</time>
      </trkpt>
      <trkpt lat="45.75895" lon="5.53571">
        <ele>677.86441413183</ele>
        <time>2015-05-15T14:54:16Z</time>
      </trkpt>
      <trkpt lat="45.75894" lon="5.53574">
        <ele>677.86441413183</ele>
        <time>2015-05-15T14:54:21Z</time>
      </trkpt>
      <trkpt lat="45.75892" lon="5.53574">
        <ele>681.73714227354</ele>
        <time>2015-05-15T14:54:26Z</time>
      </trkpt>
      <trkpt lat="45.75892" lon="5.53575">
        <ele>681.73714227354</ele>
        <time>2015-05-15T14:54:41Z</time>
      </trkpt>
      <trkpt lat="45.75886" lon="5.53587">
        <ele>684.60816006185</ele>
        <time>2015-05-15T14:54:46Z</time>
      </trkpt>
      <trkpt lat="45.7588" lon="5.53595">
        <ele>684.60816006185</ele>
        <time>2015-05-15T14:54:51Z</time>
      </trkpt>
      <trkpt lat="45.75876" lon="5.53602">
        <ele>687.05419441614</ele>
        <time>2015-05-15T14:54:56Z</time>
      </trkpt>
      <trkpt lat="45.75872" lon="5.53607">
        <ele>687.05419441614</ele>
        <time>2015-05-15T14:55:01Z</time>
      </trkpt>
      <trkpt lat="45.75871" lon="5.53617">
        <ele>689.00565638352</ele>
        <time>2015-05-15T14:55:06Z</time>
      </trkpt>
      <trkpt lat="45.75869" lon="5.53625">
        <ele>689.00565638352</ele>
        <time>2015-05-15T14:55:11Z</time>
      </trkpt>
      <trkpt lat="45.75866" lon="5.53632">
        <ele>690.67338349349</ele>
        <time>2015-05-15T14:55:16Z</time>
      </trkpt>
      <trkpt lat="45.75863" lon="5.53638">
        <ele>690.67338349349</ele>
        <time>2015-05-15T14:55:21Z</time>
      </trkpt>
      <trkpt lat="45.75857" lon="5.53644">
        <ele>692.7147812621</ele>
        <time>2015-05-15T14:55:26Z</time>
      </trkpt>
      <trkpt lat="45.75856" lon="5.53651">
        <ele>692.7147812621</ele>
        <time>2015-05-15T14:55:31Z</time>
      </trkpt>
      <trkpt lat="45.75853" lon="5.53658">
        <ele>694.36894920191</ele>
        <time>2015-05-15T14:55:36Z</time>
      </trkpt>
      <trkpt lat="45.75849" lon="5.53666">
        <ele>694.36894920191</ele>
        <time>2015-05-15T14:55:41Z</time>
      </trkpt>
      <trkpt lat="45.75845" lon="5.53672">
        <ele>695.83994582632</ele>
        <time>2015-05-15T14:55:46Z</time>
      </trkpt>
      <trkpt lat="45.75841" lon="5.53675">
        <ele>695.83994582632</ele>
        <time>2015-05-15T14:55:51Z</time>
      </trkpt>
      <trkpt lat="45.75838" lon="5.53681">
        <ele>697.43270592208</ele>
        <time>2015-05-15T14:55:56Z</time>
      </trkpt>
      <trkpt lat="45.75836" lon="5.53689">
        <ele>697.43270592208</ele>
        <time>2015-05-15T14:56:01Z</time>
      </trkpt>
      <trkpt lat="45.75831" lon="5.53696">
        <ele>699.17007284056</ele>
        <time>2015-05-15T14:56:06Z</time>
      </trkpt>
      <trkpt lat="45.75825" lon="5.53708">
        <ele>700.89991082766</ele>
        <time>2015-05-15T14:56:11Z</time>
      </trkpt>
      <trkpt lat="45.75822" lon="5.53712">
        <ele>700.89991082766</ele>
        <time>2015-05-15T14:56:16Z</time>
      </trkpt>
      <trkpt lat="45.75824" lon="5.5372">
        <ele>701.86162828521</ele>
        <time>2015-05-15T14:56:21Z</time>
      </trkpt>
      <trkpt lat="45.75824" lon="5.53729">
        <ele>701.86162828521</ele>
        <time>2015-05-15T14:56:26Z</time>
      </trkpt>
      <trkpt lat="45.75823" lon="5.5374">
        <ele>702.02999491733</ele>
        <time>2015-05-15T14:56:31Z</time>
      </trkpt>
      <trkpt lat="45.75819" lon="5.53748">
        <ele>702.02999491733</ele>
        <time>2015-05-15T14:56:36Z</time>
      </trkpt>
      <trkpt lat="45.75816" lon="5.53759">
        <ele>701.93147749934</ele>
        <time>2015-05-15T14:56:41Z</time>
      </trkpt>
      <trkpt lat="45.75814" lon="5.53765">
        <ele>701.93147749934</ele>
        <time>2015-05-15T14:56:46Z</time>
      </trkpt>
      <trkpt lat="45.75811" lon="5.53769">
        <ele>701.93147749934</ele>
        <time>2015-05-15T14:56:51Z</time>
      </trkpt>
      <trkpt lat="45.7581" lon="5.53776">
        <ele>701.37727186492</ele>
        <time>2015-05-15T14:56:56Z</time>
      </trkpt>
      <trkpt lat="45.75806" lon="5.53781">
        <ele>701.37727186492</ele>
        <time>2015-05-15T14:57:01Z</time>
      </trkpt>
      <trkpt lat="45.75802" lon="5.53788">
        <ele>701.24568953617</ele>
        <time>2015-05-15T14:57:06Z</time>
      </trkpt>
      <trkpt lat="45.75798" lon="5.53796">
        <ele>701.24568953617</ele>
        <time>2015-05-15T14:57:11Z</time>
      </trkpt>
      <trkpt lat="45.75796" lon="5.53806">
        <ele>701.34049412718</ele>
        <time>2015-05-15T14:57:16Z</time>
      </trkpt>
      <trkpt lat="45.75791" lon="5.53814">
        <ele>701.34049412718</ele>
        <time>2015-05-15T14:57:21Z</time>
      </trkpt>
      <trkpt lat="45.75788" lon="5.53822">
        <ele>701.85383677138</ele>
        <time>2015-05-15T14:57:26Z</time>
      </trkpt>
      <trkpt lat="45.75785" lon="5.53828">
        <ele>701.85383677138</ele>
        <time>2015-05-15T14:57:31Z</time>
      </trkpt>
      <trkpt lat="45.75779" lon="5.53834">
        <ele>702.35721534823</ele>
        <time>2015-05-15T14:57:36Z</time>
      </trkpt>
      <trkpt lat="45.7578" lon="5.53838">
        <ele>702.35721534823</ele>
        <time>2015-05-15T14:57:41Z</time>
      </trkpt>
      <trkpt lat="45.75781" lon="5.53844">
        <ele>702.35721534823</ele>
        <time>2015-05-15T14:57:46Z</time>
      </trkpt>
      <trkpt lat="45.75781" lon="5.53856">
        <ele>702.61204636649</ele>
        <time>2015-05-15T14:57:51Z</time>
      </trkpt>
      <trkpt lat="45.75775" lon="5.53865">
        <ele>702.61204636649</ele>
        <time>2015-05-15T14:57:56Z</time>
      </trkpt>
      <trkpt lat="45.75772" lon="5.53874">
        <ele>702.62842796997</ele>
        <time>2015-05-15T14:58:01Z</time>
      </trkpt>
      <trkpt lat="45.75769" lon="5.53881">
        <ele>702.62842796997</ele>
        <time>2015-05-15T14:58:06Z</time>
      </trkpt>
      <trkpt lat="45.75763" lon="5.53886">
        <ele>703.9870701063</ele>
        <time>2015-05-15T14:58:11Z</time>
      </trkpt>
      <trkpt lat="45.7576" lon="5.53893">
        <ele>703.9870701063</ele>
        <time>2015-05-15T14:58:16Z</time>
      </trkpt>
      <trkpt lat="45.75758" lon="5.53901">
        <ele>705.59789942664</ele>
        <time>2015-05-15T14:58:21Z</time>
      </trkpt>
      <trkpt lat="45.75757" lon="5.53911">
        <ele>705.59789942664</ele>
        <time>2015-05-15T14:58:26Z</time>
      </trkpt>
      <trkpt lat="45.75758" lon="5.53921">
        <ele>706.04656371395</ele>
        <time>2015-05-15T14:58:31Z</time>
      </trkpt>
      <trkpt lat="45.75756" lon="5.53929">
        <ele>706.04656371395</ele>
        <time>2015-05-15T14:58:36Z</time>
      </trkpt>
      <trkpt lat="45.75757" lon="5.53937">
        <ele>706.31709733293</ele>
        <time>2015-05-15T14:58:41Z</time>
      </trkpt>
      <trkpt lat="45.75756" lon="5.53945">
        <ele>706.31709733293</ele>
        <time>2015-05-15T14:58:46Z</time>
      </trkpt>
      <trkpt lat="45.75757" lon="5.53954">
        <ele>707.40807515654</ele>
        <time>2015-05-15T14:58:51Z</time>
      </trkpt>
      <trkpt lat="45.75754" lon="5.53963">
        <ele>707.40807515654</ele>
        <time>2015-05-15T14:58:56Z</time>
      </trkpt>
      <trkpt lat="45.7575" lon="5.53967">
        <ele>709.08938670674</ele>
        <time>2015-05-15T14:59:01Z</time>
      </trkpt>
      <trkpt lat="45.75751" lon="5.53973">
        <ele>709.08938670674</ele>
        <time>2015-05-15T14:59:06Z</time>
      </trkpt>
      <trkpt lat="45.7575" lon="5.53979">
        <ele>709.08938670674</ele>
        <time>2015-05-15T14:59:11Z</time>
      </trkpt>
      <trkpt lat="45.7575" lon="5.53987">
        <ele>710.2093065654</ele>
        <time>2015-05-15T14:59:16Z</time>
      </trkpt>
      <trkpt lat="45.75752" lon="5.53998">
        <ele>710.2093065654</ele>
        <time>2015-05-15T14:59:21Z</time>
      </trkpt>
      <trkpt lat="45.75752" lon="5.54006">
        <ele>711.08561788956</ele>
        <time>2015-05-15T14:59:26Z</time>
      </trkpt>
      <trkpt lat="45.75752" lon="5.54008">
        <ele>711.08561788956</ele>
        <time>2015-05-15T14:59:31Z</time>
      </trkpt>
      <trkpt lat="45.75752" lon="5.54012">
        <ele>711.08561788956</ele>
        <time>2015-05-15T14:59:36Z</time>
      </trkpt>
      <trkpt lat="45.75752" lon="5.54013">
        <ele>711.08561788956</ele>
        <time>2015-05-15T14:59:41Z</time>
      </trkpt>
      <trkpt lat="45.75752" lon="5.54017">
        <ele>711.08561788956</ele>
        <time>2015-05-15T14:59:46Z</time>
      </trkpt>
      <trkpt lat="45.75749" lon="5.54034">
        <ele>713.45442138807</ele>
        <time>2015-05-15T14:59:51Z</time>
      </trkpt>
      <trkpt lat="45.75746" lon="5.54051">
        <ele>716.10980377047</ele>
        <time>2015-05-15T14:59:56Z</time>
      </trkpt>
      <trkpt lat="45.75747" lon="5.54066">
        <ele>718.61083824129</ele>
        <time>2015-05-15T15:00:01Z</time>
      </trkpt>
      <trkpt lat="45.75745" lon="5.54077">
        <ele>718.61083824129</ele>
        <time>2015-05-15T15:00:06Z</time>
      </trkpt>
      <trkpt lat="45.75745" lon="5.54089">
        <ele>721.22663759379</ele>
        <time>2015-05-15T15:00:11Z</time>
      </trkpt>
      <trkpt lat="45.75747" lon="5.541">
        <ele>721.22663759379</ele>
        <time>2015-05-15T15:00:16Z</time>
      </trkpt>
      <trkpt lat="45.75751" lon="5.54106">
        <ele>723.03882934193</ele>
        <time>2015-05-15T15:00:21Z</time>
      </trkpt>
      <trkpt lat="45.75754" lon="5.54112">
        <ele>723.03882934193</ele>
        <time>2015-05-15T15:00:26Z</time>
      </trkpt>
      <trkpt lat="45.75754" lon="5.54119">
        <ele>724.00569620481</ele>
        <time>2015-05-15T15:00:31Z</time>
      </trkpt>
      <trkpt lat="45.75755" lon="5.54126">
        <ele>724.00569620481</ele>
        <time>2015-05-15T15:00:36Z</time>
      </trkpt>
      <trkpt lat="45.75754" lon="5.54133">
        <ele>725.14288985091</ele>
        <time>2015-05-15T15:00:41Z</time>
      </trkpt>
      <trkpt lat="45.75753" lon="5.5414">
        <ele>725.14288985091</ele>
        <time>2015-05-15T15:00:46Z</time>
      </trkpt>
      <trkpt lat="45.75756" lon="5.54149">
        <ele>726.31006588968</ele>
        <time>2015-05-15T15:00:51Z</time>
      </trkpt>
      <trkpt lat="45.7576" lon="5.54159">
        <ele>726.31006588968</ele>
        <time>2015-05-15T15:00:56Z</time>
      </trkpt>
      <trkpt lat="45.75761" lon="5.54167">
        <ele>727.14645243802</ele>
        <time>2015-05-15T15:01:01Z</time>
      </trkpt>
      <trkpt lat="45.75763" lon="5.54173">
        <ele>727.14645243802</ele>
        <time>2015-05-15T15:01:06Z</time>
      </trkpt>
      <trkpt lat="45.75763" lon="5.54178">
        <ele>727.14645243802</ele>
        <time>2015-05-15T15:01:11Z</time>
      </trkpt>
      <trkpt lat="45.75767" lon="5.54187">
        <ele>727.23216373526</ele>
        <time>2015-05-15T15:01:16Z</time>
      </trkpt>
      <trkpt lat="45.75765" lon="5.54196">
        <ele>727.23216373526</ele>
        <time>2015-05-15T15:01:21Z</time>
      </trkpt>
      <trkpt lat="45.75762" lon="5.54207">
        <ele>728.22656426161</ele>
        <time>2015-05-15T15:01:26Z</time>
      </trkpt>
      <trkpt lat="45.75759" lon="5.54216">
        <ele>728.22656426161</ele>
        <time>2015-05-15T15:01:31Z</time>
      </trkpt>
      <trkpt lat="45.75759" lon="5.54227">
        <ele>729.3010695652</ele>
        <time>2015-05-15T15:01:36Z</time>
      </trkpt>
      <trkpt lat="45.75755" lon="5.54236">
        <ele>729.3010695652</ele>
        <time>2015-05-15T15:01:41Z</time>
      </trkpt>
      <trkpt lat="45.75752" lon="5.54241">
        <ele>729.80294347545</ele>
        <time>2015-05-15T15:01:46Z</time>
      </trkpt>
      <trkpt lat="45.75753" lon="5.54242">
        <ele>729.80294347545</ele>
        <time>2015-05-15T15:01:51Z</time>
      </trkpt>
      <trkpt lat="45.75751" lon="5.54244">
        <ele>729.80294347545</ele>
        <time>2015-05-15T15:01:56Z</time>
      </trkpt>
      <trkpt lat="45.75751" lon="5.54246">
        <ele>729.80294347545</ele>
        <time>2015-05-15T15:02:01Z</time>
      </trkpt>
      <trkpt lat="45.75751" lon="5.54248">
        <ele>729.80294347545</ele>
        <time>2015-05-15T15:02:06Z</time>
      </trkpt>
      <trkpt lat="45.75751" lon="5.54255">
        <ele>731.18971188922</ele>
        <time>2015-05-15T15:02:11Z</time>
      </trkpt>
      <trkpt lat="45.75752" lon="5.54262">
        <ele>731.18971188922</ele>
        <time>2015-05-15T15:02:16Z</time>
      </trkpt>
      <trkpt lat="45.75754" lon="5.54269">
        <ele>731.97027597065</ele>
        <time>2015-05-15T15:02:21Z</time>
      </trkpt>
      <trkpt lat="45.75756" lon="5.54279">
        <ele>731.97027597065</ele>
        <time>2015-05-15T15:02:29Z</time>
      </trkpt>
      <trkpt lat="45.75757" lon="5.54281">
        <ele>732.86871304823</ele>
        <time>2015-05-15T15:02:31Z</time>
      </trkpt>
      <trkpt lat="45.75762" lon="5.54294">
        <ele>733.31614074823</ele>
        <time>2015-05-15T15:02:36Z</time>
      </trkpt>
      <trkpt lat="45.75763" lon="5.54303">
        <ele>733.31614074823</ele>
        <time>2015-05-15T15:02:41Z</time>
      </trkpt>
      <trkpt lat="45.75765" lon="5.54315">
        <ele>733.6369044997</ele>
        <time>2015-05-15T15:02:46Z</time>
      </trkpt>
      <trkpt lat="45.75769" lon="5.54328">
        <ele>734.27590573789</ele>
        <time>2015-05-15T15:02:51Z</time>
      </trkpt>
      <trkpt lat="45.7577" lon="5.54336">
        <ele>734.27590573789</ele>
        <time>2015-05-15T15:02:56Z</time>
      </trkpt>
      <trkpt lat="45.75769" lon="5.54341">
        <ele>735.06794085241</ele>
        <time>2015-05-15T15:03:01Z</time>
      </trkpt>
      <trkpt lat="45.7577" lon="5.54342">
        <ele>735.06794085241</ele>
        <time>2015-05-15T15:03:06Z</time>
      </trkpt>
      <trkpt lat="45.7577" lon="5.54343">
        <ele>735.06794085241</ele>
        <time>2015-05-15T15:03:11Z</time>
      </trkpt>
      <trkpt lat="45.7577" lon="5.54344">
        <ele>735.06794085241</ele>
        <time>2015-05-15T15:03:16Z</time>
      </trkpt>
      <trkpt lat="45.7577" lon="5.54344">
        <ele>735.06794085241</ele>
        <time>2015-05-15T15:03:21Z</time>
      </trkpt>
      <trkpt lat="45.7577" lon="5.54344">
        <ele>735.06794085241</ele>
        <time>2015-05-15T15:03:26Z</time>
      </trkpt>
      <trkpt lat="45.75778" lon="5.54361">
        <ele>735.29739190474</ele>
        <time>2015-05-15T15:03:31Z</time>
      </trkpt>
      <trkpt lat="45.75773" lon="5.54376">
        <ele>735.85910060781</ele>
        <time>2015-05-15T15:03:36Z</time>
      </trkpt>
      <trkpt lat="45.75772" lon="5.54398">
        <ele>735.52036231927</ele>
        <time>2015-05-15T15:03:41Z</time>
      </trkpt>
      <trkpt lat="45.75776" lon="5.54409">
        <ele>735.52036231927</ele>
        <time>2015-05-15T15:03:46Z</time>
      </trkpt>
      <trkpt lat="45.75778" lon="5.54414">
        <ele>736.71541869866</ele>
        <time>2015-05-15T15:03:51Z</time>
      </trkpt>
      <trkpt lat="45.75776" lon="5.54424">
        <ele>736.71541869866</ele>
        <time>2015-05-15T15:03:56Z</time>
      </trkpt>
      <trkpt lat="45.75786" lon="5.54432">
        <ele>738.8130785774</ele>
        <time>2015-05-15T15:04:01Z</time>
      </trkpt>
      <trkpt lat="45.75795" lon="5.54443">
        <ele>741.83117014335</ele>
        <time>2015-05-15T15:04:06Z</time>
      </trkpt>
      <trkpt lat="45.75793" lon="5.5445">
        <ele>741.83117014335</ele>
        <time>2015-05-15T15:04:11Z</time>
      </trkpt>
      <trkpt lat="45.75792" lon="5.54457">
        <ele>743.98216743134</ele>
        <time>2015-05-15T15:04:16Z</time>
      </trkpt>
      <trkpt lat="45.75793" lon="5.54465">
        <ele>743.98216743134</ele>
        <time>2015-05-15T15:04:21Z</time>
      </trkpt>
      <trkpt lat="45.75793" lon="5.54473">
        <ele>746.22064063203</ele>
        <time>2015-05-15T15:04:26Z</time>
      </trkpt>
      <trkpt lat="45.75794" lon="5.5448">
        <ele>746.22064063203</ele>
        <time>2015-05-15T15:04:31Z</time>
      </trkpt>
      <trkpt lat="45.75796" lon="5.54483">
        <ele>746.22064063203</ele>
        <time>2015-05-15T15:04:36Z</time>
      </trkpt>
      <trkpt lat="45.75799" lon="5.54488">
        <ele>747.39877840429</ele>
        <time>2015-05-15T15:04:41Z</time>
      </trkpt>
      <trkpt lat="45.75802" lon="5.54498">
        <ele>747.39877840429</ele>
        <time>2015-05-15T15:04:46Z</time>
      </trkpt>
      <trkpt lat="45.75803" lon="5.54508">
        <ele>748.50240338253</ele>
        <time>2015-05-15T15:04:51Z</time>
      </trkpt>
      <trkpt lat="45.75804" lon="5.54516">
        <ele>748.50240338253</ele>
        <time>2015-05-15T15:04:56Z</time>
      </trkpt>
      <trkpt lat="45.75803" lon="5.5452">
        <ele>748.50240338253</ele>
        <time>2015-05-15T15:05:01Z</time>
      </trkpt>
      <trkpt lat="45.75798" lon="5.54523">
        <ele>750.05599913464</ele>
        <time>2015-05-15T15:05:06Z</time>
      </trkpt>
      <trkpt lat="45.75799" lon="5.5453">
        <ele>750.05599913464</ele>
        <time>2015-05-15T15:05:11Z</time>
      </trkpt>
      <trkpt lat="45.758" lon="5.54536">
        <ele>751.21840999393</ele>
        <time>2015-05-15T15:05:16Z</time>
      </trkpt>
      <trkpt lat="45.75802" lon="5.54546">
        <ele>751.21840999393</ele>
        <time>2015-05-15T15:05:21Z</time>
      </trkpt>
      <trkpt lat="45.75802" lon="5.54554">
        <ele>752.29217876135</ele>
        <time>2015-05-15T15:05:26Z</time>
      </trkpt>
      <trkpt lat="45.75802" lon="5.54563">
        <ele>752.29217876135</ele>
        <time>2015-05-15T15:05:31Z</time>
      </trkpt>
      <trkpt lat="45.75797" lon="5.54573">
        <ele>754.10547476699</ele>
        <time>2015-05-15T15:05:36Z</time>
      </trkpt>
      <trkpt lat="45.75792" lon="5.54584">
        <ele>754.10547476699</ele>
        <time>2015-05-15T15:05:41Z</time>
      </trkpt>
      <trkpt lat="45.75792" lon="5.5459">
        <ele>755.99683949941</ele>
        <time>2015-05-15T15:05:46Z</time>
      </trkpt>
      <trkpt lat="45.75792" lon="5.54594">
        <ele>755.99683949941</ele>
        <time>2015-05-15T15:05:51Z</time>
      </trkpt>
      <trkpt lat="45.75792" lon="5.54593">
        <ele>755.99683949941</ele>
        <time>2015-05-15T15:05:56Z</time>
      </trkpt>
      <trkpt lat="45.75792" lon="5.54593">
        <ele>755.99683949941</ele>
        <time>2015-05-15T15:06:01Z</time>
      </trkpt>
      <trkpt lat="45.75791" lon="5.54593">
        <ele>755.99683949941</ele>
        <time>2015-05-15T15:06:06Z</time>
      </trkpt>
      <trkpt lat="45.75791" lon="5.54593">
        <ele>755.99683949941</ele>
        <time>2015-05-15T15:06:11Z</time>
      </trkpt>
      <trkpt lat="45.75791" lon="5.54593">
        <ele>755.99683949941</ele>
        <time>2015-05-15T15:06:16Z</time>
      </trkpt>
      <trkpt lat="45.75791" lon="5.54593">
        <ele>755.99683949941</ele>
        <time>2015-05-15T15:06:21Z</time>
      </trkpt>
      <trkpt lat="45.75791" lon="5.54593">
        <ele>755.99683949941</ele>
        <time>2015-05-15T15:06:26Z</time>
      </trkpt>
      <trkpt lat="45.75791" lon="5.54593">
        <ele>755.99683949941</ele>
        <time>2015-05-15T15:06:31Z</time>
      </trkpt>
      <trkpt lat="45.7579" lon="5.54602">
        <ele>759.32750014983</ele>
        <time>2015-05-15T15:06:36Z</time>
      </trkpt>
      <trkpt lat="45.75788" lon="5.54615">
        <ele>762.48684033481</ele>
        <time>2015-05-15T15:06:41Z</time>
      </trkpt>
      <trkpt lat="45.75784" lon="5.54621">
        <ele>762.48684033481</ele>
        <time>2015-05-15T15:06:46Z</time>
      </trkpt>
      <trkpt lat="45.7578" lon="5.54629">
        <ele>765.84208783397</ele>
        <time>2015-05-15T15:06:51Z</time>
      </trkpt>
      <trkpt lat="45.75777" lon="5.54639">
        <ele>765.84208783397</ele>
        <time>2015-05-15T15:06:56Z</time>
      </trkpt>
      <trkpt lat="45.75774" lon="5.54647">
        <ele>769.38710778468</ele>
        <time>2015-05-15T15:07:01Z</time>
      </trkpt>
      <trkpt lat="45.75769" lon="5.54653">
        <ele>769.38710778468</ele>
        <time>2015-05-15T15:07:06Z</time>
      </trkpt>
      <trkpt lat="45.75765" lon="5.5466">
        <ele>773.92275443986</ele>
        <time>2015-05-15T15:07:11Z</time>
      </trkpt>
      <trkpt lat="45.75759" lon="5.54665">
        <ele>773.92275443986</ele>
        <time>2015-05-15T15:07:16Z</time>
      </trkpt>
      <trkpt lat="45.75752" lon="5.54668">
        <ele>779.20838498617</ele>
        <time>2015-05-15T15:07:21Z</time>
      </trkpt>
      <trkpt lat="45.7575" lon="5.54676">
        <ele>779.20838498617</ele>
        <time>2015-05-15T15:07:26Z</time>
      </trkpt>
      <trkpt lat="45.75747" lon="5.54681">
        <ele>783.73642944273</ele>
        <time>2015-05-15T15:07:31Z</time>
      </trkpt>
      <trkpt lat="45.75743" lon="5.54687">
        <ele>783.73642944273</ele>
        <time>2015-05-15T15:07:36Z</time>
      </trkpt>
      <trkpt lat="45.75737" lon="5.54692">
        <ele>788.54777759181</ele>
        <time>2015-05-15T15:07:41Z</time>
      </trkpt>
      <trkpt lat="45.7573" lon="5.54694">
        <ele>788.54777759181</ele>
        <time>2015-05-15T15:07:46Z</time>
      </trkpt>
      <trkpt lat="45.75726" lon="5.547">
        <ele>793.66947144957</ele>
        <time>2015-05-15T15:07:51Z</time>
      </trkpt>
      <trkpt lat="45.7572" lon="5.54706">
        <ele>793.66947144957</ele>
        <time>2015-05-15T15:07:56Z</time>
      </trkpt>
      <trkpt lat="45.75715" lon="5.54711">
        <ele>798.85203808284</ele>
        <time>2015-05-15T15:08:01Z</time>
      </trkpt>
      <trkpt lat="45.75704" lon="5.54716">
        <ele>803.93638757662</ele>
        <time>2015-05-15T15:08:06Z</time>
      </trkpt>
      <trkpt lat="45.757" lon="5.54726">
        <ele>803.93638757662</ele>
        <time>2015-05-15T15:08:11Z</time>
      </trkpt>
      <trkpt lat="45.75698" lon="5.54732">
        <ele>808.02620221404</ele>
        <time>2015-05-15T15:08:16Z</time>
      </trkpt>
      <trkpt lat="45.75697" lon="5.54739">
        <ele>808.02620221404</ele>
        <time>2015-05-15T15:08:21Z</time>
      </trkpt>
      <trkpt lat="45.75694" lon="5.54748">
        <ele>810.6830961912</ele>
        <time>2015-05-15T15:08:26Z</time>
      </trkpt>
      <trkpt lat="45.7569" lon="5.54753">
        <ele>810.6830961912</ele>
        <time>2015-05-15T15:08:31Z</time>
      </trkpt>
      <trkpt lat="45.75686" lon="5.54758">
        <ele>813.45061204073</ele>
        <time>2015-05-15T15:08:36Z</time>
      </trkpt>
      <trkpt lat="45.75679" lon="5.54762">
        <ele>813.45061204073</ele>
        <time>2015-05-15T15:08:41Z</time>
      </trkpt>
      <trkpt lat="45.75673" lon="5.54767">
        <ele>815.98623023491</ele>
        <time>2015-05-15T15:08:46Z</time>
      </trkpt>
      <trkpt lat="45.75671" lon="5.54774">
        <ele>815.98623023491</ele>
        <time>2015-05-15T15:08:51Z</time>
      </trkpt>
      <trkpt lat="45.75669" lon="5.5478">
        <ele>818.49224080594</ele>
        <time>2015-05-15T15:08:56Z</time>
      </trkpt>
      <trkpt lat="45.75668" lon="5.54786">
        <ele>818.49224080594</ele>
        <time>2015-05-15T15:09:01Z</time>
      </trkpt>
      <trkpt lat="45.75666" lon="5.54792">
        <ele>818.49224080594</ele>
        <time>2015-05-15T15:09:06Z</time>
      </trkpt>
      <trkpt lat="45.75667" lon="5.54803">
        <ele>820.11874414144</ele>
        <time>2015-05-15T15:09:11Z</time>
      </trkpt>
      <trkpt lat="45.75663" lon="5.5481">
        <ele>820.11874414144</ele>
        <time>2015-05-15T15:09:16Z</time>
      </trkpt>
      <trkpt lat="45.75657" lon="5.54819">
        <ele>820.95999447381</ele>
        <time>2015-05-15T15:09:21Z</time>
      </trkpt>
      <trkpt lat="45.75652" lon="5.54824">
        <ele>820.95999447381</ele>
        <time>2015-05-15T15:09:26Z</time>
      </trkpt>
      <trkpt lat="45.75648" lon="5.54831">
        <ele>821.03362815596</ele>
        <time>2015-05-15T15:09:31Z</time>
      </trkpt>
      <trkpt lat="45.75641" lon="5.5484">
        <ele>821.03362815596</ele>
        <time>2015-05-15T15:09:36Z</time>
      </trkpt>
      <trkpt lat="45.75634" lon="5.54849">
        <ele>820.87707759415</ele>
        <time>2015-05-15T15:09:41Z</time>
      </trkpt>
      <trkpt lat="45.75625" lon="5.54855">
        <ele>821.68079058039</ele>
        <time>2015-05-15T15:09:46Z</time>
      </trkpt>
      <trkpt lat="45.75621" lon="5.54857">
        <ele>821.68079058039</ele>
        <time>2015-05-15T15:09:51Z</time>
      </trkpt>
      <trkpt lat="45.75616" lon="5.54861">
        <ele>821.80705075353</ele>
        <time>2015-05-15T15:09:56Z</time>
      </trkpt>
      <trkpt lat="45.75611" lon="5.54868">
        <ele>821.80705075353</ele>
        <time>2015-05-15T15:10:01Z</time>
      </trkpt>
      <trkpt lat="45.75606" lon="5.54876">
        <ele>821.74356123438</ele>
        <time>2015-05-15T15:10:06Z</time>
      </trkpt>
      <trkpt lat="45.75599" lon="5.5488">
        <ele>821.74356123438</ele>
        <time>2015-05-15T15:10:11Z</time>
      </trkpt>
      <trkpt lat="45.75593" lon="5.54885">
        <ele>820.17020744784</ele>
        <time>2015-05-15T15:10:16Z</time>
      </trkpt>
      <trkpt lat="45.75586" lon="5.54888">
        <ele>820.17020744784</ele>
        <time>2015-05-15T15:10:21Z</time>
      </trkpt>
      <trkpt lat="45.7558" lon="5.54891">
        <ele>818.89443888882</ele>
        <time>2015-05-15T15:10:26Z</time>
      </trkpt>
      <trkpt lat="45.75575" lon="5.54897">
        <ele>818.89443888882</ele>
        <time>2015-05-15T15:10:31Z</time>
      </trkpt>
      <trkpt lat="45.75565" lon="5.54902">
        <ele>818.07692192562</ele>
        <time>2015-05-15T15:10:36Z</time>
      </trkpt>
      <trkpt lat="45.75559" lon="5.54904">
        <ele>818.07692192562</ele>
        <time>2015-05-15T15:10:41Z</time>
      </trkpt>
      <trkpt lat="45.75554" lon="5.54906">
        <ele>816.45291117689</ele>
        <time>2015-05-15T15:10:46Z</time>
      </trkpt>
      <trkpt lat="45.7555" lon="5.54907">
        <ele>816.45291117689</ele>
        <time>2015-05-15T15:10:51Z</time>
      </trkpt>
      <trkpt lat="45.75544" lon="5.54904">
        <ele>814.8703263958</ele>
        <time>2015-05-15T15:10:56Z</time>
      </trkpt>
      <trkpt lat="45.75537" lon="5.54902">
        <ele>814.8703263958</ele>
        <time>2015-05-15T15:11:01Z</time>
      </trkpt>
      <trkpt lat="45.7553" lon="5.54904">
        <ele>813.17787473023</ele>
        <time>2015-05-15T15:11:06Z</time>
      </trkpt>
      <trkpt lat="45.75529" lon="5.5491">
        <ele>813.17787473023</ele>
        <time>2015-05-15T15:11:11Z</time>
      </trkpt>
      <trkpt lat="45.75526" lon="5.54913">
        <ele>813.17787473023</ele>
        <time>2015-05-15T15:11:16Z</time>
      </trkpt>
      <trkpt lat="45.75526" lon="5.54915">
        <ele>811.8840763381</ele>
        <time>2015-05-15T15:11:21Z</time>
      </trkpt>
      <trkpt lat="45.75527" lon="5.54921">
        <ele>811.8840763381</ele>
        <time>2015-05-15T15:11:26Z</time>
      </trkpt>
      <trkpt lat="45.75526" lon="5.54933">
        <ele>809.8159776571</ele>
        <time>2015-05-15T15:11:31Z</time>
      </trkpt>
      <trkpt lat="45.75525" lon="5.54948">
        <ele>808.28105417341</ele>
        <time>2015-05-15T15:11:36Z</time>
      </trkpt>
      <trkpt lat="45.75519" lon="5.54963">
        <ele>807.42264623171</ele>
        <time>2015-05-15T15:11:41Z</time>
      </trkpt>
      <trkpt lat="45.75515" lon="5.54974">
        <ele>807.42264623171</ele>
        <time>2015-05-15T15:11:46Z</time>
      </trkpt>
      <trkpt lat="45.75509" lon="5.5498">
        <ele>806.3338808108</ele>
        <time>2015-05-15T15:11:51Z</time>
      </trkpt>
      <trkpt lat="45.75507" lon="5.54987">
        <ele>806.3338808108</ele>
        <time>2015-05-15T15:11:56Z</time>
      </trkpt>
      <trkpt lat="45.75505" lon="5.54988">
        <ele>806.3338808108</ele>
        <time>2015-05-15T15:12:01Z</time>
      </trkpt>
      <trkpt lat="45.75503" lon="5.54989">
        <ele>804.63610647131</ele>
        <time>2015-05-15T15:12:06Z</time>
      </trkpt>
      <trkpt lat="45.75501" lon="5.54997">
        <ele>804.63610647131</ele>
        <time>2015-05-15T15:12:11Z</time>
      </trkpt>
      <trkpt lat="45.75501" lon="5.54999">
        <ele>804.63610647131</ele>
        <time>2015-05-15T15:12:16Z</time>
      </trkpt>
      <trkpt lat="45.75502" lon="5.55">
        <ele>804.63610647131</ele>
        <time>2015-05-15T15:12:21Z</time>
      </trkpt>
      <trkpt lat="45.75502" lon="5.55">
        <ele>804.63610647131</ele>
        <time>2015-05-15T15:12:26Z</time>
      </trkpt>
      <trkpt lat="45.75502" lon="5.55">
        <ele>803.10405350147</ele>
        <time>2015-05-15T15:12:31Z</time>
      </trkpt>
      <trkpt lat="45.75499" lon="5.55002">
        <ele>803.10405350147</ele>
        <time>2015-05-15T15:12:36Z</time>
      </trkpt>
      <trkpt lat="45.75497" lon="5.55012">
        <ele>802.06575770551</ele>
        <time>2015-05-15T15:12:41Z</time>
      </trkpt>
      <trkpt lat="45.75491" lon="5.55029">
        <ele>801.36239102042</ele>
        <time>2015-05-15T15:12:46Z</time>
      </trkpt>
      <trkpt lat="45.75492" lon="5.55049">
        <ele>800.84562261071</ele>
        <time>2015-05-15T15:12:51Z</time>
      </trkpt>
      <trkpt lat="45.7549" lon="5.5507">
        <ele>800.56460707781</ele>
        <time>2015-05-15T15:12:56Z</time>
      </trkpt>
      <trkpt lat="45.75483" lon="5.55081">
        <ele>799.62727270363</ele>
        <time>2015-05-15T15:13:01Z</time>
      </trkpt>
      <trkpt lat="45.75474" lon="5.55089">
        <ele>798.86596871138</ele>
        <time>2015-05-15T15:13:06Z</time>
      </trkpt>
      <trkpt lat="45.75471" lon="5.55101">
        <ele>798.86596871138</ele>
        <time>2015-05-15T15:13:11Z</time>
      </trkpt>
      <trkpt lat="45.75479" lon="5.55117">
        <ele>798.70531313563</ele>
        <time>2015-05-15T15:13:16Z</time>
      </trkpt>
      <trkpt lat="45.75475" lon="5.55117">
        <ele>798.70531313563</ele>
        <time>2015-05-15T15:13:21Z</time>
      </trkpt>
      <trkpt lat="45.75471" lon="5.55128">
        <ele>798.74421272158</ele>
        <time>2015-05-15T15:13:26Z</time>
      </trkpt>
      <trkpt lat="45.75466" lon="5.55144">
        <ele>799.4461070428</ele>
        <time>2015-05-15T15:13:31Z</time>
      </trkpt>
      <trkpt lat="45.75463" lon="5.5515">
        <ele>799.4461070428</ele>
        <time>2015-05-15T15:13:36Z</time>
      </trkpt>
      <trkpt lat="45.75459" lon="5.55154">
        <ele>800.04220209288</ele>
        <time>2015-05-15T15:13:41Z</time>
      </trkpt>
      <trkpt lat="45.75458" lon="5.55156">
        <ele>800.04220209288</ele>
        <time>2015-05-15T15:13:46Z</time>
      </trkpt>
      <trkpt lat="45.75457" lon="5.55162">
        <ele>800.04220209288</ele>
        <time>2015-05-15T15:13:51Z</time>
      </trkpt>
      <trkpt lat="45.75455" lon="5.55167">
        <ele>800.77141430459</ele>
        <time>2015-05-15T15:13:56Z</time>
      </trkpt>
      <trkpt lat="45.75455" lon="5.55174">
        <ele>800.77141430459</ele>
        <time>2015-05-15T15:14:01Z</time>
      </trkpt>
      <trkpt lat="45.75457" lon="5.5518">
        <ele>802.38776669706</ele>
        <time>2015-05-15T15:14:06Z</time>
      </trkpt>
      <trkpt lat="45.75454" lon="5.55178">
        <ele>802.38776669706</ele>
        <time>2015-05-15T15:14:11Z</time>
      </trkpt>
      <trkpt lat="45.75454" lon="5.55179">
        <ele>802.38776669706</ele>
        <time>2015-05-15T15:14:16Z</time>
      </trkpt>
      <trkpt lat="45.75453" lon="5.55181">
        <ele>802.38776669706</ele>
        <time>2015-05-15T15:14:21Z</time>
      </trkpt>
      <trkpt lat="45.75453" lon="5.55182">
        <ele>802.38776669706</ele>
        <time>2015-05-15T15:14:26Z</time>
      </trkpt>
      <trkpt lat="45.75453" lon="5.55182">
        <ele>802.38776669706</ele>
        <time>2015-05-15T15:14:31Z</time>
      </trkpt>
      <trkpt lat="45.75396" lon="5.55329">
        <ele>803.4399816802</ele>
        <time>2015-05-15T15:15:06Z</time>
      </trkpt>
      <trkpt lat="45.75385" lon="5.55355">
        <ele>805.26529354325</ele>
        <time>2015-05-15T15:15:11Z</time>
      </trkpt>
      <trkpt lat="45.7537" lon="5.55368">
        <ele>807.06843752739</ele>
        <time>2015-05-15T15:15:16Z</time>
      </trkpt>
      <trkpt lat="45.75367" lon="5.55373">
        <ele>807.06843752739</ele>
        <time>2015-05-15T15:15:21Z</time>
      </trkpt>
      <trkpt lat="45.75365" lon="5.55377">
        <ele>807.06843752739</ele>
        <time>2015-05-15T15:15:26Z</time>
      </trkpt>
      <trkpt lat="45.75363" lon="5.55385">
        <ele>810.17331095775</ele>
        <time>2015-05-15T15:15:31Z</time>
      </trkpt>
      <trkpt lat="45.75361" lon="5.55391">
        <ele>810.17331095775</ele>
        <time>2015-05-15T15:15:36Z</time>
      </trkpt>
      <trkpt lat="45.75358" lon="5.55399">
        <ele>812.09916034522</ele>
        <time>2015-05-15T15:15:41Z</time>
      </trkpt>
      <trkpt lat="45.75356" lon="5.55402">
        <ele>812.09916034522</ele>
        <time>2015-05-15T15:15:46Z</time>
      </trkpt>
      <trkpt lat="45.7535" lon="5.55406">
        <ele>814.05260734427</ele>
        <time>2015-05-15T15:15:51Z</time>
      </trkpt>
      <trkpt lat="45.75343" lon="5.55413">
        <ele>814.05260734427</ele>
        <time>2015-05-15T15:15:56Z</time>
      </trkpt>
      <trkpt lat="45.75339" lon="5.55421">
        <ele>816.44536587317</ele>
        <time>2015-05-15T15:16:01Z</time>
      </trkpt>
      <trkpt lat="45.7534" lon="5.55427">
        <ele>816.44536587317</ele>
        <time>2015-05-15T15:16:06Z</time>
      </trkpt>
      <trkpt lat="45.75338" lon="5.5543">
        <ele>816.44536587317</ele>
        <time>2015-05-15T15:16:11Z</time>
      </trkpt>
      <trkpt lat="45.75337" lon="5.55432">
        <ele>816.44536587317</ele>
        <time>2015-05-15T15:16:16Z</time>
      </trkpt>
      <trkpt lat="45.75338" lon="5.55433">
        <ele>819.03796680388</ele>
        <time>2015-05-15T15:16:21Z</time>
      </trkpt>
      <trkpt lat="45.75334" lon="5.55436">
        <ele>819.03796680388</ele>
        <time>2015-05-15T15:16:26Z</time>
      </trkpt>
      <trkpt lat="45.75326" lon="5.55442">
        <ele>820.46948078633</ele>
        <time>2015-05-15T15:16:31Z</time>
      </trkpt>
      <trkpt lat="45.75318" lon="5.5545">
        <ele>821.11066521297</ele>
        <time>2015-05-15T15:16:36Z</time>
      </trkpt>
      <trkpt lat="45.75311" lon="5.55459">
        <ele>821.11066521297</ele>
        <time>2015-05-15T15:16:41Z</time>
      </trkpt>
      <trkpt lat="45.75308" lon="5.55466">
        <ele>821.40814599042</ele>
        <time>2015-05-15T15:16:46Z</time>
      </trkpt>
      <trkpt lat="45.75307" lon="5.5548">
        <ele>821.89200687964</ele>
        <time>2015-05-15T15:16:51Z</time>
      </trkpt>
      <trkpt lat="45.75306" lon="5.55503">
        <ele>823.49962973765</ele>
        <time>2015-05-15T15:16:56Z</time>
      </trkpt>
      <trkpt lat="45.75304" lon="5.55516">
        <ele>825.38148025409</ele>
        <time>2015-05-15T15:17:01Z</time>
      </trkpt>
      <trkpt lat="45.75303" lon="5.55529">
        <ele>827.70081936179</ele>
        <time>2015-05-15T15:17:06Z</time>
      </trkpt>
      <trkpt lat="45.75299" lon="5.55544">
        <ele>830.49243303807</ele>
        <time>2015-05-15T15:17:11Z</time>
      </trkpt>
      <trkpt lat="45.75298" lon="5.55556">
        <ele>830.49243303807</ele>
        <time>2015-05-15T15:17:16Z</time>
      </trkpt>
      <trkpt lat="45.75297" lon="5.55565">
        <ele>832.51909428185</ele>
        <time>2015-05-15T15:17:21Z</time>
      </trkpt>
      <trkpt lat="45.75295" lon="5.55571">
        <ele>832.51909428185</ele>
        <time>2015-05-15T15:17:26Z</time>
      </trkpt>
      <trkpt lat="45.75294" lon="5.55575">
        <ele>832.51909428185</ele>
        <time>2015-05-15T15:17:31Z</time>
      </trkpt>
      <trkpt lat="45.75293" lon="5.55577">
        <ele>835.8503461705</ele>
        <time>2015-05-15T15:17:36Z</time>
      </trkpt>
      <trkpt lat="45.75294" lon="5.55578">
        <ele>835.8503461705</ele>
        <time>2015-05-15T15:17:41Z</time>
      </trkpt>
      <trkpt lat="45.75295" lon="5.55579">
        <ele>835.8503461705</ele>
        <time>2015-05-15T15:17:46Z</time>
      </trkpt>
      <trkpt lat="45.75294" lon="5.5558">
        <ele>835.8503461705</ele>
        <time>2015-05-15T15:17:51Z</time>
      </trkpt>
      <trkpt lat="45.75287" lon="5.55591">
        <ele>838.76851582449</ele>
        <time>2015-05-15T15:17:56Z</time>
      </trkpt>
      <trkpt lat="45.7528" lon="5.55603">
        <ele>841.93148910428</ele>
        <time>2015-05-15T15:18:01Z</time>
      </trkpt>
      <trkpt lat="45.75276" lon="5.55613">
        <ele>841.93148910428</ele>
        <time>2015-05-15T15:18:06Z</time>
      </trkpt>
      <trkpt lat="45.75275" lon="5.55625">
        <ele>843.95950121644</ele>
        <time>2015-05-15T15:18:11Z</time>
      </trkpt>
      <trkpt lat="45.75271" lon="5.55635">
        <ele>843.95950121644</ele>
        <time>2015-05-15T15:18:16Z</time>
      </trkpt>
      <trkpt lat="45.75275" lon="5.55652">
        <ele>845.2923581119</ele>
        <time>2015-05-15T15:18:21Z</time>
      </trkpt>
      <trkpt lat="45.75281" lon="5.55672">
        <ele>847.00253203313</ele>
        <time>2015-05-15T15:18:26Z</time>
      </trkpt>
      <trkpt lat="45.75288" lon="5.55683">
        <ele>848.22373319045</ele>
        <time>2015-05-15T15:18:31Z</time>
      </trkpt>
      <trkpt lat="45.75287" lon="5.55693">
        <ele>848.22373319045</ele>
        <time>2015-05-15T15:18:36Z</time>
      </trkpt>
      <trkpt lat="45.75287" lon="5.55698">
        <ele>850.18676082405</ele>
        <time>2015-05-15T15:18:41Z</time>
      </trkpt>
      <trkpt lat="45.75286" lon="5.55701">
        <ele>850.18676082405</ele>
        <time>2015-05-15T15:18:46Z</time>
      </trkpt>
      <trkpt lat="45.75287" lon="5.55703">
        <ele>850.18676082405</ele>
        <time>2015-05-15T15:18:51Z</time>
      </trkpt>
      <trkpt lat="45.75288" lon="5.55704">
        <ele>850.18676082405</ele>
        <time>2015-05-15T15:18:56Z</time>
      </trkpt>
      <trkpt lat="45.75288" lon="5.55709">
        <ele>850.18676082405</ele>
        <time>2015-05-15T15:19:01Z</time>
      </trkpt>
      <trkpt lat="45.75284" lon="5.55722">
        <ele>853.81386679457</ele>
        <time>2015-05-15T15:19:06Z</time>
      </trkpt>
      <trkpt lat="45.75281" lon="5.5574">
        <ele>857.02954776717</ele>
        <time>2015-05-15T15:19:11Z</time>
      </trkpt>
      <trkpt lat="45.75276" lon="5.55753">
        <ele>859.33874324699</ele>
        <time>2015-05-15T15:19:16Z</time>
      </trkpt>
      <trkpt lat="45.75272" lon="5.5576">
        <ele>859.33874324699</ele>
        <time>2015-05-15T15:19:21Z</time>
      </trkpt>
      <trkpt lat="45.7527" lon="5.55776">
        <ele>861.39508753891</ele>
        <time>2015-05-15T15:19:26Z</time>
      </trkpt>
      <trkpt lat="45.75269" lon="5.55786">
        <ele>861.39508753891</ele>
        <time>2015-05-15T15:19:31Z</time>
      </trkpt>
      <trkpt lat="45.75269" lon="5.55792">
        <ele>864.49677761553</ele>
        <time>2015-05-15T15:19:36Z</time>
      </trkpt>
      <trkpt lat="45.75269" lon="5.55793">
        <ele>864.49677761553</ele>
        <time>2015-05-15T15:19:41Z</time>
      </trkpt>
      <trkpt lat="45.75268" lon="5.55793">
        <ele>864.49677761553</ele>
        <time>2015-05-15T15:19:46Z</time>
      </trkpt>
      <trkpt lat="45.75268" lon="5.55794">
        <ele>864.49677761553</ele>
        <time>2015-05-15T15:19:51Z</time>
      </trkpt>
      <trkpt lat="45.75266" lon="5.55812">
        <ele>868.01364136161</ele>
        <time>2015-05-15T15:19:56Z</time>
      </trkpt>
      <trkpt lat="45.75261" lon="5.55825">
        <ele>871.67782375962</ele>
        <time>2015-05-15T15:20:01Z</time>
      </trkpt>
      <trkpt lat="45.75256" lon="5.55836">
        <ele>875.65880815677</ele>
        <time>2015-05-15T15:20:06Z</time>
      </trkpt>
      <trkpt lat="45.75252" lon="5.55846">
        <ele>875.65880815677</ele>
        <time>2015-05-15T15:20:11Z</time>
      </trkpt>
      <trkpt lat="45.75248" lon="5.55852">
        <ele>879.89673507899</ele>
        <time>2015-05-15T15:20:16Z</time>
      </trkpt>
      <trkpt lat="45.7524" lon="5.55858">
        <ele>879.89673507899</ele>
        <time>2015-05-15T15:20:21Z</time>
      </trkpt>
      <trkpt lat="45.75238" lon="5.55868">
        <ele>883.86002758034</ele>
        <time>2015-05-15T15:20:26Z</time>
      </trkpt>
      <trkpt lat="45.75234" lon="5.55877">
        <ele>883.86002758034</ele>
        <time>2015-05-15T15:20:31Z</time>
      </trkpt>
      <trkpt lat="45.75226" lon="5.55881">
        <ele>887.08593219424</ele>
        <time>2015-05-15T15:20:36Z</time>
      </trkpt>
      <trkpt lat="45.75222" lon="5.55889">
        <ele>887.08593219424</ele>
        <time>2015-05-15T15:20:41Z</time>
      </trkpt>
      <trkpt lat="45.7522" lon="5.55899">
        <ele>890.02702348562</ele>
        <time>2015-05-15T15:20:46Z</time>
      </trkpt>
      <trkpt lat="45.75219" lon="5.55907">
        <ele>890.02702348562</ele>
        <time>2015-05-15T15:20:51Z</time>
      </trkpt>
      <trkpt lat="45.7522" lon="5.55917">
        <ele>892.19571827927</ele>
        <time>2015-05-15T15:20:56Z</time>
      </trkpt>
      <trkpt lat="45.75223" lon="5.55924">
        <ele>892.19571827927</ele>
        <time>2015-05-15T15:21:01Z</time>
      </trkpt>
      <trkpt lat="45.75227" lon="5.55933">
        <ele>894.35313862244</ele>
        <time>2015-05-15T15:21:06Z</time>
      </trkpt>
      <trkpt lat="45.75231" lon="5.5594">
        <ele>894.35313862244</ele>
        <time>2015-05-15T15:21:11Z</time>
      </trkpt>
      <trkpt lat="45.75236" lon="5.55947">
        <ele>897.2047088809</ele>
        <time>2015-05-15T15:21:16Z</time>
      </trkpt>
      <trkpt lat="45.75241" lon="5.55954">
        <ele>897.2047088809</ele>
        <time>2015-05-15T15:21:21Z</time>
      </trkpt>
      <trkpt lat="45.75247" lon="5.55959">
        <ele>900.88346358603</ele>
        <time>2015-05-15T15:21:26Z</time>
      </trkpt>
      <trkpt lat="45.75252" lon="5.55967">
        <ele>900.88346358603</ele>
        <time>2015-05-15T15:21:31Z</time>
      </trkpt>
      <trkpt lat="45.75254" lon="5.55975">
        <ele>903.56501609832</ele>
        <time>2015-05-15T15:21:36Z</time>
      </trkpt>
      <trkpt lat="45.7526" lon="5.55984">
        <ele>903.56501609832</ele>
        <time>2015-05-15T15:21:41Z</time>
      </trkpt>
      <trkpt lat="45.75266" lon="5.55993">
        <ele>907.56825761744</ele>
        <time>2015-05-15T15:21:46Z</time>
      </trkpt>
      <trkpt lat="45.75271" lon="5.56001">
        <ele>907.56825761744</ele>
        <time>2015-05-15T15:21:51Z</time>
      </trkpt>
      <trkpt lat="45.75275" lon="5.56007">
        <ele>911.70923187925</ele>
        <time>2015-05-15T15:21:56Z</time>
      </trkpt>
      <trkpt lat="45.75279" lon="5.56013">
        <ele>911.70923187925</ele>
        <time>2015-05-15T15:22:01Z</time>
      </trkpt>
      <trkpt lat="45.75283" lon="5.56021">
        <ele>915.81305540733</ele>
        <time>2015-05-15T15:22:06Z</time>
      </trkpt>
      <trkpt lat="45.75285" lon="5.56025">
        <ele>915.81305540733</ele>
        <time>2015-05-15T15:22:11Z</time>
      </trkpt>
      <trkpt lat="45.75284" lon="5.56033">
        <ele>918.24803713324</ele>
        <time>2015-05-15T15:22:16Z</time>
      </trkpt>
      <trkpt lat="45.75283" lon="5.5604">
        <ele>918.24803713324</ele>
        <time>2015-05-15T15:22:21Z</time>
      </trkpt>
      <trkpt lat="45.7528" lon="5.56048">
        <ele>918.876258321</ele>
        <time>2015-05-15T15:22:26Z</time>
      </trkpt>
      <trkpt lat="45.75279" lon="5.56057">
        <ele>918.876258321</ele>
        <time>2015-05-15T15:22:31Z</time>
      </trkpt>
      <trkpt lat="45.75278" lon="5.56066">
        <ele>918.87216150541</ele>
        <time>2015-05-15T15:22:36Z</time>
      </trkpt>
      <trkpt lat="45.75276" lon="5.56074">
        <ele>918.87216150541</ele>
        <time>2015-05-15T15:22:41Z</time>
      </trkpt>
      <trkpt lat="45.75275" lon="5.56085">
        <ele>917.71178461925</ele>
        <time>2015-05-15T15:22:46Z</time>
      </trkpt>
      <trkpt lat="45.75277" lon="5.56097">
        <ele>917.71178461925</ele>
        <time>2015-05-15T15:22:51Z</time>
      </trkpt>
      <trkpt lat="45.75283" lon="5.56114">
        <ele>917.55024785695</ele>
        <time>2015-05-15T15:22:56Z</time>
      </trkpt>
      <trkpt lat="45.75285" lon="5.56126">
        <ele>917.55024785695</ele>
        <time>2015-05-15T15:23:01Z</time>
      </trkpt>
      <trkpt lat="45.75285" lon="5.56138">
        <ele>918.20556325724</ele>
        <time>2015-05-15T15:23:06Z</time>
      </trkpt>
      <trkpt lat="45.75283" lon="5.56147">
        <ele>918.20556325724</ele>
        <time>2015-05-15T15:23:11Z</time>
      </trkpt>
      <trkpt lat="45.75282" lon="5.56157">
        <ele>918.10900076936</ele>
        <time>2015-05-15T15:23:16Z</time>
      </trkpt>
      <trkpt lat="45.7528" lon="5.56169">
        <ele>918.10900076936</ele>
        <time>2015-05-15T15:23:21Z</time>
      </trkpt>
      <trkpt lat="45.75283" lon="5.56184">
        <ele>917.95646850646</ele>
        <time>2015-05-15T15:23:26Z</time>
      </trkpt>
      <trkpt lat="45.75284" lon="5.56195">
        <ele>917.95646850646</ele>
        <time>2015-05-15T15:23:31Z</time>
      </trkpt>
      <trkpt lat="45.75285" lon="5.56206">
        <ele>916.1880201628</ele>
        <time>2015-05-15T15:23:36Z</time>
      </trkpt>
      <trkpt lat="45.7528" lon="5.56212">
        <ele>916.1880201628</ele>
        <time>2015-05-15T15:23:41Z</time>
      </trkpt>
      <trkpt lat="45.75278" lon="5.56221">
        <ele>913.538897792</ele>
        <time>2015-05-15T15:23:46Z</time>
      </trkpt>
      <trkpt lat="45.75279" lon="5.56231">
        <ele>913.538897792</ele>
        <time>2015-05-15T15:23:51Z</time>
      </trkpt>
      <trkpt lat="45.75272" lon="5.56241">
        <ele>909.30928738817</ele>
        <time>2015-05-15T15:23:56Z</time>
      </trkpt>
      <trkpt lat="45.75268" lon="5.56249">
        <ele>909.30928738817</ele>
        <time>2015-05-15T15:24:01Z</time>
      </trkpt>
      <trkpt lat="45.75262" lon="5.56254">
        <ele>904.80063048249</ele>
        <time>2015-05-15T15:24:06Z</time>
      </trkpt>
      <trkpt lat="45.75258" lon="5.5626">
        <ele>904.80063048249</ele>
        <time>2015-05-15T15:24:11Z</time>
      </trkpt>
      <trkpt lat="45.75247" lon="5.5626">
        <ele>899.28832770425</ele>
        <time>2015-05-15T15:24:16Z</time>
      </trkpt>
      <trkpt lat="45.75243" lon="5.56265">
        <ele>899.28832770425</ele>
        <time>2015-05-15T15:24:21Z</time>
      </trkpt>
      <trkpt lat="45.75239" lon="5.56277">
        <ele>894.43824836264</ele>
        <time>2015-05-15T15:24:26Z</time>
      </trkpt>
      <trkpt lat="45.75233" lon="5.56281">
        <ele>894.43824836264</ele>
        <time>2015-05-15T15:24:31Z</time>
      </trkpt>
      <trkpt lat="45.75231" lon="5.56291">
        <ele>889.74543026259</ele>
        <time>2015-05-15T15:24:36Z</time>
      </trkpt>
      <trkpt lat="45.75229" lon="5.56303">
        <ele>889.74543026259</ele>
        <time>2015-05-15T15:24:41Z</time>
      </trkpt>
      <trkpt lat="45.75226" lon="5.56314">
        <ele>886.12477016109</ele>
        <time>2015-05-15T15:24:46Z</time>
      </trkpt>
      <trkpt lat="45.75224" lon="5.56323">
        <ele>886.12477016109</ele>
        <time>2015-05-15T15:24:51Z</time>
      </trkpt>
      <trkpt lat="45.7522" lon="5.5633">
        <ele>882.38868603075</ele>
        <time>2015-05-15T15:24:56Z</time>
      </trkpt>
      <trkpt lat="45.75216" lon="5.56335">
        <ele>882.38868603075</ele>
        <time>2015-05-15T15:25:01Z</time>
      </trkpt>
      <trkpt lat="45.7521" lon="5.56337">
        <ele>878.90676948266</ele>
        <time>2015-05-15T15:25:06Z</time>
      </trkpt>
      <trkpt lat="45.75204" lon="5.5634">
        <ele>878.90676948266</ele>
        <time>2015-05-15T15:25:11Z</time>
      </trkpt>
      <trkpt lat="45.75201" lon="5.5635">
        <ele>874.34871280883</ele>
        <time>2015-05-15T15:25:16Z</time>
      </trkpt>
      <trkpt lat="45.75198" lon="5.56359">
        <ele>874.34871280883</ele>
        <time>2015-05-15T15:25:21Z</time>
      </trkpt>
      <trkpt lat="45.75193" lon="5.56367">
        <ele>871.36117663828</ele>
        <time>2015-05-15T15:25:26Z</time>
      </trkpt>
      <trkpt lat="45.75188" lon="5.56373">
        <ele>871.36117663828</ele>
        <time>2015-05-15T15:25:31Z</time>
      </trkpt>
      <trkpt lat="45.75183" lon="5.5638">
        <ele>868.74560220789</ele>
        <time>2015-05-15T15:25:36Z</time>
      </trkpt>
      <trkpt lat="45.75178" lon="5.56393">
        <ele>866.16824386684</ele>
        <time>2015-05-15T15:25:41Z</time>
      </trkpt>
      <trkpt lat="45.75167" lon="5.56396">
        <ele>863.79493783812</ele>
        <time>2015-05-15T15:25:46Z</time>
      </trkpt>
      <trkpt lat="45.75162" lon="5.564">
        <ele>863.79493783812</ele>
        <time>2015-05-15T15:25:51Z</time>
      </trkpt>
      <trkpt lat="45.7516" lon="5.56406">
        <ele>861.43250382856</ele>
        <time>2015-05-15T15:25:56Z</time>
      </trkpt>
      <trkpt lat="45.75157" lon="5.56416">
        <ele>861.43250382856</ele>
        <time>2015-05-15T15:26:01Z</time>
      </trkpt>
      <trkpt lat="45.75152" lon="5.5642">
        <ele>859.50679627832</ele>
        <time>2015-05-15T15:26:06Z</time>
      </trkpt>
      <trkpt lat="45.75147" lon="5.56423">
        <ele>859.50679627832</ele>
        <time>2015-05-15T15:26:11Z</time>
      </trkpt>
      <trkpt lat="45.75143" lon="5.56431">
        <ele>857.79109578211</ele>
        <time>2015-05-15T15:26:16Z</time>
      </trkpt>
      <trkpt lat="45.75144" lon="5.56441">
        <ele>857.79109578211</ele>
        <time>2015-05-15T15:26:21Z</time>
      </trkpt>
      <trkpt lat="45.75148" lon="5.56455">
        <ele>856.24730169897</ele>
        <time>2015-05-15T15:26:26Z</time>
      </trkpt>
      <trkpt lat="45.75145" lon="5.56465">
        <ele>856.24730169897</ele>
        <time>2015-05-15T15:26:31Z</time>
      </trkpt>
      <trkpt lat="45.7514" lon="5.56471">
        <ele>854.13311372038</ele>
        <time>2015-05-15T15:26:36Z</time>
      </trkpt>
      <trkpt lat="45.75136" lon="5.56475">
        <ele>854.13311372038</ele>
        <time>2015-05-15T15:26:41Z</time>
      </trkpt>
      <trkpt lat="45.7513" lon="5.56481">
        <ele>851.66989848424</ele>
        <time>2015-05-15T15:26:46Z</time>
      </trkpt>
      <trkpt lat="45.75123" lon="5.56488">
        <ele>851.66989848424</ele>
        <time>2015-05-15T15:26:51Z</time>
      </trkpt>
      <trkpt lat="45.75119" lon="5.56497">
        <ele>849.7983542722</ele>
        <time>2015-05-15T15:26:56Z</time>
      </trkpt>
      <trkpt lat="45.75111" lon="5.56504">
        <ele>849.7983542722</ele>
        <time>2015-05-15T15:27:01Z</time>
      </trkpt>
      <trkpt lat="45.75105" lon="5.56511">
        <ele>848.98456303645</ele>
        <time>2015-05-15T15:27:06Z</time>
      </trkpt>
      <trkpt lat="45.751" lon="5.56515">
        <ele>848.98456303645</ele>
        <time>2015-05-15T15:27:11Z</time>
      </trkpt>
      <trkpt lat="45.75094" lon="5.56524">
        <ele>849.95970799639</ele>
        <time>2015-05-15T15:27:16Z</time>
      </trkpt>
      <trkpt lat="45.75091" lon="5.56532">
        <ele>849.95970799639</ele>
        <time>2015-05-15T15:27:21Z</time>
      </trkpt>
      <trkpt lat="45.75086" lon="5.56538">
        <ele>852.48803761456</ele>
        <time>2015-05-15T15:27:26Z</time>
      </trkpt>
      <trkpt lat="45.75081" lon="5.56543">
        <ele>852.48803761456</ele>
        <time>2015-05-15T15:27:31Z</time>
      </trkpt>
      <trkpt lat="45.75082" lon="5.56557">
        <ele>856.53383588495</ele>
        <time>2015-05-15T15:27:36Z</time>
      </trkpt>
      <trkpt lat="45.75078" lon="5.56561">
        <ele>856.53383588495</ele>
        <time>2015-05-15T15:27:41Z</time>
      </trkpt>
      <trkpt lat="45.75073" lon="5.56563">
        <ele>860.20049091018</ele>
        <time>2015-05-15T15:27:46Z</time>
      </trkpt>
      <trkpt lat="45.75075" lon="5.56568">
        <ele>860.20049091018</ele>
        <time>2015-05-15T15:27:51Z</time>
      </trkpt>
      <trkpt lat="45.75077" lon="5.56579">
        <ele>863.30240766811</ele>
        <time>2015-05-15T15:27:56Z</time>
      </trkpt>
      <trkpt lat="45.75076" lon="5.56585">
        <ele>863.30240766811</ele>
        <time>2015-05-15T15:28:01Z</time>
      </trkpt>
      <trkpt lat="45.75074" lon="5.56593">
        <ele>866.7499077626</ele>
        <time>2015-05-15T15:28:06Z</time>
      </trkpt>
      <trkpt lat="45.75073" lon="5.56607">
        <ele>870.93863800214</ele>
        <time>2015-05-15T15:28:11Z</time>
      </trkpt>
      <trkpt lat="45.75076" lon="5.56621">
        <ele>875.78631222499</ele>
        <time>2015-05-15T15:28:16Z</time>
      </trkpt>
      <trkpt lat="45.75076" lon="5.56634">
        <ele>880.35017106797</ele>
        <time>2015-05-15T15:28:21Z</time>
      </trkpt>
      <trkpt lat="45.7508" lon="5.56643">
        <ele>880.35017106797</ele>
        <time>2015-05-15T15:28:26Z</time>
      </trkpt>
      <trkpt lat="45.7508" lon="5.56651">
        <ele>884.63662348986</ele>
        <time>2015-05-15T15:28:31Z</time>
      </trkpt>
      <trkpt lat="45.75084" lon="5.56654">
        <ele>884.63662348986</ele>
        <time>2015-05-15T15:28:36Z</time>
      </trkpt>
      <trkpt lat="45.75086" lon="5.56657">
        <ele>884.63662348986</ele>
        <time>2015-05-15T15:28:41Z</time>
      </trkpt>
      <trkpt lat="45.75086" lon="5.56661">
        <ele>889.04156557508</ele>
        <time>2015-05-15T15:28:46Z</time>
      </trkpt>
      <trkpt lat="45.75086" lon="5.56662">
        <ele>889.04156557508</ele>
        <time>2015-05-15T15:28:51Z</time>
      </trkpt>
      <trkpt lat="45.75088" lon="5.56669">
        <ele>889.04156557508</ele>
        <time>2015-05-15T15:28:56Z</time>
      </trkpt>
      <trkpt lat="45.75088" lon="5.5668">
        <ele>891.6546354523</ele>
        <time>2015-05-15T15:29:01Z</time>
      </trkpt>
      <trkpt lat="45.75089" lon="5.56693">
        <ele>894.01111807096</ele>
        <time>2015-05-15T15:29:06Z</time>
      </trkpt>
      <trkpt lat="45.7509" lon="5.56702">
        <ele>894.01111807096</ele>
        <time>2015-05-15T15:29:11Z</time>
      </trkpt>
      <trkpt lat="45.75089" lon="5.56711">
        <ele>895.04127236845</ele>
        <time>2015-05-15T15:29:16Z</time>
      </trkpt>
      <trkpt lat="45.75086" lon="5.56719">
        <ele>895.04127236845</ele>
        <time>2015-05-15T15:29:21Z</time>
      </trkpt>
      <trkpt lat="45.75082" lon="5.56724">
        <ele>895.472751504</ele>
        <time>2015-05-15T15:29:26Z</time>
      </trkpt>
      <trkpt lat="45.75085" lon="5.56737">
        <ele>895.57809317805</ele>
        <time>2015-05-15T15:29:31Z</time>
      </trkpt>
      <trkpt lat="45.75085" lon="5.56745">
        <ele>895.57809317805</ele>
        <time>2015-05-15T15:29:36Z</time>
      </trkpt>
      <trkpt lat="45.75085" lon="5.5675">
        <ele>895.76941729726</ele>
        <time>2015-05-15T15:29:41Z</time>
      </trkpt>
      <trkpt lat="45.75082" lon="5.56756">
        <ele>895.76941729726</ele>
        <time>2015-05-15T15:29:46Z</time>
      </trkpt>
      <trkpt lat="45.75076" lon="5.56762">
        <ele>895.63587435833</ele>
        <time>2015-05-15T15:29:51Z</time>
      </trkpt>
      <trkpt lat="45.75073" lon="5.56771">
        <ele>895.63587435833</ele>
        <time>2015-05-15T15:29:56Z</time>
      </trkpt>
      <trkpt lat="45.7508" lon="5.56789">
        <ele>895.05725384522</ele>
        <time>2015-05-15T15:30:01Z</time>
      </trkpt>
      <trkpt lat="45.75082" lon="5.56796">
        <ele>895.05725384522</ele>
        <time>2015-05-15T15:30:06Z</time>
      </trkpt>
      <trkpt lat="45.7508" lon="5.56806">
        <ele>894.52882647244</ele>
        <time>2015-05-15T15:30:11Z</time>
      </trkpt>
      <trkpt lat="45.75073" lon="5.56814">
        <ele>894.50946338525</ele>
        <time>2015-05-15T15:30:16Z</time>
      </trkpt>
      <trkpt lat="45.75074" lon="5.56827">
        <ele>894.50946338525</ele>
        <time>2015-05-15T15:30:21Z</time>
      </trkpt>
      <trkpt lat="45.75061" lon="5.56821">
        <ele>892.49755097723</ele>
        <time>2015-05-15T15:30:26Z</time>
      </trkpt>
      <trkpt lat="45.75054" lon="5.56821">
        <ele>892.49755097723</ele>
        <time>2015-05-15T15:30:31Z</time>
      </trkpt>
      <trkpt lat="45.7505" lon="5.56829">
        <ele>891.44098361331</ele>
        <time>2015-05-15T15:30:36Z</time>
      </trkpt>
      <trkpt lat="45.75041" lon="5.56832">
        <ele>890.75394683917</ele>
        <time>2015-05-15T15:30:41Z</time>
      </trkpt>
      <trkpt lat="45.75031" lon="5.56834">
        <ele>890.42589877647</ele>
        <time>2015-05-15T15:30:46Z</time>
      </trkpt>
      <trkpt lat="45.75026" lon="5.56837">
        <ele>890.42589877647</ele>
        <time>2015-05-15T15:30:51Z</time>
      </trkpt>
      <trkpt lat="45.75021" lon="5.56845">
        <ele>889.84084887847</ele>
        <time>2015-05-15T15:30:56Z</time>
      </trkpt>
      <trkpt lat="45.75016" lon="5.56854">
        <ele>889.84084887847</ele>
        <time>2015-05-15T15:31:01Z</time>
      </trkpt>
      <trkpt lat="45.75013" lon="5.56865">
        <ele>889.32230799635</ele>
        <time>2015-05-15T15:31:06Z</time>
      </trkpt>
      <trkpt lat="45.75013" lon="5.56879">
        <ele>889.77513638454</ele>
        <time>2015-05-15T15:31:11Z</time>
      </trkpt>
      <trkpt lat="45.75018" lon="5.56895">
        <ele>890.82449499513</ele>
        <time>2015-05-15T15:31:16Z</time>
      </trkpt>
      <trkpt lat="45.75016" lon="5.56908">
        <ele>891.57381259063</ele>
        <time>2015-05-15T15:31:21Z</time>
      </trkpt>
      <trkpt lat="45.75013" lon="5.56916">
        <ele>891.57381259063</ele>
        <time>2015-05-15T15:31:26Z</time>
      </trkpt>
      <trkpt lat="45.7501" lon="5.56924">
        <ele>891.13560408545</ele>
        <time>2015-05-15T15:31:31Z</time>
      </trkpt>
      <trkpt lat="45.7501" lon="5.56931">
        <ele>891.13560408545</ele>
        <time>2015-05-15T15:31:36Z</time>
      </trkpt>
      <trkpt lat="45.75014" lon="5.56938">
        <ele>891.50110572444</ele>
        <time>2015-05-15T15:31:41Z</time>
      </trkpt>
      <trkpt lat="45.75016" lon="5.56949">
        <ele>891.50110572444</ele>
        <time>2015-05-15T15:31:46Z</time>
      </trkpt>
      <trkpt lat="45.75019" lon="5.56959">
        <ele>892.61078552478</ele>
        <time>2015-05-15T15:31:51Z</time>
      </trkpt>
      <trkpt lat="45.75025" lon="5.56966">
        <ele>892.61078552478</ele>
        <time>2015-05-15T15:31:56Z</time>
      </trkpt>
      <trkpt lat="45.75026" lon="5.56969">
        <ele>892.95190228866</ele>
        <time>2015-05-15T15:32:01Z</time>
      </trkpt>
      <trkpt lat="45.75026" lon="5.5697">
        <ele>892.95190228866</ele>
        <time>2015-05-15T15:32:06Z</time>
      </trkpt>
      <trkpt lat="45.7503" lon="5.56979">
        <ele>892.95190228866</ele>
        <time>2015-05-15T15:32:11Z</time>
      </trkpt>
      <trkpt lat="45.75035" lon="5.56991">
        <ele>893.8919590346</ele>
        <time>2015-05-15T15:32:16Z</time>
      </trkpt>
      <trkpt lat="45.75044" lon="5.56996">
        <ele>894.59233018824</ele>
        <time>2015-05-15T15:32:21Z</time>
      </trkpt>
      <trkpt lat="45.75053" lon="5.56994">
        <ele>894.59233018824</ele>
        <time>2015-05-15T15:32:26Z</time>
      </trkpt>
      <trkpt lat="45.7506" lon="5.56988">
        <ele>894.39198754835</ele>
        <time>2015-05-15T15:32:31Z</time>
      </trkpt>
      <trkpt lat="45.75064" lon="5.56979">
        <ele>894.39198754835</ele>
        <time>2015-05-15T15:32:36Z</time>
      </trkpt>
      <trkpt lat="45.75073" lon="5.56975">
        <ele>893.70420678486</ele>
        <time>2015-05-15T15:32:41Z</time>
      </trkpt>
      <trkpt lat="45.75079" lon="5.56968">
        <ele>893.70420678486</ele>
        <time>2015-05-15T15:32:46Z</time>
      </trkpt>
      <trkpt lat="45.75082" lon="5.5696">
        <ele>892.5818404915</ele>
        <time>2015-05-15T15:32:51Z</time>
      </trkpt>
      <trkpt lat="45.75092" lon="5.56952">
        <ele>891.57948306203</ele>
        <time>2015-05-15T15:32:56Z</time>
      </trkpt>
      <trkpt lat="45.75113" lon="5.56949">
        <ele>891.18183651723</ele>
        <time>2015-05-15T15:33:01Z</time>
      </trkpt>
      <trkpt lat="45.75121" lon="5.56945">
        <ele>891.18183651723</ele>
        <time>2015-05-15T15:33:06Z</time>
      </trkpt>
      <trkpt lat="45.75127" lon="5.56942">
        <ele>890.81310885457</ele>
        <time>2015-05-15T15:33:11Z</time>
      </trkpt>
      <trkpt lat="45.7513" lon="5.56937">
        <ele>890.81310885457</ele>
        <time>2015-05-15T15:33:16Z</time>
      </trkpt>
      <trkpt lat="45.75136" lon="5.56937">
        <ele>889.9541246413</ele>
        <time>2015-05-15T15:33:21Z</time>
      </trkpt>
      <trkpt lat="45.75143" lon="5.5694">
        <ele>889.9541246413</ele>
        <time>2015-05-15T15:33:26Z</time>
      </trkpt>
      <trkpt lat="45.75152" lon="5.56936">
        <ele>888.78811524928</ele>
        <time>2015-05-15T15:33:31Z</time>
      </trkpt>
      <trkpt lat="45.75159" lon="5.56932">
        <ele>888.78811524928</ele>
        <time>2015-05-15T15:33:36Z</time>
      </trkpt>
      <trkpt lat="45.75167" lon="5.5693">
        <ele>887.80273260618</ele>
        <time>2015-05-15T15:33:41Z</time>
      </trkpt>
      <trkpt lat="45.75172" lon="5.56931">
        <ele>887.80273260618</ele>
        <time>2015-05-15T15:33:46Z</time>
      </trkpt>
      <trkpt lat="45.75179" lon="5.56926">
        <ele>886.39725406638</ele>
        <time>2015-05-15T15:33:51Z</time>
      </trkpt>
      <trkpt lat="45.75188" lon="5.5692">
        <ele>884.52060954506</ele>
        <time>2015-05-15T15:33:56Z</time>
      </trkpt>
      <trkpt lat="45.75192" lon="5.56916">
        <ele>884.52060954506</ele>
        <time>2015-05-15T15:34:01Z</time>
      </trkpt>
      <trkpt lat="45.75195" lon="5.5691">
        <ele>883.74079483863</ele>
        <time>2015-05-15T15:34:06Z</time>
      </trkpt>
      <trkpt lat="45.75199" lon="5.56902">
        <ele>883.74079483863</ele>
        <time>2015-05-15T15:34:11Z</time>
      </trkpt>
      <trkpt lat="45.75203" lon="5.56894">
        <ele>883.24493938459</ele>
        <time>2015-05-15T15:34:16Z</time>
      </trkpt>
      <trkpt lat="45.75206" lon="5.56888">
        <ele>883.24493938459</ele>
        <time>2015-05-15T15:34:21Z</time>
      </trkpt>
      <trkpt lat="45.75209" lon="5.56884">
        <ele>881.90433280083</ele>
        <time>2015-05-15T15:34:26Z</time>
      </trkpt>
      <trkpt lat="45.75213" lon="5.5688">
        <ele>881.90433280083</ele>
        <time>2015-05-15T15:34:31Z</time>
      </trkpt>
      <trkpt lat="45.75216" lon="5.56875">
        <ele>880.08776491322</ele>
        <time>2015-05-15T15:34:36Z</time>
      </trkpt>
      <trkpt lat="45.75218" lon="5.56866">
        <ele>880.08776491322</ele>
        <time>2015-05-15T15:34:41Z</time>
      </trkpt>
      <trkpt lat="45.75219" lon="5.56856">
        <ele>878.16701249164</ele>
        <time>2015-05-15T15:34:46Z</time>
      </trkpt>
      <trkpt lat="45.7522" lon="5.56845">
        <ele>878.16701249164</ele>
        <time>2015-05-15T15:34:51Z</time>
      </trkpt>
      <trkpt lat="45.75225" lon="5.56839">
        <ele>876.38586934596</ele>
        <time>2015-05-15T15:34:56Z</time>
      </trkpt>
      <trkpt lat="45.75228" lon="5.56832">
        <ele>876.38586934596</ele>
        <time>2015-05-15T15:35:01Z</time>
      </trkpt>
      <trkpt lat="45.75232" lon="5.56824">
        <ele>875.05620048634</ele>
        <time>2015-05-15T15:35:06Z</time>
      </trkpt>
      <trkpt lat="45.75235" lon="5.56812">
        <ele>875.05620048634</ele>
        <time>2015-05-15T15:35:11Z</time>
      </trkpt>
      <trkpt lat="45.75237" lon="5.56804">
        <ele>873.50004781017</ele>
        <time>2015-05-15T15:35:16Z</time>
      </trkpt>
      <trkpt lat="45.75238" lon="5.56796">
        <ele>873.50004781017</ele>
        <time>2015-05-15T15:35:21Z</time>
      </trkpt>
      <trkpt lat="45.7524" lon="5.56787">
        <ele>872.28590607694</ele>
        <time>2015-05-15T15:35:26Z</time>
      </trkpt>
      <trkpt lat="45.75246" lon="5.56777">
        <ele>871.46387215518</ele>
        <time>2015-05-15T15:35:31Z</time>
      </trkpt>
      <trkpt lat="45.7525" lon="5.5677">
        <ele>871.46387215518</ele>
        <time>2015-05-15T15:35:36Z</time>
      </trkpt>
      <trkpt lat="45.75257" lon="5.56764">
        <ele>869.92626116559</ele>
        <time>2015-05-15T15:35:41Z</time>
      </trkpt>
      <trkpt lat="45.75264" lon="5.56756">
        <ele>869.92626116559</ele>
        <time>2015-05-15T15:35:46Z</time>
      </trkpt>
      <trkpt lat="45.75268" lon="5.56749">
        <ele>868.82473120951</ele>
        <time>2015-05-15T15:35:51Z</time>
      </trkpt>
      <trkpt lat="45.7527" lon="5.56744">
        <ele>868.82473120951</ele>
        <time>2015-05-15T15:35:56Z</time>
      </trkpt>
      <trkpt lat="45.75275" lon="5.56736">
        <ele>867.42361408111</ele>
        <time>2015-05-15T15:36:01Z</time>
      </trkpt>
      <trkpt lat="45.75274" lon="5.56729">
        <ele>867.42361408111</ele>
        <time>2015-05-15T15:36:06Z</time>
      </trkpt>
      <trkpt lat="45.7528" lon="5.56724">
        <ele>866.26695546275</ele>
        <time>2015-05-15T15:36:11Z</time>
      </trkpt>
      <trkpt lat="45.75291" lon="5.56722">
        <ele>865.29600354342</ele>
        <time>2015-05-15T15:36:16Z</time>
      </trkpt>
      <trkpt lat="45.753" lon="5.56719">
        <ele>864.55656813896</ele>
        <time>2015-05-15T15:36:21Z</time>
      </trkpt>
      <trkpt lat="45.75302" lon="5.5671">
        <ele>864.55656813896</ele>
        <time>2015-05-15T15:36:26Z</time>
      </trkpt>
      <trkpt lat="45.75305" lon="5.56702">
        <ele>863.78770259032</ele>
        <time>2015-05-15T15:36:31Z</time>
      </trkpt>
      <trkpt lat="45.75311" lon="5.56697">
        <ele>863.78770259032</ele>
        <time>2015-05-15T15:36:36Z</time>
      </trkpt>
      <trkpt lat="45.75316" lon="5.56691">
        <ele>863.0358297292</ele>
        <time>2015-05-15T15:36:41Z</time>
      </trkpt>
      <trkpt lat="45.75319" lon="5.56685">
        <ele>863.0358297292</ele>
        <time>2015-05-15T15:36:46Z</time>
      </trkpt>
      <trkpt lat="45.75325" lon="5.5668">
        <ele>861.88265838964</ele>
        <time>2015-05-15T15:36:51Z</time>
      </trkpt>
      <trkpt lat="45.75329" lon="5.56673">
        <ele>861.88265838964</ele>
        <time>2015-05-15T15:36:56Z</time>
      </trkpt>
      <trkpt lat="45.75333" lon="5.56665">
        <ele>860.01370826817</ele>
        <time>2015-05-15T15:37:01Z</time>
      </trkpt>
      <trkpt lat="45.75338" lon="5.56654">
        <ele>858.40769019893</ele>
        <time>2015-05-15T15:37:06Z</time>
      </trkpt>
      <trkpt lat="45.7535" lon="5.56635">
        <ele>857.40855232776</ele>
        <time>2015-05-15T15:37:11Z</time>
      </trkpt>
      <trkpt lat="45.75358" lon="5.56613">
        <ele>856.95849024977</ele>
        <time>2015-05-15T15:37:16Z</time>
      </trkpt>
      <trkpt lat="45.75371" lon="5.56601">
        <ele>857.16083705968</ele>
        <time>2015-05-15T15:37:21Z</time>
      </trkpt>
      <trkpt lat="45.75383" lon="5.56599">
        <ele>856.59625314674</ele>
        <time>2015-05-15T15:37:26Z</time>
      </trkpt>
      <trkpt lat="45.75396" lon="5.56597">
        <ele>856.47368421542</ele>
        <time>2015-05-15T15:37:31Z</time>
      </trkpt>
      <trkpt lat="45.75399" lon="5.56589">
        <ele>856.47368421542</ele>
        <time>2015-05-15T15:37:36Z</time>
      </trkpt>
      <trkpt lat="45.754" lon="5.56585">
        <ele>855.28913670095</ele>
        <time>2015-05-15T15:37:41Z</time>
      </trkpt>
      <trkpt lat="45.75403" lon="5.56585">
        <ele>855.28913670095</ele>
        <time>2015-05-15T15:37:46Z</time>
      </trkpt>
      <trkpt lat="45.75416" lon="5.56581">
        <ele>855.29803191228</ele>
        <time>2015-05-15T15:37:51Z</time>
      </trkpt>
      <trkpt lat="45.75428" lon="5.56576">
        <ele>856.06476502428</ele>
        <time>2015-05-15T15:37:56Z</time>
      </trkpt>
      <trkpt lat="45.75436" lon="5.5657">
        <ele>856.60711854622</ele>
        <time>2015-05-15T15:38:01Z</time>
      </trkpt>
      <trkpt lat="45.7544" lon="5.56567">
        <ele>856.60711854622</ele>
        <time>2015-05-15T15:38:06Z</time>
      </trkpt>
      <trkpt lat="45.75447" lon="5.56563">
        <ele>857.41350613297</ele>
        <time>2015-05-15T15:38:11Z</time>
      </trkpt>
      <trkpt lat="45.75453" lon="5.56561">
        <ele>857.41350613297</ele>
        <time>2015-05-15T15:38:16Z</time>
      </trkpt>
      <trkpt lat="45.75457" lon="5.56556">
        <ele>857.60988244037</ele>
        <time>2015-05-15T15:38:21Z</time>
      </trkpt>
      <trkpt lat="45.75457" lon="5.5655">
        <ele>857.60988244037</ele>
        <time>2015-05-15T15:38:26Z</time>
      </trkpt>
      <trkpt lat="45.75459" lon="5.56547">
        <ele>857.60988244037</ele>
        <time>2015-05-15T15:38:31Z</time>
      </trkpt>
      <trkpt lat="45.75464" lon="5.5654">
        <ele>858.46331732218</ele>
        <time>2015-05-15T15:38:36Z</time>
      </trkpt>
      <trkpt lat="45.75473" lon="5.56536">
        <ele>858.92665494352</ele>
        <time>2015-05-15T15:38:41Z</time>
      </trkpt>
      <trkpt lat="45.75477" lon="5.56534">
        <ele>858.92665494352</ele>
        <time>2015-05-15T15:38:46Z</time>
      </trkpt>
      <trkpt lat="45.75478" lon="5.56532">
        <ele>858.92665494352</ele>
        <time>2015-05-15T15:38:51Z</time>
      </trkpt>
      <trkpt lat="45.75479" lon="5.56532">
        <ele>858.92665494352</ele>
        <time>2015-05-15T15:38:56Z</time>
      </trkpt>
      <trkpt lat="45.7548" lon="5.56532">
        <ele>858.92665494352</ele>
        <time>2015-05-15T15:39:01Z</time>
      </trkpt>
      <trkpt lat="45.75481" lon="5.56527">
        <ele>858.6792745173</ele>
        <time>2015-05-15T15:39:06Z</time>
      </trkpt>
      <trkpt lat="45.75486" lon="5.56516">
        <ele>858.5501932068</ele>
        <time>2015-05-15T15:39:11Z</time>
      </trkpt>
      <trkpt lat="45.75495" lon="5.56504">
        <ele>857.53465839554</ele>
        <time>2015-05-15T15:39:16Z</time>
      </trkpt>
      <trkpt lat="45.75504" lon="5.56495">
        <ele>856.5632762298</ele>
        <time>2015-05-15T15:39:21Z</time>
      </trkpt>
      <trkpt lat="45.75516" lon="5.56486">
        <ele>856.80083040022</ele>
        <time>2015-05-15T15:39:26Z</time>
      </trkpt>
      <trkpt lat="45.75527" lon="5.56479">
        <ele>857.27680074907</ele>
        <time>2015-05-15T15:39:31Z</time>
      </trkpt>
      <trkpt lat="45.75537" lon="5.56475">
        <ele>857.49483568441</ele>
        <time>2015-05-15T15:39:36Z</time>
      </trkpt>
      <trkpt lat="45.75544" lon="5.56471">
        <ele>857.49483568441</ele>
        <time>2015-05-15T15:39:41Z</time>
      </trkpt>
      <trkpt lat="45.75553" lon="5.5647">
        <ele>857.99017291377</ele>
        <time>2015-05-15T15:39:46Z</time>
      </trkpt>
      <trkpt lat="45.75563" lon="5.56468">
        <ele>857.7592397299</ele>
        <time>2015-05-15T15:39:51Z</time>
      </trkpt>
      <trkpt lat="45.75572" lon="5.56464">
        <ele>857.31537967769</ele>
        <time>2015-05-15T15:39:56Z</time>
      </trkpt>
      <trkpt lat="45.75575" lon="5.56461">
        <ele>857.31537967769</ele>
        <time>2015-05-15T15:40:01Z</time>
      </trkpt>
      <trkpt lat="45.75578" lon="5.56456">
        <ele>857.31537967769</ele>
        <time>2015-05-15T15:40:06Z</time>
      </trkpt>
      <trkpt lat="45.75579" lon="5.56452">
        <ele>856.44313615561</ele>
        <time>2015-05-15T15:40:11Z</time>
      </trkpt>
      <trkpt lat="45.75581" lon="5.56448">
        <ele>856.44313615561</ele>
        <time>2015-05-15T15:40:16Z</time>
      </trkpt>
      <trkpt lat="45.75585" lon="5.56441">
        <ele>854.55502419259</ele>
        <time>2015-05-15T15:40:21Z</time>
      </trkpt>
      <trkpt lat="45.7559" lon="5.56437">
        <ele>854.55502419259</ele>
        <time>2015-05-15T15:40:26Z</time>
      </trkpt>
      <trkpt lat="45.75593" lon="5.5643">
        <ele>851.88779974261</ele>
        <time>2015-05-15T15:40:31Z</time>
      </trkpt>
      <trkpt lat="45.756" lon="5.56424">
        <ele>851.88779974261</ele>
        <time>2015-05-15T15:40:36Z</time>
      </trkpt>
      <trkpt lat="45.75606" lon="5.56421">
        <ele>849.18183512833</ele>
        <time>2015-05-15T15:40:41Z</time>
      </trkpt>
      <trkpt lat="45.75611" lon="5.56415">
        <ele>849.18183512833</ele>
        <time>2015-05-15T15:40:46Z</time>
      </trkpt>
      <trkpt lat="45.75616" lon="5.56413">
        <ele>846.25856369495</ele>
        <time>2015-05-15T15:40:51Z</time>
      </trkpt>
      <trkpt lat="45.7562" lon="5.56412">
        <ele>846.25856369495</ele>
        <time>2015-05-15T15:40:56Z</time>
      </trkpt>
      <trkpt lat="45.75622" lon="5.56411">
        <ele>846.25856369495</ele>
        <time>2015-05-15T15:41:01Z</time>
      </trkpt>
      <trkpt lat="45.75628" lon="5.56409">
        <ele>843.70251322241</ele>
        <time>2015-05-15T15:41:06Z</time>
      </trkpt>
      <trkpt lat="45.75636" lon="5.56409">
        <ele>843.70251322241</ele>
        <time>2015-05-15T15:41:11Z</time>
      </trkpt>
      <trkpt lat="45.7564" lon="5.56414">
        <ele>841.52100391283</ele>
        <time>2015-05-15T15:41:16Z</time>
      </trkpt>
      <trkpt lat="45.75643" lon="5.5642">
        <ele>841.52100391283</ele>
        <time>2015-05-15T15:41:21Z</time>
      </trkpt>
      <trkpt lat="45.75643" lon="5.56423">
        <ele>841.52100391283</ele>
        <time>2015-05-15T15:41:26Z</time>
      </trkpt>
      <trkpt lat="45.75643" lon="5.56426">
        <ele>839.05681435774</ele>
        <time>2015-05-15T15:41:31Z</time>
      </trkpt>
      <trkpt lat="45.75643" lon="5.56429">
        <ele>839.05681435774</ele>
        <time>2015-05-15T15:41:36Z</time>
      </trkpt>
      <trkpt lat="45.75643" lon="5.56432">
        <ele>839.05681435774</ele>
        <time>2015-05-15T15:41:41Z</time>
      </trkpt>
      <trkpt lat="45.75643" lon="5.56445">
        <ele>836.47994084775</ele>
        <time>2015-05-15T15:41:46Z</time>
      </trkpt>
      <trkpt lat="45.75644" lon="5.56454">
        <ele>836.47994084775</ele>
        <time>2015-05-15T15:41:51Z</time>
      </trkpt>
      <trkpt lat="45.75643" lon="5.56463">
        <ele>833.90490868083</ele>
        <time>2015-05-15T15:41:56Z</time>
      </trkpt>
      <trkpt lat="45.75643" lon="5.56473">
        <ele>833.90490868083</ele>
        <time>2015-05-15T15:42:01Z</time>
      </trkpt>
      <trkpt lat="45.75643" lon="5.56482">
        <ele>831.00541458238</ele>
        <time>2015-05-15T15:42:06Z</time>
      </trkpt>
      <trkpt lat="45.75642" lon="5.56496">
        <ele>828.51754871757</ele>
        <time>2015-05-15T15:42:11Z</time>
      </trkpt>
      <trkpt lat="45.75642" lon="5.5651">
        <ele>826.63210013768</ele>
        <time>2015-05-15T15:42:16Z</time>
      </trkpt>
      <trkpt lat="45.7564" lon="5.5652">
        <ele>826.63210013768</ele>
        <time>2015-05-15T15:42:21Z</time>
      </trkpt>
      <trkpt lat="45.75639" lon="5.56537">
        <ele>825.20700676295</ele>
        <time>2015-05-15T15:42:26Z</time>
      </trkpt>
      <trkpt lat="45.75639" lon="5.5655">
        <ele>825.20700676295</ele>
        <time>2015-05-15T15:42:31Z</time>
      </trkpt>
      <trkpt lat="45.75642" lon="5.56559">
        <ele>824.08042509029</ele>
        <time>2015-05-15T15:42:36Z</time>
      </trkpt>
      <trkpt lat="45.75644" lon="5.56567">
        <ele>824.08042509029</ele>
        <time>2015-05-15T15:42:41Z</time>
      </trkpt>
      <trkpt lat="45.75646" lon="5.56576">
        <ele>823.49056204864</ele>
        <time>2015-05-15T15:42:46Z</time>
      </trkpt>
      <trkpt lat="45.7565" lon="5.56583">
        <ele>823.49056204864</ele>
        <time>2015-05-15T15:42:51Z</time>
      </trkpt>
      <trkpt lat="45.75655" lon="5.56582">
        <ele>821.62455499405</ele>
        <time>2015-05-15T15:42:56Z</time>
      </trkpt>
      <trkpt lat="45.75656" lon="5.5658">
        <ele>821.62455499405</ele>
        <time>2015-05-15T15:43:01Z</time>
      </trkpt>
      <trkpt lat="45.7566" lon="5.56578">
        <ele>821.62455499405</ele>
        <time>2015-05-15T15:43:06Z</time>
      </trkpt>
      <trkpt lat="45.75663" lon="5.56572">
        <ele>818.80934266089</ele>
        <time>2015-05-15T15:43:11Z</time>
      </trkpt>
      <trkpt lat="45.75664" lon="5.56567">
        <ele>818.80934266089</ele>
        <time>2015-05-15T15:43:16Z</time>
      </trkpt>
      <trkpt lat="45.75667" lon="5.56563">
        <ele>818.80934266089</ele>
        <time>2015-05-15T15:43:21Z</time>
      </trkpt>
      <trkpt lat="45.75669" lon="5.56562">
        <ele>816.46007102778</ele>
        <time>2015-05-15T15:43:26Z</time>
      </trkpt>
      <trkpt lat="45.75673" lon="5.56558">
        <ele>816.46007102778</ele>
        <time>2015-05-15T15:43:31Z</time>
      </trkpt>
      <trkpt lat="45.75679" lon="5.56551">
        <ele>813.58074667534</ele>
        <time>2015-05-15T15:43:36Z</time>
      </trkpt>
      <trkpt lat="45.75686" lon="5.56542">
        <ele>811.16660383124</ele>
        <time>2015-05-15T15:43:41Z</time>
      </trkpt>
      <trkpt lat="45.75692" lon="5.56535">
        <ele>811.16660383124</ele>
        <time>2015-05-15T15:43:46Z</time>
      </trkpt>
      <trkpt lat="45.75695" lon="5.56527">
        <ele>808.38019743832</ele>
        <time>2015-05-15T15:43:51Z</time>
      </trkpt>
      <trkpt lat="45.75696" lon="5.5652">
        <ele>808.38019743832</ele>
        <time>2015-05-15T15:43:56Z</time>
      </trkpt>
      <trkpt lat="45.75703" lon="5.56514">
        <ele>805.64265393742</ele>
        <time>2015-05-15T15:44:01Z</time>
      </trkpt>
      <trkpt lat="45.75708" lon="5.56507">
        <ele>805.64265393742</ele>
        <time>2015-05-15T15:44:06Z</time>
      </trkpt>
      <trkpt lat="45.75712" lon="5.56502">
        <ele>803.40155388371</ele>
        <time>2015-05-15T15:44:11Z</time>
      </trkpt>
      <trkpt lat="45.75716" lon="5.56499">
        <ele>803.40155388371</ele>
        <time>2015-05-15T15:44:16Z</time>
      </trkpt>
      <trkpt lat="45.75721" lon="5.56496">
        <ele>802.1853767409</ele>
        <time>2015-05-15T15:44:21Z</time>
      </trkpt>
      <trkpt lat="45.75727" lon="5.56491">
        <ele>802.1853767409</ele>
        <time>2015-05-15T15:44:26Z</time>
      </trkpt>
      <trkpt lat="45.75735" lon="5.56486">
        <ele>801.32789954448</ele>
        <time>2015-05-15T15:44:31Z</time>
      </trkpt>
      <trkpt lat="45.75738" lon="5.56482">
        <ele>801.32789954448</ele>
        <time>2015-05-15T15:44:36Z</time>
      </trkpt>
      <trkpt lat="45.75744" lon="5.56476">
        <ele>800.21072295299</ele>
        <time>2015-05-15T15:44:41Z</time>
      </trkpt>
      <trkpt lat="45.75749" lon="5.56469">
        <ele>800.21072295299</ele>
        <time>2015-05-15T15:44:46Z</time>
      </trkpt>
      <trkpt lat="45.75753" lon="5.56464">
        <ele>800.25023769553</ele>
        <time>2015-05-15T15:44:51Z</time>
      </trkpt>
      <trkpt lat="45.75757" lon="5.56461">
        <ele>800.25023769553</ele>
        <time>2015-05-15T15:44:56Z</time>
      </trkpt>
      <trkpt lat="45.75768" lon="5.56458">
        <ele>801.31434598086</ele>
        <time>2015-05-15T15:45:01Z</time>
      </trkpt>
      <trkpt lat="45.75775" lon="5.56453">
        <ele>801.31434598086</ele>
        <time>2015-05-15T15:45:06Z</time>
      </trkpt>
      <trkpt lat="45.75778" lon="5.56451">
        <ele>801.98071148324</ele>
        <time>2015-05-15T15:45:11Z</time>
      </trkpt>
      <trkpt lat="45.75779" lon="5.56451">
        <ele>801.98071148324</ele>
        <time>2015-05-15T15:45:16Z</time>
      </trkpt>
      <trkpt lat="45.75779" lon="5.56451">
        <ele>801.98071148324</ele>
        <time>2015-05-15T15:45:21Z</time>
      </trkpt>
      <trkpt lat="45.75779" lon="5.56451">
        <ele>801.98071148324</ele>
        <time>2015-05-15T15:45:26Z</time>
      </trkpt>
      <trkpt lat="45.7578" lon="5.56451">
        <ele>801.98071148324</ele>
        <time>2015-05-15T15:45:31Z</time>
      </trkpt>
      <trkpt lat="45.7579" lon="5.56446">
        <ele>800.83166871577</ele>
        <time>2015-05-15T15:45:36Z</time>
      </trkpt>
      <trkpt lat="45.75801" lon="5.56438">
        <ele>799.87330757508</ele>
        <time>2015-05-15T15:45:41Z</time>
      </trkpt>
      <trkpt lat="45.75813" lon="5.56435">
        <ele>799.71002806162</ele>
        <time>2015-05-15T15:45:46Z</time>
      </trkpt>
      <trkpt lat="45.75816" lon="5.5644">
        <ele>799.71002806162</ele>
        <time>2015-05-15T15:45:51Z</time>
      </trkpt>
      <trkpt lat="45.75814" lon="5.56444">
        <ele>799.71002806162</ele>
        <time>2015-05-15T15:45:56Z</time>
      </trkpt>
      <trkpt lat="45.75813" lon="5.56446">
        <ele>799.25672119306</ele>
        <time>2015-05-15T15:46:01Z</time>
      </trkpt>
      <trkpt lat="45.75813" lon="5.56448">
        <ele>799.25672119306</ele>
        <time>2015-05-15T15:46:06Z</time>
      </trkpt>
      <trkpt lat="45.75813" lon="5.56448">
        <ele>799.25672119306</ele>
        <time>2015-05-15T15:46:11Z</time>
      </trkpt>
      <trkpt lat="45.75813" lon="5.56448">
        <ele>799.25672119306</ele>
        <time>2015-05-15T15:46:16Z</time>
      </trkpt>
      <trkpt lat="45.75813" lon="5.56448">
        <ele>799.25672119306</ele>
        <time>2015-05-15T15:46:21Z</time>
      </trkpt>
      <trkpt lat="45.75813" lon="5.56448">
        <ele>799.25672119306</ele>
        <time>2015-05-15T15:46:26Z</time>
      </trkpt>
      <trkpt lat="45.75813" lon="5.56448">
        <ele>799.25672119306</ele>
        <time>2015-05-15T15:46:31Z</time>
      </trkpt>
      <trkpt lat="45.75813" lon="5.56448">
        <ele>799.25672119306</ele>
        <time>2015-05-15T15:46:36Z</time>
      </trkpt>
      <trkpt lat="45.75813" lon="5.56448">
        <ele>799.25672119306</ele>
        <time>2015-05-15T15:46:41Z</time>
      </trkpt>
      <trkpt lat="45.75813" lon="5.56448">
        <ele>799.25672119306</ele>
        <time>2015-05-15T15:46:46Z</time>
      </trkpt>
      <trkpt lat="45.75813" lon="5.56448">
        <ele>799.25672119306</ele>
        <time>2015-05-15T15:46:51Z</time>
      </trkpt>
      <trkpt lat="45.75816" lon="5.56446">
        <ele>799.25672119306</ele>
        <time>2015-05-15T15:46:56Z</time>
      </trkpt>
      <trkpt lat="45.75824" lon="5.56438">
        <ele>798.40228698381</ele>
        <time>2015-05-15T15:47:01Z</time>
      </trkpt>
      <trkpt lat="45.75831" lon="5.5643">
        <ele>798.40228698381</ele>
        <time>2015-05-15T15:47:06Z</time>
      </trkpt>
      <trkpt lat="45.75839" lon="5.56424">
        <ele>798.05369304585</ele>
        <time>2015-05-15T15:47:11Z</time>
      </trkpt>
      <trkpt lat="45.75847" lon="5.56417">
        <ele>798.37255199684</ele>
        <time>2015-05-15T15:47:16Z</time>
      </trkpt>
      <trkpt lat="45.75854" lon="5.5641">
        <ele>798.37255199684</ele>
        <time>2015-05-15T15:47:21Z</time>
      </trkpt>
      <trkpt lat="45.7586" lon="5.56404">
        <ele>798.85825298666</ele>
        <time>2015-05-15T15:47:26Z</time>
      </trkpt>
      <trkpt lat="45.75864" lon="5.56398">
        <ele>798.85825298666</ele>
        <time>2015-05-15T15:47:31Z</time>
      </trkpt>
      <trkpt lat="45.75869" lon="5.56394">
        <ele>799.99765830004</ele>
        <time>2015-05-15T15:47:36Z</time>
      </trkpt>
      <trkpt lat="45.75873" lon="5.56385">
        <ele>799.99765830004</ele>
        <time>2015-05-15T15:47:41Z</time>
      </trkpt>
      <trkpt lat="45.75877" lon="5.56381">
        <ele>801.14483380644</ele>
        <time>2015-05-15T15:47:46Z</time>
      </trkpt>
      <trkpt lat="45.75883" lon="5.56379">
        <ele>801.14483380644</ele>
        <time>2015-05-15T15:47:51Z</time>
      </trkpt>
      <trkpt lat="45.75885" lon="5.56372">
        <ele>800.38992088513</ele>
        <time>2015-05-15T15:47:56Z</time>
      </trkpt>
      <trkpt lat="45.75901" lon="5.56355">
        <ele>799.32655252531</ele>
        <time>2015-05-15T15:48:01Z</time>
      </trkpt>
      <trkpt lat="45.75924" lon="5.56335">
        <ele>798.29375502736</ele>
        <time>2015-05-15T15:48:06Z</time>
      </trkpt>
      <trkpt lat="45.75933" lon="5.56324">
        <ele>797.67769427913</ele>
        <time>2015-05-15T15:48:11Z</time>
      </trkpt>
      <trkpt lat="45.75938" lon="5.56319">
        <ele>797.67769427913</ele>
        <time>2015-05-15T15:48:16Z</time>
      </trkpt>
      <trkpt lat="45.75942" lon="5.56314">
        <ele>797.20098313445</ele>
        <time>2015-05-15T15:48:21Z</time>
      </trkpt>
      <trkpt lat="45.75945" lon="5.56306">
        <ele>797.20098313445</ele>
        <time>2015-05-15T15:48:26Z</time>
      </trkpt>
      <trkpt lat="45.75948" lon="5.56301">
        <ele>797.2259706524</ele>
        <time>2015-05-15T15:48:31Z</time>
      </trkpt>
      <trkpt lat="45.75951" lon="5.56295">
        <ele>797.2259706524</ele>
        <time>2015-05-15T15:48:36Z</time>
      </trkpt>
      <trkpt lat="45.75956" lon="5.56291">
        <ele>795.85332878489</ele>
        <time>2015-05-15T15:48:41Z</time>
      </trkpt>
      <trkpt lat="45.75959" lon="5.56289">
        <ele>795.85332878489</ele>
        <time>2015-05-15T15:48:46Z</time>
      </trkpt>
      <trkpt lat="45.75962" lon="5.5628">
        <ele>794.91561269919</ele>
        <time>2015-05-15T15:48:51Z</time>
      </trkpt>
      <trkpt lat="45.75969" lon="5.56274">
        <ele>794.91561269919</ele>
        <time>2015-05-15T15:48:56Z</time>
      </trkpt>
      <trkpt lat="45.75975" lon="5.56272">
        <ele>794.27939690291</ele>
        <time>2015-05-15T15:49:01Z</time>
      </trkpt>
      <trkpt lat="45.75981" lon="5.56269">
        <ele>794.27939690291</ele>
        <time>2015-05-15T15:49:06Z</time>
      </trkpt>
      <trkpt lat="45.7599" lon="5.56264">
        <ele>792.91237738746</ele>
        <time>2015-05-15T15:49:11Z</time>
      </trkpt>
      <trkpt lat="45.75995" lon="5.56263">
        <ele>792.91237738746</ele>
        <time>2015-05-15T15:49:16Z</time>
      </trkpt>
      <trkpt lat="45.75998" lon="5.5626">
        <ele>792.91237738746</ele>
        <time>2015-05-15T15:49:21Z</time>
      </trkpt>
      <trkpt lat="45.76003" lon="5.56257">
        <ele>791.6183506036</ele>
        <time>2015-05-15T15:49:26Z</time>
      </trkpt>
      <trkpt lat="45.7602" lon="5.56249">
        <ele>790.30607402769</ele>
        <time>2015-05-15T15:49:31Z</time>
      </trkpt>
      <trkpt lat="45.76032" lon="5.56242">
        <ele>789.65490083209</ele>
        <time>2015-05-15T15:49:36Z</time>
      </trkpt>
      <trkpt lat="45.76039" lon="5.56238">
        <ele>789.65490083209</ele>
        <time>2015-05-15T15:49:41Z</time>
      </trkpt>
      <trkpt lat="45.76041" lon="5.56239">
        <ele>788.93782822191</ele>
        <time>2015-05-15T15:49:46Z</time>
      </trkpt>
      <trkpt lat="45.76044" lon="5.56236">
        <ele>788.93782822191</ele>
        <time>2015-05-15T15:49:51Z</time>
      </trkpt>
      <trkpt lat="45.76051" lon="5.5623">
        <ele>787.89941105139</ele>
        <time>2015-05-15T15:49:56Z</time>
      </trkpt>
      <trkpt lat="45.76053" lon="5.56228">
        <ele>787.89941105139</ele>
        <time>2015-05-15T15:50:01Z</time>
      </trkpt>
      <trkpt lat="45.76055" lon="5.56227">
        <ele>787.89941105139</ele>
        <time>2015-05-15T15:50:06Z</time>
      </trkpt>
      <trkpt lat="45.76058" lon="5.56226">
        <ele>787.89941105139</ele>
        <time>2015-05-15T15:50:11Z</time>
      </trkpt>
      <trkpt lat="45.76059" lon="5.56228">
        <ele>787.57209276138</ele>
        <time>2015-05-15T15:50:16Z</time>
      </trkpt>
      <trkpt lat="45.76063" lon="5.56235">
        <ele>787.57209276138</ele>
        <time>2015-05-15T15:50:21Z</time>
      </trkpt>
      <trkpt lat="45.76065" lon="5.56247">
        <ele>785.69684138397</ele>
        <time>2015-05-15T15:50:26Z</time>
      </trkpt>
      <trkpt lat="45.76066" lon="5.5626">
        <ele>785.69684138397</ele>
        <time>2015-05-15T15:50:31Z</time>
      </trkpt>
      <trkpt lat="45.76065" lon="5.56266">
        <ele>784.52269886694</ele>
        <time>2015-05-15T15:50:36Z</time>
      </trkpt>
      <trkpt lat="45.76065" lon="5.56278">
        <ele>784.52269886694</ele>
        <time>2015-05-15T15:50:41Z</time>
      </trkpt>
      <trkpt lat="45.76062" lon="5.56288">
        <ele>784.87779672824</ele>
        <time>2015-05-15T15:50:46Z</time>
      </trkpt>
      <trkpt lat="45.76057" lon="5.56291">
        <ele>784.87779672824</ele>
        <time>2015-05-15T15:50:51Z</time>
      </trkpt>
      <trkpt lat="45.76054" lon="5.56295">
        <ele>784.81588861135</ele>
        <time>2015-05-15T15:50:56Z</time>
      </trkpt>
      <trkpt lat="45.76049" lon="5.56302">
        <ele>784.81588861135</ele>
        <time>2015-05-15T15:51:01Z</time>
      </trkpt>
      <trkpt lat="45.76043" lon="5.56305">
        <ele>784.55246123462</ele>
        <time>2015-05-15T15:51:06Z</time>
      </trkpt>
      <trkpt lat="45.76036" lon="5.56308">
        <ele>784.55246123462</ele>
        <time>2015-05-15T15:51:11Z</time>
      </trkpt>
      <trkpt lat="45.7603" lon="5.5631">
        <ele>783.84103195111</ele>
        <time>2015-05-15T15:51:16Z</time>
      </trkpt>
      <trkpt lat="45.76026" lon="5.56317">
        <ele>783.84103195111</ele>
        <time>2015-05-15T15:51:21Z</time>
      </trkpt>
      <trkpt lat="45.7602" lon="5.56326">
        <ele>783.42006870053</ele>
        <time>2015-05-15T15:51:26Z</time>
      </trkpt>
      <trkpt lat="45.76014" lon="5.56332">
        <ele>783.42006870053</ele>
        <time>2015-05-15T15:51:31Z</time>
      </trkpt>
      <trkpt lat="45.76008" lon="5.56339">
        <ele>782.30133014049</ele>
        <time>2015-05-15T15:51:36Z</time>
      </trkpt>
      <trkpt lat="45.76004" lon="5.5635">
        <ele>782.30133014049</ele>
        <time>2015-05-15T15:51:41Z</time>
      </trkpt>
      <trkpt lat="45.75999" lon="5.56356">
        <ele>781.19962510312</ele>
        <time>2015-05-15T15:51:46Z</time>
      </trkpt>
      <trkpt lat="45.75995" lon="5.56364">
        <ele>781.19962510312</ele>
        <time>2015-05-15T15:51:51Z</time>
      </trkpt>
      <trkpt lat="45.75993" lon="5.56369">
        <ele>779.60994174531</ele>
        <time>2015-05-15T15:51:56Z</time>
      </trkpt>
      <trkpt lat="45.75992" lon="5.56375">
        <ele>779.60994174531</ele>
        <time>2015-05-15T15:52:01Z</time>
      </trkpt>
      <trkpt lat="45.75994" lon="5.56379">
        <ele>779.60994174531</ele>
        <time>2015-05-15T15:52:06Z</time>
      </trkpt>
      <trkpt lat="45.75994" lon="5.56376">
        <ele>778.42041234009</ele>
        <time>2015-05-15T15:52:11Z</time>
      </trkpt>
      <trkpt lat="45.75994" lon="5.56376">
        <ele>778.42041234009</ele>
        <time>2015-05-15T15:52:16Z</time>
      </trkpt>
      <trkpt lat="45.75995" lon="5.5638">
        <ele>778.42041234009</ele>
        <time>2015-05-15T15:52:21Z</time>
      </trkpt>
      <trkpt lat="45.75999" lon="5.56385">
        <ele>778.42041234009</ele>
        <time>2015-05-15T15:52:26Z</time>
      </trkpt>
      <trkpt lat="45.76004" lon="5.56392">
        <ele>776.95407491288</ele>
        <time>2015-05-15T15:52:31Z</time>
      </trkpt>
      <trkpt lat="45.76006" lon="5.56404">
        <ele>776.95407491288</ele>
        <time>2015-05-15T15:52:36Z</time>
      </trkpt>
      <trkpt lat="45.76004" lon="5.56412">
        <ele>775.76620505787</ele>
        <time>2015-05-15T15:52:41Z</time>
      </trkpt>
      <trkpt lat="45.76004" lon="5.56421">
        <ele>775.76620505787</ele>
        <time>2015-05-15T15:52:46Z</time>
      </trkpt>
      <trkpt lat="45.76008" lon="5.56429">
        <ele>774.77966624316</ele>
        <time>2015-05-15T15:52:51Z</time>
      </trkpt>
      <trkpt lat="45.76008" lon="5.56428">
        <ele>774.77966624316</ele>
        <time>2015-05-15T15:52:56Z</time>
      </trkpt>
      <trkpt lat="45.76012" lon="5.56425">
        <ele>774.77966624316</ele>
        <time>2015-05-15T15:53:01Z</time>
      </trkpt>
      <trkpt lat="45.76024" lon="5.56419">
        <ele>771.87605270674</ele>
        <time>2015-05-15T15:53:06Z</time>
      </trkpt>
      <trkpt lat="45.76034" lon="5.56409">
        <ele>769.30599907528</ele>
        <time>2015-05-15T15:53:11Z</time>
      </trkpt>
      <trkpt lat="45.7604" lon="5.56399">
        <ele>769.30599907528</ele>
        <time>2015-05-15T15:53:16Z</time>
      </trkpt>
      <trkpt lat="45.76044" lon="5.56391">
        <ele>767.91450919762</ele>
        <time>2015-05-15T15:53:21Z</time>
      </trkpt>
      <trkpt lat="45.7605" lon="5.56385">
        <ele>767.91450919762</ele>
        <time>2015-05-15T15:53:26Z</time>
      </trkpt>
      <trkpt lat="45.76057" lon="5.56379">
        <ele>766.75185603647</ele>
        <time>2015-05-15T15:53:31Z</time>
      </trkpt>
      <trkpt lat="45.76063" lon="5.56373">
        <ele>766.75185603647</ele>
        <time>2015-05-15T15:53:36Z</time>
      </trkpt>
      <trkpt lat="45.76068" lon="5.56368">
        <ele>765.52826850603</ele>
        <time>2015-05-15T15:53:41Z</time>
      </trkpt>
      <trkpt lat="45.76079" lon="5.56365">
        <ele>764.33568329807</ele>
        <time>2015-05-15T15:53:46Z</time>
      </trkpt>
      <trkpt lat="45.76086" lon="5.56359">
        <ele>764.33568329807</ele>
        <time>2015-05-15T15:53:51Z</time>
      </trkpt>
      <trkpt lat="45.7609" lon="5.56356">
        <ele>763.4753354324</ele>
        <time>2015-05-15T15:53:56Z</time>
      </trkpt>
      <trkpt lat="45.76094" lon="5.56354">
        <ele>763.4753354324</ele>
        <time>2015-05-15T15:54:01Z</time>
      </trkpt>
      <trkpt lat="45.76097" lon="5.56353">
        <ele>763.4753354324</ele>
        <time>2015-05-15T15:54:06Z</time>
      </trkpt>
      <trkpt lat="45.76098" lon="5.56352">
        <ele>762.60569395454</ele>
        <time>2015-05-15T15:54:11Z</time>
      </trkpt>
      <trkpt lat="45.76099" lon="5.56352">
        <ele>762.60569395454</ele>
        <time>2015-05-15T15:54:16Z</time>
      </trkpt>
      <trkpt lat="45.76104" lon="5.56347">
        <ele>762.60569395454</ele>
        <time>2015-05-15T15:54:21Z</time>
      </trkpt>
      <trkpt lat="45.76117" lon="5.56339">
        <ele>761.65530524756</ele>
        <time>2015-05-15T15:54:26Z</time>
      </trkpt>
      <trkpt lat="45.76128" lon="5.56328">
        <ele>760.42846583151</ele>
        <time>2015-05-15T15:54:36Z</time>
      </trkpt>
      <trkpt lat="45.76129" lon="5.56326">
        <ele>760.42846583151</ele>
        <time>2015-05-15T15:54:41Z</time>
      </trkpt>
      <trkpt lat="45.76131" lon="5.56324">
        <ele>760.42846583151</ele>
        <time>2015-05-15T15:54:46Z</time>
      </trkpt>
      <trkpt lat="45.76138" lon="5.56317">
        <ele>758.65813209051</ele>
        <time>2015-05-15T15:54:51Z</time>
      </trkpt>
      <trkpt lat="45.7614" lon="5.56308">
        <ele>758.65813209051</ele>
        <time>2015-05-15T15:54:56Z</time>
      </trkpt>
      <trkpt lat="45.76144" lon="5.56304">
        <ele>755.66603973986</ele>
        <time>2015-05-15T15:55:01Z</time>
      </trkpt>
      <trkpt lat="45.76146" lon="5.56296">
        <ele>755.66603973986</ele>
        <time>2015-05-15T15:55:06Z</time>
      </trkpt>
      <trkpt lat="45.76154" lon="5.56283">
        <ele>752.88793159856</ele>
        <time>2015-05-15T15:55:11Z</time>
      </trkpt>
      <trkpt lat="45.76163" lon="5.56272">
        <ele>751.09140538672</ele>
        <time>2015-05-15T15:55:16Z</time>
      </trkpt>
      <trkpt lat="45.7617" lon="5.56269">
        <ele>751.09140538672</ele>
        <time>2015-05-15T15:55:21Z</time>
      </trkpt>
      <trkpt lat="45.76174" lon="5.56271">
        <ele>749.48611140212</ele>
        <time>2015-05-15T15:55:26Z</time>
      </trkpt>
      <trkpt lat="45.76186" lon="5.56273">
        <ele>748.33353340609</ele>
        <time>2015-05-15T15:55:31Z</time>
      </trkpt>
      <trkpt lat="45.76197" lon="5.56276">
        <ele>747.68727579644</ele>
        <time>2015-05-15T15:55:36Z</time>
      </trkpt>
      <trkpt lat="45.76198" lon="5.56288">
        <ele>747.68727579644</ele>
        <time>2015-05-15T15:55:41Z</time>
      </trkpt>
      <trkpt lat="45.76199" lon="5.56294">
        <ele>745.82296186881</ele>
        <time>2015-05-15T15:55:46Z</time>
      </trkpt>
      <trkpt lat="45.76197" lon="5.56303">
        <ele>745.82296186881</ele>
        <time>2015-05-15T15:55:51Z</time>
      </trkpt>
      <trkpt lat="45.76194" lon="5.56311">
        <ele>743.32232695701</ele>
        <time>2015-05-15T15:55:56Z</time>
      </trkpt>
      <trkpt lat="45.76193" lon="5.56322">
        <ele>743.32232695701</ele>
        <time>2015-05-15T15:56:01Z</time>
      </trkpt>
      <trkpt lat="45.7619" lon="5.56333">
        <ele>740.59640055487</ele>
        <time>2015-05-15T15:56:06Z</time>
      </trkpt>
      <trkpt lat="45.76187" lon="5.56338">
        <ele>740.59640055487</ele>
        <time>2015-05-15T15:56:11Z</time>
      </trkpt>
      <trkpt lat="45.76185" lon="5.56344">
        <ele>737.36367631623</ele>
        <time>2015-05-15T15:56:16Z</time>
      </trkpt>
      <trkpt lat="45.76182" lon="5.56353">
        <ele>737.36367631623</ele>
        <time>2015-05-15T15:56:21Z</time>
      </trkpt>
      <trkpt lat="45.76181" lon="5.56364">
        <ele>734.79137907401</ele>
        <time>2015-05-15T15:56:26Z</time>
      </trkpt>
      <trkpt lat="45.76178" lon="5.56377">
        <ele>731.81180131616</ele>
        <time>2015-05-15T15:56:31Z</time>
      </trkpt>
      <trkpt lat="45.76175" lon="5.56384">
        <ele>731.81180131616</ele>
        <time>2015-05-15T15:56:36Z</time>
      </trkpt>
      <trkpt lat="45.76171" lon="5.56389">
        <ele>729.2525242443</ele>
        <time>2015-05-15T15:56:41Z</time>
      </trkpt>
      <trkpt lat="45.76168" lon="5.56397">
        <ele>729.2525242443</ele>
        <time>2015-05-15T15:56:46Z</time>
      </trkpt>
      <trkpt lat="45.76164" lon="5.56407">
        <ele>727.33144051206</ele>
        <time>2015-05-15T15:56:51Z</time>
      </trkpt>
      <trkpt lat="45.76161" lon="5.56415">
        <ele>727.33144051206</ele>
        <time>2015-05-15T15:56:56Z</time>
      </trkpt>
      <trkpt lat="45.76157" lon="5.56421">
        <ele>725.54240507948</ele>
        <time>2015-05-15T15:57:01Z</time>
      </trkpt>
      <trkpt lat="45.76155" lon="5.56432">
        <ele>725.54240507948</ele>
        <time>2015-05-15T15:57:06Z</time>
      </trkpt>
      <trkpt lat="45.76154" lon="5.56441">
        <ele>724.16536530191</ele>
        <time>2015-05-15T15:57:11Z</time>
      </trkpt>
      <trkpt lat="45.76151" lon="5.56451">
        <ele>724.16536530191</ele>
        <time>2015-05-15T15:57:16Z</time>
      </trkpt>
      <trkpt lat="45.7615" lon="5.56463">
        <ele>723.83314548746</ele>
        <time>2015-05-15T15:57:21Z</time>
      </trkpt>
      <trkpt lat="45.76152" lon="5.56466">
        <ele>723.83314548746</ele>
        <time>2015-05-15T15:57:26Z</time>
      </trkpt>
      <trkpt lat="45.76152" lon="5.56468">
        <ele>723.83314548746</ele>
        <time>2015-05-15T15:57:31Z</time>
      </trkpt>
      <trkpt lat="45.76152" lon="5.56467">
        <ele>723.83314548746</ele>
        <time>2015-05-15T15:57:36Z</time>
      </trkpt>
      <trkpt lat="45.76147" lon="5.56473">
        <ele>723.78883522389</ele>
        <time>2015-05-15T15:57:41Z</time>
      </trkpt>
      <trkpt lat="45.76144" lon="5.56482">
        <ele>723.78883522389</ele>
        <time>2015-05-15T15:57:46Z</time>
      </trkpt>
      <trkpt lat="45.76142" lon="5.56491">
        <ele>723.70493637611</ele>
        <time>2015-05-15T15:57:51Z</time>
      </trkpt>
      <trkpt lat="45.7614" lon="5.56501">
        <ele>723.70493637611</ele>
        <time>2015-05-15T15:57:56Z</time>
      </trkpt>
      <trkpt lat="45.76138" lon="5.56509">
        <ele>723.60951824301</ele>
        <time>2015-05-15T15:58:01Z</time>
      </trkpt>
      <trkpt lat="45.76138" lon="5.56518">
        <ele>723.60951824301</ele>
        <time>2015-05-15T15:58:06Z</time>
      </trkpt>
      <trkpt lat="45.76136" lon="5.56526">
        <ele>724.07620190859</ele>
        <time>2015-05-15T15:58:11Z</time>
      </trkpt>
      <trkpt lat="45.76132" lon="5.56537">
        <ele>724.07620190859</ele>
        <time>2015-05-15T15:58:16Z</time>
      </trkpt>
      <trkpt lat="45.7613" lon="5.56546">
        <ele>724.46756819606</ele>
        <time>2015-05-15T15:58:21Z</time>
      </trkpt>
      <trkpt lat="45.76126" lon="5.56554">
        <ele>724.46756819606</ele>
        <time>2015-05-15T15:58:26Z</time>
      </trkpt>
      <trkpt lat="45.76124" lon="5.56563">
        <ele>724.69761313883</ele>
        <time>2015-05-15T15:58:31Z</time>
      </trkpt>
      <trkpt lat="45.76121" lon="5.56572">
        <ele>724.69761313883</ele>
        <time>2015-05-15T15:58:36Z</time>
      </trkpt>
      <trkpt lat="45.76119" lon="5.56582">
        <ele>725.55177667801</ele>
        <time>2015-05-15T15:58:41Z</time>
      </trkpt>
      <trkpt lat="45.76117" lon="5.56591">
        <ele>725.55177667801</ele>
        <time>2015-05-15T15:58:46Z</time>
      </trkpt>
      <trkpt lat="45.76115" lon="5.566">
        <ele>726.27172728625</ele>
        <time>2015-05-15T15:58:51Z</time>
      </trkpt>
      <trkpt lat="45.76114" lon="5.56609">
        <ele>726.27172728625</ele>
        <time>2015-05-15T15:58:56Z</time>
      </trkpt>
      <trkpt lat="45.76113" lon="5.56619">
        <ele>726.42906430376</ele>
        <time>2015-05-15T15:59:01Z</time>
      </trkpt>
      <trkpt lat="45.76112" lon="5.56628">
        <ele>726.42906430376</ele>
        <time>2015-05-15T15:59:06Z</time>
      </trkpt>
      <trkpt lat="45.76111" lon="5.56637">
        <ele>726.24816242829</ele>
        <time>2015-05-15T15:59:11Z</time>
      </trkpt>
      <trkpt lat="45.7611" lon="5.56646">
        <ele>726.24816242829</ele>
        <time>2015-05-15T15:59:16Z</time>
      </trkpt>
      <trkpt lat="45.76109" lon="5.56656">
        <ele>726.26937810306</ele>
        <time>2015-05-15T15:59:21Z</time>
      </trkpt>
      <trkpt lat="45.76107" lon="5.56665">
        <ele>726.26937810306</ele>
        <time>2015-05-15T15:59:26Z</time>
      </trkpt>
      <trkpt lat="45.76106" lon="5.56673">
        <ele>726.48848533358</ele>
        <time>2015-05-15T15:59:31Z</time>
      </trkpt>
      <trkpt lat="45.76104" lon="5.56687">
        <ele>726.8290326406</ele>
        <time>2015-05-15T15:59:36Z</time>
      </trkpt>
      <trkpt lat="45.76102" lon="5.56698">
        <ele>726.8290326406</ele>
        <time>2015-05-15T15:59:41Z</time>
      </trkpt>
      <trkpt lat="45.761" lon="5.56708">
        <ele>727.43609262114</ele>
        <time>2015-05-15T15:59:46Z</time>
      </trkpt>
      <trkpt lat="45.76098" lon="5.56718">
        <ele>727.43609262114</ele>
        <time>2015-05-15T15:59:51Z</time>
      </trkpt>
      <trkpt lat="45.76097" lon="5.56726">
        <ele>728.06873381362</ele>
        <time>2015-05-15T15:59:56Z</time>
      </trkpt>
      <trkpt lat="45.76095" lon="5.56738">
        <ele>728.06873381362</ele>
        <time>2015-05-15T16:00:01Z</time>
      </trkpt>
      <trkpt lat="45.76093" lon="5.56748">
        <ele>728.66227134796</ele>
        <time>2015-05-15T16:00:06Z</time>
      </trkpt>
      <trkpt lat="45.76091" lon="5.56758">
        <ele>728.66227134796</ele>
        <time>2015-05-15T16:00:11Z</time>
      </trkpt>
      <trkpt lat="45.76089" lon="5.56768">
        <ele>729.01287518711</ele>
        <time>2015-05-15T16:00:16Z</time>
      </trkpt>
      <trkpt lat="45.76088" lon="5.5678">
        <ele>729.01287518711</ele>
        <time>2015-05-15T16:00:21Z</time>
      </trkpt>
      <trkpt lat="45.76086" lon="5.5679">
        <ele>729.48010359761</ele>
        <time>2015-05-15T16:00:26Z</time>
      </trkpt>
      <trkpt lat="45.76086" lon="5.56803">
        <ele>729.48010359761</ele>
        <time>2015-05-15T16:00:31Z</time>
      </trkpt>
      <trkpt lat="45.76087" lon="5.56815">
        <ele>730.29601398975</ele>
        <time>2015-05-15T16:00:36Z</time>
      </trkpt>
      <trkpt lat="45.76087" lon="5.56825">
        <ele>730.29601398975</ele>
        <time>2015-05-15T16:00:41Z</time>
      </trkpt>
      <trkpt lat="45.76088" lon="5.56836">
        <ele>731.22801676223</ele>
        <time>2015-05-15T16:00:46Z</time>
      </trkpt>
      <trkpt lat="45.76089" lon="5.56846">
        <ele>731.22801676223</ele>
        <time>2015-05-15T16:00:51Z</time>
      </trkpt>
      <trkpt lat="45.76091" lon="5.56857">
        <ele>732.10364383037</ele>
        <time>2015-05-15T16:00:56Z</time>
      </trkpt>
      <trkpt lat="45.76091" lon="5.56868">
        <ele>732.10364383037</ele>
        <time>2015-05-15T16:01:01Z</time>
      </trkpt>
      <trkpt lat="45.76091" lon="5.56879">
        <ele>733.26777779558</ele>
        <time>2015-05-15T16:01:06Z</time>
      </trkpt>
      <trkpt lat="45.76088" lon="5.5689">
        <ele>733.26777779558</ele>
        <time>2015-05-15T16:01:11Z</time>
      </trkpt>
      <trkpt lat="45.76084" lon="5.56903">
        <ele>735.45722146243</ele>
        <time>2015-05-15T16:01:16Z</time>
      </trkpt>
      <trkpt lat="45.7608" lon="5.56914">
        <ele>735.45722146243</ele>
        <time>2015-05-15T16:01:21Z</time>
      </trkpt>
      <trkpt lat="45.76075" lon="5.56923">
        <ele>737.63700434748</ele>
        <time>2015-05-15T16:01:26Z</time>
      </trkpt>
      <trkpt lat="45.7607" lon="5.56927">
        <ele>737.63700434748</ele>
        <time>2015-05-15T16:01:31Z</time>
      </trkpt>
      <trkpt lat="45.76064" lon="5.56934">
        <ele>738.93483795446</ele>
        <time>2015-05-15T16:01:36Z</time>
      </trkpt>
      <trkpt lat="45.7606" lon="5.56941">
        <ele>738.93483795446</ele>
        <time>2015-05-15T16:01:41Z</time>
      </trkpt>
      <trkpt lat="45.76054" lon="5.56949">
        <ele>739.89979890877</ele>
        <time>2015-05-15T16:01:46Z</time>
      </trkpt>
      <trkpt lat="45.76049" lon="5.56957">
        <ele>739.89979890877</ele>
        <time>2015-05-15T16:01:51Z</time>
      </trkpt>
      <trkpt lat="45.76042" lon="5.56965">
        <ele>741.30113821378</ele>
        <time>2015-05-15T16:01:56Z</time>
      </trkpt>
      <trkpt lat="45.76036" lon="5.56972">
        <ele>741.30113821378</ele>
        <time>2015-05-15T16:02:01Z</time>
      </trkpt>
      <trkpt lat="45.76032" lon="5.56979">
        <ele>742.09239615076</ele>
        <time>2015-05-15T16:02:06Z</time>
      </trkpt>
      <trkpt lat="45.76028" lon="5.56987">
        <ele>742.09239615076</ele>
        <time>2015-05-15T16:02:11Z</time>
      </trkpt>
      <trkpt lat="45.76024" lon="5.56994">
        <ele>742.58846457943</ele>
        <time>2015-05-15T16:02:16Z</time>
      </trkpt>
      <trkpt lat="45.7602" lon="5.57002">
        <ele>742.58846457943</ele>
        <time>2015-05-15T16:02:21Z</time>
      </trkpt>
      <trkpt lat="45.76016" lon="5.57008">
        <ele>742.30390669027</ele>
        <time>2015-05-15T16:02:26Z</time>
      </trkpt>
      <trkpt lat="45.76012" lon="5.57016">
        <ele>742.30390669027</ele>
        <time>2015-05-15T16:02:31Z</time>
      </trkpt>
      <trkpt lat="45.76008" lon="5.57027">
        <ele>742.49181767086</ele>
        <time>2015-05-15T16:02:36Z</time>
      </trkpt>
      <trkpt lat="45.76002" lon="5.57039">
        <ele>743.50505760465</ele>
        <time>2015-05-15T16:02:41Z</time>
      </trkpt>
      <trkpt lat="45.75996" lon="5.57049">
        <ele>744.51551964682</ele>
        <time>2015-05-15T16:02:46Z</time>
      </trkpt>
      <trkpt lat="45.7599" lon="5.57054">
        <ele>744.51551964682</ele>
        <time>2015-05-15T16:02:51Z</time>
      </trkpt>
      <trkpt lat="45.75983" lon="5.57057">
        <ele>745.96662579686</ele>
        <time>2015-05-15T16:02:56Z</time>
      </trkpt>
      <trkpt lat="45.75975" lon="5.57062">
        <ele>745.96662579686</ele>
        <time>2015-05-15T16:03:01Z</time>
      </trkpt>
      <trkpt lat="45.75967" lon="5.57065">
        <ele>746.98555237329</ele>
        <time>2015-05-15T16:03:06Z</time>
      </trkpt>
      <trkpt lat="45.7596" lon="5.57071">
        <ele>746.98555237329</ele>
        <time>2015-05-15T16:03:11Z</time>
      </trkpt>
      <trkpt lat="45.75954" lon="5.57078">
        <ele>747.70168006398</ele>
        <time>2015-05-15T16:03:16Z</time>
      </trkpt>
      <trkpt lat="45.75947" lon="5.57085">
        <ele>747.70168006398</ele>
        <time>2015-05-15T16:03:21Z</time>
      </trkpt>
      <trkpt lat="45.75941" lon="5.57092">
        <ele>749.01408650949</ele>
        <time>2015-05-15T16:03:26Z</time>
      </trkpt>
      <trkpt lat="45.75935" lon="5.57099">
        <ele>749.01408650949</ele>
        <time>2015-05-15T16:03:31Z</time>
      </trkpt>
      <trkpt lat="45.7593" lon="5.57107">
        <ele>749.47732311403</ele>
        <time>2015-05-15T16:03:36Z</time>
      </trkpt>
      <trkpt lat="45.75928" lon="5.57117">
        <ele>749.47732311403</ele>
        <time>2015-05-15T16:03:41Z</time>
      </trkpt>
      <trkpt lat="45.75928" lon="5.5713">
        <ele>750.31982919321</ele>
        <time>2015-05-15T16:03:46Z</time>
      </trkpt>
      <trkpt lat="45.75929" lon="5.57142">
        <ele>750.31982919321</ele>
        <time>2015-05-15T16:03:51Z</time>
      </trkpt>
      <trkpt lat="45.75928" lon="5.57153">
        <ele>751.20894691315</ele>
        <time>2015-05-15T16:03:56Z</time>
      </trkpt>
      <trkpt lat="45.75929" lon="5.57162">
        <ele>751.20894691315</ele>
        <time>2015-05-15T16:04:01Z</time>
      </trkpt>
      <trkpt lat="45.7593" lon="5.57173">
        <ele>751.93733901851</ele>
        <time>2015-05-15T16:04:06Z</time>
      </trkpt>
      <trkpt lat="45.7593" lon="5.57182">
        <ele>751.93733901851</ele>
        <time>2015-05-15T16:04:11Z</time>
      </trkpt>
      <trkpt lat="45.75933" lon="5.57193">
        <ele>751.996435893</ele>
        <time>2015-05-15T16:04:16Z</time>
      </trkpt>
      <trkpt lat="45.75938" lon="5.57205">
        <ele>752.473429727</ele>
        <time>2015-05-15T16:04:21Z</time>
      </trkpt>
      <trkpt lat="45.75942" lon="5.5721">
        <ele>752.473429727</ele>
        <time>2015-05-15T16:04:26Z</time>
      </trkpt>
      <trkpt lat="45.75945" lon="5.57219">
        <ele>752.38585819427</ele>
        <time>2015-05-15T16:04:31Z</time>
      </trkpt>
      <trkpt lat="45.75947" lon="5.5723">
        <ele>752.38585819427</ele>
        <time>2015-05-15T16:04:36Z</time>
      </trkpt>
      <trkpt lat="45.7595" lon="5.57239">
        <ele>752.43916636061</ele>
        <time>2015-05-15T16:04:41Z</time>
      </trkpt>
      <trkpt lat="45.75952" lon="5.57248">
        <ele>752.43916636061</ele>
        <time>2015-05-15T16:04:46Z</time>
      </trkpt>
      <trkpt lat="45.75955" lon="5.57255">
        <ele>752.73905830283</ele>
        <time>2015-05-15T16:04:51Z</time>
      </trkpt>
      <trkpt lat="45.75959" lon="5.57257">
        <ele>752.73905830283</ele>
        <time>2015-05-15T16:04:56Z</time>
      </trkpt>
      <trkpt lat="45.75964" lon="5.57253">
        <ele>752.60466982798</ele>
        <time>2015-05-15T16:05:01Z</time>
      </trkpt>
      <trkpt lat="45.75968" lon="5.57248">
        <ele>752.60466982798</ele>
        <time>2015-05-15T16:05:06Z</time>
      </trkpt>
      <trkpt lat="45.75973" lon="5.57245">
        <ele>752.18464983377</ele>
        <time>2015-05-15T16:05:11Z</time>
      </trkpt>
      <trkpt lat="45.75979" lon="5.57239">
        <ele>752.18464983377</ele>
        <time>2015-05-15T16:05:16Z</time>
      </trkpt>
      <trkpt lat="45.75987" lon="5.57233">
        <ele>751.2140850713</ele>
        <time>2015-05-15T16:05:21Z</time>
      </trkpt>
      <trkpt lat="45.75996" lon="5.5723">
        <ele>750.41466737965</ele>
        <time>2015-05-15T16:05:26Z</time>
      </trkpt>
      <trkpt lat="45.76005" lon="5.57224">
        <ele>749.64761305437</ele>
        <time>2015-05-15T16:05:31Z</time>
      </trkpt>
      <trkpt lat="45.76009" lon="5.5722">
        <ele>749.64761305437</ele>
        <time>2015-05-15T16:05:36Z</time>
      </trkpt>
      <trkpt lat="45.76015" lon="5.57216">
        <ele>749.56247272279</ele>
        <time>2015-05-15T16:05:41Z</time>
      </trkpt>
      <trkpt lat="45.76019" lon="5.57213">
        <ele>749.56247272279</ele>
        <time>2015-05-15T16:05:46Z</time>
      </trkpt>
      <trkpt lat="45.76021" lon="5.57209">
        <ele>749.56247272279</ele>
        <time>2015-05-15T16:05:51Z</time>
      </trkpt>
      <trkpt lat="45.76026" lon="5.57207">
        <ele>749.47659801401</ele>
        <time>2015-05-15T16:05:56Z</time>
      </trkpt>
      <trkpt lat="45.76028" lon="5.57207">
        <ele>749.47659801401</ele>
        <time>2015-05-15T16:06:01Z</time>
      </trkpt>
      <trkpt lat="45.76029" lon="5.57207">
        <ele>749.47659801401</ele>
        <time>2015-05-15T16:06:06Z</time>
      </trkpt>
      <trkpt lat="45.76029" lon="5.57206">
        <ele>749.47659801401</ele>
        <time>2015-05-15T16:06:11Z</time>
      </trkpt>
      <trkpt lat="45.76039" lon="5.57201">
        <ele>749.04572184022</ele>
        <time>2015-05-15T16:06:16Z</time>
      </trkpt>
      <trkpt lat="45.76052" lon="5.57196">
        <ele>748.75885990475</ele>
        <time>2015-05-15T16:06:21Z</time>
      </trkpt>
      <trkpt lat="45.76061" lon="5.57192">
        <ele>748.62195329156</ele>
        <time>2015-05-15T16:06:26Z</time>
      </trkpt>
      <trkpt lat="45.76069" lon="5.57187">
        <ele>748.95712248841</ele>
        <time>2015-05-15T16:06:31Z</time>
      </trkpt>
      <trkpt lat="45.76077" lon="5.57183">
        <ele>748.95712248841</ele>
        <time>2015-05-15T16:06:36Z</time>
      </trkpt>
      <trkpt lat="45.76087" lon="5.57174">
        <ele>748.02951946653</ele>
        <time>2015-05-15T16:06:41Z</time>
      </trkpt>
      <trkpt lat="45.76094" lon="5.57168">
        <ele>748.02951946653</ele>
        <time>2015-05-15T16:06:46Z</time>
      </trkpt>
      <trkpt lat="45.76097" lon="5.57161">
        <ele>747.03101644858</ele>
        <time>2015-05-15T16:06:51Z</time>
      </trkpt>
      <trkpt lat="45.76101" lon="5.57155">
        <ele>747.03101644858</ele>
        <time>2015-05-15T16:06:56Z</time>
      </trkpt>
      <trkpt lat="45.76103" lon="5.57152">
        <ele>747.03101644858</ele>
        <time>2015-05-15T16:07:01Z</time>
      </trkpt>
      <trkpt lat="45.76108" lon="5.57146">
        <ele>746.53289331253</ele>
        <time>2015-05-15T16:07:06Z</time>
      </trkpt>
      <trkpt lat="45.76118" lon="5.57139">
        <ele>747.32243022003</ele>
        <time>2015-05-15T16:07:11Z</time>
      </trkpt>
      <trkpt lat="45.76127" lon="5.57133">
        <ele>747.87729391333</ele>
        <time>2015-05-15T16:07:16Z</time>
      </trkpt>
      <trkpt lat="45.76134" lon="5.57127">
        <ele>747.87729391333</ele>
        <time>2015-05-15T16:07:21Z</time>
      </trkpt>
      <trkpt lat="45.76144" lon="5.57124">
        <ele>748.14224982534</ele>
        <time>2015-05-15T16:07:26Z</time>
      </trkpt>
      <trkpt lat="45.7615" lon="5.57121">
        <ele>748.14224982534</ele>
        <time>2015-05-15T16:07:31Z</time>
      </trkpt>
      <trkpt lat="45.76158" lon="5.57117">
        <ele>748.68658038338</ele>
        <time>2015-05-15T16:07:36Z</time>
      </trkpt>
      <trkpt lat="45.76161" lon="5.57117">
        <ele>748.68658038338</ele>
        <time>2015-05-15T16:07:41Z</time>
      </trkpt>
      <trkpt lat="45.76165" lon="5.57116">
        <ele>748.68658038338</ele>
        <time>2015-05-15T16:07:46Z</time>
      </trkpt>
      <trkpt lat="45.7617" lon="5.5712">
        <ele>749.73430423787</ele>
        <time>2015-05-15T16:07:51Z</time>
      </trkpt>
      <trkpt lat="45.76177" lon="5.57124">
        <ele>749.73430423787</ele>
        <time>2015-05-15T16:07:56Z</time>
      </trkpt>
      <trkpt lat="45.76184" lon="5.5713">
        <ele>749.73339054851</ele>
        <time>2015-05-15T16:08:01Z</time>
      </trkpt>
      <trkpt lat="45.76191" lon="5.57134">
        <ele>749.73339054851</ele>
        <time>2015-05-15T16:08:06Z</time>
      </trkpt>
      <trkpt lat="45.76198" lon="5.57136">
        <ele>748.02693630386</ele>
        <time>2015-05-15T16:08:11Z</time>
      </trkpt>
      <trkpt lat="45.76204" lon="5.57142">
        <ele>748.02693630386</ele>
        <time>2015-05-15T16:08:16Z</time>
      </trkpt>
      <trkpt lat="45.76212" lon="5.57147">
        <ele>746.48976202164</ele>
        <time>2015-05-15T16:08:21Z</time>
      </trkpt>
      <trkpt lat="45.76218" lon="5.57145">
        <ele>746.48976202164</ele>
        <time>2015-05-15T16:08:26Z</time>
      </trkpt>
      <trkpt lat="45.76222" lon="5.5714">
        <ele>744.8841305817</ele>
        <time>2015-05-15T16:08:31Z</time>
      </trkpt>
      <trkpt lat="45.76229" lon="5.57133">
        <ele>744.8841305817</ele>
        <time>2015-05-15T16:08:36Z</time>
      </trkpt>
      <trkpt lat="45.76233" lon="5.57124">
        <ele>744.15721470935</ele>
        <time>2015-05-15T16:08:41Z</time>
      </trkpt>
      <trkpt lat="45.76237" lon="5.57121">
        <ele>744.15721470935</ele>
        <time>2015-05-15T16:08:46Z</time>
      </trkpt>
      <trkpt lat="45.76247" lon="5.57119">
        <ele>743.7573865267</ele>
        <time>2015-05-15T16:08:51Z</time>
      </trkpt>
      <trkpt lat="45.76254" lon="5.57114">
        <ele>743.7573865267</ele>
        <time>2015-05-15T16:08:56Z</time>
      </trkpt>
      <trkpt lat="45.7626" lon="5.57114">
        <ele>742.98521509568</ele>
        <time>2015-05-15T16:09:01Z</time>
      </trkpt>
      <trkpt lat="45.76264" lon="5.57112">
        <ele>742.98521509568</ele>
        <time>2015-05-15T16:09:06Z</time>
      </trkpt>
      <trkpt lat="45.76267" lon="5.57111">
        <ele>742.98521509568</ele>
        <time>2015-05-15T16:09:11Z</time>
      </trkpt>
      <trkpt lat="45.76269" lon="5.57108">
        <ele>742.85090567092</ele>
        <time>2015-05-15T16:09:16Z</time>
      </trkpt>
      <trkpt lat="45.7627" lon="5.57106">
        <ele>742.85090567092</ele>
        <time>2015-05-15T16:09:21Z</time>
      </trkpt>
      <trkpt lat="45.76278" lon="5.57105">
        <ele>742.27104046053</ele>
        <time>2015-05-15T16:09:26Z</time>
      </trkpt>
      <trkpt lat="45.76289" lon="5.57104">
        <ele>741.71290357119</ele>
        <time>2015-05-15T16:09:31Z</time>
      </trkpt>
      <trkpt lat="45.76297" lon="5.57103">
        <ele>741.71290357119</ele>
        <time>2015-05-15T16:09:36Z</time>
      </trkpt>
      <trkpt lat="45.76306" lon="5.57099">
        <ele>741.46521121097</ele>
        <time>2015-05-15T16:09:41Z</time>
      </trkpt>
      <trkpt lat="45.76316" lon="5.57096">
        <ele>741.05956364366</ele>
        <time>2015-05-15T16:09:46Z</time>
      </trkpt>
      <trkpt lat="45.76326" lon="5.57091">
        <ele>740.63878830835</ele>
        <time>2015-05-15T16:09:51Z</time>
      </trkpt>
      <trkpt lat="45.76333" lon="5.57087">
        <ele>740.63878830835</ele>
        <time>2015-05-15T16:09:56Z</time>
      </trkpt>
      <trkpt lat="45.76336" lon="5.57088">
        <ele>740.58018441223</ele>
        <time>2015-05-15T16:10:01Z</time>
      </trkpt>
      <trkpt lat="45.76338" lon="5.57088">
        <ele>740.58018441223</ele>
        <time>2015-05-15T16:10:06Z</time>
      </trkpt>
      <trkpt lat="45.76338" lon="5.57088">
        <ele>740.58018441223</ele>
        <time>2015-05-15T16:10:11Z</time>
      </trkpt>
      <trkpt lat="45.76343" lon="5.57091">
        <ele>740.58018441223</ele>
        <time>2015-05-15T16:10:16Z</time>
      </trkpt>
      <trkpt lat="45.76352" lon="5.571">
        <ele>740.15141896351</ele>
        <time>2015-05-15T16:10:21Z</time>
      </trkpt>
      <trkpt lat="45.76364" lon="5.57109">
        <ele>739.23696202359</ele>
        <time>2015-05-15T16:10:26Z</time>
      </trkpt>
      <trkpt lat="45.76374" lon="5.5712">
        <ele>738.75425735136</ele>
        <time>2015-05-15T16:10:31Z</time>
      </trkpt>
      <trkpt lat="45.76379" lon="5.57123">
        <ele>738.75425735136</ele>
        <time>2015-05-15T16:10:36Z</time>
      </trkpt>
      <trkpt lat="45.76388" lon="5.57128">
        <ele>737.79392099271</ele>
        <time>2015-05-15T16:10:41Z</time>
      </trkpt>
      <trkpt lat="45.76393" lon="5.57137">
        <ele>737.79392099271</ele>
        <time>2015-05-15T16:10:46Z</time>
      </trkpt>
      <trkpt lat="45.76397" lon="5.5714">
        <ele>736.22078840346</ele>
        <time>2015-05-15T16:10:51Z</time>
      </trkpt>
      <trkpt lat="45.76402" lon="5.57146">
        <ele>736.22078840346</ele>
        <time>2015-05-15T16:10:56Z</time>
      </trkpt>
      <trkpt lat="45.76404" lon="5.57147">
        <ele>734.97769460913</ele>
        <time>2015-05-15T16:11:01Z</time>
      </trkpt>
      <trkpt lat="45.76405" lon="5.57145">
        <ele>734.97769460913</ele>
        <time>2015-05-15T16:11:06Z</time>
      </trkpt>
      <trkpt lat="45.76406" lon="5.57143">
        <ele>734.97769460913</ele>
        <time>2015-05-15T16:11:11Z</time>
      </trkpt>
      <trkpt lat="45.76407" lon="5.57142">
        <ele>734.97769460913</ele>
        <time>2015-05-15T16:11:16Z</time>
      </trkpt>
      <trkpt lat="45.76417" lon="5.57132">
        <ele>733.59697938818</ele>
        <time>2015-05-15T16:11:21Z</time>
      </trkpt>
      <trkpt lat="45.76424" lon="5.57121">
        <ele>731.57358547717</ele>
        <time>2015-05-15T16:11:26Z</time>
      </trkpt>
      <trkpt lat="45.76436" lon="5.57113">
        <ele>729.45004940322</ele>
        <time>2015-05-15T16:11:31Z</time>
      </trkpt>
      <trkpt lat="45.7644" lon="5.57108">
        <ele>729.45004940322</ele>
        <time>2015-05-15T16:11:36Z</time>
      </trkpt>
      <trkpt lat="45.76446" lon="5.57105">
        <ele>727.72923901635</ele>
        <time>2015-05-15T16:11:41Z</time>
      </trkpt>
      <trkpt lat="45.76457" lon="5.57102">
        <ele>726.44351705399</ele>
        <time>2015-05-15T16:11:46Z</time>
      </trkpt>
      <trkpt lat="45.76463" lon="5.57107">
        <ele>726.44351705399</ele>
        <time>2015-05-15T16:11:51Z</time>
      </trkpt>
      <trkpt lat="45.76459" lon="5.57112">
        <ele>725.08833029015</ele>
        <time>2015-05-15T16:11:56Z</time>
      </trkpt>
      <trkpt lat="45.76456" lon="5.57117">
        <ele>725.08833029015</ele>
        <time>2015-05-15T16:12:01Z</time>
      </trkpt>
      <trkpt lat="45.76451" lon="5.57125">
        <ele>724.98325535927</ele>
        <time>2015-05-15T16:12:06Z</time>
      </trkpt>
      <trkpt lat="45.76447" lon="5.57134">
        <ele>724.98325535927</ele>
        <time>2015-05-15T16:12:11Z</time>
      </trkpt>
      <trkpt lat="45.76442" lon="5.57143">
        <ele>724.78214248675</ele>
        <time>2015-05-15T16:12:16Z</time>
      </trkpt>
      <trkpt lat="45.76439" lon="5.57157">
        <ele>724.52048788123</ele>
        <time>2015-05-15T16:12:21Z</time>
      </trkpt>
      <trkpt lat="45.76438" lon="5.57171">
        <ele>724.60594673951</ele>
        <time>2015-05-15T16:12:26Z</time>
      </trkpt>
      <trkpt lat="45.76435" lon="5.57183">
        <ele>724.60594673951</ele>
        <time>2015-05-15T16:12:31Z</time>
      </trkpt>
      <trkpt lat="45.76432" lon="5.57192">
        <ele>724.80990470967</ele>
        <time>2015-05-15T16:12:36Z</time>
      </trkpt>
      <trkpt lat="45.7643" lon="5.572">
        <ele>724.80990470967</ele>
        <time>2015-05-15T16:12:41Z</time>
      </trkpt>
      <trkpt lat="45.76431" lon="5.57205">
        <ele>723.89694459573</ele>
        <time>2015-05-15T16:12:46Z</time>
      </trkpt>
      <trkpt lat="45.76429" lon="5.57215">
        <ele>723.89694459573</ele>
        <time>2015-05-15T16:12:51Z</time>
      </trkpt>
      <trkpt lat="45.76428" lon="5.57223">
        <ele>723.80944765255</ele>
        <time>2015-05-15T16:12:56Z</time>
      </trkpt>
      <trkpt lat="45.76428" lon="5.57228">
        <ele>723.80944765255</ele>
        <time>2015-05-15T16:13:01Z</time>
      </trkpt>
      <trkpt lat="45.76428" lon="5.57234">
        <ele>723.80944765255</ele>
        <time>2015-05-15T16:13:06Z</time>
      </trkpt>
      <trkpt lat="45.76431" lon="5.57242">
        <ele>723.27516512975</ele>
        <time>2015-05-15T16:13:11Z</time>
      </trkpt>
      <trkpt lat="45.7644" lon="5.57249">
        <ele>722.067637742</ele>
        <time>2015-05-15T16:13:16Z</time>
      </trkpt>
      <trkpt lat="45.76447" lon="5.57254">
        <ele>722.067637742</ele>
        <time>2015-05-15T16:13:21Z</time>
      </trkpt>
      <trkpt lat="45.76454" lon="5.57256">
        <ele>721.73703415945</ele>
        <time>2015-05-15T16:13:26Z</time>
      </trkpt>
      <trkpt lat="45.76463" lon="5.57257">
        <ele>721.73703415945</ele>
        <time>2015-05-15T16:13:31Z</time>
      </trkpt>
      <trkpt lat="45.76469" lon="5.57258">
        <ele>721.51223903408</ele>
        <time>2015-05-15T16:13:36Z</time>
      </trkpt>
      <trkpt lat="45.76472" lon="5.57265">
        <ele>721.51223903408</ele>
        <time>2015-05-15T16:13:41Z</time>
      </trkpt>
      <trkpt lat="45.76473" lon="5.57273">
        <ele>721.54310833963</ele>
        <time>2015-05-15T16:13:46Z</time>
      </trkpt>
      <trkpt lat="45.76474" lon="5.5728">
        <ele>721.54310833963</ele>
        <time>2015-05-15T16:13:51Z</time>
      </trkpt>
      <trkpt lat="45.76476" lon="5.57289">
        <ele>721.82362257988</ele>
        <time>2015-05-15T16:13:56Z</time>
      </trkpt>
      <trkpt lat="45.76477" lon="5.57298">
        <ele>721.82362257988</ele>
        <time>2015-05-15T16:14:01Z</time>
      </trkpt>
      <trkpt lat="45.76478" lon="5.57307">
        <ele>721.69897212415</ele>
        <time>2015-05-15T16:14:06Z</time>
      </trkpt>
      <trkpt lat="45.76482" lon="5.57317">
        <ele>721.69897212415</ele>
        <time>2015-05-15T16:14:11Z</time>
      </trkpt>
      <trkpt lat="45.76484" lon="5.57331">
        <ele>720.86619354734</ele>
        <time>2015-05-15T16:14:16Z</time>
      </trkpt>
      <trkpt lat="45.76482" lon="5.57337">
        <ele>720.86619354734</ele>
        <time>2015-05-15T16:14:21Z</time>
      </trkpt>
      <trkpt lat="45.76482" lon="5.57344">
        <ele>720.15620051184</ele>
        <time>2015-05-15T16:14:26Z</time>
      </trkpt>
      <trkpt lat="45.76489" lon="5.57514">
        <ele>721.50580970778</ele>
        <time>2015-05-15T16:15:06Z</time>
      </trkpt>
      <trkpt lat="45.76492" lon="5.57525">
        <ele>721.50580970778</ele>
        <time>2015-05-15T16:15:11Z</time>
      </trkpt>
      <trkpt lat="45.76492" lon="5.57537">
        <ele>722.59660636781</ele>
        <time>2015-05-15T16:15:16Z</time>
      </trkpt>
      <trkpt lat="45.76491" lon="5.57544">
        <ele>722.59660636781</ele>
        <time>2015-05-15T16:15:21Z</time>
      </trkpt>
      <trkpt lat="45.76489" lon="5.57553">
        <ele>723.4140571766</ele>
        <time>2015-05-15T16:15:26Z</time>
      </trkpt>
      <trkpt lat="45.76487" lon="5.57562">
        <ele>723.4140571766</ele>
        <time>2015-05-15T16:15:31Z</time>
      </trkpt>
      <trkpt lat="45.76487" lon="5.57571">
        <ele>724.44986492566</ele>
        <time>2015-05-15T16:15:36Z</time>
      </trkpt>
      <trkpt lat="45.7649" lon="5.57578">
        <ele>724.44986492566</ele>
        <time>2015-05-15T16:15:41Z</time>
      </trkpt>
      <trkpt lat="45.76493" lon="5.5759">
        <ele>724.31440019908</ele>
        <time>2015-05-15T16:15:46Z</time>
      </trkpt>
      <trkpt lat="45.76496" lon="5.57592">
        <ele>724.31440019908</ele>
        <time>2015-05-15T16:15:51Z</time>
      </trkpt>
      <trkpt lat="45.76504" lon="5.57594">
        <ele>722.89073035117</ele>
        <time>2015-05-15T16:15:56Z</time>
      </trkpt>
      <trkpt lat="45.7651" lon="5.57596">
        <ele>722.89073035117</ele>
        <time>2015-05-15T16:16:01Z</time>
      </trkpt>
      <trkpt lat="45.76516" lon="5.57598">
        <ele>721.27027899228</ele>
        <time>2015-05-15T16:16:06Z</time>
      </trkpt>
      <trkpt lat="45.76524" lon="5.57599">
        <ele>721.27027899228</ele>
        <time>2015-05-15T16:16:11Z</time>
      </trkpt>
      <trkpt lat="45.76532" lon="5.576">
        <ele>720.00371696</ele>
        <time>2015-05-15T16:16:16Z</time>
      </trkpt>
      <trkpt lat="45.76541" lon="5.57599">
        <ele>720.00371696</ele>
        <time>2015-05-15T16:16:21Z</time>
      </trkpt>
      <trkpt lat="45.76548" lon="5.57601">
        <ele>719.16795629384</ele>
        <time>2015-05-15T16:16:26Z</time>
      </trkpt>
      <trkpt lat="45.76551" lon="5.57604">
        <ele>719.16795629384</ele>
        <time>2015-05-15T16:16:31Z</time>
      </trkpt>
      <trkpt lat="45.76554" lon="5.57606">
        <ele>719.16795629384</ele>
        <time>2015-05-15T16:16:36Z</time>
      </trkpt>
      <trkpt lat="45.76555" lon="5.57607">
        <ele>719.16795629384</ele>
        <time>2015-05-15T16:16:41Z</time>
      </trkpt>
      <trkpt lat="45.76556" lon="5.57607">
        <ele>719.16795629384</ele>
        <time>2015-05-15T16:16:46Z</time>
      </trkpt>
      <trkpt lat="45.76561" lon="5.57607">
        <ele>718.77541910252</ele>
        <time>2015-05-15T16:16:51Z</time>
      </trkpt>
      <trkpt lat="45.76569" lon="5.57607">
        <ele>718.77541910252</ele>
        <time>2015-05-15T16:16:56Z</time>
      </trkpt>
      <trkpt lat="45.7658" lon="5.57608">
        <ele>718.21670219421</ele>
        <time>2015-05-15T16:17:01Z</time>
      </trkpt>
      <trkpt lat="45.76586" lon="5.57607">
        <ele>718.21670219421</ele>
        <time>2015-05-15T16:17:06Z</time>
      </trkpt>
      <trkpt lat="45.76593" lon="5.57607">
        <ele>718.44081014891</ele>
        <time>2015-05-15T16:17:11Z</time>
      </trkpt>
      <trkpt lat="45.766" lon="5.57611">
        <ele>718.44081014891</ele>
        <time>2015-05-15T16:17:16Z</time>
      </trkpt>
      <trkpt lat="45.76609" lon="5.57612">
        <ele>719.79163829159</ele>
        <time>2015-05-15T16:17:21Z</time>
      </trkpt>
      <trkpt lat="45.76617" lon="5.57615">
        <ele>719.79163829159</ele>
        <time>2015-05-15T16:17:26Z</time>
      </trkpt>
      <trkpt lat="45.76623" lon="5.57619">
        <ele>720.88416462286</ele>
        <time>2015-05-15T16:17:31Z</time>
      </trkpt>
      <trkpt lat="45.76631" lon="5.57623">
        <ele>720.88416462286</ele>
        <time>2015-05-15T16:17:36Z</time>
      </trkpt>
      <trkpt lat="45.76636" lon="5.57626">
        <ele>722.45341831137</ele>
        <time>2015-05-15T16:17:41Z</time>
      </trkpt>
      <trkpt lat="45.76639" lon="5.5763">
        <ele>722.45341831137</ele>
        <time>2015-05-15T16:17:46Z</time>
      </trkpt>
      <trkpt lat="45.7664" lon="5.57637">
        <ele>723.92536870096</ele>
        <time>2015-05-15T16:17:51Z</time>
      </trkpt>
      <trkpt lat="45.76641" lon="5.57646">
        <ele>723.92536870096</ele>
        <time>2015-05-15T16:17:56Z</time>
      </trkpt>
      <trkpt lat="45.76642" lon="5.57657">
        <ele>725.0567002817</ele>
        <time>2015-05-15T16:18:01Z</time>
      </trkpt>
      <trkpt lat="45.76642" lon="5.57659">
        <ele>725.0567002817</ele>
        <time>2015-05-15T16:18:06Z</time>
      </trkpt>
      <trkpt lat="45.76643" lon="5.57659">
        <ele>725.0567002817</ele>
        <time>2015-05-15T16:18:11Z</time>
      </trkpt>
      <trkpt lat="45.76643" lon="5.57659">
        <ele>725.0567002817</ele>
        <time>2015-05-15T16:18:16Z</time>
      </trkpt>
      <trkpt lat="45.76642" lon="5.57659">
        <ele>725.0567002817</ele>
        <time>2015-05-15T16:18:21Z</time>
      </trkpt>
      <trkpt lat="45.76642" lon="5.57659">
        <ele>725.0567002817</ele>
        <time>2015-05-15T16:18:26Z</time>
      </trkpt>
      <trkpt lat="45.76642" lon="5.57659">
        <ele>725.0567002817</ele>
        <time>2015-05-15T16:18:31Z</time>
      </trkpt>
      <trkpt lat="45.76643" lon="5.5766">
        <ele>725.0567002817</ele>
        <time>2015-05-15T16:18:36Z</time>
      </trkpt>
      <trkpt lat="45.76654" lon="5.57665">
        <ele>728.14493884356</ele>
        <time>2015-05-15T16:18:41Z</time>
      </trkpt>
      <trkpt lat="45.76665" lon="5.57672">
        <ele>731.76829405243</ele>
        <time>2015-05-15T16:18:46Z</time>
      </trkpt>
      <trkpt lat="45.76676" lon="5.57675">
        <ele>735.1268202474</ele>
        <time>2015-05-15T16:18:51Z</time>
      </trkpt>
      <trkpt lat="45.76686" lon="5.57678">
        <ele>737.56666612628</ele>
        <time>2015-05-15T16:18:56Z</time>
      </trkpt>
      <trkpt lat="45.76693" lon="5.5768">
        <ele>737.56666612628</ele>
        <time>2015-05-15T16:19:01Z</time>
      </trkpt>
      <trkpt lat="45.767" lon="5.57682">
        <ele>739.9834859212</ele>
        <time>2015-05-15T16:19:06Z</time>
      </trkpt>
      <trkpt lat="45.76706" lon="5.57683">
        <ele>739.9834859212</ele>
        <time>2015-05-15T16:19:11Z</time>
      </trkpt>
      <trkpt lat="45.76712" lon="5.57687">
        <ele>742.25622684623</ele>
        <time>2015-05-15T16:19:16Z</time>
      </trkpt>
      <trkpt lat="45.76717" lon="5.57692">
        <ele>742.25622684623</ele>
        <time>2015-05-15T16:19:21Z</time>
      </trkpt>
      <trkpt lat="45.76723" lon="5.57695">
        <ele>744.48946728868</ele>
        <time>2015-05-15T16:19:26Z</time>
      </trkpt>
      <trkpt lat="45.76728" lon="5.57695">
        <ele>744.48946728868</ele>
        <time>2015-05-15T16:19:31Z</time>
      </trkpt>
      <trkpt lat="45.76734" lon="5.57692">
        <ele>746.30482280626</ele>
        <time>2015-05-15T16:19:36Z</time>
      </trkpt>
      <trkpt lat="45.76739" lon="5.57689">
        <ele>746.30482280626</ele>
        <time>2015-05-15T16:19:41Z</time>
      </trkpt>
      <trkpt lat="45.76744" lon="5.57683">
        <ele>747.75656888032</ele>
        <time>2015-05-15T16:19:46Z</time>
      </trkpt>
      <trkpt lat="45.76749" lon="5.57677">
        <ele>747.75656888032</ele>
        <time>2015-05-15T16:19:51Z</time>
      </trkpt>
      <trkpt lat="45.76756" lon="5.57671">
        <ele>749.04030776491</ele>
        <time>2015-05-15T16:19:56Z</time>
      </trkpt>
      <trkpt lat="45.7676" lon="5.57662">
        <ele>749.04030776491</ele>
        <time>2015-05-15T16:20:01Z</time>
      </trkpt>
      <trkpt lat="45.76762" lon="5.57655">
        <ele>751.24582834267</ele>
        <time>2015-05-15T16:20:06Z</time>
      </trkpt>
      <trkpt lat="45.76765" lon="5.57644">
        <ele>751.24582834267</ele>
        <time>2015-05-15T16:20:11Z</time>
      </trkpt>
      <trkpt lat="45.7677" lon="5.57638">
        <ele>754.12669632763</ele>
        <time>2015-05-15T16:20:16Z</time>
      </trkpt>
      <trkpt lat="45.76776" lon="5.57631">
        <ele>754.12669632763</ele>
        <time>2015-05-15T16:20:21Z</time>
      </trkpt>
      <trkpt lat="45.76781" lon="5.57625">
        <ele>757.27994059484</ele>
        <time>2015-05-15T16:20:26Z</time>
      </trkpt>
      <trkpt lat="45.76787" lon="5.57616">
        <ele>757.27994059484</ele>
        <time>2015-05-15T16:20:31Z</time>
      </trkpt>
      <trkpt lat="45.76799" lon="5.57609">
        <ele>760.31721046921</ele>
        <time>2015-05-15T16:20:36Z</time>
      </trkpt>
      <trkpt lat="45.76811" lon="5.57608">
        <ele>763.36918771266</ele>
        <time>2015-05-15T16:20:41Z</time>
      </trkpt>
      <trkpt lat="45.76823" lon="5.57604">
        <ele>766.41301049739</ele>
        <time>2015-05-15T16:20:46Z</time>
      </trkpt>
      <trkpt lat="45.76824" lon="5.57597">
        <ele>766.41301049739</ele>
        <time>2015-05-15T16:20:51Z</time>
      </trkpt>
      <trkpt lat="45.76825" lon="5.57594">
        <ele>766.41301049739</ele>
        <time>2015-05-15T16:20:56Z</time>
      </trkpt>
      <trkpt lat="45.76829" lon="5.5759">
        <ele>768.66394384467</ele>
        <time>2015-05-15T16:21:01Z</time>
      </trkpt>
      <trkpt lat="45.76831" lon="5.57585">
        <ele>768.66394384467</ele>
        <time>2015-05-15T16:21:06Z</time>
      </trkpt>
      <trkpt lat="45.76834" lon="5.57578">
        <ele>770.85286250277</ele>
        <time>2015-05-15T16:21:11Z</time>
      </trkpt>
      <trkpt lat="45.76838" lon="5.57574">
        <ele>770.85286250277</ele>
        <time>2015-05-15T16:21:16Z</time>
      </trkpt>
      <trkpt lat="45.76846" lon="5.57566">
        <ele>773.26824246187</ele>
        <time>2015-05-15T16:21:21Z</time>
      </trkpt>
      <trkpt lat="45.76859" lon="5.57556">
        <ele>775.98960466155</ele>
        <time>2015-05-15T16:21:26Z</time>
      </trkpt>
      <trkpt lat="45.76871" lon="5.5755">
        <ele>778.97469574954</ele>
        <time>2015-05-15T16:21:31Z</time>
      </trkpt>
      <trkpt lat="45.76886" lon="5.57539">
        <ele>780.78596001239</ele>
        <time>2015-05-15T16:21:36Z</time>
      </trkpt>
      <trkpt lat="45.76896" lon="5.57529">
        <ele>781.62252198067</ele>
        <time>2015-05-15T16:21:41Z</time>
      </trkpt>
      <trkpt lat="45.76901" lon="5.57525">
        <ele>781.62252198067</ele>
        <time>2015-05-15T16:21:46Z</time>
      </trkpt>
      <trkpt lat="45.76901" lon="5.57518">
        <ele>783.11292472907</ele>
        <time>2015-05-15T16:21:51Z</time>
      </trkpt>
      <trkpt lat="45.76899" lon="5.57513">
        <ele>783.11292472907</ele>
        <time>2015-05-15T16:21:56Z</time>
      </trkpt>
      <trkpt lat="45.76901" lon="5.57506">
        <ele>783.11292472907</ele>
        <time>2015-05-15T16:22:01Z</time>
      </trkpt>
      <trkpt lat="45.76908" lon="5.5749">
        <ele>785.42420297729</ele>
        <time>2015-05-15T16:22:06Z</time>
      </trkpt>
      <trkpt lat="45.76909" lon="5.57473">
        <ele>787.31112123757</ele>
        <time>2015-05-15T16:22:11Z</time>
      </trkpt>
      <trkpt lat="45.76912" lon="5.57459">
        <ele>789.36502631799</ele>
        <time>2015-05-15T16:22:16Z</time>
      </trkpt>
      <trkpt lat="45.76916" lon="5.57449">
        <ele>789.36502631799</ele>
        <time>2015-05-15T16:22:21Z</time>
      </trkpt>
      <trkpt lat="45.7692" lon="5.5744">
        <ele>791.71560048221</ele>
        <time>2015-05-15T16:22:26Z</time>
      </trkpt>
      <trkpt lat="45.76924" lon="5.57431">
        <ele>791.71560048221</ele>
        <time>2015-05-15T16:22:31Z</time>
      </trkpt>
      <trkpt lat="45.76925" lon="5.57421">
        <ele>794.95789683586</ele>
        <time>2015-05-15T16:22:36Z</time>
      </trkpt>
      <trkpt lat="45.76922" lon="5.57414">
        <ele>794.95789683586</ele>
        <time>2015-05-15T16:22:41Z</time>
      </trkpt>
      <trkpt lat="45.76926" lon="5.57408">
        <ele>797.20543456015</ele>
        <time>2015-05-15T16:22:46Z</time>
      </trkpt>
      <trkpt lat="45.76926" lon="5.57403">
        <ele>797.20543456015</ele>
        <time>2015-05-15T16:22:51Z</time>
      </trkpt>
      <trkpt lat="45.76925" lon="5.57396">
        <ele>797.20543456015</ele>
        <time>2015-05-15T16:22:56Z</time>
      </trkpt>
      <trkpt lat="45.76921" lon="5.57388">
        <ele>798.78845853782</ele>
        <time>2015-05-15T16:23:01Z</time>
      </trkpt>
      <trkpt lat="45.7692" lon="5.57385">
        <ele>798.78845853782</ele>
        <time>2015-05-15T16:23:06Z</time>
      </trkpt>
      <trkpt lat="45.76927" lon="5.57381">
        <ele>800.2167231571</ele>
        <time>2015-05-15T16:23:11Z</time>
      </trkpt>
      <trkpt lat="45.76932" lon="5.57379">
        <ele>800.2167231571</ele>
        <time>2015-05-15T16:23:16Z</time>
      </trkpt>
      <trkpt lat="45.76935" lon="5.57378">
        <ele>800.2167231571</ele>
        <time>2015-05-15T16:23:21Z</time>
      </trkpt>
      <trkpt lat="45.76935" lon="5.57378">
        <ele>800.2167231571</ele>
        <time>2015-05-15T16:23:26Z</time>
      </trkpt>
      <trkpt lat="45.7694" lon="5.57378">
        <ele>801.63165666873</ele>
        <time>2015-05-15T16:23:31Z</time>
      </trkpt>
      <trkpt lat="45.76945" lon="5.57382">
        <ele>801.63165666873</ele>
        <time>2015-05-15T16:23:36Z</time>
      </trkpt>
      <trkpt lat="45.76946" lon="5.57389">
        <ele>803.33740053794</ele>
        <time>2015-05-15T16:23:41Z</time>
      </trkpt>
      <trkpt lat="45.7695" lon="5.57399">
        <ele>803.33740053794</ele>
        <time>2015-05-15T16:23:46Z</time>
      </trkpt>
      <trkpt lat="45.76952" lon="5.57407">
        <ele>805.05302600046</ele>
        <time>2015-05-15T16:23:51Z</time>
      </trkpt>
      <trkpt lat="45.76954" lon="5.57413">
        <ele>805.05302600046</ele>
        <time>2015-05-15T16:23:56Z</time>
      </trkpt>
      <trkpt lat="45.76961" lon="5.57426">
        <ele>807.10918132516</ele>
        <time>2015-05-15T16:24:01Z</time>
      </trkpt>
      <trkpt lat="45.76964" lon="5.57434">
        <ele>807.10918132516</ele>
        <time>2015-05-15T16:24:06Z</time>
      </trkpt>
      <trkpt lat="45.76964" lon="5.5744">
        <ele>809.81137581809</ele>
        <time>2015-05-15T16:24:11Z</time>
      </trkpt>
      <trkpt lat="45.76964" lon="5.57446">
        <ele>809.81137581809</ele>
        <time>2015-05-15T16:24:16Z</time>
      </trkpt>
      <trkpt lat="45.76969" lon="5.57456">
        <ele>810.61638291455</ele>
        <time>2015-05-15T16:24:21Z</time>
      </trkpt>
      <trkpt lat="45.7697" lon="5.57473">
        <ele>810.96333496136</ele>
        <time>2015-05-15T16:24:26Z</time>
      </trkpt>
      <trkpt lat="45.76969" lon="5.57486">
        <ele>810.96333496136</ele>
        <time>2015-05-15T16:24:31Z</time>
      </trkpt>
      <trkpt lat="45.76972" lon="5.57494">
        <ele>810.03975091667</ele>
        <time>2015-05-15T16:24:36Z</time>
      </trkpt>
      <trkpt lat="45.76981" lon="5.57502">
        <ele>809.3590018417</ele>
        <time>2015-05-15T16:24:41Z</time>
      </trkpt>
      <trkpt lat="45.76983" lon="5.57513">
        <ele>809.3590018417</ele>
        <time>2015-05-15T16:24:46Z</time>
      </trkpt>
      <trkpt lat="45.76982" lon="5.57524">
        <ele>809.29945394686</ele>
        <time>2015-05-15T16:24:51Z</time>
      </trkpt>
      <trkpt lat="45.76983" lon="5.57533">
        <ele>809.29945394686</ele>
        <time>2015-05-15T16:24:56Z</time>
      </trkpt>
      <trkpt lat="45.76987" lon="5.57539">
        <ele>809.12911779684</ele>
        <time>2015-05-15T16:25:01Z</time>
      </trkpt>
      <trkpt lat="45.7699" lon="5.57547">
        <ele>809.12911779684</ele>
        <time>2015-05-15T16:25:06Z</time>
      </trkpt>
      <trkpt lat="45.76992" lon="5.57555">
        <ele>809.66883875142</ele>
        <time>2015-05-15T16:25:11Z</time>
      </trkpt>
      <trkpt lat="45.76994" lon="5.57561">
        <ele>809.66883875142</ele>
        <time>2015-05-15T16:25:16Z</time>
      </trkpt>
      <trkpt lat="45.76993" lon="5.57569">
        <ele>811.1295317483</ele>
        <time>2015-05-15T16:25:21Z</time>
      </trkpt>
      <trkpt lat="45.76995" lon="5.57577">
        <ele>811.1295317483</ele>
        <time>2015-05-15T16:25:26Z</time>
      </trkpt>
      <trkpt lat="45.76997" lon="5.57587">
        <ele>811.94585063668</ele>
        <time>2015-05-15T16:25:31Z</time>
      </trkpt>
      <trkpt lat="45.76999" lon="5.57596">
        <ele>811.94585063668</ele>
        <time>2015-05-15T16:25:36Z</time>
      </trkpt>
      <trkpt lat="45.77" lon="5.57601">
        <ele>812.34090040705</ele>
        <time>2015-05-15T16:25:41Z</time>
      </trkpt>
      <trkpt lat="45.77003" lon="5.57608">
        <ele>812.34090040705</ele>
        <time>2015-05-15T16:25:46Z</time>
      </trkpt>
      <trkpt lat="45.77005" lon="5.57615">
        <ele>813.17103795249</ele>
        <time>2015-05-15T16:25:51Z</time>
      </trkpt>
      <trkpt lat="45.77008" lon="5.57623">
        <ele>813.17103795249</ele>
        <time>2015-05-15T16:25:56Z</time>
      </trkpt>
      <trkpt lat="45.7701" lon="5.57631">
        <ele>814.19084582039</ele>
        <time>2015-05-15T16:26:01Z</time>
      </trkpt>
      <trkpt lat="45.77015" lon="5.57639">
        <ele>814.19084582039</ele>
        <time>2015-05-15T16:26:06Z</time>
      </trkpt>
      <trkpt lat="45.77017" lon="5.57649">
        <ele>815.63350824067</ele>
        <time>2015-05-15T16:26:11Z</time>
      </trkpt>
      <trkpt lat="45.77019" lon="5.57656">
        <ele>815.63350824067</ele>
        <time>2015-05-15T16:26:16Z</time>
      </trkpt>
      <trkpt lat="45.77022" lon="5.57665">
        <ele>817.38238575591</ele>
        <time>2015-05-15T16:26:21Z</time>
      </trkpt>
      <trkpt lat="45.77023" lon="5.57672">
        <ele>817.38238575591</ele>
        <time>2015-05-15T16:26:26Z</time>
      </trkpt>
      <trkpt lat="45.77027" lon="5.5768">
        <ele>819.34290799495</ele>
        <time>2015-05-15T16:26:31Z</time>
      </trkpt>
      <trkpt lat="45.7703" lon="5.57682">
        <ele>819.34290799495</ele>
        <time>2015-05-15T16:26:36Z</time>
      </trkpt>
      <trkpt lat="45.77034" lon="5.57685">
        <ele>819.34290799495</ele>
        <time>2015-05-15T16:26:41Z</time>
      </trkpt>
      <trkpt lat="45.77037" lon="5.57688">
        <ele>821.77267731008</ele>
        <time>2015-05-15T16:26:46Z</time>
      </trkpt>
      <trkpt lat="45.77041" lon="5.57689">
        <ele>821.77267731008</ele>
        <time>2015-05-15T16:26:51Z</time>
      </trkpt>
      <trkpt lat="45.77044" lon="5.57692">
        <ele>821.77267731008</ele>
        <time>2015-05-15T16:26:56Z</time>
      </trkpt>
      <trkpt lat="45.77049" lon="5.57694">
        <ele>824.86578266807</ele>
        <time>2015-05-15T16:27:01Z</time>
      </trkpt>
      <trkpt lat="45.77054" lon="5.57696">
        <ele>824.86578266807</ele>
        <time>2015-05-15T16:27:06Z</time>
      </trkpt>
      <trkpt lat="45.77058" lon="5.57697">
        <ele>827.51757339689</ele>
        <time>2015-05-15T16:27:11Z</time>
      </trkpt>
      <trkpt lat="45.77062" lon="5.57699">
        <ele>827.51757339689</ele>
        <time>2015-05-15T16:27:16Z</time>
      </trkpt>
      <trkpt lat="45.77067" lon="5.57701">
        <ele>827.51757339689</ele>
        <time>2015-05-15T16:27:21Z</time>
      </trkpt>
      <trkpt lat="45.77073" lon="5.57702">
        <ele>831.89062189709</ele>
        <time>2015-05-15T16:27:26Z</time>
      </trkpt>
      <trkpt lat="45.77081" lon="5.57706">
        <ele>831.89062189709</ele>
        <time>2015-05-15T16:27:31Z</time>
      </trkpt>
      <trkpt lat="45.77084" lon="5.57708">
        <ele>836.16486129005</ele>
        <time>2015-05-15T16:27:36Z</time>
      </trkpt>
      <trkpt lat="45.77086" lon="5.57708">
        <ele>836.16486129005</ele>
        <time>2015-05-15T16:27:41Z</time>
      </trkpt>
      <trkpt lat="45.77089" lon="5.57712">
        <ele>836.16486129005</ele>
        <time>2015-05-15T16:27:46Z</time>
      </trkpt>
      <trkpt lat="45.77089" lon="5.57714">
        <ele>836.16486129005</ele>
        <time>2015-05-15T16:27:51Z</time>
      </trkpt>
      <trkpt lat="45.7709" lon="5.57717">
        <ele>839.21624847408</ele>
        <time>2015-05-15T16:27:56Z</time>
      </trkpt>
      <trkpt lat="45.77091" lon="5.57719">
        <ele>839.21624847408</ele>
        <time>2015-05-15T16:28:01Z</time>
      </trkpt>
      <trkpt lat="45.77092" lon="5.5772">
        <ele>839.21624847408</ele>
        <time>2015-05-15T16:28:06Z</time>
      </trkpt>
      <trkpt lat="45.77092" lon="5.5772">
        <ele>839.21624847408</ele>
        <time>2015-05-15T16:28:11Z</time>
      </trkpt>
      <trkpt lat="45.77092" lon="5.5772">
        <ele>839.21624847408</ele>
        <time>2015-05-15T16:28:16Z</time>
      </trkpt>
      <trkpt lat="45.77093" lon="5.57721">
        <ele>839.21624847408</ele>
        <time>2015-05-15T16:28:21Z</time>
      </trkpt>
      <trkpt lat="45.77096" lon="5.57722">
        <ele>839.21624847408</ele>
        <time>2015-05-15T16:28:26Z</time>
      </trkpt>
      <trkpt lat="45.771" lon="5.57728">
        <ele>842.02432546259</ele>
        <time>2015-05-15T16:28:31Z</time>
      </trkpt>
      <trkpt lat="45.77104" lon="5.57733">
        <ele>842.02432546259</ele>
        <time>2015-05-15T16:28:36Z</time>
      </trkpt>
      <trkpt lat="45.77104" lon="5.57732">
        <ele>842.02432546259</ele>
        <time>2015-05-15T16:28:41Z</time>
      </trkpt>
      <trkpt lat="45.77106" lon="5.57733">
        <ele>842.02432546259</ele>
        <time>2015-05-15T16:28:46Z</time>
      </trkpt>
      <trkpt lat="45.77108" lon="5.57733">
        <ele>844.66155483197</ele>
        <time>2015-05-15T16:28:51Z</time>
      </trkpt>
      <trkpt lat="45.77108" lon="5.57734">
        <ele>844.66155483197</ele>
        <time>2015-05-15T16:28:56Z</time>
      </trkpt>
      <trkpt lat="45.77108" lon="5.57734">
        <ele>844.66155483197</ele>
        <time>2015-05-15T16:29:01Z</time>
      </trkpt>
      <trkpt lat="45.77109" lon="5.57733">
        <ele>844.66155483197</ele>
        <time>2015-05-15T16:29:06Z</time>
      </trkpt>
      <trkpt lat="45.77112" lon="5.57733">
        <ele>844.66155483197</ele>
        <time>2015-05-15T16:29:11Z</time>
      </trkpt>
      <trkpt lat="45.77114" lon="5.57737">
        <ele>844.66155483197</ele>
        <time>2015-05-15T16:29:16Z</time>
      </trkpt>
      <trkpt lat="45.77118" lon="5.5774">
        <ele>846.73444621225</ele>
        <time>2015-05-15T16:29:21Z</time>
      </trkpt>
      <trkpt lat="45.77125" lon="5.5774">
        <ele>846.73444621225</ele>
        <time>2015-05-15T16:29:26Z</time>
      </trkpt>
      <trkpt lat="45.77129" lon="5.57741">
        <ele>848.3267915552</ele>
        <time>2015-05-15T16:29:31Z</time>
      </trkpt>
      <trkpt lat="45.77133" lon="5.57742">
        <ele>848.3267915552</ele>
        <time>2015-05-15T16:29:36Z</time>
      </trkpt>
      <trkpt lat="45.77142" lon="5.57743">
        <ele>849.2582229519</ele>
        <time>2015-05-15T16:29:41Z</time>
      </trkpt>
      <trkpt lat="45.77153" lon="5.57749">
        <ele>849.62291807384</ele>
        <time>2015-05-15T16:29:46Z</time>
      </trkpt>
      <trkpt lat="45.77161" lon="5.57755">
        <ele>849.62291807384</ele>
        <time>2015-05-15T16:29:51Z</time>
      </trkpt>
      <trkpt lat="45.77167" lon="5.57758">
        <ele>850.15825916391</ele>
        <time>2015-05-15T16:29:56Z</time>
      </trkpt>
      <trkpt lat="45.77173" lon="5.57761">
        <ele>850.15825916391</ele>
        <time>2015-05-15T16:30:01Z</time>
      </trkpt>
      <trkpt lat="45.77173" lon="5.57762">
        <ele>850.15825916391</ele>
        <time>2015-05-15T16:30:06Z</time>
      </trkpt>
      <trkpt lat="45.77174" lon="5.57763">
        <ele>850.15825916391</ele>
        <time>2015-05-15T16:30:11Z</time>
      </trkpt>
      <trkpt lat="45.77174" lon="5.57762">
        <ele>850.15825916391</ele>
        <time>2015-05-15T16:30:16Z</time>
      </trkpt>
      <trkpt lat="45.77174" lon="5.57762">
        <ele>850.15825916391</ele>
        <time>2015-05-15T16:30:21Z</time>
      </trkpt>
      <trkpt lat="45.77175" lon="5.57762">
        <ele>850.15825916391</ele>
        <time>2015-05-15T16:30:26Z</time>
      </trkpt>
      <trkpt lat="45.77175" lon="5.57762">
        <ele>850.15825916391</ele>
        <time>2015-05-15T16:30:31Z</time>
      </trkpt>
      <trkpt lat="45.77175" lon="5.57762">
        <ele>850.15825916391</ele>
        <time>2015-05-15T16:30:36Z</time>
      </trkpt>
      <trkpt lat="45.77175" lon="5.57762">
        <ele>850.15825916391</ele>
        <time>2015-05-15T16:30:41Z</time>
      </trkpt>
      <trkpt lat="45.77175" lon="5.57762">
        <ele>850.15825916391</ele>
        <time>2015-05-15T16:30:46Z</time>
      </trkpt>
      <trkpt lat="45.77175" lon="5.57762">
        <ele>850.15825916391</ele>
        <time>2015-05-15T16:30:51Z</time>
      </trkpt>
      <trkpt lat="45.77175" lon="5.57762">
        <ele>850.15825916391</ele>
        <time>2015-05-15T16:30:56Z</time>
      </trkpt>
      <trkpt lat="45.77175" lon="5.57762">
        <ele>850.15825916391</ele>
        <time>2015-05-15T16:31:01Z</time>
      </trkpt>
      <trkpt lat="45.77175" lon="5.57762">
        <ele>850.15825916391</ele>
        <time>2015-05-15T16:31:06Z</time>
      </trkpt>
      <trkpt lat="45.77175" lon="5.57762">
        <ele>850.15825916391</ele>
        <time>2015-05-15T16:31:11Z</time>
      </trkpt>
      <trkpt lat="45.77175" lon="5.57762">
        <ele>850.15825916391</ele>
        <time>2015-05-15T16:31:16Z</time>
      </trkpt>
      <trkpt lat="45.77175" lon="5.57762">
        <ele>850.15825916391</ele>
        <time>2015-05-15T16:31:21Z</time>
      </trkpt>
      <trkpt lat="45.77175" lon="5.57762">
        <ele>850.15825916391</ele>
        <time>2015-05-15T16:31:26Z</time>
      </trkpt>
      <trkpt lat="45.77177" lon="5.57759">
        <ele>850.04824620388</ele>
        <time>2015-05-15T16:31:31Z</time>
      </trkpt>
      <trkpt lat="45.77177" lon="5.57758">
        <ele>850.04824620388</ele>
        <time>2015-05-15T16:31:36Z</time>
      </trkpt>
      <trkpt lat="45.77183" lon="5.57756">
        <ele>850.04824620388</ele>
        <time>2015-05-15T16:31:41Z</time>
      </trkpt>
      <trkpt lat="45.7719" lon="5.57752">
        <ele>850.26797318475</ele>
        <time>2015-05-15T16:31:46Z</time>
      </trkpt>
      <trkpt lat="45.77194" lon="5.57751">
        <ele>850.26797318475</ele>
        <time>2015-05-15T16:31:51Z</time>
      </trkpt>
      <trkpt lat="45.77198" lon="5.57748">
        <ele>850.26797318475</ele>
        <time>2015-05-15T16:31:56Z</time>
      </trkpt>
      <trkpt lat="45.77205" lon="5.57744">
        <ele>851.30205117036</ele>
        <time>2015-05-15T16:32:01Z</time>
      </trkpt>
      <trkpt lat="45.77211" lon="5.5774">
        <ele>851.30205117036</ele>
        <time>2015-05-15T16:32:06Z</time>
      </trkpt>
      <trkpt lat="45.77219" lon="5.57735">
        <ele>852.63164675338</ele>
        <time>2015-05-15T16:32:11Z</time>
      </trkpt>
      <trkpt lat="45.77226" lon="5.57734">
        <ele>852.63164675338</ele>
        <time>2015-05-15T16:32:16Z</time>
      </trkpt>
      <trkpt lat="45.77232" lon="5.57734">
        <ele>853.90488720269</ele>
        <time>2015-05-15T16:32:21Z</time>
      </trkpt>
      <trkpt lat="45.77238" lon="5.57731">
        <ele>853.90488720269</ele>
        <time>2015-05-15T16:32:26Z</time>
      </trkpt>
      <trkpt lat="45.77243" lon="5.5773">
        <ele>854.50765480609</ele>
        <time>2015-05-15T16:32:31Z</time>
      </trkpt>
      <trkpt lat="45.77251" lon="5.5773">
        <ele>854.50765480609</ele>
        <time>2015-05-15T16:32:36Z</time>
      </trkpt>
      <trkpt lat="45.77258" lon="5.5773">
        <ele>854.95362546597</ele>
        <time>2015-05-15T16:32:41Z</time>
      </trkpt>
      <trkpt lat="45.77264" lon="5.57731">
        <ele>854.95362546597</ele>
        <time>2015-05-15T16:32:46Z</time>
      </trkpt>
      <trkpt lat="45.77271" lon="5.57734">
        <ele>855.24357428605</ele>
        <time>2015-05-15T16:32:51Z</time>
      </trkpt>
      <trkpt lat="45.77274" lon="5.57739">
        <ele>855.24357428605</ele>
        <time>2015-05-15T16:32:56Z</time>
      </trkpt>
      <trkpt lat="45.77278" lon="5.57744">
        <ele>855.75329991896</ele>
        <time>2015-05-15T16:33:01Z</time>
      </trkpt>
      <trkpt lat="45.77284" lon="5.57746">
        <ele>855.75329991896</ele>
        <time>2015-05-15T16:33:06Z</time>
      </trkpt>
      <trkpt lat="45.77287" lon="5.57746">
        <ele>856.21064684432</ele>
        <time>2015-05-15T16:33:11Z</time>
      </trkpt>
      <trkpt lat="45.773" lon="5.57738">
        <ele>856.21942639748</ele>
        <time>2015-05-15T16:33:16Z</time>
      </trkpt>
      <trkpt lat="45.7731" lon="5.57728">
        <ele>855.96136538674</ele>
        <time>2015-05-15T16:33:21Z</time>
      </trkpt>
      <trkpt lat="45.77313" lon="5.57721">
        <ele>855.96136538674</ele>
        <time>2015-05-15T16:33:26Z</time>
      </trkpt>
      <trkpt lat="45.77318" lon="5.57713">
        <ele>855.475811995</ele>
        <time>2015-05-15T16:33:31Z</time>
      </trkpt>
      <trkpt lat="45.77323" lon="5.57708">
        <ele>855.475811995</ele>
        <time>2015-05-15T16:33:36Z</time>
      </trkpt>
      <trkpt lat="45.77329" lon="5.57703">
        <ele>855.14564214135</ele>
        <time>2015-05-15T16:33:41Z</time>
      </trkpt>
      <trkpt lat="45.77331" lon="5.57702">
        <ele>855.14564214135</ele>
        <time>2015-05-15T16:33:46Z</time>
      </trkpt>
      <trkpt lat="45.77337" lon="5.57703">
        <ele>855.14564214135</ele>
        <time>2015-05-15T16:33:51Z</time>
      </trkpt>
      <trkpt lat="45.77344" lon="5.57708">
        <ele>855.22419655503</ele>
        <time>2015-05-15T16:33:56Z</time>
      </trkpt>
      <trkpt lat="45.77348" lon="5.57713">
        <ele>855.22419655503</ele>
        <time>2015-05-15T16:34:01Z</time>
      </trkpt>
      <trkpt lat="45.77354" lon="5.5772">
        <ele>855.0946993659</ele>
        <time>2015-05-15T16:34:06Z</time>
      </trkpt>
      <trkpt lat="45.7736" lon="5.57726">
        <ele>855.0946993659</ele>
        <time>2015-05-15T16:34:11Z</time>
      </trkpt>
      <trkpt lat="45.77366" lon="5.5773">
        <ele>854.7770112114</ele>
        <time>2015-05-15T16:34:16Z</time>
      </trkpt>
      <trkpt lat="45.77372" lon="5.57738">
        <ele>854.7770112114</ele>
        <time>2015-05-15T16:34:21Z</time>
      </trkpt>
      <trkpt lat="45.77379" lon="5.57746">
        <ele>855.1978465968</ele>
        <time>2015-05-15T16:34:26Z</time>
      </trkpt>
      <trkpt lat="45.77381" lon="5.57748">
        <ele>855.1978465968</ele>
        <time>2015-05-15T16:34:31Z</time>
      </trkpt>
      <trkpt lat="45.77388" lon="5.57758">
        <ele>856.01753179067</ele>
        <time>2015-05-15T16:34:36Z</time>
      </trkpt>
      <trkpt lat="45.77392" lon="5.57765">
        <ele>856.01753179067</ele>
        <time>2015-05-15T16:34:41Z</time>
      </trkpt>
      <trkpt lat="45.77397" lon="5.57771">
        <ele>856.68952992784</ele>
        <time>2015-05-15T16:34:46Z</time>
      </trkpt>
      <trkpt lat="45.77406" lon="5.57779">
        <ele>856.90950448492</ele>
        <time>2015-05-15T16:34:51Z</time>
      </trkpt>
      <trkpt lat="45.77412" lon="5.57782">
        <ele>856.90950448492</ele>
        <time>2015-05-15T16:34:56Z</time>
      </trkpt>
      <trkpt lat="45.77418" lon="5.57789">
        <ele>856.32457044684</ele>
        <time>2015-05-15T16:35:01Z</time>
      </trkpt>
      <trkpt lat="45.77425" lon="5.57792">
        <ele>856.32457044684</ele>
        <time>2015-05-15T16:35:06Z</time>
      </trkpt>
      <trkpt lat="45.77435" lon="5.57793">
        <ele>856.02219518007</ele>
        <time>2015-05-15T16:35:11Z</time>
      </trkpt>
      <trkpt lat="45.77442" lon="5.57791">
        <ele>856.02219518007</ele>
        <time>2015-05-15T16:35:16Z</time>
      </trkpt>
      <trkpt lat="45.77446" lon="5.57786">
        <ele>854.83296831739</ele>
        <time>2015-05-15T16:35:21Z</time>
      </trkpt>
      <trkpt lat="45.77453" lon="5.57781">
        <ele>854.83296831739</ele>
        <time>2015-05-15T16:35:26Z</time>
      </trkpt>
      <trkpt lat="45.77457" lon="5.57773">
        <ele>853.79417811453</ele>
        <time>2015-05-15T16:35:31Z</time>
      </trkpt>
      <trkpt lat="45.77464" lon="5.57761">
        <ele>853.17462457111</ele>
        <time>2015-05-15T16:35:36Z</time>
      </trkpt>
      <trkpt lat="45.7747" lon="5.57755">
        <ele>853.17462457111</ele>
        <time>2015-05-15T16:35:41Z</time>
      </trkpt>
      <trkpt lat="45.77476" lon="5.57751">
        <ele>852.90500164048</ele>
        <time>2015-05-15T16:35:46Z</time>
      </trkpt>
      <trkpt lat="45.77482" lon="5.57745">
        <ele>852.90500164048</ele>
        <time>2015-05-15T16:35:51Z</time>
      </trkpt>
      <trkpt lat="45.77487" lon="5.57743">
        <ele>852.05530109383</ele>
        <time>2015-05-15T16:35:56Z</time>
      </trkpt>
      <trkpt lat="45.77494" lon="5.57738">
        <ele>852.05530109383</ele>
        <time>2015-05-15T16:36:01Z</time>
      </trkpt>
      <trkpt lat="45.77499" lon="5.57732">
        <ele>852.15755877977</ele>
        <time>2015-05-15T16:36:06Z</time>
      </trkpt>
      <trkpt lat="45.77506" lon="5.57725">
        <ele>852.15755877977</ele>
        <time>2015-05-15T16:36:11Z</time>
      </trkpt>
      <trkpt lat="45.7751" lon="5.57721">
        <ele>851.68858254543</ele>
        <time>2015-05-15T16:36:16Z</time>
      </trkpt>
      <trkpt lat="45.77514" lon="5.57715">
        <ele>851.68858254543</ele>
        <time>2015-05-15T16:36:21Z</time>
      </trkpt>
      <trkpt lat="45.77518" lon="5.57709">
        <ele>851.24167376486</ele>
        <time>2015-05-15T16:36:26Z</time>
      </trkpt>
      <trkpt lat="45.77522" lon="5.57703">
        <ele>851.24167376486</ele>
        <time>2015-05-15T16:36:31Z</time>
      </trkpt>
      <trkpt lat="45.77527" lon="5.57692">
        <ele>851.30869844546</ele>
        <time>2015-05-15T16:36:36Z</time>
      </trkpt>
      <trkpt lat="45.7753" lon="5.57682">
        <ele>851.30869844546</ele>
        <time>2015-05-15T16:36:41Z</time>
      </trkpt>
      <trkpt lat="45.77533" lon="5.57675">
        <ele>851.46472804178</ele>
        <time>2015-05-15T16:36:46Z</time>
      </trkpt>
      <trkpt lat="45.77538" lon="5.57667">
        <ele>851.46472804178</ele>
        <time>2015-05-15T16:36:51Z</time>
      </trkpt>
      <trkpt lat="45.77546" lon="5.57659">
        <ele>851.63270496107</ele>
        <time>2015-05-15T16:36:56Z</time>
      </trkpt>
      <trkpt lat="45.77554" lon="5.57652">
        <ele>851.89958721097</ele>
        <time>2015-05-15T16:37:01Z</time>
      </trkpt>
      <trkpt lat="45.7756" lon="5.57647">
        <ele>851.89958721097</ele>
        <time>2015-05-15T16:37:06Z</time>
      </trkpt>
      <trkpt lat="45.77564" lon="5.57642">
        <ele>852.24466220494</ele>
        <time>2015-05-15T16:37:11Z</time>
      </trkpt>
      <trkpt lat="45.7757" lon="5.57635">
        <ele>852.24466220494</ele>
        <time>2015-05-15T16:37:16Z</time>
      </trkpt>
      <trkpt lat="45.77578" lon="5.57624">
        <ele>853.09514429032</ele>
        <time>2015-05-15T16:37:21Z</time>
      </trkpt>
      <trkpt lat="45.77582" lon="5.57617">
        <ele>853.09514429032</ele>
        <time>2015-05-15T16:37:26Z</time>
      </trkpt>
      <trkpt lat="45.77588" lon="5.5762">
        <ele>854.83092605271</ele>
        <time>2015-05-15T16:37:31Z</time>
      </trkpt>
      <trkpt lat="45.77584" lon="5.57633">
        <ele>856.63411165956</ele>
        <time>2015-05-15T16:37:36Z</time>
      </trkpt>
      <trkpt lat="45.77583" lon="5.57645">
        <ele>856.63411165956</ele>
        <time>2015-05-15T16:37:41Z</time>
      </trkpt>
      <trkpt lat="45.77588" lon="5.57652">
        <ele>858.25100389172</ele>
        <time>2015-05-15T16:37:46Z</time>
      </trkpt>
      <trkpt lat="45.77594" lon="5.57651">
        <ele>858.25100389172</ele>
        <time>2015-05-15T16:37:51Z</time>
      </trkpt>
      <trkpt lat="45.77602" lon="5.57649">
        <ele>859.36052921146</ele>
        <time>2015-05-15T16:37:56Z</time>
      </trkpt>
      <trkpt lat="45.77608" lon="5.57645">
        <ele>859.36052921146</ele>
        <time>2015-05-15T16:38:01Z</time>
      </trkpt>
      <trkpt lat="45.77614" lon="5.57643">
        <ele>860.04125708227</ele>
        <time>2015-05-15T16:38:06Z</time>
      </trkpt>
      <trkpt lat="45.77621" lon="5.5764">
        <ele>860.04125708227</ele>
        <time>2015-05-15T16:38:11Z</time>
      </trkpt>
      <trkpt lat="45.77628" lon="5.57636">
        <ele>860.55448790915</ele>
        <time>2015-05-15T16:38:16Z</time>
      </trkpt>
      <trkpt lat="45.77636" lon="5.57634">
        <ele>860.55448790915</ele>
        <time>2015-05-15T16:38:21Z</time>
      </trkpt>
      <trkpt lat="45.77644" lon="5.57633">
        <ele>860.6960143053</ele>
        <time>2015-05-15T16:38:26Z</time>
      </trkpt>
      <trkpt lat="45.77649" lon="5.5763">
        <ele>860.6960143053</ele>
        <time>2015-05-15T16:38:31Z</time>
      </trkpt>
      <trkpt lat="45.77656" lon="5.57629">
        <ele>861.05583912402</ele>
        <time>2015-05-15T16:38:36Z</time>
      </trkpt>
      <trkpt lat="45.77663" lon="5.57626">
        <ele>861.05583912402</ele>
        <time>2015-05-15T16:38:41Z</time>
      </trkpt>
      <trkpt lat="45.77671" lon="5.57622">
        <ele>861.48824704711</ele>
        <time>2015-05-15T16:38:46Z</time>
      </trkpt>
      <trkpt lat="45.77679" lon="5.57622">
        <ele>861.48824704711</ele>
        <time>2015-05-15T16:38:51Z</time>
      </trkpt>
      <trkpt lat="45.77686" lon="5.5762">
        <ele>861.95887255737</ele>
        <time>2015-05-15T16:38:56Z</time>
      </trkpt>
      <trkpt lat="45.77694" lon="5.57618">
        <ele>861.95887255737</ele>
        <time>2015-05-15T16:39:01Z</time>
      </trkpt>
      <trkpt lat="45.777" lon="5.57614">
        <ele>862.19075183375</ele>
        <time>2015-05-15T16:39:06Z</time>
      </trkpt>
      <trkpt lat="45.77706" lon="5.57608">
        <ele>862.19075183375</ele>
        <time>2015-05-15T16:39:11Z</time>
      </trkpt>
      <trkpt lat="45.77712" lon="5.57604">
        <ele>862.12966706141</ele>
        <time>2015-05-15T16:39:16Z</time>
      </trkpt>
      <trkpt lat="45.77717" lon="5.576">
        <ele>862.12966706141</ele>
        <time>2015-05-15T16:39:21Z</time>
      </trkpt>
      <trkpt lat="45.77724" lon="5.57599">
        <ele>862.23057031337</ele>
        <time>2015-05-15T16:39:26Z</time>
      </trkpt>
      <trkpt lat="45.77733" lon="5.57597">
        <ele>862.23057031337</ele>
        <time>2015-05-15T16:39:31Z</time>
      </trkpt>
      <trkpt lat="45.77741" lon="5.57597">
        <ele>862.85687162183</ele>
        <time>2015-05-15T16:39:36Z</time>
      </trkpt>
      <trkpt lat="45.77751" lon="5.57599">
        <ele>863.20531122019</ele>
        <time>2015-05-15T16:39:41Z</time>
      </trkpt>
      <trkpt lat="45.77759" lon="5.57603">
        <ele>863.20531122019</ele>
        <time>2015-05-15T16:39:46Z</time>
      </trkpt>
      <trkpt lat="45.77763" lon="5.57608">
        <ele>863.52676249232</ele>
        <time>2015-05-15T16:39:51Z</time>
      </trkpt>
      <trkpt lat="45.7777" lon="5.57612">
        <ele>863.52676249232</ele>
        <time>2015-05-15T16:39:56Z</time>
      </trkpt>
      <trkpt lat="45.77777" lon="5.57612">
        <ele>863.72227128549</ele>
        <time>2015-05-15T16:40:01Z</time>
      </trkpt>
      <trkpt lat="45.77784" lon="5.57614">
        <ele>863.72227128549</ele>
        <time>2015-05-15T16:40:06Z</time>
      </trkpt>
      <trkpt lat="45.77789" lon="5.57616">
        <ele>864.10400057697</ele>
        <time>2015-05-15T16:40:11Z</time>
      </trkpt>
      <trkpt lat="45.77793" lon="5.57619">
        <ele>864.10400057697</ele>
        <time>2015-05-15T16:40:16Z</time>
      </trkpt>
      <trkpt lat="45.77798" lon="5.5762">
        <ele>864.70124480485</ele>
        <time>2015-05-15T16:40:21Z</time>
      </trkpt>
      <trkpt lat="45.77802" lon="5.57618">
        <ele>864.70124480485</ele>
        <time>2015-05-15T16:40:26Z</time>
      </trkpt>
      <trkpt lat="45.77805" lon="5.57617">
        <ele>864.70124480485</ele>
        <time>2015-05-15T16:40:31Z</time>
      </trkpt>
      <trkpt lat="45.77809" lon="5.57618">
        <ele>865.06496200763</ele>
        <time>2015-05-15T16:40:36Z</time>
      </trkpt>
      <trkpt lat="45.77817" lon="5.57623">
        <ele>865.44265202118</ele>
        <time>2015-05-15T16:40:41Z</time>
      </trkpt>
      <trkpt lat="45.77829" lon="5.57627">
        <ele>865.91947433692</ele>
        <time>2015-05-15T16:40:46Z</time>
      </trkpt>
      <trkpt lat="45.7784" lon="5.57633">
        <ele>866.06965824182</ele>
        <time>2015-05-15T16:40:51Z</time>
      </trkpt>
      <trkpt lat="45.77848" lon="5.57635">
        <ele>866.06965824182</ele>
        <time>2015-05-15T16:40:56Z</time>
      </trkpt>
      <trkpt lat="45.77856" lon="5.57632">
        <ele>865.97518627972</ele>
        <time>2015-05-15T16:41:01Z</time>
      </trkpt>
      <trkpt lat="45.77864" lon="5.5763">
        <ele>865.97518627972</ele>
        <time>2015-05-15T16:41:06Z</time>
      </trkpt>
      <trkpt lat="45.7787" lon="5.57629">
        <ele>865.92886467833</ele>
        <time>2015-05-15T16:41:11Z</time>
      </trkpt>
      <trkpt lat="45.7788" lon="5.57627">
        <ele>866.15861418924</ele>
        <time>2015-05-15T16:41:16Z</time>
      </trkpt>
      <trkpt lat="45.77886" lon="5.57629">
        <ele>866.15861418924</ele>
        <time>2015-05-15T16:41:21Z</time>
      </trkpt>
      <trkpt lat="45.77894" lon="5.57629">
        <ele>866.57219631559</ele>
        <time>2015-05-15T16:41:26Z</time>
      </trkpt>
      <trkpt lat="45.779" lon="5.57629">
        <ele>866.57219631559</ele>
        <time>2015-05-15T16:41:31Z</time>
      </trkpt>
      <trkpt lat="45.77907" lon="5.5763">
        <ele>867.15568002996</ele>
        <time>2015-05-15T16:41:36Z</time>
      </trkpt>
      <trkpt lat="45.77914" lon="5.57632">
        <ele>867.15568002996</ele>
        <time>2015-05-15T16:41:41Z</time>
      </trkpt>
      <trkpt lat="45.77921" lon="5.57635">
        <ele>867.65068516278</ele>
        <time>2015-05-15T16:41:46Z</time>
      </trkpt>
      <trkpt lat="45.77927" lon="5.57637">
        <ele>867.65068516278</ele>
        <time>2015-05-15T16:41:51Z</time>
      </trkpt>
      <trkpt lat="45.77934" lon="5.57644">
        <ele>868.19274461227</ele>
        <time>2015-05-15T16:41:56Z</time>
      </trkpt>
      <trkpt lat="45.77939" lon="5.57649">
        <ele>868.19274461227</ele>
        <time>2015-05-15T16:42:01Z</time>
      </trkpt>
      <trkpt lat="45.77947" lon="5.57653">
        <ele>869.08023506109</ele>
        <time>2015-05-15T16:42:06Z</time>
      </trkpt>
      <trkpt lat="45.77951" lon="5.57653">
        <ele>869.08023506109</ele>
        <time>2015-05-15T16:42:11Z</time>
      </trkpt>
      <trkpt lat="45.77958" lon="5.57655">
        <ele>869.73839141044</ele>
        <time>2015-05-15T16:42:16Z</time>
      </trkpt>
      <trkpt lat="45.77965" lon="5.57655">
        <ele>869.73839141044</ele>
        <time>2015-05-15T16:42:21Z</time>
      </trkpt>
      <trkpt lat="45.77975" lon="5.57655">
        <ele>870.38469686543</ele>
        <time>2015-05-15T16:42:26Z</time>
      </trkpt>
      <trkpt lat="45.7798" lon="5.57656">
        <ele>870.38469686543</ele>
        <time>2015-05-15T16:42:31Z</time>
      </trkpt>
      <trkpt lat="45.77987" lon="5.57656">
        <ele>871.22070026976</ele>
        <time>2015-05-15T16:42:36Z</time>
      </trkpt>
      <trkpt lat="45.77994" lon="5.57656">
        <ele>871.22070026976</ele>
        <time>2015-05-15T16:42:41Z</time>
      </trkpt>
      <trkpt lat="45.78003" lon="5.57656">
        <ele>872.38939200045</ele>
        <time>2015-05-15T16:42:46Z</time>
      </trkpt>
      <trkpt lat="45.78011" lon="5.57655">
        <ele>872.38939200045</ele>
        <time>2015-05-15T16:42:51Z</time>
      </trkpt>
      <trkpt lat="45.78017" lon="5.57653">
        <ele>873.59000868289</ele>
        <time>2015-05-15T16:42:56Z</time>
      </trkpt>
      <trkpt lat="45.78025" lon="5.57652">
        <ele>873.59000868289</ele>
        <time>2015-05-15T16:43:01Z</time>
      </trkpt>
      <trkpt lat="45.78026" lon="5.57652">
        <ele>873.59000868289</ele>
        <time>2015-05-15T16:43:06Z</time>
      </trkpt>
      <trkpt lat="45.78026" lon="5.57652">
        <ele>873.59000868289</ele>
        <time>2015-05-15T16:43:11Z</time>
      </trkpt>
      <trkpt lat="45.78026" lon="5.57652">
        <ele>874.97614716448</ele>
        <time>2015-05-15T16:43:16Z</time>
      </trkpt>
      <trkpt lat="45.78027" lon="5.57652">
        <ele>874.97614716448</ele>
        <time>2015-05-15T16:43:21Z</time>
      </trkpt>
      <trkpt lat="45.78026" lon="5.57652">
        <ele>874.97614716448</ele>
        <time>2015-05-15T16:43:26Z</time>
      </trkpt>
      <trkpt lat="45.78026" lon="5.57652">
        <ele>874.97614716448</ele>
        <time>2015-05-15T16:43:31Z</time>
      </trkpt>
      <trkpt lat="45.78026" lon="5.57651">
        <ele>874.97614716448</ele>
        <time>2015-05-15T16:43:36Z</time>
      </trkpt>
      <trkpt lat="45.78026" lon="5.57651">
        <ele>874.97614716448</ele>
        <time>2015-05-15T16:43:41Z</time>
      </trkpt>
      <trkpt lat="45.78026" lon="5.57651">
        <ele>874.97614716448</ele>
        <time>2015-05-15T16:43:46Z</time>
      </trkpt>
      <trkpt lat="45.78026" lon="5.57651">
        <ele>874.97614716448</ele>
        <time>2015-05-15T16:43:51Z</time>
      </trkpt>
      <trkpt lat="45.78026" lon="5.57651">
        <ele>874.97614716448</ele>
        <time>2015-05-15T16:43:56Z</time>
      </trkpt>
      <trkpt lat="45.78027" lon="5.5765">
        <ele>874.97614716448</ele>
        <time>2015-05-15T16:44:01Z</time>
      </trkpt>
      <trkpt lat="45.78027" lon="5.5765">
        <ele>874.97614716448</ele>
        <time>2015-05-15T16:44:06Z</time>
      </trkpt>
      <trkpt lat="45.78027" lon="5.5765">
        <ele>874.97614716448</ele>
        <time>2015-05-15T16:44:11Z</time>
      </trkpt>
      <trkpt lat="45.78027" lon="5.5765">
        <ele>874.97614716448</ele>
        <time>2015-05-15T16:44:16Z</time>
      </trkpt>
      <trkpt lat="45.78029" lon="5.57646">
        <ele>874.97614716448</ele>
        <time>2015-05-15T16:44:21Z</time>
      </trkpt>
      <trkpt lat="45.78032" lon="5.57642">
        <ele>876.1708286777</ele>
        <time>2015-05-15T16:44:26Z</time>
      </trkpt>
      <trkpt lat="45.78035" lon="5.57636">
        <ele>876.1708286777</ele>
        <time>2015-05-15T16:44:31Z</time>
      </trkpt>
      <trkpt lat="45.7804" lon="5.57628">
        <ele>877.05591557278</ele>
        <time>2015-05-15T16:44:36Z</time>
      </trkpt>
      <trkpt lat="45.78043" lon="5.57622">
        <ele>877.05591557278</ele>
        <time>2015-05-15T16:44:41Z</time>
      </trkpt>
      <trkpt lat="45.78046" lon="5.57614">
        <ele>877.63814340383</ele>
        <time>2015-05-15T16:44:46Z</time>
      </trkpt>
      <trkpt lat="45.78049" lon="5.57606">
        <ele>877.63814340383</ele>
        <time>2015-05-15T16:44:51Z</time>
      </trkpt>
      <trkpt lat="45.78052" lon="5.57597">
        <ele>877.85258610488</ele>
        <time>2015-05-15T16:44:56Z</time>
      </trkpt>
      <trkpt lat="45.78055" lon="5.57588">
        <ele>877.85258610488</ele>
        <time>2015-05-15T16:45:01Z</time>
      </trkpt>
      <trkpt lat="45.78059" lon="5.57578">
        <ele>877.71221235479</ele>
        <time>2015-05-15T16:45:06Z</time>
      </trkpt>
      <trkpt lat="45.78061" lon="5.57571">
        <ele>877.71221235479</ele>
        <time>2015-05-15T16:45:11Z</time>
      </trkpt>
      <trkpt lat="45.78064" lon="5.5756">
        <ele>877.44623459989</ele>
        <time>2015-05-15T16:45:16Z</time>
      </trkpt>
      <trkpt lat="45.78067" lon="5.57551">
        <ele>877.44623459989</ele>
        <time>2015-05-15T16:45:21Z</time>
      </trkpt>
      <trkpt lat="45.78069" lon="5.57544">
        <ele>877.33946448724</ele>
        <time>2015-05-15T16:45:26Z</time>
      </trkpt>
      <trkpt lat="45.78072" lon="5.57533">
        <ele>877.33946448724</ele>
        <time>2015-05-15T16:45:31Z</time>
      </trkpt>
      <trkpt lat="45.78074" lon="5.57525">
        <ele>877.32391230084</ele>
        <time>2015-05-15T16:45:36Z</time>
      </trkpt>
      <trkpt lat="45.78077" lon="5.57514">
        <ele>877.32391230084</ele>
        <time>2015-05-15T16:45:41Z</time>
      </trkpt>
      <trkpt lat="45.7808" lon="5.57507">
        <ele>877.3795775059</ele>
        <time>2015-05-15T16:45:46Z</time>
      </trkpt>
      <trkpt lat="45.78083" lon="5.57498">
        <ele>877.3795775059</ele>
        <time>2015-05-15T16:45:51Z</time>
      </trkpt>
      <trkpt lat="45.78088" lon="5.5749">
        <ele>876.92570683336</ele>
        <time>2015-05-15T16:45:56Z</time>
      </trkpt>
      <trkpt lat="45.7809" lon="5.57487">
        <ele>876.92570683336</ele>
        <time>2015-05-15T16:46:01Z</time>
      </trkpt>
      <trkpt lat="45.78091" lon="5.57486">
        <ele>876.92570683336</ele>
        <time>2015-05-15T16:46:06Z</time>
      </trkpt>
      <trkpt lat="45.7809" lon="5.57486">
        <ele>876.92570683336</ele>
        <time>2015-05-15T16:46:11Z</time>
      </trkpt>
      <trkpt lat="45.78089" lon="5.57486">
        <ele>876.92570683336</ele>
        <time>2015-05-15T16:46:16Z</time>
      </trkpt>
      <trkpt lat="45.78089" lon="5.57486">
        <ele>876.92570683336</ele>
        <time>2015-05-15T16:46:21Z</time>
      </trkpt>
      <trkpt lat="45.7809" lon="5.57487">
        <ele>876.92570683336</ele>
        <time>2015-05-15T16:46:26Z</time>
      </trkpt>
      <trkpt lat="45.78095" lon="5.57484">
        <ele>877.03969003946</ele>
        <time>2015-05-15T16:46:31Z</time>
      </trkpt>
      <trkpt lat="45.78099" lon="5.57479">
        <ele>877.03969003946</ele>
        <time>2015-05-15T16:46:36Z</time>
      </trkpt>
      <trkpt lat="45.78105" lon="5.57476">
        <ele>877.20501477874</ele>
        <time>2015-05-15T16:46:41Z</time>
      </trkpt>
      <trkpt lat="45.78111" lon="5.57472">
        <ele>877.20501477874</ele>
        <time>2015-05-15T16:46:46Z</time>
      </trkpt>
      <trkpt lat="45.78116" lon="5.57468">
        <ele>876.92855447374</ele>
        <time>2015-05-15T16:46:51Z</time>
      </trkpt>
      <trkpt lat="45.78122" lon="5.57465">
        <ele>876.92855447374</ele>
        <time>2015-05-15T16:46:56Z</time>
      </trkpt>
      <trkpt lat="45.78125" lon="5.57461">
        <ele>876.83547490662</ele>
        <time>2015-05-15T16:47:01Z</time>
      </trkpt>
      <trkpt lat="45.78131" lon="5.57457">
        <ele>876.83547490662</ele>
        <time>2015-05-15T16:47:06Z</time>
      </trkpt>
      <trkpt lat="45.78133" lon="5.57454">
        <ele>875.99132581984</ele>
        <time>2015-05-15T16:47:11Z</time>
      </trkpt>
      <trkpt lat="45.78133" lon="5.57447">
        <ele>875.99132581984</ele>
        <time>2015-05-15T16:47:16Z</time>
      </trkpt>
      <trkpt lat="45.78138" lon="5.57446">
        <ele>874.26735787631</ele>
        <time>2015-05-15T16:47:21Z</time>
      </trkpt>
      <trkpt lat="45.78141" lon="5.5744">
        <ele>874.26735787631</ele>
        <time>2015-05-15T16:47:26Z</time>
      </trkpt>
      <trkpt lat="45.78148" lon="5.57434">
        <ele>873.31928978267</ele>
        <time>2015-05-15T16:47:31Z</time>
      </trkpt>
      <trkpt lat="45.78153" lon="5.57426">
        <ele>873.31928978267</ele>
        <time>2015-05-15T16:47:36Z</time>
      </trkpt>
      <trkpt lat="45.78158" lon="5.57416">
        <ele>872.56056691045</ele>
        <time>2015-05-15T16:47:41Z</time>
      </trkpt>
      <trkpt lat="45.7816" lon="5.57408">
        <ele>872.56056691045</ele>
        <time>2015-05-15T16:47:46Z</time>
      </trkpt>
      <trkpt lat="45.78162" lon="5.57403">
        <ele>870.81305687826</ele>
        <time>2015-05-15T16:47:51Z</time>
      </trkpt>
      <trkpt lat="45.78168" lon="5.57399">
        <ele>870.81305687826</ele>
        <time>2015-05-15T16:47:56Z</time>
      </trkpt>
      <trkpt lat="45.78172" lon="5.57392">
        <ele>868.947801723</ele>
        <time>2015-05-15T16:48:01Z</time>
      </trkpt>
      <trkpt lat="45.78177" lon="5.57384">
        <ele>868.947801723</ele>
        <time>2015-05-15T16:48:06Z</time>
      </trkpt>
      <trkpt lat="45.78182" lon="5.57378">
        <ele>868.00270026677</ele>
        <time>2015-05-15T16:48:11Z</time>
      </trkpt>
      <trkpt lat="45.78186" lon="5.57375">
        <ele>868.00270026677</ele>
        <time>2015-05-15T16:48:16Z</time>
      </trkpt>
      <trkpt lat="45.78191" lon="5.57376">
        <ele>867.94238712778</ele>
        <time>2015-05-15T16:48:21Z</time>
      </trkpt>
      <trkpt lat="45.78195" lon="5.57376">
        <ele>867.94238712778</ele>
        <time>2015-05-15T16:48:26Z</time>
      </trkpt>
      <trkpt lat="45.78196" lon="5.57376">
        <ele>867.94238712778</ele>
        <time>2015-05-15T16:48:31Z</time>
      </trkpt>
      <trkpt lat="45.78199" lon="5.57375">
        <ele>867.94238712778</ele>
        <time>2015-05-15T16:48:36Z</time>
      </trkpt>
      <trkpt lat="45.78201" lon="5.57373">
        <ele>869.00534852148</ele>
        <time>2015-05-15T16:48:41Z</time>
      </trkpt>
      <trkpt lat="45.78201" lon="5.57373">
        <ele>869.00534852148</ele>
        <time>2015-05-15T16:48:46Z</time>
      </trkpt>
      <trkpt lat="45.78202" lon="5.57372">
        <ele>869.00534852148</ele>
        <time>2015-05-15T16:48:51Z</time>
      </trkpt>
      <trkpt lat="45.78204" lon="5.57362">
        <ele>869.00534852148</ele>
        <time>2015-05-15T16:48:56Z</time>
      </trkpt>
      <trkpt lat="45.78208" lon="5.57354">
        <ele>870.05468248268</ele>
        <time>2015-05-15T16:49:01Z</time>
      </trkpt>
      <trkpt lat="45.78212" lon="5.57346">
        <ele>870.05468248268</ele>
        <time>2015-05-15T16:49:06Z</time>
      </trkpt>
      <trkpt lat="45.78214" lon="5.57339">
        <ele>871.11780990536</ele>
        <time>2015-05-15T16:49:11Z</time>
      </trkpt>
      <trkpt lat="45.78218" lon="5.57335">
        <ele>871.11780990536</ele>
        <time>2015-05-15T16:49:16Z</time>
      </trkpt>
      <trkpt lat="45.78218" lon="5.57334">
        <ele>871.11780990536</ele>
        <time>2015-05-15T16:49:21Z</time>
      </trkpt>
      <trkpt lat="45.78219" lon="5.57334">
        <ele>871.11780990536</ele>
        <time>2015-05-15T16:49:26Z</time>
      </trkpt>
      <trkpt lat="45.78221" lon="5.57332">
        <ele>871.11780990536</ele>
        <time>2015-05-15T16:49:31Z</time>
      </trkpt>
      <trkpt lat="45.78221" lon="5.57332">
        <ele>872.652378526</ele>
        <time>2015-05-15T16:49:36Z</time>
      </trkpt>
      <trkpt lat="45.78224" lon="5.57332">
        <ele>872.652378526</ele>
        <time>2015-05-15T16:49:41Z</time>
      </trkpt>
      <trkpt lat="45.78231" lon="5.57335">
        <ele>874.08668721714</ele>
        <time>2015-05-15T16:49:46Z</time>
      </trkpt>
      <trkpt lat="45.78237" lon="5.57335">
        <ele>874.08668721714</ele>
        <time>2015-05-15T16:49:51Z</time>
      </trkpt>
      <trkpt lat="45.78237" lon="5.57335">
        <ele>874.08668721714</ele>
        <time>2015-05-15T16:49:56Z</time>
      </trkpt>
      <trkpt lat="45.78242" lon="5.57333">
        <ele>875.38126278691</ele>
        <time>2015-05-15T16:50:01Z</time>
      </trkpt>
      <trkpt lat="45.78246" lon="5.57333">
        <ele>875.38126278691</ele>
        <time>2015-05-15T16:50:06Z</time>
      </trkpt>
      <trkpt lat="45.7825" lon="5.57334">
        <ele>875.38126278691</ele>
        <time>2015-05-15T16:50:11Z</time>
      </trkpt>
      <trkpt lat="45.78249" lon="5.57334">
        <ele>875.38126278691</ele>
        <time>2015-05-15T16:50:16Z</time>
      </trkpt>
      <trkpt lat="45.7825" lon="5.57334">
        <ele>875.38126278691</ele>
        <time>2015-05-15T16:50:21Z</time>
      </trkpt>
      <trkpt lat="45.78252" lon="5.57335">
        <ele>876.55755217488</ele>
        <time>2015-05-15T16:50:26Z</time>
      </trkpt>
      <trkpt lat="45.78254" lon="5.57337">
        <ele>876.55755217488</ele>
        <time>2015-05-15T16:50:31Z</time>
      </trkpt>
      <trkpt lat="45.78257" lon="5.57343">
        <ele>876.55755217488</ele>
        <time>2015-05-15T16:50:36Z</time>
      </trkpt>
      <trkpt lat="45.78262" lon="5.57353">
        <ele>878.02485455079</ele>
        <time>2015-05-15T16:50:41Z</time>
      </trkpt>
      <trkpt lat="45.78266" lon="5.5736">
        <ele>878.02485455079</ele>
        <time>2015-05-15T16:50:46Z</time>
      </trkpt>
      <trkpt lat="45.7827" lon="5.57363">
        <ele>879.38339166309</ele>
        <time>2015-05-15T16:50:51Z</time>
      </trkpt>
      <trkpt lat="45.78271" lon="5.57363">
        <ele>879.38339166309</ele>
        <time>2015-05-15T16:50:56Z</time>
      </trkpt>
      <trkpt lat="45.78272" lon="5.57363">
        <ele>879.38339166309</ele>
        <time>2015-05-15T16:51:01Z</time>
      </trkpt>
      <trkpt lat="45.78273" lon="5.57364">
        <ele>879.38339166309</ele>
        <time>2015-05-15T16:51:06Z</time>
      </trkpt>
      <trkpt lat="45.7828" lon="5.57368">
        <ele>880.5657067436</ele>
        <time>2015-05-15T16:51:11Z</time>
      </trkpt>
      <trkpt lat="45.78287" lon="5.5737">
        <ele>880.5657067436</ele>
        <time>2015-05-15T16:51:16Z</time>
      </trkpt>
      <trkpt lat="45.78294" lon="5.5737">
        <ele>881.32247140774</ele>
        <time>2015-05-15T16:51:21Z</time>
      </trkpt>
      <trkpt lat="45.78301" lon="5.57371">
        <ele>881.32247140774</ele>
        <time>2015-05-15T16:51:26Z</time>
      </trkpt>
      <trkpt lat="45.78308" lon="5.57372">
        <ele>882.0868075251</ele>
        <time>2015-05-15T16:51:31Z</time>
      </trkpt>
      <trkpt lat="45.78313" lon="5.57374">
        <ele>882.0868075251</ele>
        <time>2015-05-15T16:51:36Z</time>
      </trkpt>
      <trkpt lat="45.78321" lon="5.57376">
        <ele>882.91416616148</ele>
        <time>2015-05-15T16:51:41Z</time>
      </trkpt>
      <trkpt lat="45.78327" lon="5.57379">
        <ele>882.91416616148</ele>
        <time>2015-05-15T16:51:46Z</time>
      </trkpt>
      <trkpt lat="45.78332" lon="5.57379">
        <ele>883.27933992743</ele>
        <time>2015-05-15T16:51:51Z</time>
      </trkpt>
      <trkpt lat="45.78336" lon="5.57378">
        <ele>883.27933992743</ele>
        <time>2015-05-15T16:51:56Z</time>
      </trkpt>
      <trkpt lat="45.78342" lon="5.57378">
        <ele>883.20142510492</ele>
        <time>2015-05-15T16:52:01Z</time>
      </trkpt>
      <trkpt lat="45.78348" lon="5.57381">
        <ele>883.20142510492</ele>
        <time>2015-05-15T16:52:06Z</time>
      </trkpt>
      <trkpt lat="45.78357" lon="5.57386">
        <ele>883.78022830966</ele>
        <time>2015-05-15T16:52:11Z</time>
      </trkpt>
      <trkpt lat="45.78363" lon="5.57391">
        <ele>883.78022830966</ele>
        <time>2015-05-15T16:52:16Z</time>
      </trkpt>
      <trkpt lat="45.78366" lon="5.57394">
        <ele>884.23156814552</ele>
        <time>2015-05-15T16:52:21Z</time>
      </trkpt>
      <trkpt lat="45.78371" lon="5.57393">
        <ele>884.23156814552</ele>
        <time>2015-05-15T16:52:26Z</time>
      </trkpt>
      <trkpt lat="45.78371" lon="5.57392">
        <ele>884.23156814552</ele>
        <time>2015-05-15T16:52:31Z</time>
      </trkpt>
      <trkpt lat="45.7837" lon="5.57397">
        <ele>884.23156814552</ele>
        <time>2015-05-15T16:52:36Z</time>
      </trkpt>
      <trkpt lat="45.78375" lon="5.57404">
        <ele>884.43452604666</ele>
        <time>2015-05-15T16:52:41Z</time>
      </trkpt>
      <trkpt lat="45.7838" lon="5.57409">
        <ele>884.43452604666</ele>
        <time>2015-05-15T16:52:46Z</time>
      </trkpt>
      <trkpt lat="45.78385" lon="5.5741">
        <ele>884.39308222685</ele>
        <time>2015-05-15T16:52:51Z</time>
      </trkpt>
      <trkpt lat="45.7839" lon="5.57411">
        <ele>884.39308222685</ele>
        <time>2015-05-15T16:52:56Z</time>
      </trkpt>
      <trkpt lat="45.78397" lon="5.57413">
        <ele>884.32780478868</ele>
        <time>2015-05-15T16:53:01Z</time>
      </trkpt>
      <trkpt lat="45.78404" lon="5.57416">
        <ele>884.32780478868</ele>
        <time>2015-05-15T16:53:06Z</time>
      </trkpt>
      <trkpt lat="45.7841" lon="5.57416">
        <ele>884.9331292846</ele>
        <time>2015-05-15T16:53:11Z</time>
      </trkpt>
      <trkpt lat="45.78417" lon="5.57419">
        <ele>884.9331292846</ele>
        <time>2015-05-15T16:53:16Z</time>
      </trkpt>
      <trkpt lat="45.78424" lon="5.57422">
        <ele>885.7265535185</ele>
        <time>2015-05-15T16:53:21Z</time>
      </trkpt>
      <trkpt lat="45.78429" lon="5.57424">
        <ele>885.7265535185</ele>
        <time>2015-05-15T16:53:26Z</time>
      </trkpt>
      <trkpt lat="45.78437" lon="5.57428">
        <ele>885.98670253942</ele>
        <time>2015-05-15T16:53:31Z</time>
      </trkpt>
      <trkpt lat="45.78443" lon="5.57431">
        <ele>885.98670253942</ele>
        <time>2015-05-15T16:53:36Z</time>
      </trkpt>
      <trkpt lat="45.78448" lon="5.57434">
        <ele>886.15636623203</ele>
        <time>2015-05-15T16:53:41Z</time>
      </trkpt>
      <trkpt lat="45.78449" lon="5.57433">
        <ele>886.15636623203</ele>
        <time>2015-05-15T16:53:46Z</time>
      </trkpt>
      <trkpt lat="45.78449" lon="5.57432">
        <ele>886.15636623203</ele>
        <time>2015-05-15T16:53:51Z</time>
      </trkpt>
      <trkpt lat="45.78455" lon="5.57433">
        <ele>886.15636623203</ele>
        <time>2015-05-15T16:53:56Z</time>
      </trkpt>
      <trkpt lat="45.78457" lon="5.57433">
        <ele>885.92552511425</ele>
        <time>2015-05-15T16:54:01Z</time>
      </trkpt>
      <trkpt lat="45.78462" lon="5.57434">
        <ele>885.92552511425</ele>
        <time>2015-05-15T16:54:06Z</time>
      </trkpt>
      <trkpt lat="45.78463" lon="5.57434">
        <ele>885.92552511425</ele>
        <time>2015-05-15T16:54:11Z</time>
      </trkpt>
      <trkpt lat="45.78464" lon="5.57435">
        <ele>885.92552511425</ele>
        <time>2015-05-15T16:54:16Z</time>
      </trkpt>
      <trkpt lat="45.78464" lon="5.57433">
        <ele>885.92552511425</ele>
        <time>2015-05-15T16:54:21Z</time>
      </trkpt>
      <trkpt lat="45.78464" lon="5.57433">
        <ele>885.92552511425</ele>
        <time>2015-05-15T16:54:26Z</time>
      </trkpt>
      <trkpt lat="45.78464" lon="5.57434">
        <ele>885.92552511425</ele>
        <time>2015-05-15T16:54:31Z</time>
      </trkpt>
      <trkpt lat="45.78462" lon="5.57432">
        <ele>885.9015635383</ele>
        <time>2015-05-15T16:54:36Z</time>
      </trkpt>
      <trkpt lat="45.78456" lon="5.57431">
        <ele>885.9015635383</ele>
        <time>2015-05-15T16:54:41Z</time>
      </trkpt>
      <trkpt lat="45.78452" lon="5.57432">
        <ele>886.32963703255</ele>
        <time>2015-05-15T16:54:46Z</time>
      </trkpt>
      <trkpt lat="45.78451" lon="5.57438">
        <ele>886.32963703255</ele>
        <time>2015-05-15T16:54:51Z</time>
      </trkpt>
      <trkpt lat="45.78454" lon="5.57442">
        <ele>886.32963703255</ele>
        <time>2015-05-15T16:54:56Z</time>
      </trkpt>
      <trkpt lat="45.78456" lon="5.57445">
        <ele>886.47009021241</ele>
        <time>2015-05-15T16:55:01Z</time>
      </trkpt>
      <trkpt lat="45.7846" lon="5.57448">
        <ele>886.47009021241</ele>
        <time>2015-05-15T16:55:06Z</time>
      </trkpt>
    </trkseg>
  </trk>
</gpx>